<?xml version='1.0' encoding='UTF-8'?><gpx version="1.1" creator="JPX - https://github.com/jenetics/jpx" xmlns="http://www.topografix.com/GPX/1/1"><trk><trkseg><trkpt lat="44.30602822863795" lon="8.475567921859769"><ele>12.5</ele><time>2026-04-17T07:18:01.386Z</time></trkpt><trkpt lat="44.30566352803701" lon="8.475265672083216"><ele>15.0</ele><time>2026-04-17T07:18:06.281Z</time></trkpt><trkpt lat="44.305766159218585" lon="8.475367358859474"><ele>15.0</ele><time>2026-04-17T07:18:09.281Z</time></trkpt><trkpt lat="44.30580463988571" lon="8.475437415711792"><ele>15.0</ele><time>2026-04-17T07:18:14.285Z</time></trkpt><trkpt lat="44.30587381603757" lon="8.475481930342003"><ele>15.0</ele><time>2026-04-17T07:18:17.285Z</time></trkpt><trkpt lat="44.305955355986455" lon="8.47547993494371"><ele>15.0</ele><time>2026-04-17T07:18:18.285Z</time></trkpt><trkpt lat="44.30608566346772" lon="8.475442459703004"><ele>15.0</ele><time>2026-04-17T07:18:19.285Z</time></trkpt><trkpt lat="44.30620045790366" lon="8.475400816207346"><ele>15.0</ele><time>2026-04-17T07:18:20.285Z</time></trkpt><trkpt lat="44.30629242625061" lon="8.475368997784612"><ele>15.0</ele><time>2026-04-17T07:18:21.005Z</time></trkpt><trkpt lat="44.30641555143164" lon="8.475333061557317"><ele>15.0</ele><time>2026-04-17T07:18:22.005Z</time></trkpt><trkpt lat="44.306532338507836" lon="8.475302247751927"><ele>15.0</ele><time>2026-04-17T07:18:23.005Z</time></trkpt><trkpt lat="44.306663265499076" lon="8.475256100223588"><ele>13.5</ele><time>2026-04-17T07:18:24.005Z</time></trkpt><trkpt lat="44.30679199324079" lon="8.475210512390543"><ele>12.0</ele><time>2026-04-17T07:18:25.004Z</time></trkpt><trkpt lat="44.30691263707549" lon="8.475159251662099"><ele>10.5</ele><time>2026-04-17T07:18:26.004Z</time></trkpt><trkpt lat="44.30703282323299" lon="8.475121520268079"><ele>9.0</ele><time>2026-04-17T07:18:27.004Z</time></trkpt><trkpt lat="44.30715059648176" lon="8.475097201382612"><ele>9.5</ele><time>2026-04-17T07:18:28.003Z</time></trkpt><trkpt lat="44.30726433350098" lon="8.475073326992657"><ele>10.0</ele><time>2026-04-17T07:18:29.003Z</time></trkpt><trkpt lat="44.30738105519284" lon="8.475039866008256"><ele>10.5</ele><time>2026-04-17T07:18:30.003Z</time></trkpt><trkpt lat="44.30748751580463" lon="8.475002703233994"><ele>11.0</ele><time>2026-04-17T07:18:31.003Z</time></trkpt><trkpt lat="44.307593287121406" lon="8.474969546391334"><ele>11.0</ele><time>2026-04-17T07:18:32.002Z</time></trkpt><trkpt lat="44.30770353379761" lon="8.474933772376676"><ele>11.0</ele><time>2026-04-17T07:18:33.002Z</time></trkpt><trkpt lat="44.307826096506865" lon="8.474900079737953"><ele>11.0</ele><time>2026-04-17T07:18:34.002Z</time></trkpt><trkpt lat="44.307963886232876" lon="8.474860006051385"><ele>11.0</ele><time>2026-04-17T07:18:35.002Z</time></trkpt><trkpt lat="44.30811250005148" lon="8.4748079166989"><ele>10.666666666666666</ele><time>2026-04-17T07:18:36.002Z</time></trkpt><trkpt lat="44.30831448401042" lon="8.474718002959888"><ele>10.333333333333334</ele><time>2026-04-17T07:18:37.002Z</time></trkpt><trkpt lat="44.3084925544713" lon="8.474647220732205"><ele>10.0</ele><time>2026-04-17T07:18:38.001Z</time></trkpt><trkpt lat="44.30865692088648" lon="8.474582603059003"><ele>11.0</ele><time>2026-04-17T07:18:39.001Z</time></trkpt><trkpt lat="44.30881011139316" lon="8.474571903679973"><ele>12.0</ele><time>2026-04-17T07:18:40.001Z</time></trkpt><trkpt lat="44.30894642086509" lon="8.474530527435682"><ele>13.0</ele><time>2026-04-17T07:18:41.001Z</time></trkpt><trkpt lat="44.30910410107483" lon="8.474460810970477"><ele>14.25</ele><time>2026-04-17T07:18:42.001Z</time></trkpt><trkpt lat="44.309262571877994" lon="8.474433035550845"><ele>15.5</ele><time>2026-04-17T07:18:43.001Z</time></trkpt><trkpt lat="44.30940006478703" lon="8.474369859861376"><ele>16.75</ele><time>2026-04-17T07:18:44.001Z</time></trkpt><trkpt lat="44.30953467588048" lon="8.474342896683165"><ele>18.0</ele><time>2026-04-17T07:18:45Z</time></trkpt><trkpt lat="44.30966665582449" lon="8.474301266848649"><ele>17.0</ele><time>2026-04-17T07:18:46Z</time></trkpt><trkpt lat="44.309774091776774" lon="8.47425718116607"><ele>16.0</ele><time>2026-04-17T07:18:47Z</time></trkpt><trkpt lat="44.30986399729788" lon="8.47422590608221"><ele>15.0</ele><time>2026-04-17T07:18:48Z</time></trkpt><trkpt lat="44.309945412213835" lon="8.474198641044337"><ele>14.0</ele><time>2026-04-17T07:18:49Z</time></trkpt><trkpt lat="44.31001381593601" lon="8.474180085434986"><ele>13.0</ele><time>2026-04-17T07:18:50Z</time></trkpt><trkpt lat="44.31007603376777" lon="8.474164628398524"><ele>12.0</ele><time>2026-04-17T07:18:51Z</time></trkpt><trkpt lat="44.310154803357875" lon="8.474140459513174"><ele>12.0</ele><time>2026-04-17T07:18:53Z</time></trkpt><trkpt lat="44.310237047148156" lon="8.474130076995294"><ele>12.0</ele><time>2026-04-17T07:20:12.998Z</time></trkpt><trkpt lat="44.31029990101152" lon="8.474106323244055"><ele>12.0</ele><time>2026-04-17T07:20:13.998Z</time></trkpt><trkpt lat="44.310416149513536" lon="8.474034580707446"><ele>12.0</ele><time>2026-04-17T07:20:15.998Z</time></trkpt><trkpt lat="44.31049436245867" lon="8.474012028605461"><ele>12.0</ele><time>2026-04-17T07:20:16.999Z</time></trkpt><trkpt lat="44.3105853986081" lon="8.473990753249014"><ele>12.0</ele><time>2026-04-17T07:20:17.999Z</time></trkpt><trkpt lat="44.31067637467217" lon="8.473954289475543"><ele>11.8</ele><time>2026-04-17T07:20:18.999Z</time></trkpt><trkpt lat="44.3107761537316" lon="8.473923733083549"><ele>11.6</ele><time>2026-04-17T07:20:19.999Z</time></trkpt><trkpt lat="44.31088193085779" lon="8.473890964655396"><ele>11.4</ele><time>2026-04-17T07:20:20.999Z</time></trkpt><trkpt lat="44.31098415644735" lon="8.473856950613959"><ele>11.200000000000001</ele><time>2026-04-17T07:20:21.999Z</time></trkpt><trkpt lat="44.31109308234546" lon="8.47381120564899"><ele>11.0</ele><time>2026-04-17T07:20:22.999Z</time></trkpt><trkpt lat="44.311194172563305" lon="8.473774049717882"><ele>11.0</ele><time>2026-04-17T07:20:23.999Z</time></trkpt><trkpt lat="44.3112846827044" lon="8.473743538120813"><ele>11.0</ele><time>2026-04-17T07:20:24.999Z</time></trkpt><trkpt lat="44.31136376387782" lon="8.473717019555524"><ele>11.0</ele><time>2026-04-17T07:20:25.999Z</time></trkpt><trkpt lat="44.31143412969495" lon="8.47369232035632"><ele>11.0</ele><time>2026-04-17T07:20:26.999Z</time></trkpt><trkpt lat="44.31153063944821" lon="8.473663660960685"><ele>11.0</ele><time>2026-04-17T07:20:28.999Z</time></trkpt><trkpt lat="44.311601257398344" lon="8.473641140731587"><ele>11.0</ele><time>2026-04-17T07:20:29.999Z</time></trkpt><trkpt lat="44.31168931923988" lon="8.473609378614732"><ele>11.0</ele><time>2026-04-17T07:20:30.999Z</time></trkpt><trkpt lat="44.311795501863834" lon="8.473555928921055"><ele>11.0</ele><time>2026-04-17T07:20:31.999Z</time></trkpt><trkpt lat="44.31191671719388" lon="8.473507180251735"><ele>11.0</ele><time>2026-04-17T07:20:32.999Z</time></trkpt><trkpt lat="44.31203656100552" lon="8.473468363536572"><ele>11.0</ele><time>2026-04-17T07:20:33.999Z</time></trkpt><trkpt lat="44.31215417558053" lon="8.473428038237593"><ele>11.25</ele><time>2026-04-17T07:20:34.999Z</time></trkpt><trkpt lat="44.312272296162725" lon="8.473385584127922"><ele>11.5</ele><time>2026-04-17T07:20:35.999Z</time></trkpt><trkpt lat="44.312392242751066" lon="8.473346016030165"><ele>11.75</ele><time>2026-04-17T07:20:36.999Z</time></trkpt><trkpt lat="44.31251587557763" lon="8.473301952216497"><ele>12.0</ele><time>2026-04-17T07:20:37.999Z</time></trkpt><trkpt lat="44.31263852564481" lon="8.473245555207976"><ele>12.0</ele><time>2026-04-17T07:20:38.999Z</time></trkpt><trkpt lat="44.31276200548339" lon="8.473182104409311"><ele>12.0</ele><time>2026-04-17T07:20:39.999Z</time></trkpt><trkpt lat="44.31289393720424" lon="8.473106632133621"><ele>12.0</ele><time>2026-04-17T07:20:40.999Z</time></trkpt><trkpt lat="44.31304791105303" lon="8.473016985044156"><ele>12.0</ele><time>2026-04-17T07:20:41.999Z</time></trkpt><trkpt lat="44.3131945050544" lon="8.472932169948736"><ele>13.5</ele><time>2026-04-17T07:20:42.999Z</time></trkpt><trkpt lat="44.31334172699173" lon="8.472849810663476"><ele>15.0</ele><time>2026-04-17T07:20:43.999Z</time></trkpt><trkpt lat="44.31348188625713" lon="8.472770431872073"><ele>16.5</ele><time>2026-04-17T07:20:44.999Z</time></trkpt><trkpt lat="44.31360889049284" lon="8.472690249317054"><ele>18.0</ele><time>2026-04-17T07:20:45.999Z</time></trkpt><trkpt lat="44.31373650007562" lon="8.472641153490809"><ele>18.0</ele><time>2026-04-17T07:20:46.999Z</time></trkpt><trkpt lat="44.313846217583965" lon="8.47255677812191"><ele>18.0</ele><time>2026-04-17T07:20:47.999Z</time></trkpt><trkpt lat="44.313959385320416" lon="8.472498108384697"><ele>18.0</ele><time>2026-04-17T07:20:48.999Z</time></trkpt><trkpt lat="44.314073071313025" lon="8.472435019827033"><ele>18.0</ele><time>2026-04-17T07:20:49.999Z</time></trkpt><trkpt lat="44.314184203822364" lon="8.472362359302695"><ele>17.0</ele><time>2026-04-17T07:20:50.999Z</time></trkpt><trkpt lat="44.314300697614925" lon="8.47229515518612"><ele>16.0</ele><time>2026-04-17T07:20:51.999Z</time></trkpt><trkpt lat="44.31443033213874" lon="8.47222405444904"><ele>15.0</ele><time>2026-04-17T07:20:52.999Z</time></trkpt><trkpt lat="44.31457894647022" lon="8.472142183334977"><ele>14.0</ele><time>2026-04-17T07:20:53.999Z</time></trkpt><trkpt lat="44.314725902587675" lon="8.472055705162877"><ele>14.75</ele><time>2026-04-17T07:20:54.999Z</time></trkpt><trkpt lat="44.31486704753515" lon="8.471975769003835"><ele>15.5</ele><time>2026-04-17T07:20:55.999Z</time></trkpt><trkpt lat="44.31500326928288" lon="8.471890380971187"><ele>16.25</ele><time>2026-04-17T07:20:56.999Z</time></trkpt><trkpt lat="44.31512409186697" lon="8.471805087076191"><ele>17.0</ele><time>2026-04-17T07:20:57.999Z</time></trkpt><trkpt lat="44.31523643579084" lon="8.471725992389747"><ele>17.0</ele><time>2026-04-17T07:20:58.999Z</time></trkpt><trkpt lat="44.3153548412114" lon="8.471650133205848"><ele>17.0</ele><time>2026-04-17T07:20:59.999Z</time></trkpt><trkpt lat="44.315473194352194" lon="8.47157843028212"><ele>17.0</ele><time>2026-04-17T07:21:00.999Z</time></trkpt><trkpt lat="44.31560094273009" lon="8.471497602410546"><ele>17.0</ele><time>2026-04-17T07:21:01.999Z</time></trkpt><trkpt lat="44.31574492264921" lon="8.471420590216846"><ele>17.0</ele><time>2026-04-17T07:21:02.999Z</time></trkpt><trkpt lat="44.31588374096696" lon="8.47131512901009"><ele>17.0</ele><time>2026-04-17T07:21:03.999Z</time></trkpt><trkpt lat="44.31602334099264" lon="8.471180129202146"><ele>17.0</ele><time>2026-04-17T07:21:04.999Z</time></trkpt><trkpt lat="44.316188144754356" lon="8.471048281940002"><ele>18.0</ele><time>2026-04-17T07:21:05.999Z</time></trkpt><trkpt lat="44.31635048119433" lon="8.47091714343121"><ele>19.0</ele><time>2026-04-17T07:21:06.999Z</time></trkpt><trkpt lat="44.31648293631353" lon="8.470797542614722"><ele>20.0</ele><time>2026-04-17T07:21:07.999Z</time></trkpt><trkpt lat="44.31661261082367" lon="8.470711647559273"><ele>20.0</ele><time>2026-04-17T07:21:08.999Z</time></trkpt><trkpt lat="44.316710722089965" lon="8.470630353386461"><ele>20.0</ele><time>2026-04-17T07:21:09.999Z</time></trkpt><trkpt lat="44.31680909100286" lon="8.470526002231878"><ele>20.0</ele><time>2026-04-17T07:21:10.999Z</time></trkpt><trkpt lat="44.31692265148395" lon="8.470446767857526"><ele>20.0</ele><time>2026-04-17T07:21:11.999Z</time></trkpt><trkpt lat="44.317042063220505" lon="8.470337712021166"><ele>19.5</ele><time>2026-04-17T07:21:12.999Z</time></trkpt><trkpt lat="44.31716350651565" lon="8.470220811301532"><ele>19.0</ele><time>2026-04-17T07:21:13.999Z</time></trkpt><trkpt lat="44.31729258615264" lon="8.470124070116546"><ele>18.5</ele><time>2026-04-17T07:21:14.999Z</time></trkpt><trkpt lat="44.317411738098464" lon="8.470023826867449"><ele>18.0</ele><time>2026-04-17T07:21:15.999Z</time></trkpt><trkpt lat="44.31752750850607" lon="8.469924048270974"><ele>18.0</ele><time>2026-04-17T07:21:16.999Z</time></trkpt><trkpt lat="44.31765334971198" lon="8.469819510769652"><ele>18.0</ele><time>2026-04-17T07:21:17.999Z</time></trkpt><trkpt lat="44.31778096401794" lon="8.469719570519604"><ele>18.0</ele><time>2026-04-17T07:21:18.999Z</time></trkpt><trkpt lat="44.31790340422868" lon="8.469615041931899"><ele>18.0</ele><time>2026-04-17T07:21:19.999Z</time></trkpt><trkpt lat="44.318028741337066" lon="8.469513528020753"><ele>17.75</ele><time>2026-04-17T07:21:20.999Z</time></trkpt><trkpt lat="44.318155088652894" lon="8.469409583125264"><ele>17.5</ele><time>2026-04-17T07:21:21.999Z</time></trkpt><trkpt lat="44.31827827092414" lon="8.469310357453024"><ele>17.25</ele><time>2026-04-17T07:21:22.999Z</time></trkpt><trkpt lat="44.31839898442953" lon="8.469209521750734"><ele>17.0</ele><time>2026-04-17T07:21:23.999Z</time></trkpt><trkpt lat="44.31851601297394" lon="8.469107496784245"><ele>17.0</ele><time>2026-04-17T07:21:24.999Z</time></trkpt><trkpt lat="44.31863748747472" lon="8.469001806976348"><ele>17.0</ele><time>2026-04-17T07:21:25.999Z</time></trkpt><trkpt lat="44.318766621634836" lon="8.468898902902597"><ele>17.0</ele><time>2026-04-17T07:21:26.999Z</time></trkpt><trkpt lat="44.31889866079388" lon="8.46879017383364"><ele>17.0</ele><time>2026-04-17T07:21:27.999Z</time></trkpt><trkpt lat="44.31903186818783" lon="8.468678104755837"><ele>17.333333333333336</ele><time>2026-04-17T07:21:28.999Z</time></trkpt><trkpt lat="44.31916465653647" lon="8.468560754177709"><ele>17.666666666666668</ele><time>2026-04-17T07:21:29.999Z</time></trkpt><trkpt lat="44.319302012680886" lon="8.468443677695433"><ele>18.0</ele><time>2026-04-17T07:21:30.999Z</time></trkpt><trkpt lat="44.31943666519671" lon="8.468334003785229"><ele>18.0</ele><time>2026-04-17T07:21:31.999Z</time></trkpt><trkpt lat="44.31957085459839" lon="8.468219071042315"><ele>18.0</ele><time>2026-04-17T07:21:32.999Z</time></trkpt><trkpt lat="44.31969431370083" lon="8.468116922201368"><ele>18.0</ele><time>2026-04-17T07:21:33.999Z</time></trkpt><trkpt lat="44.31981343662949" lon="8.46801983933744"><ele>18.0</ele><time>2026-04-17T07:21:34.999Z</time></trkpt><trkpt lat="44.31993387936825" lon="8.467915099969318"><ele>18.75</ele><time>2026-04-17T07:21:35.999Z</time></trkpt><trkpt lat="44.32005235759994" lon="8.467813648136188"><ele>19.5</ele><time>2026-04-17T07:21:36.999Z</time></trkpt><trkpt lat="44.32016923490532" lon="8.467715741160642"><ele>20.25</ele><time>2026-04-17T07:21:37.999Z</time></trkpt><trkpt lat="44.320273114948314" lon="8.467623107679854"><ele>21.0</ele><time>2026-04-17T07:21:38.998Z</time></trkpt><trkpt lat="44.32037239482386" lon="8.46753649212888"><ele>21.0</ele><time>2026-04-17T07:21:39.998Z</time></trkpt><trkpt lat="44.320464558318875" lon="8.46745598227115"><ele>21.0</ele><time>2026-04-17T07:21:40.998Z</time></trkpt><trkpt lat="44.32054307289436" lon="8.467378845634245"><ele>21.0</ele><time>2026-04-17T07:21:41.998Z</time></trkpt><trkpt lat="44.32061688798239" lon="8.467321735874659"><ele>21.0</ele><time>2026-04-17T07:21:42.998Z</time></trkpt><trkpt lat="44.320683535158665" lon="8.467267665428041"><ele>21.0</ele><time>2026-04-17T07:21:43.998Z</time></trkpt><trkpt lat="44.32073237866567" lon="8.467199966708884"><ele>21.0</ele><time>2026-04-17T07:21:44.998Z</time></trkpt><trkpt lat="44.32073603836191" lon="8.46699852439702"><ele>21.8</ele><time>2026-04-17T07:21:46.998Z</time></trkpt><trkpt lat="44.32070437330892" lon="8.466866479428097"><ele>22.6</ele><time>2026-04-17T07:21:47.998Z</time></trkpt><trkpt lat="44.3206768817386" lon="8.466703090351238"><ele>23.4</ele><time>2026-04-17T07:21:48.998Z</time></trkpt><trkpt lat="44.32067993448782" lon="8.466540277821043"><ele>24.2</ele><time>2026-04-17T07:21:49.998Z</time></trkpt><trkpt lat="44.32069750307961" lon="8.466403553274906"><ele>25.0</ele><time>2026-04-17T07:21:50.998Z</time></trkpt><trkpt lat="44.32071466857947" lon="8.466260594384847"><ele>25.0</ele><time>2026-04-17T07:21:51.998Z</time></trkpt><trkpt lat="44.320733887871796" lon="8.466126448121392"><ele>25.0</ele><time>2026-04-17T07:21:52.998Z</time></trkpt><trkpt lat="44.320754311404954" lon="8.46599901746781"><ele>25.0</ele><time>2026-04-17T07:21:53.998Z</time></trkpt><trkpt lat="44.320776666541846" lon="8.4658527950738"><ele>25.0</ele><time>2026-04-17T07:21:54.998Z</time></trkpt><trkpt lat="44.32079612757917" lon="8.46566660508753"><ele>25.0</ele><time>2026-04-17T07:21:55.998Z</time></trkpt><trkpt lat="44.32080904036061" lon="8.46546827357954"><ele>24.75</ele><time>2026-04-17T07:21:56.998Z</time></trkpt><trkpt lat="44.32082809517359" lon="8.46528857320799"><ele>24.5</ele><time>2026-04-17T07:21:57.998Z</time></trkpt><trkpt lat="44.320850758132984" lon="8.46513004580559"><ele>24.25</ele><time>2026-04-17T07:21:58.998Z</time></trkpt><trkpt lat="44.32087184427828" lon="8.46498542605509"><ele>24.0</ele><time>2026-04-17T07:21:59.998Z</time></trkpt><trkpt lat="44.320895381797754" lon="8.464824764007952"><ele>24.0</ele><time>2026-04-17T07:22:00.998Z</time></trkpt><trkpt lat="44.32091614298661" lon="8.464670987214499"><ele>24.0</ele><time>2026-04-17T07:22:01.998Z</time></trkpt><trkpt lat="44.3209335576637" lon="8.464525118003749"><ele>24.0</ele><time>2026-04-17T07:22:02.998Z</time></trkpt><trkpt lat="44.32094868576426" lon="8.464379848777536"><ele>24.0</ele><time>2026-04-17T07:22:03.998Z</time></trkpt><trkpt lat="44.32096559153898" lon="8.464237595223024"><ele>24.0</ele><time>2026-04-17T07:22:04.998Z</time></trkpt><trkpt lat="44.320983081558964" lon="8.464100960495122"><ele>24.75</ele><time>2026-04-17T07:22:05.998Z</time></trkpt><trkpt lat="44.321003931813394" lon="8.463946563690763"><ele>25.5</ele><time>2026-04-17T07:22:06.998Z</time></trkpt><trkpt lat="44.32102146288503" lon="8.46380191369069"><ele>26.25</ele><time>2026-04-17T07:22:07.998Z</time></trkpt><trkpt lat="44.321041457954614" lon="8.463630627918953"><ele>27.0</ele><time>2026-04-17T07:22:08.998Z</time></trkpt><trkpt lat="44.32106295201917" lon="8.463453527257755"><ele>29.0</ele><time>2026-04-17T07:22:09.998Z</time></trkpt><trkpt lat="44.32108656197866" lon="8.463274730972403"><ele>31.0</ele><time>2026-04-17T07:22:10.998Z</time></trkpt><trkpt lat="44.32110692825025" lon="8.46310097308396"><ele>33.0</ele><time>2026-04-17T07:22:11.998Z</time></trkpt><trkpt lat="44.32112760526233" lon="8.46292643298028"><ele>35.0</ele><time>2026-04-17T07:22:12.998Z</time></trkpt><trkpt lat="44.32114528313227" lon="8.462759355731677"><ele>35.5</ele><time>2026-04-17T07:22:13.998Z</time></trkpt><trkpt lat="44.32116347018406" lon="8.462596218105965"><ele>36.0</ele><time>2026-04-17T07:22:14.998Z</time></trkpt><trkpt lat="44.32118278799302" lon="8.462428514628531"><ele>36.5</ele><time>2026-04-17T07:22:15.998Z</time></trkpt><trkpt lat="44.321206972884724" lon="8.462243274972746"><ele>37.0</ele><time>2026-04-17T07:22:16.998Z</time></trkpt><trkpt lat="44.32127217723781" lon="8.462094320921787"><ele>38.5</ele><time>2026-04-17T07:22:17.998Z</time></trkpt><trkpt lat="44.32135301302455" lon="8.4619899838752"><ele>40.0</ele><time>2026-04-17T07:22:18.998Z</time></trkpt><trkpt lat="44.32144928650662" lon="8.461899994381357"><ele>41.5</ele><time>2026-04-17T07:22:19.998Z</time></trkpt><trkpt lat="44.3215670356978" lon="8.461808267603073"><ele>43.0</ele><time>2026-04-17T07:22:20.998Z</time></trkpt><trkpt lat="44.32169547295426" lon="8.461663397820372"><ele>43.0</ele><time>2026-04-17T07:22:21.998Z</time></trkpt><trkpt lat="44.32182858675309" lon="8.46156192118269"><ele>43.0</ele><time>2026-04-17T07:22:22.999Z</time></trkpt><trkpt lat="44.32195502638659" lon="8.461469560220161"><ele>43.0</ele><time>2026-04-17T07:22:23.999Z</time></trkpt><trkpt lat="44.3220844668203" lon="8.46137434955843"><ele>43.0</ele><time>2026-04-17T07:22:24.999Z</time></trkpt><trkpt lat="44.32222743460981" lon="8.461295424498438"><ele>42.0</ele><time>2026-04-17T07:22:25.999Z</time></trkpt><trkpt lat="44.32235800748149" lon="8.461195504643953"><ele>41.0</ele><time>2026-04-17T07:22:26.999Z</time></trkpt><trkpt lat="44.322469778856686" lon="8.461108342664291"><ele>40.0</ele><time>2026-04-17T07:22:27.999Z</time></trkpt><trkpt lat="44.322571053434785" lon="8.46102342314552"><ele>39.0</ele><time>2026-04-17T07:22:28.999Z</time></trkpt><trkpt lat="44.32266378752008" lon="8.460917546407849"><ele>39.0</ele><time>2026-04-17T07:22:29.999Z</time></trkpt><trkpt lat="44.322735322327624" lon="8.460765055952225"><ele>39.0</ele><time>2026-04-17T07:22:30.999Z</time></trkpt><trkpt lat="44.32270625135158" lon="8.460584226558447"><ele>39.0</ele><time>2026-04-17T07:22:31.999Z</time></trkpt><trkpt lat="44.322671712047246" lon="8.460428204267926"><ele>39.0</ele><time>2026-04-17T07:22:32.999Z</time></trkpt><trkpt lat="44.322617378050246" lon="8.460277310373147"><ele>39.75</ele><time>2026-04-17T07:22:33.999Z</time></trkpt><trkpt lat="44.32258064715272" lon="8.460127827679853"><ele>40.5</ele><time>2026-04-17T07:22:34.999Z</time></trkpt><trkpt lat="44.322562611120425" lon="8.459962327332526"><ele>41.25</ele><time>2026-04-17T07:22:35.999Z</time></trkpt><trkpt lat="44.322584973894855" lon="8.459808972828192"><ele>42.0</ele><time>2026-04-17T07:22:36.999Z</time></trkpt><trkpt lat="44.32264695687109" lon="8.459667253465499"><ele>44.2</ele><time>2026-04-17T07:22:37.999Z</time></trkpt><trkpt lat="44.32271321225146" lon="8.459506747774972"><ele>46.400000000000006</ele><time>2026-04-17T07:22:38.999Z</time></trkpt><trkpt lat="44.32275353649789" lon="8.459416269801423"><ele>48.599999999999994</ele><time>2026-04-17T07:22:39.999Z</time></trkpt><trkpt lat="44.32282272931829" lon="8.459283179243485"><ele>50.8</ele><time>2026-04-17T07:22:40.999Z</time></trkpt><trkpt lat="44.322912532487614" lon="8.459177307174967"><ele>53.0</ele><time>2026-04-17T07:22:41.999Z</time></trkpt><trkpt lat="44.32301513708933" lon="8.459112264989967"><ele>52.333333333333336</ele><time>2026-04-17T07:22:42.999Z</time></trkpt><trkpt lat="44.32313755468585" lon="8.459092866783664"><ele>51.66666666666667</ele><time>2026-04-17T07:22:43.999Z</time></trkpt><trkpt lat="44.32329893265454" lon="8.459076559291322"><ele>51.0</ele><time>2026-04-17T07:22:44.999Z</time></trkpt><trkpt lat="44.32346856110507" lon="8.45905778054747"><ele>51.0</ele><time>2026-04-17T07:22:45.999Z</time></trkpt><trkpt lat="44.3236452756798" lon="8.459038217340824"><ele>51.0</ele><time>2026-04-17T07:22:46.999Z</time></trkpt><trkpt lat="44.323794509961644" lon="8.459021696308337"><ele>51.0</ele><time>2026-04-17T07:22:47.999Z</time></trkpt><trkpt lat="44.32393834504425" lon="8.459004855251505"><ele>53.25</ele><time>2026-04-17T07:22:48.999Z</time></trkpt><trkpt lat="44.3240661041023" lon="8.458989392197601"><ele>55.5</ele><time>2026-04-17T07:22:49.999Z</time></trkpt><trkpt lat="44.324181396115726" lon="8.458975311320183"><ele>57.75</ele><time>2026-04-17T07:22:50.999Z</time></trkpt><trkpt lat="44.324286052624686" lon="8.458961366986419"><ele>60.0</ele><time>2026-04-17T07:22:51.999Z</time></trkpt><trkpt lat="44.324407293626685" lon="8.458930008105108"><ele>60.0</ele><time>2026-04-17T07:22:52.999Z</time></trkpt><trkpt lat="44.32451766611048" lon="8.458819384470308"><ele>60.0</ele><time>2026-04-17T07:22:53.999Z</time></trkpt><trkpt lat="44.32460676222549" lon="8.458671288716193"><ele>60.0</ele><time>2026-04-17T07:22:54.999Z</time></trkpt><trkpt lat="44.32466589908539" lon="8.458489514809802"><ele>60.0</ele><time>2026-04-17T07:22:55.999Z</time></trkpt><trkpt lat="44.324711110107025" lon="8.45829826832793"><ele>62.75</ele><time>2026-04-17T07:22:56.999Z</time></trkpt><trkpt lat="44.32476183926204" lon="8.458102099432736"><ele>65.5</ele><time>2026-04-17T07:22:57.999Z</time></trkpt><trkpt lat="44.32481135796449" lon="8.457938797919864"><ele>68.25</ele><time>2026-04-17T07:22:58.999Z</time></trkpt><trkpt lat="44.32484887421605" lon="8.45778962385186"><ele>71.0</ele><time>2026-04-17T07:22:59.999Z</time></trkpt><trkpt lat="44.32489903721395" lon="8.457643753736729"><ele>71.0</ele><time>2026-04-17T07:23:00.999Z</time></trkpt><trkpt lat="44.32498777575117" lon="8.457491762350822"><ele>71.0</ele><time>2026-04-17T07:23:01.999Z</time></trkpt><trkpt lat="44.32508979691089" lon="8.45735321544752"><ele>71.0</ele><time>2026-04-17T07:23:02.999Z</time></trkpt><trkpt lat="44.325167803272066" lon="8.457187405794208"><ele>71.0</ele><time>2026-04-17T07:23:03.999Z</time></trkpt><trkpt lat="44.32523414856992" lon="8.457025440666733"><ele>73.25</ele><time>2026-04-17T07:23:04.999Z</time></trkpt><trkpt lat="44.32526346365387" lon="8.456847113889006"><ele>75.5</ele><time>2026-04-17T07:23:05.999Z</time></trkpt><trkpt lat="44.3252802475597" lon="8.456654727419782"><ele>77.75</ele><time>2026-04-17T07:23:06.999Z</time></trkpt><trkpt lat="44.32529372914424" lon="8.456465000205187"><ele>80.0</ele><time>2026-04-17T07:23:07.999Z</time></trkpt><trkpt lat="44.32532820041038" lon="8.456293318949568"><ele>82.75</ele><time>2026-04-17T07:23:08.999Z</time></trkpt><trkpt lat="44.32534630583317" lon="8.456101446372221"><ele>85.5</ele><time>2026-04-17T07:23:09.999Z</time></trkpt><trkpt lat="44.3254044293502" lon="8.455926206464024"><ele>88.25</ele><time>2026-04-17T07:23:10.999Z</time></trkpt><trkpt lat="44.325478488651946" lon="8.455744511570002"><ele>91.0</ele><time>2026-04-17T07:23:11.999Z</time></trkpt><trkpt lat="44.325547445195404" lon="8.455540153576854"><ele>89.0</ele><time>2026-04-17T07:23:12.999Z</time></trkpt><trkpt lat="44.325624691683416" lon="8.455360833945088"><ele>87.0</ele><time>2026-04-17T07:23:13.999Z</time></trkpt><trkpt lat="44.325705327874516" lon="8.45520937467946"><ele>85.0</ele><time>2026-04-17T07:23:14.999Z</time></trkpt><trkpt lat="44.3257698777002" lon="8.455056813047992"><ele>83.0</ele><time>2026-04-17T07:23:15.999Z</time></trkpt><trkpt lat="44.32583354259346" lon="8.454906702139201"><ele>83.0</ele><time>2026-04-17T07:23:16.999Z</time></trkpt><trkpt lat="44.32588419511479" lon="8.4547482264742"><ele>83.0</ele><time>2026-04-17T07:23:17.999Z</time></trkpt><trkpt lat="44.32594820973555" lon="8.45460287546133"><ele>83.0</ele><time>2026-04-17T07:23:18.999Z</time></trkpt><trkpt lat="44.32603308368048" lon="8.4544118206862"><ele>83.0</ele><time>2026-04-17T07:23:19.999Z</time></trkpt><trkpt lat="44.32613175078054" lon="8.45419278806307"><ele>84.0</ele><time>2026-04-17T07:23:20.999Z</time></trkpt><trkpt lat="44.32617847717807" lon="8.453939549314248"><ele>85.0</ele><time>2026-04-17T07:23:21.999Z</time></trkpt><trkpt lat="44.32621713316756" lon="8.45371248950456"><ele>86.0</ele><time>2026-04-17T07:23:22.999Z</time></trkpt><trkpt lat="44.32624386081168" lon="8.453505183717756"><ele>89.0</ele><time>2026-04-17T07:23:23.999Z</time></trkpt><trkpt lat="44.32626870012937" lon="8.45329593315363"><ele>92.0</ele><time>2026-04-17T07:23:24.999Z</time></trkpt><trkpt lat="44.3262972697951" lon="8.453079576762683"><ele>95.0</ele><time>2026-04-17T07:23:25.999Z</time></trkpt><trkpt lat="44.326323096975685" lon="8.452867919267131"><ele>94.33333333333334</ele><time>2026-04-17T07:23:26.999Z</time></trkpt><trkpt lat="44.32635591886042" lon="8.452660330549223"><ele>93.66666666666667</ele><time>2026-04-17T07:23:27.999Z</time></trkpt><trkpt lat="44.3263859856056" lon="8.452448005809714"><ele>93.0</ele><time>2026-04-17T07:23:28.999Z</time></trkpt><trkpt lat="44.32641244941234" lon="8.45223987035737"><ele>92.25</ele><time>2026-04-17T07:23:29.999Z</time></trkpt><trkpt lat="44.32643701494938" lon="8.452033497291936"><ele>91.5</ele><time>2026-04-17T07:23:30.999Z</time></trkpt><trkpt lat="44.32646599025489" lon="8.451837611019592"><ele>90.75</ele><time>2026-04-17T07:23:31.999Z</time></trkpt><trkpt lat="44.32648955275312" lon="8.451648404259318"><ele>90.0</ele><time>2026-04-17T07:23:32.999Z</time></trkpt><trkpt lat="44.326512936525454" lon="8.451464087026062"><ele>90.5</ele><time>2026-04-17T07:23:33.999Z</time></trkpt><trkpt lat="44.32654081504089" lon="8.4512744099004"><ele>91.0</ele><time>2026-04-17T07:23:34.999Z</time></trkpt><trkpt lat="44.32656684694691" lon="8.451091242282203"><ele>91.5</ele><time>2026-04-17T07:23:35.998Z</time></trkpt><trkpt lat="44.32658511476839" lon="8.450918034995798"><ele>92.0</ele><time>2026-04-17T07:23:36.998Z</time></trkpt><trkpt lat="44.32658807156053" lon="8.450732342223363"><ele>92.0</ele><time>2026-04-17T07:23:37.998Z</time></trkpt><trkpt lat="44.326565410441916" lon="8.45053718421656"><ele>92.0</ele><time>2026-04-17T07:23:38.998Z</time></trkpt><trkpt lat="44.32651085053428" lon="8.450345477276514"><ele>92.0</ele><time>2026-04-17T07:23:39.998Z</time></trkpt><trkpt lat="44.32643501881144" lon="8.450165724758486"><ele>92.0</ele><time>2026-04-17T07:23:40.998Z</time></trkpt><trkpt lat="44.32637056693081" lon="8.449992486225867"><ele>93.5</ele><time>2026-04-17T07:23:41.998Z</time></trkpt><trkpt lat="44.326340956686025" lon="8.449808623260411"><ele>95.0</ele><time>2026-04-17T07:23:42.998Z</time></trkpt><trkpt lat="44.32634275018223" lon="8.449640159591715"><ele>96.5</ele><time>2026-04-17T07:23:43.998Z</time></trkpt><trkpt lat="44.32640205097187" lon="8.449487259440772"><ele>98.0</ele><time>2026-04-17T07:23:44.998Z</time></trkpt><trkpt lat="44.326470636349995" lon="8.449309131346414"><ele>98.0</ele><time>2026-04-17T07:23:45.998Z</time></trkpt><trkpt lat="44.326539148420814" lon="8.449116127488228"><ele>98.0</ele><time>2026-04-17T07:23:46.998Z</time></trkpt><trkpt lat="44.326612488011854" lon="8.44892547740501"><ele>98.0</ele><time>2026-04-17T07:23:47.998Z</time></trkpt><trkpt lat="44.32669475651425" lon="8.448743059579565"><ele>98.0</ele><time>2026-04-17T07:23:48.998Z</time></trkpt><trkpt lat="44.32676735150358" lon="8.448559890640757"><ele>98.0</ele><time>2026-04-17T07:23:49.998Z</time></trkpt><trkpt lat="44.32683333392629" lon="8.448392602180425"><ele>98.0</ele><time>2026-04-17T07:23:50.998Z</time></trkpt><trkpt lat="44.32688086730088" lon="8.448216425472017"><ele>98.0</ele><time>2026-04-17T07:23:51.998Z</time></trkpt><trkpt lat="44.32694144743126" lon="8.448053335113052"><ele>99.5</ele><time>2026-04-17T07:23:52.998Z</time></trkpt><trkpt lat="44.32698443584213" lon="8.44787432096406"><ele>101.0</ele><time>2026-04-17T07:23:53.998Z</time></trkpt><trkpt lat="44.32700770098968" lon="8.447676686918689"><ele>102.5</ele><time>2026-04-17T07:23:54.998Z</time></trkpt><trkpt lat="44.327012457506804" lon="8.447471010660419"><ele>104.0</ele><time>2026-04-17T07:23:55.998Z</time></trkpt><trkpt lat="44.32699344125608" lon="8.447256018678473"><ele>105.5</ele><time>2026-04-17T07:23:56.998Z</time></trkpt><trkpt lat="44.32699343859246" lon="8.4470383649046"><ele>107.0</ele><time>2026-04-17T07:23:57.998Z</time></trkpt><trkpt lat="44.3269827237097" lon="8.446837747741945"><ele>108.5</ele><time>2026-04-17T07:23:58.998Z</time></trkpt><trkpt lat="44.326976404913346" lon="8.446652177566252"><ele>110.0</ele><time>2026-04-17T07:23:59.998Z</time></trkpt><trkpt lat="44.326977242763824" lon="8.446468236162046"><ele>112.25</ele><time>2026-04-17T07:24:00.998Z</time></trkpt><trkpt lat="44.326991592684735" lon="8.446285287511365"><ele>114.5</ele><time>2026-04-17T07:24:01.998Z</time></trkpt><trkpt lat="44.3270244175032" lon="8.446090655007701"><ele>116.75</ele><time>2026-04-17T07:24:02.998Z</time></trkpt><trkpt lat="44.32708300155001" lon="8.44590037403009"><ele>119.0</ele><time>2026-04-17T07:24:03.998Z</time></trkpt><trkpt lat="44.32714434236101" lon="8.445702727512531"><ele>119.0</ele><time>2026-04-17T07:24:04.998Z</time></trkpt><trkpt lat="44.32718859674801" lon="8.445508682399396"><ele>119.0</ele><time>2026-04-17T07:24:05.998Z</time></trkpt><trkpt lat="44.32725969351742" lon="8.445341466891575"><ele>119.0</ele><time>2026-04-17T07:24:06.998Z</time></trkpt><trkpt lat="44.32731448275886" lon="8.445172831377036"><ele>119.0</ele><time>2026-04-17T07:24:07.998Z</time></trkpt><trkpt lat="44.327366484357384" lon="8.445010130247399"><ele>118.5</ele><time>2026-04-17T07:24:08.998Z</time></trkpt><trkpt lat="44.3274098987787" lon="8.444856715807669"><ele>118.0</ele><time>2026-04-17T07:24:09.998Z</time></trkpt><trkpt lat="44.32742537376145" lon="8.44469260591351"><ele>117.5</ele><time>2026-04-17T07:24:10.998Z</time></trkpt><trkpt lat="44.32738234391622" lon="8.444518308037996"><ele>117.0</ele><time>2026-04-17T07:24:11.998Z</time></trkpt><trkpt lat="44.327343460218664" lon="8.444340845364744"><ele>117.75</ele><time>2026-04-17T07:24:12.998Z</time></trkpt><trkpt lat="44.32730305965504" lon="8.444166842418136"><ele>118.5</ele><time>2026-04-17T07:24:13.998Z</time></trkpt><trkpt lat="44.327268491257435" lon="8.444000657009086"><ele>119.25</ele><time>2026-04-17T07:24:14.998Z</time></trkpt><trkpt lat="44.3272465335877" lon="8.443851125769537"><ele>120.0</ele><time>2026-04-17T07:24:15.998Z</time></trkpt><trkpt lat="44.327218471971996" lon="8.443707409269706"><ele>120.0</ele><time>2026-04-17T07:24:16.998Z</time></trkpt><trkpt lat="44.32717290372227" lon="8.443562399322063"><ele>120.0</ele><time>2026-04-17T07:24:17.998Z</time></trkpt><trkpt lat="44.32711293027019" lon="8.443424645585978"><ele>120.0</ele><time>2026-04-17T07:24:18.998Z</time></trkpt><trkpt lat="44.32701818148892" lon="8.443316477686462"><ele>120.0</ele><time>2026-04-17T07:24:19.998Z</time></trkpt><trkpt lat="44.32690720610434" lon="8.443246809711196"><ele>120.0</ele><time>2026-04-17T07:24:20.998Z</time></trkpt><trkpt lat="44.32678585649475" lon="8.443210039995089"><ele>120.0</ele><time>2026-04-17T07:24:21.998Z</time></trkpt><trkpt lat="44.32666850964596" lon="8.443171195880042"><ele>120.0</ele><time>2026-04-17T07:24:22.998Z</time></trkpt><trkpt lat="44.326578826325054" lon="8.443089214411774"><ele>120.0</ele><time>2026-04-17T07:24:23.998Z</time></trkpt><trkpt lat="44.32652446472948" lon="8.44296356243204"><ele>121.25</ele><time>2026-04-17T07:24:24.998Z</time></trkpt><trkpt lat="44.32650100567068" lon="8.442817638096294"><ele>122.5</ele><time>2026-04-17T07:24:25.998Z</time></trkpt><trkpt lat="44.32655142532564" lon="8.442674314424034"><ele>123.75</ele><time>2026-04-17T07:24:26.998Z</time></trkpt><trkpt lat="44.32660275496708" lon="8.442527090347205"><ele>125.0</ele><time>2026-04-17T07:24:27.998Z</time></trkpt><trkpt lat="44.32664237995728" lon="8.442346568234399"><ele>125.0</ele><time>2026-04-17T07:24:28.999Z</time></trkpt><trkpt lat="44.32670599704306" lon="8.44211904324358"><ele>125.0</ele><time>2026-04-17T07:24:29.999Z</time></trkpt><trkpt lat="44.32669575281727" lon="8.441908837907434"><ele>125.0</ele><time>2026-04-17T07:24:30.999Z</time></trkpt><trkpt lat="44.32665337427825" lon="8.441699585368088"><ele>125.0</ele><time>2026-04-17T07:24:31.999Z</time></trkpt><trkpt lat="44.32658447933105" lon="8.441488064502622"><ele>125.0</ele><time>2026-04-17T07:24:32.999Z</time></trkpt><trkpt lat="44.32649920005881" lon="8.441280302164525"><ele>125.0</ele><time>2026-04-17T07:24:33.999Z</time></trkpt><trkpt lat="44.32641066387777" lon="8.441068582502947"><ele>128.66666666666666</ele><time>2026-04-17T07:24:34.999Z</time></trkpt><trkpt lat="44.32634623593622" lon="8.440839700474873"><ele>132.33333333333334</ele><time>2026-04-17T07:24:35.999Z</time></trkpt><trkpt lat="44.32627581588709" lon="8.440635698419964"><ele>136.0</ele><time>2026-04-17T07:24:36.999Z</time></trkpt><trkpt lat="44.3261997071275" lon="8.440451446625707"><ele>136.0</ele><time>2026-04-17T07:24:37.999Z</time></trkpt><trkpt lat="44.32615017359982" lon="8.440258082782497"><ele>136.0</ele><time>2026-04-17T07:24:38.999Z</time></trkpt><trkpt lat="44.32609922709481" lon="8.440067962440976"><ele>136.0</ele><time>2026-04-17T07:24:39.999Z</time></trkpt><trkpt lat="44.32605575689818" lon="8.439881489605918"><ele>136.0</ele><time>2026-04-17T07:24:40.999Z</time></trkpt><trkpt lat="44.32601292469971" lon="8.439691464355063"><ele>136.5</ele><time>2026-04-17T07:24:41.999Z</time></trkpt><trkpt lat="44.32597216473241" lon="8.43951063272381"><ele>137.0</ele><time>2026-04-17T07:24:42.999Z</time></trkpt><trkpt lat="44.32593165298688" lon="8.439329625797665"><ele>137.5</ele><time>2026-04-17T07:24:43.999Z</time></trkpt><trkpt lat="44.32589431069848" lon="8.439162052908245"><ele>138.0</ele><time>2026-04-17T07:24:44.999Z</time></trkpt><trkpt lat="44.32585520300435" lon="8.43898655778962"><ele>138.0</ele><time>2026-04-17T07:24:45.999Z</time></trkpt><trkpt lat="44.32581463302258" lon="8.43880450071836"><ele>138.0</ele><time>2026-04-17T07:24:46.999Z</time></trkpt><trkpt lat="44.3257728643427" lon="8.438617064488678"><ele>138.0</ele><time>2026-04-17T07:24:47.999Z</time></trkpt><trkpt lat="44.325731079923536" lon="8.43843043007683"><ele>138.0</ele><time>2026-04-17T07:24:48.999Z</time></trkpt><trkpt lat="44.32569207781938" lon="8.438261179911319"><ele>138.5</ele><time>2026-04-17T07:24:49.999Z</time></trkpt><trkpt lat="44.32565456486581" lon="8.43809839195798"><ele>139.0</ele><time>2026-04-17T07:24:50.999Z</time></trkpt><trkpt lat="44.32561660795954" lon="8.437933677417355"><ele>139.5</ele><time>2026-04-17T07:24:51.999Z</time></trkpt><trkpt lat="44.32558247828377" lon="8.437785571142008"><ele>140.0</ele><time>2026-04-17T07:24:52.999Z</time></trkpt><trkpt lat="44.32555347350247" lon="8.437651452818512"><ele>140.0</ele><time>2026-04-17T07:24:53.999Z</time></trkpt><trkpt lat="44.325525222608235" lon="8.437520264318742"><ele>140.0</ele><time>2026-04-17T07:24:54.999Z</time></trkpt><trkpt lat="44.32549334552344" lon="8.437386130202931"><ele>140.0</ele><time>2026-04-17T07:24:55.999Z</time></trkpt><trkpt lat="44.325448887217895" lon="8.437232648960324"><ele>140.0</ele><time>2026-04-17T07:24:56.999Z</time></trkpt><trkpt lat="44.325365358180605" lon="8.437111727591542"><ele>140.0</ele><time>2026-04-17T07:24:57.999Z</time></trkpt><trkpt lat="44.325274193872396" lon="8.436999177556336"><ele>138.5</ele><time>2026-04-17T07:24:58.999Z</time></trkpt><trkpt lat="44.325186412519805" lon="8.436890328045177"><ele>137.0</ele><time>2026-04-17T07:24:59.999Z</time></trkpt><trkpt lat="44.32509576648891" lon="8.436803205440345"><ele>135.5</ele><time>2026-04-17T07:25:00.999Z</time></trkpt><trkpt lat="44.325002866793284" lon="8.436716128561502"><ele>134.0</ele><time>2026-04-17T07:25:01.999Z</time></trkpt><trkpt lat="44.32492259829496" lon="8.43659512461015"><ele>134.0</ele><time>2026-04-17T07:25:02.999Z</time></trkpt><trkpt lat="44.32489014049974" lon="8.436423903935163"><ele>134.0</ele><time>2026-04-17T07:25:03.999Z</time></trkpt><trkpt lat="44.32496222599011" lon="8.436236572074243"><ele>134.0</ele><time>2026-04-17T07:25:04.999Z</time></trkpt><trkpt lat="44.32504040491562" lon="8.436035855986153"><ele>134.0</ele><time>2026-04-17T07:25:05.999Z</time></trkpt><trkpt lat="44.32511442709344" lon="8.435841776494174"><ele>134.0</ele><time>2026-04-17T07:25:06.999Z</time></trkpt><trkpt lat="44.325167353946085" lon="8.435688662333707"><ele>134.0</ele><time>2026-04-17T07:25:07.999Z</time></trkpt><trkpt lat="44.32519476006008" lon="8.435537114165005"><ele>134.0</ele><time>2026-04-17T07:25:08.999Z</time></trkpt><trkpt lat="44.32523550267557" lon="8.435393607927042"><ele>134.0</ele><time>2026-04-17T07:25:09.999Z</time></trkpt><trkpt lat="44.32523911274206" lon="8.435227384902428"><ele>135.33333333333331</ele><time>2026-04-17T07:25:10.999Z</time></trkpt><trkpt lat="44.32519127339979" lon="8.43504955763908"><ele>136.66666666666666</ele><time>2026-04-17T07:25:11.999Z</time></trkpt><trkpt lat="44.325109783278826" lon="8.434868777273142"><ele>138.0</ele><time>2026-04-17T07:25:12.999Z</time></trkpt><trkpt lat="44.32497989842884" lon="8.434682305340326"><ele>141.0</ele><time>2026-04-17T07:25:13.999Z</time></trkpt><trkpt lat="44.32483764406096" lon="8.434452439743962"><ele>144.0</ele><time>2026-04-17T07:25:14.999Z</time></trkpt><trkpt lat="44.324704333179504" lon="8.434274334699882"><ele>147.0</ele><time>2026-04-17T07:25:15.999Z</time></trkpt><trkpt lat="44.32458462570131" lon="8.434141707127182"><ele>147.2</ele><time>2026-04-17T07:25:16.999Z</time></trkpt><trkpt lat="44.32450997657441" lon="8.433995712486691"><ele>147.39999999999998</ele><time>2026-04-17T07:25:17.999Z</time></trkpt><trkpt lat="44.32445526837387" lon="8.433864924407958"><ele>147.60000000000002</ele><time>2026-04-17T07:25:18.999Z</time></trkpt><trkpt lat="44.324435958500885" lon="8.433725700620686"><ele>147.8</ele><time>2026-04-17T07:25:19.999Z</time></trkpt><trkpt lat="44.32444763952264" lon="8.433584321974546"><ele>148.0</ele><time>2026-04-17T07:25:20.999Z</time></trkpt><trkpt lat="44.32447093202226" lon="8.433419395931299"><ele>147.33333333333334</ele><time>2026-04-17T07:25:21.999Z</time></trkpt><trkpt lat="44.3245303988916" lon="8.433248838446126"><ele>146.66666666666666</ele><time>2026-04-17T07:25:22.999Z</time></trkpt><trkpt lat="44.32462290566734" lon="8.433082019023152"><ele>146.0</ele><time>2026-04-17T07:25:23.999Z</time></trkpt><trkpt lat="44.3247550422229" lon="8.432879993594247"><ele>144.33333333333331</ele><time>2026-04-17T07:25:24.999Z</time></trkpt><trkpt lat="44.324889485138286" lon="8.432678336012293"><ele>142.66666666666666</ele><time>2026-04-17T07:25:25.999Z</time></trkpt><trkpt lat="44.325002534567616" lon="8.432505878130078"><ele>141.0</ele><time>2026-04-17T07:25:26.999Z</time></trkpt><trkpt lat="44.32508549226548" lon="8.432340849656434"><ele>141.0</ele><time>2026-04-17T07:25:27.999Z</time></trkpt><trkpt lat="44.32516263776416" lon="8.432177821900193"><ele>141.0</ele><time>2026-04-17T07:25:28.999Z</time></trkpt><trkpt lat="44.32521914095463" lon="8.431973852294641"><ele>141.0</ele><time>2026-04-17T07:25:29.999Z</time></trkpt><trkpt lat="44.32526464563212" lon="8.43170684676868"><ele>141.66666666666666</ele><time>2026-04-17T07:25:30.999Z</time></trkpt><trkpt lat="44.32530090881368" lon="8.431447505337031"><ele>142.33333333333331</ele><time>2026-04-17T07:25:31.999Z</time></trkpt><trkpt lat="44.32535384042783" lon="8.431213230235123"><ele>143.0</ele><time>2026-04-17T07:25:32.999Z</time></trkpt><trkpt lat="44.32541266979363" lon="8.430992966628715"><ele>143.0</ele><time>2026-04-17T07:25:33.999Z</time></trkpt><trkpt lat="44.32545148106341" lon="8.43078700413632"><ele>143.0</ele><time>2026-04-17T07:25:34.999Z</time></trkpt><trkpt lat="44.325455921011155" lon="8.430566157597328"><ele>143.0</ele><time>2026-04-17T07:25:35.999Z</time></trkpt><trkpt lat="44.325422679483886" lon="8.430347486580409"><ele>143.0</ele><time>2026-04-17T07:25:36.999Z</time></trkpt><trkpt lat="44.32533680916048" lon="8.430160364966877"><ele>143.0</ele><time>2026-04-17T07:25:37.999Z</time></trkpt><trkpt lat="44.32521428489108" lon="8.429984956154456"><ele>143.0</ele><time>2026-04-17T07:25:38.999Z</time></trkpt><trkpt lat="44.32507170638108" lon="8.429831062891724"><ele>143.0</ele><time>2026-04-17T07:25:39.999Z</time></trkpt><trkpt lat="44.32490497112057" lon="8.429706013135116"><ele>143.0</ele><time>2026-04-17T07:25:40.999Z</time></trkpt><trkpt lat="44.32472084929475" lon="8.42962094401183"><ele>143.0</ele><time>2026-04-17T07:25:41.999Z</time></trkpt><trkpt lat="44.324513091919194" lon="8.429540933420796"><ele>143.66666666666666</ele><time>2026-04-17T07:25:42.999Z</time></trkpt><trkpt lat="44.324351530375495" lon="8.429433866993246"><ele>144.33333333333334</ele><time>2026-04-17T07:25:43.998Z</time></trkpt><trkpt lat="44.32419748020129" lon="8.429336503678067"><ele>145.0</ele><time>2026-04-17T07:25:44.998Z</time></trkpt><trkpt lat="44.324069232907775" lon="8.429179642333942"><ele>145.0</ele><time>2026-04-17T07:25:45.998Z</time></trkpt><trkpt lat="44.3239536267648" lon="8.428997494342456"><ele>145.0</ele><time>2026-04-17T07:25:46.998Z</time></trkpt><trkpt lat="44.323847468597265" lon="8.428804164809849"><ele>145.0</ele><time>2026-04-17T07:25:47.998Z</time></trkpt><trkpt lat="44.32372741081714" lon="8.428614360498116"><ele>147.66666666666669</ele><time>2026-04-17T07:25:48.998Z</time></trkpt><trkpt lat="44.323609667682874" lon="8.428426665800083"><ele>150.33333333333334</ele><time>2026-04-17T07:25:49.998Z</time></trkpt><trkpt lat="44.323517550820306" lon="8.42819451076846"><ele>153.0</ele><time>2026-04-17T07:25:50.998Z</time></trkpt><trkpt lat="44.32345824587175" lon="8.427955818641818"><ele>153.33333333333334</ele><time>2026-04-17T07:25:51.998Z</time></trkpt><trkpt lat="44.32341688214686" lon="8.427732940097176"><ele>153.66666666666669</ele><time>2026-04-17T07:25:52.998Z</time></trkpt><trkpt lat="44.323380716020786" lon="8.42752691072795"><ele>154.0</ele><time>2026-04-17T07:25:53.998Z</time></trkpt><trkpt lat="44.323379456273805" lon="8.427323729213864"><ele>155.33333333333334</ele><time>2026-04-17T07:25:54.998Z</time></trkpt><trkpt lat="44.32343942637403" lon="8.427100306039366"><ele>156.66666666666666</ele><time>2026-04-17T07:25:55.998Z</time></trkpt><trkpt lat="44.32357382582534" lon="8.426892709724182"><ele>158.0</ele><time>2026-04-17T07:25:56.998Z</time></trkpt><trkpt lat="44.32372711383408" lon="8.426663291812137"><ele>158.0</ele><time>2026-04-17T07:25:57.998Z</time></trkpt><trkpt lat="44.323853837457236" lon="8.426466953027091"><ele>158.0</ele><time>2026-04-17T07:25:58.998Z</time></trkpt><trkpt lat="44.32397987440559" lon="8.426273508646899"><ele>158.0</ele><time>2026-04-17T07:25:59.998Z</time></trkpt><trkpt lat="44.32408724723578" lon="8.426108239722383"><ele>158.0</ele><time>2026-04-17T07:26:00.998Z</time></trkpt><trkpt lat="44.32418055635977" lon="8.425944630167342"><ele>158.0</ele><time>2026-04-17T07:26:01.998Z</time></trkpt><trkpt lat="44.32427602774666" lon="8.425790765733073"><ele>158.0</ele><time>2026-04-17T07:26:02.998Z</time></trkpt><trkpt lat="44.32437180703717" lon="8.425600145073197"><ele>158.33333333333331</ele><time>2026-04-17T07:26:03.998Z</time></trkpt><trkpt lat="44.32442029056659" lon="8.425363117835424"><ele>158.66666666666666</ele><time>2026-04-17T07:26:04.998Z</time></trkpt><trkpt lat="44.32443568955332" lon="8.42511899098098"><ele>159.0</ele><time>2026-04-17T07:26:05.998Z</time></trkpt><trkpt lat="44.32443654204912" lon="8.424894120176628"><ele>159.0</ele><time>2026-04-17T07:26:06.998Z</time></trkpt><trkpt lat="44.32445085879175" lon="8.424699624556848"><ele>159.0</ele><time>2026-04-17T07:26:07.998Z</time></trkpt><trkpt lat="44.32445463566987" lon="8.424550925084585"><ele>159.0</ele><time>2026-04-17T07:26:08.998Z</time></trkpt><trkpt lat="44.324473607582966" lon="8.424377950320626"><ele>159.0</ele><time>2026-04-17T07:26:09.998Z</time></trkpt><trkpt lat="44.32448692394725" lon="8.42421646455229"><ele>159.0</ele><time>2026-04-17T07:26:10.998Z</time></trkpt><trkpt lat="44.324501563411054" lon="8.424043348712658"><ele>159.0</ele><time>2026-04-17T07:26:11.998Z</time></trkpt><trkpt lat="44.32452467067504" lon="8.42385547786299"><ele>159.0</ele><time>2026-04-17T07:26:12.998Z</time></trkpt><trkpt lat="44.324573303213775" lon="8.423667712722914"><ele>159.0</ele><time>2026-04-17T07:26:13.998Z</time></trkpt><trkpt lat="44.32463494108171" lon="8.423486269909349"><ele>160.0</ele><time>2026-04-17T07:26:14.998Z</time></trkpt><trkpt lat="44.32471878255807" lon="8.42330977169911"><ele>161.0</ele><time>2026-04-17T07:26:15.998Z</time></trkpt><trkpt lat="44.32479807670993" lon="8.42307831611965"><ele>162.0</ele><time>2026-04-17T07:26:16.998Z</time></trkpt><trkpt lat="44.32487723805945" lon="8.422886005340668"><ele>162.0</ele><time>2026-04-17T07:26:17.998Z</time></trkpt><trkpt lat="44.32495343066298" lon="8.42270090681302"><ele>162.0</ele><time>2026-04-17T07:26:18.998Z</time></trkpt><trkpt lat="44.32503276058143" lon="8.422512147201184"><ele>162.0</ele><time>2026-04-17T07:26:19.998Z</time></trkpt><trkpt lat="44.32511086294009" lon="8.422327321878617"><ele>163.0</ele><time>2026-04-17T07:26:20.998Z</time></trkpt><trkpt lat="44.32518929415731" lon="8.422135085487307"><ele>164.0</ele><time>2026-04-17T07:26:21.998Z</time></trkpt><trkpt lat="44.32526745836108" lon="8.421878119092332"><ele>165.0</ele><time>2026-04-17T07:26:22.998Z</time></trkpt><trkpt lat="44.32532263139514" lon="8.421662961823971"><ele>165.0</ele><time>2026-04-17T07:26:23.998Z</time></trkpt><trkpt lat="44.325366312342176" lon="8.421489497208835"><ele>165.0</ele><time>2026-04-17T07:26:24.998Z</time></trkpt><trkpt lat="44.32540804462348" lon="8.421323218758404"><ele>165.0</ele><time>2026-04-17T07:26:25.998Z</time></trkpt><trkpt lat="44.32544741278471" lon="8.421166274410044"><ele>165.0</ele><time>2026-04-17T07:26:26.998Z</time></trkpt><trkpt lat="44.325488901142805" lon="8.42100341558816"><ele>166.25</ele><time>2026-04-17T07:26:27.998Z</time></trkpt><trkpt lat="44.32553499035793" lon="8.42082558129352"><ele>167.5</ele><time>2026-04-17T07:26:28.998Z</time></trkpt><trkpt lat="44.32556259557656" lon="8.420633796103875"><ele>168.75</ele><time>2026-04-17T07:26:29.998Z</time></trkpt><trkpt lat="44.32561623230954" lon="8.420442153427064"><ele>170.0</ele><time>2026-04-17T07:26:30.998Z</time></trkpt><trkpt lat="44.3256305711971" lon="8.420234503428684"><ele>174.25</ele><time>2026-04-17T07:26:31.998Z</time></trkpt><trkpt lat="44.32560778445677" lon="8.420050648624024"><ele>178.5</ele><time>2026-04-17T07:26:32.998Z</time></trkpt><trkpt lat="44.32559626522783" lon="8.419883494821493"><ele>182.75</ele><time>2026-04-17T07:26:33.998Z</time></trkpt><trkpt lat="44.32558101820471" lon="8.419711769667318"><ele>187.0</ele><time>2026-04-17T07:26:34.999Z</time></trkpt><trkpt lat="44.32557303881215" lon="8.419530253632637"><ele>181.75</ele><time>2026-04-17T07:26:35.999Z</time></trkpt><trkpt lat="44.32556144176178" lon="8.419354821185854"><ele>176.5</ele><time>2026-04-17T07:26:36.999Z</time></trkpt><trkpt lat="44.32553275324266" lon="8.41919252450733"><ele>171.25</ele><time>2026-04-17T07:26:37.999Z</time></trkpt><trkpt lat="44.32547983567172" lon="8.419039628543434"><ele>166.0</ele><time>2026-04-17T07:26:38.999Z</time></trkpt><trkpt lat="44.325405920314516" lon="8.418900124952746"><ele>167.75</ele><time>2026-04-17T07:26:39.999Z</time></trkpt><trkpt lat="44.32532606588775" lon="8.418773449889379"><ele>169.5</ele><time>2026-04-17T07:26:40.999Z</time></trkpt><trkpt lat="44.325256558567546" lon="8.41863911536588"><ele>171.25</ele><time>2026-04-17T07:26:41.999Z</time></trkpt><trkpt lat="44.32520637349377" lon="8.418474180871318"><ele>173.0</ele><time>2026-04-17T07:26:42.999Z</time></trkpt><trkpt lat="44.325194571708714" lon="8.418297800367158"><ele>173.0</ele><time>2026-04-17T07:26:43.999Z</time></trkpt><trkpt lat="44.325176845037255" lon="8.41814417068543"><ele>173.0</ele><time>2026-04-17T07:26:44.999Z</time></trkpt><trkpt lat="44.32514847043329" lon="8.418013375133647"><ele>173.0</ele><time>2026-04-17T07:26:45.999Z</time></trkpt><trkpt lat="44.325140453502655" lon="8.417898750480116"><ele>173.0</ele><time>2026-04-17T07:26:46.999Z</time></trkpt><trkpt lat="44.32514099914954" lon="8.417784529936595"><ele>173.0</ele><time>2026-04-17T07:26:47.999Z</time></trkpt><trkpt lat="44.32516738655099" lon="8.417666523855132"><ele>173.60000000000002</ele><time>2026-04-17T07:26:48.999Z</time></trkpt><trkpt lat="44.32523260948178" lon="8.41754541108531"><ele>174.20000000000002</ele><time>2026-04-17T07:26:49.999Z</time></trkpt><trkpt lat="44.32533164837017" lon="8.417489061359746"><ele>174.8</ele><time>2026-04-17T07:26:50.999Z</time></trkpt><trkpt lat="44.3254349110282" lon="8.417464647964408"><ele>175.4</ele><time>2026-04-17T07:26:51.999Z</time></trkpt><trkpt lat="44.32553571874334" lon="8.417404146830368"><ele>176.0</ele><time>2026-04-17T07:26:52.999Z</time></trkpt><trkpt lat="44.32563215347667" lon="8.41731985835988"><ele>178.5</ele><time>2026-04-17T07:26:53.999Z</time></trkpt><trkpt lat="44.32571187599798" lon="8.417220317368741"><ele>181.0</ele><time>2026-04-17T07:26:54.999Z</time></trkpt><trkpt lat="44.32578681924556" lon="8.417097279038146"><ele>183.5</ele><time>2026-04-17T07:26:55.999Z</time></trkpt><trkpt lat="44.32581823695052" lon="8.416918182623899"><ele>186.0</ele><time>2026-04-17T07:26:56.999Z</time></trkpt><trkpt lat="44.325859811568336" lon="8.416725951840151"><ele>186.0</ele><time>2026-04-17T07:26:57.999Z</time></trkpt><trkpt lat="44.32589273032159" lon="8.416519308302496"><ele>186.0</ele><time>2026-04-17T07:26:58.999Z</time></trkpt><trkpt lat="44.325931677475275" lon="8.416292560150342"><ele>186.0</ele><time>2026-04-17T07:26:59.999Z</time></trkpt><trkpt lat="44.32597765801936" lon="8.416024863640953"><ele>184.33333333333334</ele><time>2026-04-17T07:27:00.999Z</time></trkpt><trkpt lat="44.3260193568653" lon="8.41578209508996"><ele>182.66666666666669</ele><time>2026-04-17T07:27:01.999Z</time></trkpt><trkpt lat="44.326055622473355" lon="8.41557095606186"><ele>181.0</ele><time>2026-04-17T07:27:02.999Z</time></trkpt><trkpt lat="44.32607863527539" lon="8.41537730212105"><ele>180.75</ele><time>2026-04-17T07:27:03.999Z</time></trkpt><trkpt lat="44.32611208626267" lon="8.415199786441384"><ele>180.5</ele><time>2026-04-17T07:27:04.999Z</time></trkpt><trkpt lat="44.326140687381724" lon="8.415023812295692"><ele>180.25</ele><time>2026-04-17T07:27:05.999Z</time></trkpt><trkpt lat="44.32616803897304" lon="8.414837097068723"><ele>180.0</ele><time>2026-04-17T07:27:06.999Z</time></trkpt><trkpt lat="44.326195199266714" lon="8.41464828275503"><ele>181.75</ele><time>2026-04-17T07:27:07.999Z</time></trkpt><trkpt lat="44.326220076008795" lon="8.41446130468869"><ele>183.5</ele><time>2026-04-17T07:27:08.999Z</time></trkpt><trkpt lat="44.326252432542944" lon="8.414277822642084"><ele>185.25</ele><time>2026-04-17T07:27:09.999Z</time></trkpt><trkpt lat="44.32629216227084" lon="8.41409580442955"><ele>187.0</ele><time>2026-04-17T07:27:10.999Z</time></trkpt><trkpt lat="44.326348556372864" lon="8.413918039652557"><ele>187.66666666666669</ele><time>2026-04-17T07:27:11.999Z</time></trkpt><trkpt lat="44.32646467771175" lon="8.413793305437466"><ele>188.33333333333334</ele><time>2026-04-17T07:27:12.999Z</time></trkpt><trkpt lat="44.32658934337599" lon="8.413661392619169"><ele>189.0</ele><time>2026-04-17T07:27:13.999Z</time></trkpt><trkpt lat="44.32672638709258" lon="8.413508311146355"><ele>189.0</ele><time>2026-04-17T07:27:14.999Z</time></trkpt><trkpt lat="44.32686710515148" lon="8.413330765406787"><ele>189.0</ele><time>2026-04-17T07:27:15.999Z</time></trkpt><trkpt lat="44.32697662912918" lon="8.413104057521199"><ele>189.0</ele><time>2026-04-17T07:27:16.999Z</time></trkpt><trkpt lat="44.32703776113234" lon="8.412877154757092"><ele>188.75</ele><time>2026-04-17T07:27:17.999Z</time></trkpt><trkpt lat="44.32708612957253" lon="8.412695913132895"><ele>188.5</ele><time>2026-04-17T07:27:18.999Z</time></trkpt><trkpt lat="44.32721357245862" lon="8.412633628819592"><ele>188.25</ele><time>2026-04-17T07:27:19.999Z</time></trkpt><trkpt lat="44.3273681369308" lon="8.41256882916869"><ele>188.0</ele><time>2026-04-17T07:27:20.999Z</time></trkpt><trkpt lat="44.32756138283204" lon="8.412443494797639"><ele>189.0</ele><time>2026-04-17T07:27:21.999Z</time></trkpt><trkpt lat="44.32773029250183" lon="8.412266331941677"><ele>190.0</ele><time>2026-04-17T07:27:22.999Z</time></trkpt><trkpt lat="44.32790352488704" lon="8.412062482854699"><ele>191.0</ele><time>2026-04-17T07:27:23.999Z</time></trkpt><trkpt lat="44.328108822991624" lon="8.411873733379624"><ele>195.0</ele><time>2026-04-17T07:27:24.999Z</time></trkpt><trkpt lat="44.32831336000217" lon="8.411691227733506"><ele>199.0</ele><time>2026-04-17T07:27:25.999Z</time></trkpt><trkpt lat="44.32851654366896" lon="8.411596546489394"><ele>199.0</ele><time>2026-04-17T07:27:26.999Z</time></trkpt><trkpt lat="44.328691605820524" lon="8.411518005880914"><ele>199.0</ele><time>2026-04-17T07:27:27.999Z</time></trkpt><trkpt lat="44.32881895220974" lon="8.411404232627993"><ele>199.0</ele><time>2026-04-17T07:27:28.999Z</time></trkpt><trkpt lat="44.32890828220283" lon="8.411293859643868"><ele>199.0</ele><time>2026-04-17T07:27:29.999Z</time></trkpt><trkpt lat="44.32895633674887" lon="8.41114316891726"><ele>199.0</ele><time>2026-04-17T07:27:30.999Z</time></trkpt><trkpt lat="44.32896082013111" lon="8.410960888864365"><ele>199.0</ele><time>2026-04-17T07:27:31.999Z</time></trkpt><trkpt lat="44.328909929861474" lon="8.410771991434146"><ele>199.0</ele><time>2026-04-17T07:27:32.999Z</time></trkpt><trkpt lat="44.32880278003692" lon="8.410602285071457"><ele>203.0</ele><time>2026-04-17T07:27:33.999Z</time></trkpt><trkpt lat="44.32867343380465" lon="8.410431255106365"><ele>207.0</ele><time>2026-04-17T07:27:34.999Z</time></trkpt><trkpt lat="44.32854277140484" lon="8.41022322426919"><ele>211.0</ele><time>2026-04-17T07:27:35.999Z</time></trkpt><trkpt lat="44.32846650938816" lon="8.410014971775858"><ele>211.0</ele><time>2026-04-17T07:27:36.999Z</time></trkpt><trkpt lat="44.32842988959784" lon="8.409860965591143"><ele>211.0</ele><time>2026-04-17T07:27:37.999Z</time></trkpt><trkpt lat="44.32842562233503" lon="8.40968790251528"><ele>211.0</ele><time>2026-04-17T07:27:38.999Z</time></trkpt><trkpt lat="44.32852128850099" lon="8.409474199531418"><ele>211.0</ele><time>2026-04-17T07:27:39.999Z</time></trkpt><trkpt lat="44.328594436592745" lon="8.409221747116195"><ele>212.33333333333331</ele><time>2026-04-17T07:27:40.999Z</time></trkpt><trkpt lat="44.32862790429849" lon="8.408956906874339"><ele>213.66666666666669</ele><time>2026-04-17T07:27:41.999Z</time></trkpt><trkpt lat="44.32860976556833" lon="8.408683015597225"><ele>215.0</ele><time>2026-04-17T07:27:42.999Z</time></trkpt><trkpt lat="44.32861382489923" lon="8.408452850876342"><ele>215.5</ele><time>2026-04-17T07:27:43.999Z</time></trkpt><trkpt lat="44.328617639166815" lon="8.408276097156401"><ele>216.0</ele><time>2026-04-17T07:27:44.999Z</time></trkpt><trkpt lat="44.32867722618348" lon="8.408120999148398"><ele>216.5</ele><time>2026-04-17T07:27:45.999Z</time></trkpt><trkpt lat="44.32876299044378" lon="8.40799034881329"><ele>217.0</ele><time>2026-04-17T07:27:46.999Z</time></trkpt><trkpt lat="44.328905374586284" lon="8.407855079921482"><ele>220.33333333333331</ele><time>2026-04-17T07:27:47.999Z</time></trkpt><trkpt lat="44.3290777030566" lon="8.407692579626458"><ele>223.66666666666669</ele><time>2026-04-17T07:27:48.999Z</time></trkpt><trkpt lat="44.329201282612615" lon="8.407495490854773"><ele>227.0</ele><time>2026-04-17T07:27:49.999Z</time></trkpt><trkpt lat="44.329275909364874" lon="8.407304796018385"><ele>228.75</ele><time>2026-04-17T07:27:50.999Z</time></trkpt><trkpt lat="44.32931265594105" lon="8.407090815929003"><ele>230.5</ele><time>2026-04-17T07:27:51.999Z</time></trkpt><trkpt lat="44.32935072919234" lon="8.406900319578154"><ele>232.25</ele><time>2026-04-17T07:27:52.999Z</time></trkpt><trkpt lat="44.32939327343268" lon="8.406743857162931"><ele>234.0</ele><time>2026-04-17T07:27:53.999Z</time></trkpt><trkpt lat="44.32946120704532" lon="8.406640504066086"><ele>234.0</ele><time>2026-04-17T07:27:54.998Z</time></trkpt><trkpt lat="44.329561091953536" lon="8.406590356400276"><ele>234.0</ele><time>2026-04-17T07:27:55.998Z</time></trkpt><trkpt lat="44.32967610278812" lon="8.406626306742496"><ele>234.0</ele><time>2026-04-17T07:27:56.998Z</time></trkpt><trkpt lat="44.32980237779598" lon="8.40664938189296"><ele>234.0</ele><time>2026-04-17T07:27:57.998Z</time></trkpt><trkpt lat="44.329916954636644" lon="8.406707337678634"><ele>232.0</ele><time>2026-04-17T07:27:58.998Z</time></trkpt><trkpt lat="44.33002473285639" lon="8.406712384588088"><ele>230.0</ele><time>2026-04-17T07:27:59.998Z</time></trkpt><trkpt lat="44.33013667966357" lon="8.406668291412968"><ele>228.0</ele><time>2026-04-17T07:28:00.998Z</time></trkpt><trkpt lat="44.3302298918851" lon="8.406567811885768"><ele>226.0</ele><time>2026-04-17T07:28:01.998Z</time></trkpt><trkpt lat="44.33030275975113" lon="8.406423779478876"><ele>228.5</ele><time>2026-04-17T07:28:02.998Z</time></trkpt><trkpt lat="44.330358789693754" lon="8.406254923013664"><ele>231.0</ele><time>2026-04-17T07:28:03.998Z</time></trkpt><trkpt lat="44.33043326072699" lon="8.406109442668415"><ele>233.5</ele><time>2026-04-17T07:28:04.998Z</time></trkpt><trkpt lat="44.330496761031874" lon="8.405967414808245"><ele>236.0</ele><time>2026-04-17T07:28:05.998Z</time></trkpt><trkpt lat="44.330558045357485" lon="8.405830343296905"><ele>236.0</ele><time>2026-04-17T07:28:06.998Z</time></trkpt><trkpt lat="44.330625928628955" lon="8.405678512213703"><ele>236.0</ele><time>2026-04-17T07:28:07.998Z</time></trkpt><trkpt lat="44.33069613356685" lon="8.405521488462195"><ele>236.0</ele><time>2026-04-17T07:28:08.998Z</time></trkpt><trkpt lat="44.33076714383476" lon="8.405362663387695"><ele>236.0</ele><time>2026-04-17T07:28:09.998Z</time></trkpt><trkpt lat="44.33083806660689" lon="8.405204034073746"><ele>235.25</ele><time>2026-04-17T07:28:10.998Z</time></trkpt><trkpt lat="44.330911665757306" lon="8.405039290575251"><ele>234.5</ele><time>2026-04-17T07:28:11.998Z</time></trkpt><trkpt lat="44.33098338890038" lon="8.40487847406506"><ele>233.75</ele><time>2026-04-17T07:28:12.998Z</time></trkpt><trkpt lat="44.33105594514515" lon="8.404715789578173"><ele>233.0</ele><time>2026-04-17T07:28:13.998Z</time></trkpt><trkpt lat="44.33113177593451" lon="8.404545760817772"><ele>234.0</ele><time>2026-04-17T07:28:14.998Z</time></trkpt><trkpt lat="44.331206368690914" lon="8.404378462194314"><ele>235.0</ele><time>2026-04-17T07:28:15.998Z</time></trkpt><trkpt lat="44.33127895391035" lon="8.40421575221297"><ele>236.0</ele><time>2026-04-17T07:28:16.998Z</time></trkpt><trkpt lat="44.33135241982113" lon="8.404051811024488"><ele>237.0</ele><time>2026-04-17T07:28:17.998Z</time></trkpt><trkpt lat="44.33142591566359" lon="8.403887803051607"><ele>236.25</ele><time>2026-04-17T07:28:18.998Z</time></trkpt><trkpt lat="44.33150019901306" lon="8.403722037731734"><ele>235.5</ele><time>2026-04-17T07:28:19.998Z</time></trkpt><trkpt lat="44.33157923215838" lon="8.403545244488608"><ele>234.75</ele><time>2026-04-17T07:28:20.998Z</time></trkpt><trkpt lat="44.33165637584176" lon="8.403372344844689"><ele>234.0</ele><time>2026-04-17T07:28:21.998Z</time></trkpt><trkpt lat="44.33173408236244" lon="8.403197771111996"><ele>234.0</ele><time>2026-04-17T07:28:22.998Z</time></trkpt><trkpt lat="44.331807644784526" lon="8.403027423129211"><ele>234.0</ele><time>2026-04-17T07:28:23.998Z</time></trkpt><trkpt lat="44.331872856536584" lon="8.402863801202336"><ele>234.0</ele><time>2026-04-17T07:28:24.998Z</time></trkpt><trkpt lat="44.33191571353085" lon="8.402670570026196"><ele>234.0</ele><time>2026-04-17T07:28:25.998Z</time></trkpt><trkpt lat="44.331961712868" lon="8.40247819907977"><ele>236.0</ele><time>2026-04-17T07:28:26.998Z</time></trkpt><trkpt lat="44.3319497868733" lon="8.402266735116095"><ele>238.0</ele><time>2026-04-17T07:28:27.998Z</time></trkpt><trkpt lat="44.33192843282047" lon="8.402054891242667"><ele>240.0</ele><time>2026-04-17T07:28:28.998Z</time></trkpt><trkpt lat="44.331883780533495" lon="8.40184532164352"><ele>240.66666666666669</ele><time>2026-04-17T07:28:29.998Z</time></trkpt><trkpt lat="44.33181212484197" lon="8.40163829279472"><ele>241.33333333333334</ele><time>2026-04-17T07:28:30.998Z</time></trkpt><trkpt lat="44.331699264839735" lon="8.401438412911286"><ele>242.0</ele><time>2026-04-17T07:28:31.998Z</time></trkpt><trkpt lat="44.33156550754897" lon="8.401229489589646"><ele>246.33333333333334</ele><time>2026-04-17T07:28:32.998Z</time></trkpt><trkpt lat="44.3314299090468" lon="8.401037400670726"><ele>250.66666666666669</ele><time>2026-04-17T07:28:33.998Z</time></trkpt><trkpt lat="44.33131200117254" lon="8.400834724770085"><ele>255.0</ele><time>2026-04-17T07:28:34.998Z</time></trkpt><trkpt lat="44.33120781452229" lon="8.400644439706609"><ele>254.0</ele><time>2026-04-17T07:28:35.998Z</time></trkpt><trkpt lat="44.33110163674813" lon="8.400469723671653"><ele>253.0</ele><time>2026-04-17T07:28:36.998Z</time></trkpt><trkpt lat="44.330991635311726" lon="8.400292435477121"><ele>252.0</ele><time>2026-04-17T07:28:37.998Z</time></trkpt><trkpt lat="44.33089098406521" lon="8.40012429800587"><ele>252.0</ele><time>2026-04-17T07:28:38.998Z</time></trkpt><trkpt lat="44.33080112893781" lon="8.399960771210724"><ele>252.0</ele><time>2026-04-17T07:28:39.998Z</time></trkpt><trkpt lat="44.330771717858944" lon="8.39975569888282"><ele>252.0</ele><time>2026-04-17T07:28:40.999Z</time></trkpt><trkpt lat="44.330742049848865" lon="8.39952130770339"><ele>253.0</ele><time>2026-04-17T07:28:41.999Z</time></trkpt><trkpt lat="44.33073440806801" lon="8.399286410531785"><ele>254.0</ele><time>2026-04-17T07:28:42.999Z</time></trkpt><trkpt lat="44.33072323948036" lon="8.399080437580485"><ele>255.0</ele><time>2026-04-17T07:28:43.999Z</time></trkpt><trkpt lat="44.330727337287954" lon="8.398906031016958"><ele>256.0</ele><time>2026-04-17T07:28:44.999Z</time></trkpt><trkpt lat="44.33074193025424" lon="8.39875324322398"><ele>257.0</ele><time>2026-04-17T07:28:45.999Z</time></trkpt><trkpt lat="44.33076182785697" lon="8.39864729545529"><ele>258.0</ele><time>2026-04-17T07:28:46.999Z</time></trkpt><trkpt lat="44.33077945343702" lon="8.398559884149032"><ele>259.0</ele><time>2026-04-17T07:28:47.999Z</time></trkpt><trkpt lat="44.33080703851947" lon="8.398421278350337"><ele>260.0</ele><time>2026-04-17T07:28:49.999Z</time></trkpt><trkpt lat="44.33087857605096" lon="8.398138704796239"><ele>260.0</ele><time>2026-04-17T07:28:51.999Z</time></trkpt><trkpt lat="44.330918463999296" lon="8.398055940423768"><ele>260.0</ele><time>2026-04-17T07:28:52.999Z</time></trkpt><trkpt lat="44.331003023317756" lon="8.397998479607338"><ele>260.0</ele><time>2026-04-17T07:28:54.999Z</time></trkpt><trkpt lat="44.331066337319534" lon="8.397944474040699"><ele>260.0</ele><time>2026-04-17T07:28:56.999Z</time></trkpt><trkpt lat="44.33114956301026" lon="8.39787348415306"><ele>260.0</ele><time>2026-04-17T07:28:58.999Z</time></trkpt><trkpt lat="44.33124617827323" lon="8.39778330042405"><ele>261.5</ele><time>2026-04-17T07:28:59.999Z</time></trkpt><trkpt lat="44.331343559067385" lon="8.397652897009174"><ele>263.0</ele><time>2026-04-17T07:29:00.999Z</time></trkpt><trkpt lat="44.331404751620894" lon="8.39749154145946"><ele>264.5</ele><time>2026-04-17T07:29:01.999Z</time></trkpt><trkpt lat="44.33144007077602" lon="8.397306037653195"><ele>266.0</ele><time>2026-04-17T07:29:02.999Z</time></trkpt><trkpt lat="44.33147057734025" lon="8.397117786749316"><ele>266.5</ele><time>2026-04-17T07:29:03.999Z</time></trkpt><trkpt lat="44.3314884453646" lon="8.396926742763055"><ele>267.0</ele><time>2026-04-17T07:29:04.999Z</time></trkpt><trkpt lat="44.33147977394969" lon="8.396742191871345"><ele>267.5</ele><time>2026-04-17T07:29:05.999Z</time></trkpt><trkpt lat="44.33143370431352" lon="8.39656798373468"><ele>268.0</ele><time>2026-04-17T07:29:06.999Z</time></trkpt><trkpt lat="44.331355735509206" lon="8.396424648895039"><ele>269.25</ele><time>2026-04-17T07:29:07.999Z</time></trkpt><trkpt lat="44.3312618947591" lon="8.396319437672284"><ele>270.5</ele><time>2026-04-17T07:29:08.999Z</time></trkpt><trkpt lat="44.33114382991501" lon="8.396238523081308"><ele>271.75</ele><time>2026-04-17T07:29:09.999Z</time></trkpt><trkpt lat="44.33101625901376" lon="8.396186113102242"><ele>273.0</ele><time>2026-04-17T07:29:10.999Z</time></trkpt><trkpt lat="44.33089158394601" lon="8.39609231463757"><ele>273.0</ele><time>2026-04-17T07:29:11.999Z</time></trkpt><trkpt lat="44.33082239977422" lon="8.395901931701355"><ele>273.0</ele><time>2026-04-17T07:29:12.999Z</time></trkpt><trkpt lat="44.330790443453495" lon="8.395688019736797"><ele>273.0</ele><time>2026-04-17T07:29:13.999Z</time></trkpt><trkpt lat="44.33078485517989" lon="8.395478225564398"><ele>274.6666666666667</ele><time>2026-04-17T07:29:14.999Z</time></trkpt><trkpt lat="44.3308185860497" lon="8.395261019184899"><ele>276.33333333333337</ele><time>2026-04-17T07:29:15.999Z</time></trkpt><trkpt lat="44.33089466943952" lon="8.395055641361015"><ele>278.0</ele><time>2026-04-17T07:29:16.999Z</time></trkpt><trkpt lat="44.330984064212366" lon="8.394851050457904"><ele>279.33333333333337</ele><time>2026-04-17T07:29:17.999Z</time></trkpt><trkpt lat="44.331076171287755" lon="8.394643975521776"><ele>280.6666666666667</ele><time>2026-04-17T07:29:18.999Z</time></trkpt><trkpt lat="44.331172580334595" lon="8.39442771380675"><ele>282.0</ele><time>2026-04-17T07:29:19.999Z</time></trkpt><trkpt lat="44.33124916473381" lon="8.394192011974228"><ele>282.0</ele><time>2026-04-17T07:29:20.999Z</time></trkpt><trkpt lat="44.33133192520186" lon="8.393956366037063"><ele>282.0</ele><time>2026-04-17T07:29:21.999Z</time></trkpt><trkpt lat="44.331391126952965" lon="8.393719952093825"><ele>282.0</ele><time>2026-04-17T07:29:22.999Z</time></trkpt><trkpt lat="44.33143282984481" lon="8.393472383063664"><ele>282.0</ele><time>2026-04-17T07:29:23.999Z</time></trkpt><trkpt lat="44.33147107665734" lon="8.393226156583037"><ele>282.0</ele><time>2026-04-17T07:29:24.999Z</time></trkpt><trkpt lat="44.331514008706044" lon="8.392979786218056"><ele>282.0</ele><time>2026-04-17T07:29:25.999Z</time></trkpt><trkpt lat="44.33156513685713" lon="8.392725091964508"><ele>282.0</ele><time>2026-04-17T07:29:26.999Z</time></trkpt><trkpt lat="44.33161852670511" lon="8.392467910838667"><ele>282.0</ele><time>2026-04-17T07:29:27.999Z</time></trkpt><trkpt lat="44.33167211639467" lon="8.392210557697405"><ele>282.0</ele><time>2026-04-17T07:29:28.999Z</time></trkpt><trkpt lat="44.33172458599993" lon="8.391957318637191"><ele>283.3333333333333</ele><time>2026-04-17T07:29:29.999Z</time></trkpt><trkpt lat="44.331773128032886" lon="8.391702818698791"><ele>284.66666666666663</ele><time>2026-04-17T07:29:30.999Z</time></trkpt><trkpt lat="44.33181953981863" lon="8.391453325522727"><ele>286.0</ele><time>2026-04-17T07:29:31.999Z</time></trkpt><trkpt lat="44.33186552053307" lon="8.391208957571031"><ele>286.3333333333333</ele><time>2026-04-17T07:29:32.999Z</time></trkpt><trkpt lat="44.33190848673304" lon="8.39097421466051"><ele>286.6666666666667</ele><time>2026-04-17T07:29:33.999Z</time></trkpt><trkpt lat="44.33195012265097" lon="8.390737116445694"><ele>287.0</ele><time>2026-04-17T07:29:34.999Z</time></trkpt><trkpt lat="44.331994781892" lon="8.390530642270617"><ele>288.33333333333337</ele><time>2026-04-17T07:29:35.999Z</time></trkpt><trkpt lat="44.33203432031402" lon="8.39032510810827"><ele>289.6666666666667</ele><time>2026-04-17T07:29:36.999Z</time></trkpt><trkpt lat="44.332074358192955" lon="8.39011103941851"><ele>291.0</ele><time>2026-04-17T07:29:37.999Z</time></trkpt><trkpt lat="44.332111811718654" lon="8.389892194734974"><ele>291.0</ele><time>2026-04-17T07:29:38.999Z</time></trkpt><trkpt lat="44.33214670312173" lon="8.389679174635504"><ele>291.0</ele><time>2026-04-17T07:29:39.999Z</time></trkpt><trkpt lat="44.33218258426725" lon="8.389451505412296"><ele>291.0</ele><time>2026-04-17T07:29:40.999Z</time></trkpt><trkpt lat="44.33222080445274" lon="8.389212925050026"><ele>295.6666666666667</ele><time>2026-04-17T07:29:41.999Z</time></trkpt><trkpt lat="44.33225632799664" lon="8.3889569708667"><ele>300.33333333333337</ele><time>2026-04-17T07:29:42.999Z</time></trkpt><trkpt lat="44.33229008810187" lon="8.388691013234645"><ele>305.0</ele><time>2026-04-17T07:29:43.999Z</time></trkpt><trkpt lat="44.33231555301096" lon="8.388438202817435"><ele>307.33333333333337</ele><time>2026-04-17T07:29:44.999Z</time></trkpt><trkpt lat="44.33233281558806" lon="8.388189831835549"><ele>309.6666666666667</ele><time>2026-04-17T07:29:45.999Z</time></trkpt><trkpt lat="44.33235008994191" lon="8.387941665107935"><ele>312.0</ele><time>2026-04-17T07:29:46.999Z</time></trkpt><trkpt lat="44.3323668218825" lon="8.387699199600052"><ele>313.3333333333333</ele><time>2026-04-17T07:29:47.999Z</time></trkpt><trkpt lat="44.3323891349022" lon="8.387450662664508"><ele>314.66666666666663</ele><time>2026-04-17T07:29:48.999Z</time></trkpt><trkpt lat="44.332413956888686" lon="8.38720372338041"><ele>316.0</ele><time>2026-04-17T07:29:49.999Z</time></trkpt><trkpt lat="44.33243607595885" lon="8.386952937110024"><ele>316.66666666666663</ele><time>2026-04-17T07:29:50.999Z</time></trkpt><trkpt lat="44.332447134712076" lon="8.386702217672369"><ele>317.3333333333333</ele><time>2026-04-17T07:29:51.999Z</time></trkpt><trkpt lat="44.33245014381634" lon="8.386447654370508"><ele>318.0</ele><time>2026-04-17T07:29:52.999Z</time></trkpt><trkpt lat="44.332453277085826" lon="8.386182250598296"><ele>319.0</ele><time>2026-04-17T07:29:53.999Z</time></trkpt><trkpt lat="44.33245972646088" lon="8.385929425221828"><ele>320.0</ele><time>2026-04-17T07:29:54.999Z</time></trkpt><trkpt lat="44.332460669123215" lon="8.38569058307111"><ele>321.0</ele><time>2026-04-17T07:29:55.999Z</time></trkpt><trkpt lat="44.332440008158905" lon="8.385456649520767"><ele>324.3333333333333</ele><time>2026-04-17T07:29:56.999Z</time></trkpt><trkpt lat="44.332394103033906" lon="8.385219174228896"><ele>327.66666666666663</ele><time>2026-04-17T07:29:57.999Z</time></trkpt><trkpt lat="44.33232307079284" lon="8.384960575751604"><ele>331.0</ele><time>2026-04-17T07:29:58.999Z</time></trkpt><trkpt lat="44.33223731724864" lon="8.384713917229739"><ele>327.66666666666663</ele><time>2026-04-17T07:29:59.999Z</time></trkpt><trkpt lat="44.33215073223295" lon="8.384491511503429"><ele>324.3333333333333</ele><time>2026-04-17T07:30:00.999Z</time></trkpt><trkpt lat="44.33207478107199" lon="8.384262453967699"><ele>321.0</ele><time>2026-04-17T07:30:01.999Z</time></trkpt><trkpt lat="44.332030934277746" lon="8.384025800600355"><ele>321.0</ele><time>2026-04-17T07:30:02.999Z</time></trkpt><trkpt lat="44.33200310709906" lon="8.383801492275982"><ele>321.0</ele><time>2026-04-17T07:30:03.999Z</time></trkpt><trkpt lat="44.33198782967677" lon="8.38357940152802"><ele>321.0</ele><time>2026-04-17T07:30:04.999Z</time></trkpt><trkpt lat="44.33197592676571" lon="8.38338084729055"><ele>321.0</ele><time>2026-04-17T07:30:05.999Z</time></trkpt><trkpt lat="44.33202380773564" lon="8.383161482402137"><ele>321.0</ele><time>2026-04-17T07:30:06.999Z</time></trkpt><trkpt lat="44.33209433788776" lon="8.382908542927192"><ele>321.0</ele><time>2026-04-17T07:30:07.999Z</time></trkpt><trkpt lat="44.33218363984492" lon="8.382705012683196"><ele>320.6666666666667</ele><time>2026-04-17T07:30:08.999Z</time></trkpt><trkpt lat="44.33222335366548" lon="8.382496376438276"><ele>320.33333333333337</ele><time>2026-04-17T07:30:09.999Z</time></trkpt><trkpt lat="44.332201984345765" lon="8.382279118163794"><ele>320.0</ele><time>2026-04-17T07:30:10.998Z</time></trkpt><trkpt lat="44.33217044344222" lon="8.382074576026236"><ele>323.25</ele><time>2026-04-17T07:30:11.998Z</time></trkpt><trkpt lat="44.33220225935346" lon="8.381905901037987"><ele>326.5</ele><time>2026-04-17T07:30:12.998Z</time></trkpt><trkpt lat="44.3322455689171" lon="8.381760395660338"><ele>329.75</ele><time>2026-04-17T07:30:13.998Z</time></trkpt><trkpt lat="44.332371165394804" lon="8.381690199738653"><ele>333.0</ele><time>2026-04-17T07:30:14.998Z</time></trkpt><trkpt lat="44.33251977158259" lon="8.381646261476408"><ele>336.0</ele><time>2026-04-17T07:30:15.998Z</time></trkpt><trkpt lat="44.332687928103596" lon="8.381632156970726"><ele>339.0</ele><time>2026-04-17T07:30:16.998Z</time></trkpt><trkpt lat="44.33285091017423" lon="8.3816170752658"><ele>342.0</ele><time>2026-04-17T07:30:17.998Z</time></trkpt><trkpt lat="44.332988055137896" lon="8.381611731060572"><ele>341.6666666666667</ele><time>2026-04-17T07:30:18.998Z</time></trkpt><trkpt lat="44.33311090360124" lon="8.38152346454773"><ele>341.33333333333337</ele><time>2026-04-17T07:30:19.998Z</time></trkpt><trkpt lat="44.333215238038996" lon="8.381357848142267"><ele>341.0</ele><time>2026-04-17T07:30:20.998Z</time></trkpt><trkpt lat="44.333302255959715" lon="8.381172364362918"><ele>341.0</ele><time>2026-04-17T07:30:21.998Z</time></trkpt><trkpt lat="44.33337213672811" lon="8.380968304290349"><ele>341.0</ele><time>2026-04-17T07:30:22.998Z</time></trkpt><trkpt lat="44.333434596373834" lon="8.380772377934434"><ele>341.0</ele><time>2026-04-17T07:30:23.998Z</time></trkpt><trkpt lat="44.33349282244068" lon="8.380590240677112"><ele>337.75</ele><time>2026-04-17T07:30:24.998Z</time></trkpt><trkpt lat="44.33356613979741" lon="8.380403236604261"><ele>334.5</ele><time>2026-04-17T07:30:25.998Z</time></trkpt><trkpt lat="44.333635873152986" lon="8.380204667330801"><ele>331.25</ele><time>2026-04-17T07:30:26.998Z</time></trkpt><trkpt lat="44.333698279909626" lon="8.380034655741547"><ele>328.0</ele><time>2026-04-17T07:30:27.998Z</time></trkpt><trkpt lat="44.333764775402" lon="8.379890186830975"><ele>328.0</ele><time>2026-04-17T07:30:28.998Z</time></trkpt><trkpt lat="44.33384858880279" lon="8.379783127598968"><ele>328.0</ele><time>2026-04-17T07:30:29.998Z</time></trkpt><trkpt lat="44.33397171885354" lon="8.379715912230607"><ele>328.0</ele><time>2026-04-17T07:30:30.998Z</time></trkpt><trkpt lat="44.33413239511642" lon="8.379641804101619"><ele>328.0</ele><time>2026-04-17T07:30:31.998Z</time></trkpt><trkpt lat="44.33428346742153" lon="8.379528649954272"><ele>330.25</ele><time>2026-04-17T07:30:32.998Z</time></trkpt><trkpt lat="44.33439745107562" lon="8.379401062473896"><ele>332.5</ele><time>2026-04-17T07:30:33.998Z</time></trkpt><trkpt lat="44.33447885397651" lon="8.379249225947124"><ele>334.75</ele><time>2026-04-17T07:30:34.998Z</time></trkpt><trkpt lat="44.33452814760274" lon="8.379085389156762"><ele>337.0</ele><time>2026-04-17T07:30:35.998Z</time></trkpt><trkpt lat="44.334580040530284" lon="8.37893439739387"><ele>334.0</ele><time>2026-04-17T07:30:36.998Z</time></trkpt><trkpt lat="44.33463403094875" lon="8.378795070717745"><ele>331.0</ele><time>2026-04-17T07:30:37.998Z</time></trkpt><trkpt lat="44.33468133953274" lon="8.378641328372115"><ele>328.0</ele><time>2026-04-17T07:30:38.998Z</time></trkpt><trkpt lat="44.3347093402645" lon="8.378454008427678"><ele>325.0</ele><time>2026-04-17T07:30:39.998Z</time></trkpt><trkpt lat="44.334698825518856" lon="8.378238451326087"><ele>327.66666666666663</ele><time>2026-04-17T07:30:40.998Z</time></trkpt><trkpt lat="44.33465271305635" lon="8.378010601175038"><ele>330.3333333333333</ele><time>2026-04-17T07:30:41.998Z</time></trkpt><trkpt lat="44.33463384761803" lon="8.377806539741764"><ele>333.0</ele><time>2026-04-17T07:30:42.998Z</time></trkpt><trkpt lat="44.33461105063933" lon="8.377621793491386"><ele>333.0</ele><time>2026-04-17T07:30:43.998Z</time></trkpt><trkpt lat="44.33457670977656" lon="8.377458957123507"><ele>333.0</ele><time>2026-04-17T07:30:44.998Z</time></trkpt><trkpt lat="44.33456194376435" lon="8.377309416375795"><ele>333.0</ele><time>2026-04-17T07:30:45.998Z</time></trkpt><trkpt lat="44.33456750655516" lon="8.37716576318354"><ele>333.0</ele><time>2026-04-17T07:30:46.999Z</time></trkpt><trkpt lat="44.33456030196627" lon="8.377029599231578"><ele>333.0</ele><time>2026-04-17T07:30:47.999Z</time></trkpt><trkpt lat="44.33455694793692" lon="8.3768859484973"><ele>334.5</ele><time>2026-04-17T07:30:48.999Z</time></trkpt><trkpt lat="44.334573688420505" lon="8.376715241395782"><ele>336.0</ele><time>2026-04-17T07:30:49.999Z</time></trkpt><trkpt lat="44.334632729052366" lon="8.376541774556655"><ele>337.5</ele><time>2026-04-17T07:30:50.999Z</time></trkpt><trkpt lat="44.334712750679614" lon="8.376307317461755"><ele>339.0</ele><time>2026-04-17T07:30:51.999Z</time></trkpt><trkpt lat="44.33478444024857" lon="8.37603574445373"><ele>342.6666666666667</ele><time>2026-04-17T07:30:52.999Z</time></trkpt><trkpt lat="44.33483104949519" lon="8.375795879181725"><ele>346.33333333333337</ele><time>2026-04-17T07:30:53.999Z</time></trkpt><trkpt lat="44.334882868302124" lon="8.375594086128007"><ele>350.0</ele><time>2026-04-17T07:30:54.999Z</time></trkpt><trkpt lat="44.334921603391656" lon="8.375416099368854"><ele>350.0</ele><time>2026-04-17T07:30:55.999Z</time></trkpt><trkpt lat="44.334949151161645" lon="8.375263643108035"><ele>350.0</ele><time>2026-04-17T07:30:56.999Z</time></trkpt><trkpt lat="44.334967639437146" lon="8.375129070118138"><ele>350.0</ele><time>2026-04-17T07:30:57.999Z</time></trkpt><trkpt lat="44.33497660756626" lon="8.375001576514002"><ele>350.0</ele><time>2026-04-17T07:30:58.999Z</time></trkpt><trkpt lat="44.334961339283645" lon="8.374873421717435"><ele>350.0</ele><time>2026-04-17T07:30:59.999Z</time></trkpt><trkpt lat="44.3349486374794" lon="8.374727507984725"><ele>350.2</ele><time>2026-04-17T07:31:00.999Z</time></trkpt><trkpt lat="44.33492966962052" lon="8.374595295153162"><ele>350.4</ele><time>2026-04-17T07:31:01.999Z</time></trkpt><trkpt lat="44.33494909990414" lon="8.374465689341992"><ele>350.6</ele><time>2026-04-17T07:31:02.999Z</time></trkpt><trkpt lat="44.33499441707728" lon="8.374338068970726"><ele>350.8</ele><time>2026-04-17T07:31:03.999Z</time></trkpt><trkpt lat="44.335072504461756" lon="8.374237267012871"><ele>351.0</ele><time>2026-04-17T07:31:04.999Z</time></trkpt><trkpt lat="44.33517509666292" lon="8.374165110667608"><ele>351.0</ele><time>2026-04-17T07:31:05.999Z</time></trkpt><trkpt lat="44.33528968719036" lon="8.37413021987207"><ele>351.0</ele><time>2026-04-17T07:31:06.999Z</time></trkpt><trkpt lat="44.3354140124153" lon="8.374139312804108"><ele>351.0</ele><time>2026-04-17T07:31:07.999Z</time></trkpt><trkpt lat="44.3355296373419" lon="8.374159581771824"><ele>351.0</ele><time>2026-04-17T07:31:08.999Z</time></trkpt><trkpt lat="44.33562859521893" lon="8.374139254019639"><ele>349.5</ele><time>2026-04-17T07:31:09.999Z</time></trkpt><trkpt lat="44.335711206517296" lon="8.374068064284563"><ele>348.0</ele><time>2026-04-17T07:31:10.999Z</time></trkpt><trkpt lat="44.33578727691907" lon="8.373924673540646"><ele>346.5</ele><time>2026-04-17T07:31:11.999Z</time></trkpt><trkpt lat="44.33583024366112" lon="8.373777219960852"><ele>345.0</ele><time>2026-04-17T07:31:12.999Z</time></trkpt><trkpt lat="44.33584992836371" lon="8.37359866559713"><ele>345.0</ele><time>2026-04-17T07:31:13.999Z</time></trkpt><trkpt lat="44.335853587332416" lon="8.373402035071225"><ele>345.0</ele><time>2026-04-17T07:31:14.999Z</time></trkpt><trkpt lat="44.335880669104874" lon="8.373183951603112"><ele>345.0</ele><time>2026-04-17T07:31:15.999Z</time></trkpt><trkpt lat="44.335894879508736" lon="8.372966872859045"><ele>343.3333333333333</ele><time>2026-04-17T07:31:16.999Z</time></trkpt><trkpt lat="44.33591610558012" lon="8.37274821348397"><ele>341.66666666666663</ele><time>2026-04-17T07:31:17.999Z</time></trkpt><trkpt lat="44.335939038381944" lon="8.372533491964873"><ele>340.0</ele><time>2026-04-17T07:31:18.999Z</time></trkpt><trkpt lat="44.33594854413463" lon="8.372321476460247"><ele>338.66666666666663</ele><time>2026-04-17T07:31:19.999Z</time></trkpt><trkpt lat="44.33598335027183" lon="8.372113790925702"><ele>337.3333333333333</ele><time>2026-04-17T07:31:20.999Z</time></trkpt><trkpt lat="44.33602685326796" lon="8.37189757986604"><ele>336.0</ele><time>2026-04-17T07:31:21.999Z</time></trkpt><trkpt lat="44.33607796903058" lon="8.371669071525421"><ele>336.0</ele><time>2026-04-17T07:31:22.999Z</time></trkpt><trkpt lat="44.33616320802787" lon="8.371418717408151"><ele>336.0</ele><time>2026-04-17T07:31:23.999Z</time></trkpt><trkpt lat="44.336249271919925" lon="8.37118302289641"><ele>336.0</ele><time>2026-04-17T07:31:24.999Z</time></trkpt><trkpt lat="44.3363269549512" lon="8.370973120018611"><ele>337.3333333333333</ele><time>2026-04-17T07:31:25.999Z</time></trkpt><trkpt lat="44.33641784951931" lon="8.370783763090538"><ele>338.66666666666663</ele><time>2026-04-17T07:31:26.999Z</time></trkpt><trkpt lat="44.33650902695156" lon="8.370600378659729"><ele>340.0</ele><time>2026-04-17T07:31:27.999Z</time></trkpt><trkpt lat="44.33660811652309" lon="8.37043956224625"><ele>341.5</ele><time>2026-04-17T07:31:28.999Z</time></trkpt><trkpt lat="44.336695669774066" lon="8.370280064551885"><ele>343.0</ele><time>2026-04-17T07:31:29.999Z</time></trkpt><trkpt lat="44.33675892373693" lon="8.370095718802684"><ele>344.5</ele><time>2026-04-17T07:31:30.999Z</time></trkpt><trkpt lat="44.33679699185974" lon="8.369894787401252"><ele>346.0</ele><time>2026-04-17T07:31:31.999Z</time></trkpt><trkpt lat="44.33679727222824" lon="8.369704962796003"><ele>347.25</ele><time>2026-04-17T07:31:32.999Z</time></trkpt><trkpt lat="44.336768035122915" lon="8.369518102430586"><ele>348.5</ele><time>2026-04-17T07:31:33.999Z</time></trkpt><trkpt lat="44.336717383108784" lon="8.369333681735037"><ele>349.75</ele><time>2026-04-17T07:31:34.999Z</time></trkpt><trkpt lat="44.33663887579948" lon="8.369155674502837"><ele>351.0</ele><time>2026-04-17T07:31:35.999Z</time></trkpt><trkpt lat="44.33654959305188" lon="8.368988605739519"><ele>352.0</ele><time>2026-04-17T07:31:36.999Z</time></trkpt><trkpt lat="44.33644730502078" lon="8.368848331260164"><ele>353.0</ele><time>2026-04-17T07:31:37.999Z</time></trkpt><trkpt lat="44.33633581166498" lon="8.368749639846559"><ele>354.0</ele><time>2026-04-17T07:31:38.999Z</time></trkpt><trkpt lat="44.33622074998616" lon="8.36866828639894"><ele>355.0</ele><time>2026-04-17T07:31:39.999Z</time></trkpt><trkpt lat="44.33609662782245" lon="8.36859088651032"><ele>356.0</ele><time>2026-04-17T07:31:40.999Z</time></trkpt><trkpt lat="44.33596149051528" lon="8.368502486870735"><ele>357.0</ele><time>2026-04-17T07:31:41.999Z</time></trkpt><trkpt lat="44.33583222201353" lon="8.368400457811497"><ele>358.0</ele><time>2026-04-17T07:31:42.999Z</time></trkpt><trkpt lat="44.33571733493382" lon="8.368273966167667"><ele>359.0</ele><time>2026-04-17T07:31:43.999Z</time></trkpt><trkpt lat="44.33562393265896" lon="8.368133640256612"><ele>355.75</ele><time>2026-04-17T07:31:44.999Z</time></trkpt><trkpt lat="44.335540760088406" lon="8.367976554468687"><ele>352.5</ele><time>2026-04-17T07:31:45.999Z</time></trkpt><trkpt lat="44.33546722892902" lon="8.367811686668812"><ele>349.25</ele><time>2026-04-17T07:31:46.999Z</time></trkpt><trkpt lat="44.33541351664631" lon="8.367634038738064"><ele>346.0</ele><time>2026-04-17T07:31:47.999Z</time></trkpt><trkpt lat="44.335381429178184" lon="8.36744500803267"><ele>346.0</ele><time>2026-04-17T07:31:48.999Z</time></trkpt><trkpt lat="44.33536322046581" lon="8.3672336298795"><ele>346.0</ele><time>2026-04-17T07:31:49.999Z</time></trkpt><trkpt lat="44.33535783036076" lon="8.366988931167903"><ele>346.0</ele><time>2026-04-17T07:31:50.999Z</time></trkpt><trkpt lat="44.335358503903805" lon="8.366761282940871"><ele>347.66666666666663</ele><time>2026-04-17T07:31:51.999Z</time></trkpt><trkpt lat="44.3353616180103" lon="8.3665498215801"><ele>349.3333333333333</ele><time>2026-04-17T07:31:52.999Z</time></trkpt><trkpt lat="44.33536403665557" lon="8.366322428570246"><ele>351.0</ele><time>2026-04-17T07:31:53.999Z</time></trkpt><trkpt lat="44.3353471559516" lon="8.366114859522558"><ele>355.25</ele><time>2026-04-17T07:31:54.999Z</time></trkpt><trkpt lat="44.335289201923835" lon="8.365924670334788"><ele>359.5</ele><time>2026-04-17T07:31:55.999Z</time></trkpt><trkpt lat="44.33520406478691" lon="8.365762811467075"><ele>363.75</ele><time>2026-04-17T07:31:56.999Z</time></trkpt><trkpt lat="44.33511304545141" lon="8.365603642884171"><ele>368.0</ele><time>2026-04-17T07:31:57.999Z</time></trkpt><trkpt lat="44.33504033856393" lon="8.365426787615267"><ele>369.0</ele><time>2026-04-17T07:31:58.999Z</time></trkpt><trkpt lat="44.33500447924196" lon="8.365235426061025"><ele>370.0</ele><time>2026-04-17T07:31:59.999Z</time></trkpt><trkpt lat="44.335013653429094" lon="8.365032082127161"><ele>371.0</ele><time>2026-04-17T07:32:00.999Z</time></trkpt><trkpt lat="44.33504320432285" lon="8.364805980578257"><ele>369.33333333333337</ele><time>2026-04-17T07:32:01.999Z</time></trkpt><trkpt lat="44.33512220257214" lon="8.36455608526687"><ele>367.6666666666667</ele><time>2026-04-17T07:32:02.999Z</time></trkpt><trkpt lat="44.335189203211804" lon="8.364260308663587"><ele>366.0</ele><time>2026-04-17T07:32:03.999Z</time></trkpt><trkpt lat="44.33527062189756" lon="8.364004627307375"><ele>368.0</ele><time>2026-04-17T07:32:04.999Z</time></trkpt><trkpt lat="44.335307921117625" lon="8.363781397533335"><ele>370.0</ele><time>2026-04-17T07:32:05.999Z</time></trkpt><trkpt lat="44.33528947249372" lon="8.363534880098031"><ele>372.0</ele><time>2026-04-17T07:32:06.999Z</time></trkpt><trkpt lat="44.33523127549024" lon="8.363247793900118"><ele>377.5</ele><time>2026-04-17T07:32:07.999Z</time></trkpt><trkpt lat="44.33514809833489" lon="8.3629250668141"><ele>383.0</ele><time>2026-04-17T07:32:08.999Z</time></trkpt><trkpt lat="44.3350556788065" lon="8.362606252107463"><ele>383.0</ele><time>2026-04-17T07:32:09.999Z</time></trkpt><trkpt lat="44.33498031882888" lon="8.362319178187201"><ele>383.0</ele><time>2026-04-17T07:32:10.999Z</time></trkpt><trkpt lat="44.33492365587393" lon="8.36205305163877"><ele>383.0</ele><time>2026-04-17T07:32:11.999Z</time></trkpt><trkpt lat="44.334868488272676" lon="8.36180386181753"><ele>383.33333333333337</ele><time>2026-04-17T07:32:12.999Z</time></trkpt><trkpt lat="44.334809594187746" lon="8.361572418156307"><ele>383.6666666666667</ele><time>2026-04-17T07:32:13.999Z</time></trkpt><trkpt lat="44.334753537979765" lon="8.361359855840085"><ele>384.0</ele><time>2026-04-17T07:32:14.999Z</time></trkpt><trkpt lat="44.33469659479946" lon="8.361157088508458"><ele>384.0</ele><time>2026-04-17T07:32:15.999Z</time></trkpt><trkpt lat="44.33464563112898" lon="8.36094743898014"><ele>384.0</ele><time>2026-04-17T07:32:16.999Z</time></trkpt><trkpt lat="44.33462346524862" lon="8.360718106727504"><ele>384.0</ele><time>2026-04-17T07:32:17.999Z</time></trkpt><trkpt lat="44.33460265275175" lon="8.360490682379323"><ele>379.6666666666667</ele><time>2026-04-17T07:32:18.999Z</time></trkpt><trkpt lat="44.33462410175173" lon="8.36025130492138"><ele>375.33333333333337</ele><time>2026-04-17T07:32:19.999Z</time></trkpt><trkpt lat="44.334667719539404" lon="8.360005929423338"><ele>371.0</ele><time>2026-04-17T07:32:20.999Z</time></trkpt><trkpt lat="44.334726412289136" lon="8.359754000513442"><ele>381.33333333333337</ele><time>2026-04-17T07:32:21.999Z</time></trkpt><trkpt lat="44.33479670711888" lon="8.359498442761822"><ele>391.6666666666667</ele><time>2026-04-17T07:32:22.999Z</time></trkpt><trkpt lat="44.33486676794863" lon="8.359245791775228"><ele>402.0</ele><time>2026-04-17T07:32:23.999Z</time></trkpt><trkpt lat="44.33493614740127" lon="8.35898837323133"><ele>401.0</ele><time>2026-04-17T07:32:24.999Z</time></trkpt><trkpt lat="44.335005976557866" lon="8.358714959662501"><ele>400.0</ele><time>2026-04-17T07:32:25.998Z</time></trkpt><trkpt lat="44.33507976749837" lon="8.358430049547726"><ele>399.0</ele><time>2026-04-17T07:32:26.998Z</time></trkpt><trkpt lat="44.33514778984307" lon="8.35816747435729"><ele>400.33333333333337</ele><time>2026-04-17T07:32:27.998Z</time></trkpt><trkpt lat="44.33520849490232" lon="8.357925166932057"><ele>401.6666666666667</ele><time>2026-04-17T07:32:28.998Z</time></trkpt><trkpt lat="44.33526558278029" lon="8.35768081690999"><ele>403.0</ele><time>2026-04-17T07:32:29.998Z</time></trkpt><trkpt lat="44.33532124466684" lon="8.35743434825911"><ele>406.33333333333337</ele><time>2026-04-17T07:32:30.998Z</time></trkpt><trkpt lat="44.33537843377444" lon="8.357182888337599"><ele>409.66666666666663</ele><time>2026-04-17T07:32:31.998Z</time></trkpt><trkpt lat="44.335440933302195" lon="8.356936284655918"><ele>413.0</ele><time>2026-04-17T07:32:32.998Z</time></trkpt><trkpt lat="44.33550997294334" lon="8.35669164799721"><ele>405.0</ele><time>2026-04-17T07:32:33.998Z</time></trkpt><trkpt lat="44.33558774776931" lon="8.356444925811015"><ele>397.0</ele><time>2026-04-17T07:32:34.998Z</time></trkpt><trkpt lat="44.335667769855604" lon="8.35619050136548"><ele>389.0</ele><time>2026-04-17T07:32:35.998Z</time></trkpt><trkpt lat="44.33574399792174" lon="8.355941761879514"><ele>385.3333333333333</ele><time>2026-04-17T07:32:36.998Z</time></trkpt><trkpt lat="44.335825495877934" lon="8.355687763401512"><ele>381.66666666666663</ele><time>2026-04-17T07:32:37.998Z</time></trkpt><trkpt lat="44.33590680862471" lon="8.355443188019027"><ele>378.0</ele><time>2026-04-17T07:32:38.998Z</time></trkpt><trkpt lat="44.33598672466109" lon="8.35521205013449"><ele>378.3333333333333</ele><time>2026-04-17T07:32:39.998Z</time></trkpt><trkpt lat="44.33607372423876" lon="8.354993954936774"><ele>378.66666666666663</ele><time>2026-04-17T07:32:40.998Z</time></trkpt><trkpt lat="44.33616339081084" lon="8.354776122271938"><ele>379.0</ele><time>2026-04-17T07:32:41.998Z</time></trkpt><trkpt lat="44.336251235047385" lon="8.354558427905909"><ele>379.0</ele><time>2026-04-17T07:32:42.998Z</time></trkpt><trkpt lat="44.33634853071798" lon="8.354335312177238"><ele>379.0</ele><time>2026-04-17T07:32:43.998Z</time></trkpt><trkpt lat="44.33644870727322" lon="8.354115938087844"><ele>379.0</ele><time>2026-04-17T07:32:44.998Z</time></trkpt><trkpt lat="44.336554157282" lon="8.353904064697174"><ele>386.66666666666663</ele><time>2026-04-17T07:32:45.998Z</time></trkpt><trkpt lat="44.336659904117255" lon="8.35369448507657"><ele>394.3333333333333</ele><time>2026-04-17T07:32:46.998Z</time></trkpt><trkpt lat="44.33676816575249" lon="8.353490764678007"><ele>402.0</ele><time>2026-04-17T07:32:47.998Z</time></trkpt><trkpt lat="44.33687966113204" lon="8.353279826631741"><ele>402.0</ele><time>2026-04-17T07:32:48.998Z</time></trkpt><trkpt lat="44.33699549707116" lon="8.353068039933623"><ele>402.0</ele><time>2026-04-17T07:32:49.998Z</time></trkpt><trkpt lat="44.33711957024515" lon="8.352851925150807"><ele>402.0</ele><time>2026-04-17T07:32:50.998Z</time></trkpt><trkpt lat="44.33724300280968" lon="8.352648494701178"><ele>407.0</ele><time>2026-04-17T07:32:51.998Z</time></trkpt><trkpt lat="44.33736887698707" lon="8.352446976494278"><ele>412.0</ele><time>2026-04-17T07:32:52.999Z</time></trkpt><trkpt lat="44.337497690054875" lon="8.352252231808887"><ele>417.0</ele><time>2026-04-17T07:32:53.999Z</time></trkpt><trkpt lat="44.33762675793491" lon="8.352057368802372"><ele>420.0</ele><time>2026-04-17T07:32:54.999Z</time></trkpt><trkpt lat="44.33775784410089" lon="8.351862747361784"><ele>423.0</ele><time>2026-04-17T07:32:55.999Z</time></trkpt><trkpt lat="44.337894094581635" lon="8.351674912516998"><ele>426.0</ele><time>2026-04-17T07:32:56.999Z</time></trkpt><trkpt lat="44.33803208577764" lon="8.35149108308051"><ele>425.33333333333337</ele><time>2026-04-17T07:32:57.999Z</time></trkpt><trkpt lat="44.33817032682987" lon="8.351309053065101"><ele>424.6666666666667</ele><time>2026-04-17T07:32:58.999Z</time></trkpt><trkpt lat="44.33830119129843" lon="8.351138224667412"><ele>424.0</ele><time>2026-04-17T07:32:59.999Z</time></trkpt><trkpt lat="44.3384253986125" lon="8.35098420740187"><ele>424.0</ele><time>2026-04-17T07:33:00.999Z</time></trkpt><trkpt lat="44.338542031242085" lon="8.350838674758046"><ele>424.0</ele><time>2026-04-17T07:33:01.999Z</time></trkpt><trkpt lat="44.33866421109161" lon="8.35067710251807"><ele>424.0</ele><time>2026-04-17T07:33:02.999Z</time></trkpt><trkpt lat="44.338787485759404" lon="8.350506615314744"><ele>429.6666666666667</ele><time>2026-04-17T07:33:03.999Z</time></trkpt><trkpt lat="44.33891674055941" lon="8.35033068901726"><ele>435.33333333333337</ele><time>2026-04-17T07:33:04.999Z</time></trkpt><trkpt lat="44.33904742117274" lon="8.350156754010246"><ele>441.0</ele><time>2026-04-17T07:33:05.999Z</time></trkpt><trkpt lat="44.339179581828745" lon="8.35000367798727"><ele>441.0</ele><time>2026-04-17T07:33:06.999Z</time></trkpt><trkpt lat="44.33930121588178" lon="8.34984358505087"><ele>441.0</ele><time>2026-04-17T07:33:07.999Z</time></trkpt><trkpt lat="44.339425141817316" lon="8.349680475374782"><ele>441.0</ele><time>2026-04-17T07:33:08.999Z</time></trkpt><trkpt lat="44.33955030421818" lon="8.34951594833819"><ele>440.0</ele><time>2026-04-17T07:33:09.999Z</time></trkpt><trkpt lat="44.33967443283589" lon="8.349353233480425"><ele>439.0</ele><time>2026-04-17T07:33:10.999Z</time></trkpt><trkpt lat="44.33981399153687" lon="8.349170398025809"><ele>438.0</ele><time>2026-04-17T07:33:12.059Z</time></trkpt><trkpt lat="44.339934924509194" lon="8.349011964200212"><ele>442.0</ele><time>2026-04-17T07:33:13.051Z</time></trkpt><trkpt lat="44.34007316214383" lon="8.34883107471185"><ele>446.0</ele><time>2026-04-17T07:33:14.051Z</time></trkpt><trkpt lat="44.34022712389314" lon="8.348630217614538"><ele>450.0</ele><time>2026-04-17T07:33:15.049Z</time></trkpt><trkpt lat="44.34036668596735" lon="8.348444990850997"><ele>453.0</ele><time>2026-04-17T07:33:16.049Z</time></trkpt><trkpt lat="44.34054997515434" lon="8.348207111214071"><ele>456.0</ele><time>2026-04-17T07:33:18.024Z</time></trkpt><trkpt lat="44.340677689791015" lon="8.348057904965449"><ele>459.0</ele><time>2026-04-17T07:33:19.019Z</time></trkpt><trkpt lat="44.3408057584283" lon="8.347906610912133"><ele>451.0</ele><time>2026-04-17T07:33:20.021Z</time></trkpt><trkpt lat="44.34176110798954" lon="8.345414779001866"><ele>473.0</ele><time>2026-04-17T07:33:23.83Z</time></trkpt><trkpt lat="44.34194686330262" lon="8.344576525183935"><ele>480.0</ele><time>2026-04-17T07:33:24.831Z</time></trkpt><trkpt lat="44.34206946861891" lon="8.34371453177071"><ele>484.0</ele><time>2026-04-17T07:33:25.832Z</time></trkpt><trkpt lat="44.34212355745521" lon="8.34284108234635"><ele>482.0</ele><time>2026-04-17T07:33:26.831Z</time></trkpt><trkpt lat="44.34211101200812" lon="8.341963798064327"><ele>482.5</ele><time>2026-04-17T07:33:27.831Z</time></trkpt><trkpt lat="44.34209" lon="8.34137"><ele>483.0</ele><time>2026-04-17T07:33:28.831Z</time></trkpt><trkpt lat="44.341645167565495" lon="8.326312109977879"><ele>449.0</ele><time>2026-04-17T07:34:31.999Z</time></trkpt><trkpt lat="44.341659907804946" lon="8.32605261643968"><ele>415.0</ele><time>2026-04-17T07:34:32.999Z</time></trkpt><trkpt lat="44.34165280925199" lon="8.325844382541439"><ele>381.0</ele><time>2026-04-17T07:34:33.999Z</time></trkpt><trkpt lat="44.34169848616953" lon="8.32561464484793"><ele>380.75</ele><time>2026-04-17T07:34:34.999Z</time></trkpt><trkpt lat="44.34176682016636" lon="8.32541311970393"><ele>380.5</ele><time>2026-04-17T07:34:35.998Z</time></trkpt><trkpt lat="44.34184713820965" lon="8.325251724187348"><ele>380.25</ele><time>2026-04-17T07:34:36.998Z</time></trkpt><trkpt lat="44.34194978867086" lon="8.325131464499517"><ele>380.0</ele><time>2026-04-17T07:34:37.998Z</time></trkpt><trkpt lat="44.34208485554402" lon="8.325042923840165"><ele>379.33333333333337</ele><time>2026-04-17T07:34:38.998Z</time></trkpt><trkpt lat="44.34223456438321" lon="8.325012222229264"><ele>378.6666666666667</ele><time>2026-04-17T07:34:39.998Z</time></trkpt><trkpt lat="44.34241395525244" lon="8.325038138057915"><ele>378.0</ele><time>2026-04-17T07:34:40.998Z</time></trkpt><trkpt lat="44.342585103564325" lon="8.325022954815106"><ele>378.0</ele><time>2026-04-17T07:34:41.998Z</time></trkpt><trkpt lat="44.342772087004214" lon="8.32495969580007"><ele>378.0</ele><time>2026-04-17T07:34:42.998Z</time></trkpt><trkpt lat="44.342986330744814" lon="8.324858592470122"><ele>378.0</ele><time>2026-04-17T07:34:43.998Z</time></trkpt><trkpt lat="44.34316473512962" lon="8.324780812340409"><ele>377.75</ele><time>2026-04-17T07:34:44.998Z</time></trkpt><trkpt lat="44.34333671137966" lon="8.324713002177456"><ele>377.5</ele><time>2026-04-17T07:34:45.998Z</time></trkpt><trkpt lat="44.343475402154745" lon="8.32466570399152"><ele>377.25</ele><time>2026-04-17T07:34:46.998Z</time></trkpt><trkpt lat="44.34357062514645" lon="8.324596985843046"><ele>377.0</ele><time>2026-04-17T07:34:47.998Z</time></trkpt><trkpt lat="44.343673840770585" lon="8.324476083020336"><ele>377.0</ele><time>2026-04-17T07:34:48.998Z</time></trkpt><trkpt lat="44.343738637796996" lon="8.324322467298387"><ele>377.0</ele><time>2026-04-17T07:34:49.998Z</time></trkpt><trkpt lat="44.34375905738605" lon="8.324154931734325"><ele>377.0</ele><time>2026-04-17T07:34:50.998Z</time></trkpt><trkpt lat="44.34373392107628" lon="8.324005060122921"><ele>377.0</ele><time>2026-04-17T07:34:51.998Z</time></trkpt><trkpt lat="44.34368723415794" lon="8.323877625177195"><ele>377.6</ele><time>2026-04-17T07:34:52.998Z</time></trkpt><trkpt lat="44.343617473766706" lon="8.323756275885206"><ele>378.20000000000005</ele><time>2026-04-17T07:34:53.998Z</time></trkpt><trkpt lat="44.34356054212947" lon="8.32364726820508"><ele>378.8</ele><time>2026-04-17T07:34:54.998Z</time></trkpt><trkpt lat="44.343483642334476" lon="8.32355045517592"><ele>379.4</ele><time>2026-04-17T07:34:55.998Z</time></trkpt><trkpt lat="44.34339554918616" lon="8.323476811760303"><ele>380.0</ele><time>2026-04-17T07:34:56.998Z</time></trkpt><trkpt lat="44.343272852854064" lon="8.323459071895662"><ele>380.0</ele><time>2026-04-17T07:34:57.998Z</time></trkpt><trkpt lat="44.34312794087071" lon="8.32349365102109"><ele>380.0</ele><time>2026-04-17T07:34:59Z</time></trkpt><trkpt lat="44.343011855681134" lon="8.323563586571069"><ele>380.0</ele><time>2026-04-17T07:35:00Z</time></trkpt><trkpt lat="44.34292074068917" lon="8.323651501702177"><ele>380.0</ele><time>2026-04-17T07:35:01Z</time></trkpt><trkpt lat="44.34282371404618" lon="8.323737939159136"><ele>383.25</ele><time>2026-04-17T07:35:02Z</time></trkpt><trkpt lat="44.34270305375782" lon="8.323737004150509"><ele>386.5</ele><time>2026-04-17T07:35:03Z</time></trkpt><trkpt lat="44.34256103825178" lon="8.323648080134959"><ele>389.75</ele><time>2026-04-17T07:35:04Z</time></trkpt><trkpt lat="44.34242799647338" lon="8.323612410439486"><ele>393.0</ele><time>2026-04-17T07:35:05Z</time></trkpt><trkpt lat="44.34229770715479" lon="8.323647889025676"><ele>390.75</ele><time>2026-04-17T07:35:06Z</time></trkpt><trkpt lat="44.34216143916291" lon="8.323746857292855"><ele>388.5</ele><time>2026-04-17T07:35:07Z</time></trkpt><trkpt lat="44.3420308347042" lon="8.323850504576141"><ele>386.25</ele><time>2026-04-17T07:35:08Z</time></trkpt><trkpt lat="44.341909795736775" lon="8.323943111820059"><ele>384.0</ele><time>2026-04-17T07:35:09Z</time></trkpt><trkpt lat="44.341790347819945" lon="8.324026947185098"><ele>384.0</ele><time>2026-04-17T07:35:10Z</time></trkpt><trkpt lat="44.34168895932063" lon="8.324124462550886"><ele>384.0</ele><time>2026-04-17T07:35:11Z</time></trkpt><trkpt lat="44.34161210897376" lon="8.32424153368793"><ele>384.0</ele><time>2026-04-17T07:35:12Z</time></trkpt><trkpt lat="44.34154272390216" lon="8.324342948247232"><ele>384.0</ele><time>2026-04-17T07:35:13Z</time></trkpt><trkpt lat="44.34143327779511" lon="8.324347335815796"><ele>384.0</ele><time>2026-04-17T07:35:14Z</time></trkpt><trkpt lat="44.34134655859116" lon="8.324372452543074"><ele>383.5</ele><time>2026-04-17T07:35:15Z</time></trkpt><trkpt lat="44.34125306647789" lon="8.324180152197727"><ele>383.0</ele><time>2026-04-17T07:35:16Z</time></trkpt><trkpt lat="44.34123519114259" lon="8.324020934234628"><ele>382.5</ele><time>2026-04-17T07:35:17Z</time></trkpt><trkpt lat="44.341167961767766" lon="8.323829918232324"><ele>382.0</ele><time>2026-04-17T07:35:18Z</time></trkpt><trkpt lat="44.341102852647076" lon="8.32361025021906"><ele>385.0</ele><time>2026-04-17T07:35:19Z</time></trkpt><trkpt lat="44.34098873535941" lon="8.323381719137265"><ele>388.0</ele><time>2026-04-17T07:35:20Z</time></trkpt><trkpt lat="44.34084146982752" lon="8.323146380287636"><ele>391.0</ele><time>2026-04-17T07:35:21Z</time></trkpt><trkpt lat="44.34068525149182" lon="8.322929781168254"><ele>389.6666666666667</ele><time>2026-04-17T07:35:22Z</time></trkpt><trkpt lat="44.340535634297524" lon="8.322716567415501"><ele>388.33333333333337</ele><time>2026-04-17T07:35:23Z</time></trkpt><trkpt lat="44.34040735830707" lon="8.32250357486632"><ele>387.0</ele><time>2026-04-17T07:35:24Z</time></trkpt><trkpt lat="44.34029049898495" lon="8.32229178595187"><ele>390.33333333333337</ele><time>2026-04-17T07:35:25Z</time></trkpt><trkpt lat="44.34016389341788" lon="8.322077807380671"><ele>393.6666666666667</ele><time>2026-04-17T07:35:26Z</time></trkpt><trkpt lat="44.34003925931322" lon="8.321893042639779"><ele>397.0</ele><time>2026-04-17T07:35:27Z</time></trkpt><trkpt lat="44.33991799990345" lon="8.321738035515963"><ele>397.0</ele><time>2026-04-17T07:35:28Z</time></trkpt><trkpt lat="44.33981235587407" lon="8.3216290544487"><ele>397.0</ele><time>2026-04-17T07:35:29Z</time></trkpt><trkpt lat="44.33971112808476" lon="8.321566899324088"><ele>397.0</ele><time>2026-04-17T07:35:30Z</time></trkpt><trkpt lat="44.33956918510397" lon="8.321535041412574"><ele>397.0</ele><time>2026-04-17T07:35:31Z</time></trkpt><trkpt lat="44.33939474375279" lon="8.321503830242575"><ele>399.0</ele><time>2026-04-17T07:35:32Z</time></trkpt><trkpt lat="44.33922169657938" lon="8.321436807543176"><ele>401.0</ele><time>2026-04-17T07:35:32.999Z</time></trkpt><trkpt lat="44.339067873921685" lon="8.321319114167423"><ele>403.0</ele><time>2026-04-17T07:35:33.999Z</time></trkpt><trkpt lat="44.33894008719805" lon="8.321215764336895"><ele>403.5</ele><time>2026-04-17T07:35:34.999Z</time></trkpt><trkpt lat="44.33881061788354" lon="8.321142140656255"><ele>404.0</ele><time>2026-04-17T07:35:35.999Z</time></trkpt><trkpt lat="44.33869461073452" lon="8.321163988286461"><ele>404.5</ele><time>2026-04-17T07:35:36.999Z</time></trkpt><trkpt lat="44.338577173426565" lon="8.321234448144903"><ele>405.0</ele><time>2026-04-17T07:35:37.999Z</time></trkpt><trkpt lat="44.338447205525405" lon="8.32137215043114"><ele>406.66666666666663</ele><time>2026-04-17T07:35:38.999Z</time></trkpt><trkpt lat="44.338289509005236" lon="8.321561086301273"><ele>408.3333333333333</ele><time>2026-04-17T07:35:39.999Z</time></trkpt><trkpt lat="44.33813263800234" lon="8.32176581375183"><ele>410.0</ele><time>2026-04-17T07:35:40.999Z</time></trkpt><trkpt lat="44.33799836063936" lon="8.321946127596174"><ele>410.0</ele><time>2026-04-17T07:35:41.999Z</time></trkpt><trkpt lat="44.33789032500226" lon="8.322124364859054"><ele>410.0</ele><time>2026-04-17T07:35:42.999Z</time></trkpt><trkpt lat="44.33780482987659" lon="8.322319215315538"><ele>410.0</ele><time>2026-04-17T07:35:43.999Z</time></trkpt><trkpt lat="44.3377427720173" lon="8.322529649078254"><ele>404.66666666666663</ele><time>2026-04-17T07:35:44.999Z</time></trkpt><trkpt lat="44.33770809590309" lon="8.322764144805179"><ele>399.33333333333337</ele><time>2026-04-17T07:35:45.999Z</time></trkpt><trkpt lat="44.33769689442071" lon="8.323014940697204"><ele>394.0</ele><time>2026-04-17T07:35:46.999Z</time></trkpt><trkpt lat="44.33770820690483" lon="8.323275467385766"><ele>391.0</ele><time>2026-04-17T07:35:47.999Z</time></trkpt><trkpt lat="44.33775674698818" lon="8.323519621586621"><ele>388.0</ele><time>2026-04-17T07:35:48.999Z</time></trkpt><trkpt lat="44.33782557081248" lon="8.323736597447995"><ele>385.0</ele><time>2026-04-17T07:35:49.999Z</time></trkpt><trkpt lat="44.33790107865011" lon="8.32393696248861"><ele>385.0</ele><time>2026-04-17T07:35:50.999Z</time></trkpt><trkpt lat="44.337980306531755" lon="8.324118170478831"><ele>385.0</ele><time>2026-04-17T07:35:51.999Z</time></trkpt><trkpt lat="44.3380486499205" lon="8.324289818377846"><ele>385.0</ele><time>2026-04-17T07:35:52.999Z</time></trkpt><trkpt lat="44.338106204227074" lon="8.324440968461447"><ele>385.0</ele><time>2026-04-17T07:35:53.999Z</time></trkpt><trkpt lat="44.33813495665363" lon="8.324562354472853"><ele>384.8</ele><time>2026-04-17T07:35:54.999Z</time></trkpt><trkpt lat="44.338167894181154" lon="8.32465514748236"><ele>384.6</ele><time>2026-04-17T07:35:55.999Z</time></trkpt><trkpt lat="44.338141959252" lon="8.324760080088353"><ele>384.4</ele><time>2026-04-17T07:35:56.999Z</time></trkpt><trkpt lat="44.33809409971082" lon="8.324868778958562"><ele>384.2</ele><time>2026-04-17T07:35:57.999Z</time></trkpt><trkpt lat="44.33796932540007" lon="8.324853621426419"><ele>384.0</ele><time>2026-04-17T07:35:58.999Z</time></trkpt><trkpt lat="44.33781359545589" lon="8.324869501743546"><ele>385.66666666666663</ele><time>2026-04-17T07:35:59.999Z</time></trkpt><trkpt lat="44.33764458907144" lon="8.324890597684808"><ele>387.3333333333333</ele><time>2026-04-17T07:36:00.999Z</time></trkpt><trkpt lat="44.33749761766407" lon="8.324885105429507"><ele>389.0</ele><time>2026-04-17T07:36:01.999Z</time></trkpt><trkpt lat="44.33736324245956" lon="8.324896675347496"><ele>388.3333333333333</ele><time>2026-04-17T07:36:02.999Z</time></trkpt><trkpt lat="44.33720301654049" lon="8.324914668239012"><ele>387.66666666666663</ele><time>2026-04-17T07:36:03.999Z</time></trkpt><trkpt lat="44.33703647769871" lon="8.324927233422065"><ele>387.0</ele><time>2026-04-17T07:36:04.999Z</time></trkpt><trkpt lat="44.33688182230083" lon="8.32495049915593"><ele>387.0</ele><time>2026-04-17T07:36:05.999Z</time></trkpt><trkpt lat="44.33672356913121" lon="8.325012262643396"><ele>387.0</ele><time>2026-04-17T07:36:06.999Z</time></trkpt><trkpt lat="44.33656175290778" lon="8.32510868122652"><ele>387.0</ele><time>2026-04-17T07:36:07.999Z</time></trkpt><trkpt lat="44.336402929460895" lon="8.32521997377173"><ele>387.33333333333337</ele><time>2026-04-17T07:36:08.999Z</time></trkpt><trkpt lat="44.33624055140412" lon="8.325324997558623"><ele>387.6666666666667</ele><time>2026-04-17T07:36:09.999Z</time></trkpt><trkpt lat="44.336084554559164" lon="8.325431626495206"><ele>388.0</ele><time>2026-04-17T07:36:10.999Z</time></trkpt><trkpt lat="44.33595202971302" lon="8.325558823578673"><ele>390.0</ele><time>2026-04-17T07:36:11.999Z</time></trkpt><trkpt lat="44.33583658054784" lon="8.325697426552681"><ele>392.0</ele><time>2026-04-17T07:36:12.999Z</time></trkpt><trkpt lat="44.33572685336954" lon="8.325847800654701"><ele>394.0</ele><time>2026-04-17T07:36:13.999Z</time></trkpt><trkpt lat="44.33561771861476" lon="8.326005926486248"><ele>392.75</ele><time>2026-04-17T07:36:14.999Z</time></trkpt><trkpt lat="44.335515738097875" lon="8.326144985483"><ele>391.5</ele><time>2026-04-17T07:36:15.999Z</time></trkpt><trkpt lat="44.335421301892374" lon="8.326278115222765"><ele>390.25</ele><time>2026-04-17T07:36:16.999Z</time></trkpt><trkpt lat="44.33533456423791" lon="8.326402477266747"><ele>389.0</ele><time>2026-04-17T07:36:17.999Z</time></trkpt><trkpt lat="44.33525268035995" lon="8.326520330017763"><ele>389.0</ele><time>2026-04-17T07:36:18.999Z</time></trkpt><trkpt lat="44.335168546860196" lon="8.326615577725683"><ele>389.0</ele><time>2026-04-17T07:36:19.999Z</time></trkpt><trkpt lat="44.3350645961059" lon="8.326679695892137"><ele>389.0</ele><time>2026-04-17T07:36:20.999Z</time></trkpt><trkpt lat="44.334947161743614" lon="8.326697303966817"><ele>389.0</ele><time>2026-04-17T07:36:21.999Z</time></trkpt><trkpt lat="44.33482410758743" lon="8.326653293819415"><ele>389.0</ele><time>2026-04-17T07:36:22.999Z</time></trkpt><trkpt lat="44.33469883686673" lon="8.326562352247857"><ele>389.0</ele><time>2026-04-17T07:36:23.999Z</time></trkpt><trkpt lat="44.33455781684045" lon="8.326453768433021"><ele>389.0</ele><time>2026-04-17T07:36:24.999Z</time></trkpt><trkpt lat="44.334413863316755" lon="8.326344386648714"><ele>389.0</ele><time>2026-04-17T07:36:25.999Z</time></trkpt><trkpt lat="44.33428635215604" lon="8.326252157669384"><ele>389.0</ele><time>2026-04-17T07:36:26.999Z</time></trkpt><trkpt lat="44.33417477560881" lon="8.326159809523068"><ele>389.0</ele><time>2026-04-17T07:36:27.999Z</time></trkpt><trkpt lat="44.33406319480196" lon="8.32606270202715"><ele>389.0</ele><time>2026-04-17T07:36:28.999Z</time></trkpt><trkpt lat="44.333935186441806" lon="8.325961995895929"><ele>390.0</ele><time>2026-04-17T07:36:29.999Z</time></trkpt><trkpt lat="44.3338005497925" lon="8.325861523146488"><ele>391.0</ele><time>2026-04-17T07:36:30.999Z</time></trkpt><trkpt lat="44.33365686931331" lon="8.32577108605483"><ele>392.0</ele><time>2026-04-17T07:36:31.999Z</time></trkpt><trkpt lat="44.33350228475492" lon="8.32573406320902"><ele>392.0</ele><time>2026-04-17T07:36:32.999Z</time></trkpt><trkpt lat="44.33332991773537" lon="8.32575007236686"><ele>392.0</ele><time>2026-04-17T07:36:33.999Z</time></trkpt><trkpt lat="44.33315180626193" lon="8.325807818721739"><ele>392.0</ele><time>2026-04-17T07:36:34.999Z</time></trkpt><trkpt lat="44.33296302658322" lon="8.325898730549381"><ele>399.66666666666663</ele><time>2026-04-17T07:36:35.999Z</time></trkpt><trkpt lat="44.332796544796714" lon="8.32601597405956"><ele>407.33333333333337</ele><time>2026-04-17T07:36:36.999Z</time></trkpt><trkpt lat="44.33264203139065" lon="8.32611724402164"><ele>415.0</ele><time>2026-04-17T07:36:37.999Z</time></trkpt><trkpt lat="44.33249872262348" lon="8.32621415082567"><ele>415.0</ele><time>2026-04-17T07:36:38.999Z</time></trkpt><trkpt lat="44.33236441362282" lon="8.3263045931095"><ele>415.0</ele><time>2026-04-17T07:36:39.999Z</time></trkpt><trkpt lat="44.33223671481785" lon="8.326392163880955"><ele>415.0</ele><time>2026-04-17T07:36:40.999Z</time></trkpt><trkpt lat="44.332109519091226" lon="8.326468621749692"><ele>415.0</ele><time>2026-04-17T07:36:41.999Z</time></trkpt><trkpt lat="44.3319764302766" lon="8.326548614113294"><ele>409.0</ele><time>2026-04-17T07:36:42.999Z</time></trkpt><trkpt lat="44.33183714401947" lon="8.326640928097182"><ele>403.0</ele><time>2026-04-17T07:36:43.999Z</time></trkpt><trkpt lat="44.331696907084606" lon="8.326734846460123"><ele>397.0</ele><time>2026-04-17T07:36:44.999Z</time></trkpt><trkpt lat="44.3315479973368" lon="8.326844400483324"><ele>397.0</ele><time>2026-04-17T07:36:45.999Z</time></trkpt><trkpt lat="44.33139570653558" lon="8.326964969885877"><ele>397.0</ele><time>2026-04-17T07:36:46.999Z</time></trkpt><trkpt lat="44.33124478768305" lon="8.327093407926554"><ele>397.0</ele><time>2026-04-17T07:36:47.999Z</time></trkpt><trkpt lat="44.331088194729375" lon="8.327233238557621"><ele>397.6666666666667</ele><time>2026-04-17T07:36:48.999Z</time></trkpt><trkpt lat="44.33092280950705" lon="8.32740122718233"><ele>398.33333333333337</ele><time>2026-04-17T07:36:49.999Z</time></trkpt><trkpt lat="44.330764585176844" lon="8.327572385455259"><ele>399.0</ele><time>2026-04-17T07:36:50.999Z</time></trkpt><trkpt lat="44.3306114507357" lon="8.327738235704043"><ele>399.33333333333337</ele><time>2026-04-17T07:36:51.999Z</time></trkpt><trkpt lat="44.33046587870954" lon="8.327896677951268"><ele>399.6666666666667</ele><time>2026-04-17T07:36:52.999Z</time></trkpt><trkpt lat="44.330322419899844" lon="8.328050299163746"><ele>400.0</ele><time>2026-04-17T07:36:53.999Z</time></trkpt><trkpt lat="44.33018469763445" lon="8.328197246110928"><ele>400.0</ele><time>2026-04-17T07:36:54.999Z</time></trkpt><trkpt lat="44.33004467917315" lon="8.328334644174925"><ele>400.0</ele><time>2026-04-17T07:36:55.999Z</time></trkpt><trkpt lat="44.32988194522761" lon="8.32846481283973"><ele>400.0</ele><time>2026-04-17T07:36:56.999Z</time></trkpt><trkpt lat="44.32970058360111" lon="8.328574985179475"><ele>408.6666666666667</ele><time>2026-04-17T07:36:57.999Z</time></trkpt><trkpt lat="44.32951520443105" lon="8.328679850931419"><ele>417.33333333333337</ele><time>2026-04-17T07:36:58.998Z</time></trkpt><trkpt lat="44.329323961994426" lon="8.328775487297404"><ele>426.0</ele><time>2026-04-17T07:36:59.998Z</time></trkpt><trkpt lat="44.3291421019479" lon="8.328877442184522"><ele>419.33333333333337</ele><time>2026-04-17T07:37:00.998Z</time></trkpt><trkpt lat="44.32897127714081" lon="8.32897733122736"><ele>412.6666666666667</ele><time>2026-04-17T07:37:01.998Z</time></trkpt><trkpt lat="44.3288065498914" lon="8.329068765450895"><ele>406.0</ele><time>2026-04-17T07:37:02.998Z</time></trkpt><trkpt lat="44.328623999461314" lon="8.329161099656858"><ele>406.0</ele><time>2026-04-17T07:37:03.998Z</time></trkpt><trkpt lat="44.32843951508004" lon="8.329240889367822"><ele>406.0</ele><time>2026-04-17T07:37:05Z</time></trkpt><trkpt lat="44.32826227538308" lon="8.329317397823294"><ele>406.0</ele><time>2026-04-17T07:37:06Z</time></trkpt><trkpt lat="44.32807963957372" lon="8.329396278304133"><ele>404.33333333333337</ele><time>2026-04-17T07:37:07Z</time></trkpt><trkpt lat="44.327889746403784" lon="8.329491100113835"><ele>402.66666666666663</ele><time>2026-04-17T07:37:08Z</time></trkpt><trkpt lat="44.32770949652366" lon="8.329590299911112"><ele>401.0</ele><time>2026-04-17T07:37:09Z</time></trkpt><trkpt lat="44.32753282564601" lon="8.329703008153153"><ele>400.0</ele><time>2026-04-17T07:37:10Z</time></trkpt><trkpt lat="44.327360074871535" lon="8.329822470739717"><ele>399.0</ele><time>2026-04-17T07:37:11Z</time></trkpt><trkpt lat="44.32720915094543" lon="8.329937366481259"><ele>398.0</ele><time>2026-04-17T07:37:12Z</time></trkpt><trkpt lat="44.32707413392773" lon="8.330029757498133"><ele>398.0</ele><time>2026-04-17T07:37:13Z</time></trkpt><trkpt lat="44.32695392903864" lon="8.33010424794514"><ele>398.0</ele><time>2026-04-17T07:37:14Z</time></trkpt><trkpt lat="44.32685663728223" lon="8.330173668532455"><ele>398.0</ele><time>2026-04-17T07:37:15Z</time></trkpt><trkpt lat="44.32676370943005" lon="8.330221111941665"><ele>398.0</ele><time>2026-04-17T07:37:16Z</time></trkpt><trkpt lat="44.32667425027642" lon="8.330221375907966"><ele>398.0</ele><time>2026-04-17T07:37:17Z</time></trkpt><trkpt lat="44.32658555841063" lon="8.33018217660422"><ele>398.0</ele><time>2026-04-17T07:37:18Z</time></trkpt><trkpt lat="44.326524232569724" lon="8.330097551829594"><ele>398.0</ele><time>2026-04-17T07:37:19Z</time></trkpt><trkpt lat="44.32645300961626" lon="8.329995272904739"><ele>398.0</ele><time>2026-04-17T07:37:20Z</time></trkpt><trkpt lat="44.32643693856362" lon="8.3297654495571"><ele>398.0</ele><time>2026-04-17T07:37:21Z</time></trkpt><trkpt lat="44.32639991507186" lon="8.3295220154828"><ele>401.0</ele><time>2026-04-17T07:37:22Z</time></trkpt><trkpt lat="44.32636422250169" lon="8.329244401561553"><ele>404.0</ele><time>2026-04-17T07:37:23Z</time></trkpt><trkpt lat="44.32633634885129" lon="8.32892644201651"><ele>407.0</ele><time>2026-04-17T07:37:24Z</time></trkpt><trkpt lat="44.32633764209654" lon="8.328612181019638"><ele>406.66666666666663</ele><time>2026-04-17T07:37:25Z</time></trkpt><trkpt lat="44.32631872539197" lon="8.328335398571749"><ele>406.33333333333337</ele><time>2026-04-17T07:37:26Z</time></trkpt><trkpt lat="44.326315156397094" lon="8.328097937581083"><ele>406.0</ele><time>2026-04-17T07:37:27Z</time></trkpt><trkpt lat="44.32628782343104" lon="8.32788322874656"><ele>406.0</ele><time>2026-04-17T07:37:28Z</time></trkpt><trkpt lat="44.326212630608964" lon="8.327693600150445"><ele>406.0</ele><time>2026-04-17T07:37:29Z</time></trkpt><trkpt lat="44.32609755826014" lon="8.327540111113061"><ele>406.0</ele><time>2026-04-17T07:37:30Z</time></trkpt><trkpt lat="44.3259562852899" lon="8.327409924375786"><ele>406.0</ele><time>2026-04-17T07:37:31Z</time></trkpt><trkpt lat="44.32580174238428" lon="8.327300287608988"><ele>406.0</ele><time>2026-04-17T07:37:32Z</time></trkpt><trkpt lat="44.32565505181544" lon="8.327220996972523"><ele>406.0</ele><time>2026-04-17T07:37:33Z</time></trkpt><trkpt lat="44.32550559271165" lon="8.327144793922201"><ele>407.33333333333337</ele><time>2026-04-17T07:37:34Z</time></trkpt><trkpt lat="44.32535390035801" lon="8.327094033207917"><ele>408.66666666666663</ele><time>2026-04-17T07:37:35Z</time></trkpt><trkpt lat="44.32519487215291" lon="8.327070808528818"><ele>410.0</ele><time>2026-04-17T07:37:36Z</time></trkpt><trkpt lat="44.325031373104075" lon="8.327056745698155"><ele>410.0</ele><time>2026-04-17T07:37:37Z</time></trkpt><trkpt lat="44.324878096366" lon="8.327044367487966"><ele>410.0</ele><time>2026-04-17T07:37:38Z</time></trkpt><trkpt lat="44.324731001796486" lon="8.32703012620504"><ele>410.0</ele><time>2026-04-17T07:37:39Z</time></trkpt><trkpt lat="44.32459667513235" lon="8.32699938615107"><ele>410.0</ele><time>2026-04-17T07:37:40Z</time></trkpt><trkpt lat="44.32447155967238" lon="8.326955495557291"><ele>413.25</ele><time>2026-04-17T07:37:40.999Z</time></trkpt><trkpt lat="44.32436005540052" lon="8.326889687027352"><ele>416.5</ele><time>2026-04-17T07:37:41.999Z</time></trkpt><trkpt lat="44.32426505278844" lon="8.326786055063288"><ele>419.75</ele><time>2026-04-17T07:37:42.999Z</time></trkpt><trkpt lat="44.32419094228718" lon="8.326649834634212"><ele>423.0</ele><time>2026-04-17T07:37:43.999Z</time></trkpt><trkpt lat="44.324140879029564" lon="8.326504020297943"><ele>419.75</ele><time>2026-04-17T07:37:44.999Z</time></trkpt><trkpt lat="44.32411148250946" lon="8.32635276346412"><ele>416.5</ele><time>2026-04-17T07:37:45.999Z</time></trkpt><trkpt lat="44.32409551367285" lon="8.326180276189394"><ele>413.25</ele><time>2026-04-17T07:37:46.999Z</time></trkpt><trkpt lat="44.324087737134334" lon="8.32599334531769"><ele>410.0</ele><time>2026-04-17T07:37:47.999Z</time></trkpt><trkpt lat="44.32405890273748" lon="8.325817063359683"><ele>410.0</ele><time>2026-04-17T07:37:48.999Z</time></trkpt><trkpt lat="44.32401866171831" lon="8.325646023784147"><ele>410.0</ele><time>2026-04-17T07:37:49.999Z</time></trkpt><trkpt lat="44.32399326347109" lon="8.325453432360339"><ele>410.0</ele><time>2026-04-17T07:37:50.999Z</time></trkpt><trkpt lat="44.323972102909586" lon="8.325265609541594"><ele>410.0</ele><time>2026-04-17T07:37:51.999Z</time></trkpt><trkpt lat="44.32394028787187" lon="8.325084770624269"><ele>410.2</ele><time>2026-04-17T07:37:52.999Z</time></trkpt><trkpt lat="44.32391866598794" lon="8.324917931940693"><ele>410.4</ele><time>2026-04-17T07:37:53.999Z</time></trkpt><trkpt lat="44.323900443130974" lon="8.324763889079396"><ele>410.6</ele><time>2026-04-17T07:37:54.999Z</time></trkpt><trkpt lat="44.32387757885383" lon="8.324624147077175"><ele>410.8</ele><time>2026-04-17T07:37:55.999Z</time></trkpt><trkpt lat="44.32385506065097" lon="8.324481706341762"><ele>411.0</ele><time>2026-04-17T07:37:56.999Z</time></trkpt><trkpt lat="44.323822140955535" lon="8.324339696530261"><ele>411.0</ele><time>2026-04-17T07:37:57.999Z</time></trkpt><trkpt lat="44.32377477791347" lon="8.32421620037124"><ele>411.0</ele><time>2026-04-17T07:37:58.999Z</time></trkpt><trkpt lat="44.323718516795374" lon="8.324109675921207"><ele>411.0</ele><time>2026-04-17T07:37:59.999Z</time></trkpt><trkpt lat="44.323648759520125" lon="8.324013575563503"><ele>411.0</ele><time>2026-04-17T07:38:00.999Z</time></trkpt><trkpt lat="44.323578149139635" lon="8.323938456924028"><ele>411.0</ele><time>2026-04-17T07:38:01.999Z</time></trkpt><trkpt lat="44.323505936601414" lon="8.323893788774381"><ele>411.0</ele><time>2026-04-17T07:38:02.999Z</time></trkpt><trkpt lat="44.32342732738063" lon="8.323884298586782"><ele>411.0</ele><time>2026-04-17T07:38:03.999Z</time></trkpt><trkpt lat="44.323341690740364" lon="8.32390369471942"><ele>411.0</ele><time>2026-04-17T07:38:04.999Z</time></trkpt><trkpt lat="44.32323107132449" lon="8.323973018448907"><ele>411.0</ele><time>2026-04-17T07:38:05.999Z</time></trkpt><trkpt lat="44.32312119868617" lon="8.324074459985036"><ele>411.0</ele><time>2026-04-17T07:38:06.999Z</time></trkpt><trkpt lat="44.323014138951095" lon="8.324144344285713"><ele>411.0</ele><time>2026-04-17T07:38:07.999Z</time></trkpt><trkpt lat="44.32288655885291" lon="8.324285945357875"><ele>411.0</ele><time>2026-04-17T07:38:08.999Z</time></trkpt><trkpt lat="44.322773546838796" lon="8.324397585039353"><ele>411.0</ele><time>2026-04-17T07:38:09.999Z</time></trkpt><trkpt lat="44.32267444295956" lon="8.32448754818026"><ele>411.0</ele><time>2026-04-17T07:38:10.999Z</time></trkpt><trkpt lat="44.32258226412976" lon="8.324558097644237"><ele>411.0</ele><time>2026-04-17T07:38:11.999Z</time></trkpt><trkpt lat="44.32249273402367" lon="8.324602571734316"><ele>411.0</ele><time>2026-04-17T07:38:12.999Z</time></trkpt><trkpt lat="44.322394578382465" lon="8.32461264942874"><ele>411.0</ele><time>2026-04-17T07:38:13.999Z</time></trkpt><trkpt lat="44.32230649545319" lon="8.324569565585598"><ele>411.0</ele><time>2026-04-17T07:38:14.999Z</time></trkpt><trkpt lat="44.322219186663865" lon="8.324517811217683"><ele>411.0</ele><time>2026-04-17T07:38:15.999Z</time></trkpt><trkpt lat="44.322148040921384" lon="8.324430368667624"><ele>410.5</ele><time>2026-04-17T07:38:16.999Z</time></trkpt><trkpt lat="44.32207321431061" lon="8.324330650947841"><ele>410.0</ele><time>2026-04-17T07:38:17.999Z</time></trkpt><trkpt lat="44.32201706097927" lon="8.3242129755675"><ele>409.5</ele><time>2026-04-17T07:38:18.999Z</time></trkpt><trkpt lat="44.32192891424486" lon="8.32408616813115"><ele>409.0</ele><time>2026-04-17T07:38:19.999Z</time></trkpt><trkpt lat="44.32182960330116" lon="8.323981548744442"><ele>409.0</ele><time>2026-04-17T07:38:20.999Z</time></trkpt><trkpt lat="44.3217025319767" lon="8.323868173334017"><ele>409.0</ele><time>2026-04-17T07:38:21.999Z</time></trkpt><trkpt lat="44.32153544003899" lon="8.323757417114852"><ele>409.0</ele><time>2026-04-17T07:38:22.999Z</time></trkpt><trkpt lat="44.32135563044284" lon="8.323673954495604"><ele>409.33333333333337</ele><time>2026-04-17T07:38:23.999Z</time></trkpt><trkpt lat="44.321166432633" lon="8.323590230318157"><ele>409.66666666666663</ele><time>2026-04-17T07:38:24.999Z</time></trkpt><trkpt lat="44.320974116132156" lon="8.323493150787607"><ele>410.0</ele><time>2026-04-17T07:38:25.999Z</time></trkpt><trkpt lat="44.32078785325551" lon="8.323403077502569"><ele>410.0</ele><time>2026-04-17T07:38:26.999Z</time></trkpt><trkpt lat="44.32062008841488" lon="8.323306081913715"><ele>410.0</ele><time>2026-04-17T07:38:27.999Z</time></trkpt><trkpt lat="44.32045448710045" lon="8.323217681177438"><ele>410.0</ele><time>2026-04-17T07:38:28.999Z</time></trkpt><trkpt lat="44.32028557262326" lon="8.32313097197629"><ele>410.3333333333333</ele><time>2026-04-17T07:38:29.999Z</time></trkpt><trkpt lat="44.32010572003406" lon="8.32304275048583"><ele>410.66666666666663</ele><time>2026-04-17T07:38:30.999Z</time></trkpt><trkpt lat="44.319941531031496" lon="8.322962175307026"><ele>411.0</ele><time>2026-04-17T07:38:31.999Z</time></trkpt><trkpt lat="44.31979184105587" lon="8.322872024827095"><ele>413.0</ele><time>2026-04-17T07:38:32.999Z</time></trkpt><trkpt lat="44.31965626654505" lon="8.322755840589112"><ele>415.0</ele><time>2026-04-17T07:38:33.999Z</time></trkpt><trkpt lat="44.31953204425365" lon="8.322579843988306"><ele>417.0</ele><time>2026-04-17T07:38:34.999Z</time></trkpt><trkpt lat="44.31937567476274" lon="8.322405386497762"><ele>415.66666666666663</ele><time>2026-04-17T07:38:35.999Z</time></trkpt><trkpt lat="44.31923098522708" lon="8.322202077954366"><ele>414.3333333333333</ele><time>2026-04-17T07:38:36.999Z</time></trkpt><trkpt lat="44.31909697079171" lon="8.322034624392169"><ele>413.0</ele><time>2026-04-17T07:38:37.999Z</time></trkpt><trkpt lat="44.318975052193856" lon="8.32187571550835"><ele>414.66666666666663</ele><time>2026-04-17T07:38:38.999Z</time></trkpt><trkpt lat="44.31886121080324" lon="8.321716154689328"><ele>416.33333333333337</ele><time>2026-04-17T07:38:39.999Z</time></trkpt><trkpt lat="44.31875955836075" lon="8.321500254807754"><ele>418.0</ele><time>2026-04-17T07:38:40.999Z</time></trkpt><trkpt lat="44.31867563776574" lon="8.321252837512484"><ele>418.0</ele><time>2026-04-17T07:38:41.999Z</time></trkpt><trkpt lat="44.31860107620031" lon="8.32098822578533"><ele>418.0</ele><time>2026-04-17T07:38:42.999Z</time></trkpt><trkpt lat="44.318515981708956" lon="8.320764938647311"><ele>418.0</ele><time>2026-04-17T07:38:43.999Z</time></trkpt><trkpt lat="44.31843664804367" lon="8.320564754788625"><ele>418.5</ele><time>2026-04-17T07:38:44.999Z</time></trkpt><trkpt lat="44.31836512246874" lon="8.320387342824361"><ele>419.0</ele><time>2026-04-17T07:38:45.999Z</time></trkpt><trkpt lat="44.31828661644648" lon="8.320254744352805"><ele>419.5</ele><time>2026-04-17T07:38:46.999Z</time></trkpt><trkpt lat="44.3181866128168" lon="8.32016363762903"><ele>420.0</ele><time>2026-04-17T07:38:47.999Z</time></trkpt><trkpt lat="44.31805622859575" lon="8.320129611977725"><ele>420.0</ele><time>2026-04-17T07:38:48.999Z</time></trkpt><trkpt lat="44.31790312488997" lon="8.320128432748328"><ele>420.0</ele><time>2026-04-17T07:38:49.999Z</time></trkpt><trkpt lat="44.31773664771842" lon="8.3201236424897"><ele>420.0</ele><time>2026-04-17T07:38:50.999Z</time></trkpt><trkpt lat="44.31759414655147" lon="8.320102228052535"><ele>420.0</ele><time>2026-04-17T07:38:51.999Z</time></trkpt><trkpt lat="44.31746324764448" lon="8.320082168801248"><ele>420.0</ele><time>2026-04-17T07:38:52.999Z</time></trkpt><trkpt lat="44.317341212453506" lon="8.319971936788402"><ele>420.0</ele><time>2026-04-17T07:38:53.999Z</time></trkpt><trkpt lat="44.3172269158891" lon="8.319804742044983"><ele>420.0</ele><time>2026-04-17T07:38:54.999Z</time></trkpt><trkpt lat="44.317109851324176" lon="8.319615681419203"><ele>422.33333333333337</ele><time>2026-04-17T07:38:55.999Z</time></trkpt><trkpt lat="44.31701432956921" lon="8.319436225921637"><ele>424.6666666666667</ele><time>2026-04-17T07:38:56.998Z</time></trkpt><trkpt lat="44.316897962711394" lon="8.319257221809108"><ele>427.0</ele><time>2026-04-17T07:38:57.998Z</time></trkpt><trkpt lat="44.3167580649531" lon="8.319045709212558"><ele>424.0</ele><time>2026-04-17T07:38:58.998Z</time></trkpt><trkpt lat="44.316631377211934" lon="8.318836870459467"><ele>421.0</ele><time>2026-04-17T07:38:59.998Z</time></trkpt><trkpt lat="44.31652538035284" lon="8.318670012695678"><ele>418.0</ele><time>2026-04-17T07:39:00.998Z</time></trkpt><trkpt lat="44.31644340707273" lon="8.318502713687174"><ele>418.25</ele><time>2026-04-17T07:39:01.998Z</time></trkpt><trkpt lat="44.31637071252463" lon="8.318338976147896"><ele>418.5</ele><time>2026-04-17T07:39:02.998Z</time></trkpt><trkpt lat="44.316355170341836" lon="8.318159417719253"><ele>418.75</ele><time>2026-04-17T07:39:03.998Z</time></trkpt><trkpt lat="44.316388812444394" lon="8.317973561139503"><ele>419.0</ele><time>2026-04-17T07:39:04.998Z</time></trkpt><trkpt lat="44.316413414428034" lon="8.317761049008721"><ele>419.0</ele><time>2026-04-17T07:39:05.998Z</time></trkpt><trkpt lat="44.31646724890853" lon="8.317518776669557"><ele>419.0</ele><time>2026-04-17T07:39:06.998Z</time></trkpt><trkpt lat="44.316506378845425" lon="8.31727159402843"><ele>419.0</ele><time>2026-04-17T07:39:07.998Z</time></trkpt><trkpt lat="44.31653316141214" lon="8.317033310276427"><ele>421.0</ele><time>2026-04-17T07:39:08.998Z</time></trkpt><trkpt lat="44.316559736402056" lon="8.316774767551934"><ele>423.0</ele><time>2026-04-17T07:39:10Z</time></trkpt><trkpt lat="44.31658978162354" lon="8.31651616636157"><ele>425.0</ele><time>2026-04-17T07:39:11Z</time></trkpt><trkpt lat="44.31659793268685" lon="8.31624683710714"><ele>426.0</ele><time>2026-04-17T07:39:12Z</time></trkpt><trkpt lat="44.31659596386236" lon="8.315968905314662"><ele>427.0</ele><time>2026-04-17T07:39:13Z</time></trkpt><trkpt lat="44.31658507071484" lon="8.315692767864615"><ele>428.0</ele><time>2026-04-17T07:39:14Z</time></trkpt><trkpt lat="44.316582097682584" lon="8.31541945710894"><ele>428.0</ele><time>2026-04-17T07:39:15Z</time></trkpt><trkpt lat="44.31657904274592" lon="8.31516295805898"><ele>428.0</ele><time>2026-04-17T07:39:16Z</time></trkpt><trkpt lat="44.31657330359647" lon="8.314928217337812"><ele>428.0</ele><time>2026-04-17T07:39:17Z</time></trkpt><trkpt lat="44.316563151743956" lon="8.314701660981653"><ele>428.3333333333333</ele><time>2026-04-17T07:39:18Z</time></trkpt><trkpt lat="44.316535337621595" lon="8.314467942988689"><ele>428.66666666666663</ele><time>2026-04-17T07:39:19Z</time></trkpt><trkpt lat="44.31649132102547" lon="8.314233190267428"><ele>429.0</ele><time>2026-04-17T07:39:20Z</time></trkpt><trkpt lat="44.31644275249632" lon="8.314034021094376"><ele>428.75</ele><time>2026-04-17T07:39:21Z</time></trkpt><trkpt lat="44.316396128003774" lon="8.313888877469614"><ele>428.5</ele><time>2026-04-17T07:39:22Z</time></trkpt><trkpt lat="44.316334524947166" lon="8.313766518857305"><ele>428.25</ele><time>2026-04-17T07:39:23Z</time></trkpt><trkpt lat="44.31623930531806" lon="8.313674878587882"><ele>428.0</ele><time>2026-04-17T07:39:24Z</time></trkpt><trkpt lat="44.31611169127583" lon="8.313631468357128"><ele>428.0</ele><time>2026-04-17T07:39:25Z</time></trkpt><trkpt lat="44.31593632652207" lon="8.313628653285315"><ele>428.0</ele><time>2026-04-17T07:39:26Z</time></trkpt><trkpt lat="44.315750149579124" lon="8.313648163054816"><ele>428.0</ele><time>2026-04-17T07:39:27Z</time></trkpt><trkpt lat="44.31555541715348" lon="8.313681600139926"><ele>427.0</ele><time>2026-04-17T07:39:28Z</time></trkpt><trkpt lat="44.315368517393914" lon="8.31370202456742"><ele>426.0</ele><time>2026-04-17T07:39:29Z</time></trkpt><trkpt lat="44.31519741084721" lon="8.313739668917528"><ele>425.0</ele><time>2026-04-17T07:39:30Z</time></trkpt><trkpt lat="44.31504180749377" lon="8.313813362021342"><ele>425.0</ele><time>2026-04-17T07:39:31Z</time></trkpt><trkpt lat="44.31489479360869" lon="8.313884892820978"><ele>425.0</ele><time>2026-04-17T07:39:32Z</time></trkpt><trkpt lat="44.31474531926974" lon="8.31391981804467"><ele>425.0</ele><time>2026-04-17T07:39:33Z</time></trkpt><trkpt lat="44.31460012855963" lon="8.313899606044968"><ele>424.0</ele><time>2026-04-17T07:39:34Z</time></trkpt><trkpt lat="44.31446869182101" lon="8.313791855095928"><ele>423.0</ele><time>2026-04-17T07:39:35Z</time></trkpt><trkpt lat="44.314315302727906" lon="8.313739732117194"><ele>422.0</ele><time>2026-04-17T07:39:36Z</time></trkpt><trkpt lat="44.31414864905816" lon="8.313754609157309"><ele>422.0</ele><time>2026-04-17T07:39:37Z</time></trkpt><trkpt lat="44.31396247257198" lon="8.313792357875135"><ele>422.0</ele><time>2026-04-17T07:39:38Z</time></trkpt><trkpt lat="44.31378320653538" lon="8.313820397229653"><ele>422.0</ele><time>2026-04-17T07:39:39Z</time></trkpt><trkpt lat="44.313631453892754" lon="8.313728211309346"><ele>427.0</ele><time>2026-04-17T07:39:40Z</time></trkpt><trkpt lat="44.31351318298992" lon="8.31359086772874"><ele>432.0</ele><time>2026-04-17T07:39:41Z</time></trkpt><trkpt lat="44.3134020530507" lon="8.3134155900704"><ele>437.0</ele><time>2026-04-17T07:39:42Z</time></trkpt><trkpt lat="44.31326819466195" lon="8.313197146807036"><ele>434.0</ele><time>2026-04-17T07:39:43Z</time></trkpt><trkpt lat="44.3131576567194" lon="8.312977745403382"><ele>431.0</ele><time>2026-04-17T07:39:44Z</time></trkpt><trkpt lat="44.313051136843846" lon="8.312793074796796"><ele>428.0</ele><time>2026-04-17T07:39:45Z</time></trkpt><trkpt lat="44.312952297885765" lon="8.312635944496341"><ele>428.0</ele><time>2026-04-17T07:39:46Z</time></trkpt><trkpt lat="44.31286637261988" lon="8.312507356658902"><ele>428.0</ele><time>2026-04-17T07:39:47Z</time></trkpt><trkpt lat="44.3127667392054" lon="8.312407419084279"><ele>428.0</ele><time>2026-04-17T07:39:48Z</time></trkpt><trkpt lat="44.31263809207207" lon="8.312364007770595"><ele>428.0</ele><time>2026-04-17T07:39:49Z</time></trkpt><trkpt lat="44.31250171563119" lon="8.312383269576728"><ele>428.0</ele><time>2026-04-17T07:39:50Z</time></trkpt><trkpt lat="44.312373271429955" lon="8.312477280938742"><ele>428.0</ele><time>2026-04-17T07:39:51Z</time></trkpt><trkpt lat="44.312225261763324" lon="8.312608187957107"><ele>428.0</ele><time>2026-04-17T07:39:52Z</time></trkpt><trkpt lat="44.31207942809926" lon="8.312744026357397"><ele>426.3333333333333</ele><time>2026-04-17T07:39:53Z</time></trkpt><trkpt lat="44.31193445010622" lon="8.312902878470167"><ele>424.66666666666663</ele><time>2026-04-17T07:39:54Z</time></trkpt><trkpt lat="44.311800069238075" lon="8.313039402846561"><ele>423.0</ele><time>2026-04-17T07:39:55Z</time></trkpt><trkpt lat="44.311675168400576" lon="8.313161644174567"><ele>425.66666666666663</ele><time>2026-04-17T07:39:56Z</time></trkpt><trkpt lat="44.311552878361724" lon="8.313262818572559"><ele>428.3333333333333</ele><time>2026-04-17T07:39:57Z</time></trkpt><trkpt lat="44.311408023435824" lon="8.313335289101618"><ele>431.0</ele><time>2026-04-17T07:39:58Z</time></trkpt><trkpt lat="44.31124939006519" lon="8.313371701967283"><ele>431.0</ele><time>2026-04-17T07:39:59Z</time></trkpt><trkpt lat="44.31108622916798" lon="8.313387939182155"><ele>431.0</ele><time>2026-04-17T07:40:00Z</time></trkpt><trkpt lat="44.31092628046203" lon="8.313381302631596"><ele>431.0</ele><time>2026-04-17T07:40:01Z</time></trkpt><trkpt lat="44.31076795658421" lon="8.313360811483406"><ele>431.0</ele><time>2026-04-17T07:40:01.999Z</time></trkpt><trkpt lat="44.310601629769614" lon="8.313360098623383"><ele>431.0</ele><time>2026-04-17T07:40:02.999Z</time></trkpt><trkpt lat="44.31043345839573" lon="8.313366013207235"><ele>431.0</ele><time>2026-04-17T07:40:03.999Z</time></trkpt><trkpt lat="44.31028408242034" lon="8.313363586764495"><ele>431.0</ele><time>2026-04-17T07:40:04.999Z</time></trkpt><trkpt lat="44.31014834469406" lon="8.31333985915338"><ele>431.0</ele><time>2026-04-17T07:40:05.999Z</time></trkpt><trkpt lat="44.310020454105754" lon="8.313254319573275"><ele>431.0</ele><time>2026-04-17T07:40:06.999Z</time></trkpt><trkpt lat="44.30990112065667" lon="8.31311637976207"><ele>431.0</ele><time>2026-04-17T07:40:07.999Z</time></trkpt><trkpt lat="44.309831537992736" lon="8.31292745741141"><ele>431.0</ele><time>2026-04-17T07:40:08.999Z</time></trkpt><trkpt lat="44.3097444808086" lon="8.31272840167108"><ele>431.0</ele><time>2026-04-17T07:40:09.999Z</time></trkpt><trkpt lat="44.30968121179256" lon="8.31251023636435"><ele>431.0</ele><time>2026-04-17T07:40:10.999Z</time></trkpt><trkpt lat="44.30963325983053" lon="8.312286458924087"><ele>433.0</ele><time>2026-04-17T07:40:11.999Z</time></trkpt><trkpt lat="44.30965380054626" lon="8.31207926644115"><ele>435.0</ele><time>2026-04-17T07:40:12.999Z</time></trkpt><trkpt lat="44.30971657426497" lon="8.311893930665304"><ele>437.0</ele><time>2026-04-17T07:40:13.999Z</time></trkpt><trkpt lat="44.30977436643676" lon="8.31167070041197"><ele>437.0</ele><time>2026-04-17T07:40:14.999Z</time></trkpt><trkpt lat="44.30983055629787" lon="8.311442226436872"><ele>437.0</ele><time>2026-04-17T07:40:15.999Z</time></trkpt><trkpt lat="44.30984707763246" lon="8.311240824817842"><ele>437.0</ele><time>2026-04-17T07:40:16.999Z</time></trkpt><trkpt lat="44.30979724030847" lon="8.311057614125662"><ele>437.3333333333333</ele><time>2026-04-17T07:40:17.999Z</time></trkpt><trkpt lat="44.30969610791228" lon="8.310859438524217"><ele>437.66666666666663</ele><time>2026-04-17T07:40:18.999Z</time></trkpt><trkpt lat="44.30955328798798" lon="8.310663408048475"><ele>438.0</ele><time>2026-04-17T07:40:19.999Z</time></trkpt><trkpt lat="44.30939229790716" lon="8.310462954370871"><ele>438.0</ele><time>2026-04-17T07:40:20.999Z</time></trkpt><trkpt lat="44.309233652305224" lon="8.310252274708084"><ele>438.0</ele><time>2026-04-17T07:40:21.999Z</time></trkpt><trkpt lat="44.30906207423268" lon="8.310029232009033"><ele>439.66666666666663</ele><time>2026-04-17T07:40:22.999Z</time></trkpt><trkpt lat="44.30889148866394" lon="8.309833046536987"><ele>441.3333333333333</ele><time>2026-04-17T07:40:23.999Z</time></trkpt><trkpt lat="44.308745929859946" lon="8.309635757861328"><ele>443.0</ele><time>2026-04-17T07:40:24.999Z</time></trkpt><trkpt lat="44.308599195915924" lon="8.309453074495195"><ele>443.0</ele><time>2026-04-17T07:40:25.999Z</time></trkpt><trkpt lat="44.308436651721216" lon="8.309296505413265"><ele>443.0</ele><time>2026-04-17T07:40:26.999Z</time></trkpt><trkpt lat="44.30825027732489" lon="8.309185193930844"><ele>443.0</ele><time>2026-04-17T07:40:27.999Z</time></trkpt><trkpt lat="44.30803749663469" lon="8.309088690386158"><ele>440.0</ele><time>2026-04-17T07:40:28.999Z</time></trkpt><trkpt lat="44.30781119484194" lon="8.308968334898424"><ele>437.0</ele><time>2026-04-17T07:40:29.999Z</time></trkpt><trkpt lat="44.30758767845358" lon="8.308819193683316"><ele>437.0</ele><time>2026-04-17T07:40:30.999Z</time></trkpt><trkpt lat="44.307406346297476" lon="8.30866280020643"><ele>437.0</ele><time>2026-04-17T07:40:31.999Z</time></trkpt><trkpt lat="44.30722835663969" lon="8.308533687249305"><ele>437.0</ele><time>2026-04-17T07:40:32.999Z</time></trkpt><trkpt lat="44.30703530697557" lon="8.3084351246929"><ele>444.0</ele><time>2026-04-17T07:40:33.999Z</time></trkpt><trkpt lat="44.30685912669101" lon="8.308376842678584"><ele>451.0</ele><time>2026-04-17T07:40:34.999Z</time></trkpt><trkpt lat="44.30671339439844" lon="8.30832226466415"><ele>458.0</ele><time>2026-04-17T07:40:35.999Z</time></trkpt><trkpt lat="44.30659895236749" lon="8.308247519914902"><ele>458.0</ele><time>2026-04-17T07:40:36.999Z</time></trkpt><trkpt lat="44.30649650900185" lon="8.308122719281439"><ele>458.0</ele><time>2026-04-17T07:40:37.999Z</time></trkpt><trkpt lat="44.306424795887715" lon="8.307929194451566"><ele>458.0</ele><time>2026-04-17T07:40:38.999Z</time></trkpt><trkpt lat="44.306383116338246" lon="8.307702627799754"><ele>466.3333333333333</ele><time>2026-04-17T07:40:39.999Z</time></trkpt><trkpt lat="44.306372245907944" lon="8.307424737709043"><ele>474.66666666666663</ele><time>2026-04-17T07:40:40.999Z</time></trkpt><trkpt lat="44.30638374557468" lon="8.307122440163353"><ele>483.0</ele><time>2026-04-17T07:40:41.999Z</time></trkpt><trkpt lat="44.30639179821926" lon="8.306808923443342"><ele>483.5</ele><time>2026-04-17T07:40:42.999Z</time></trkpt><trkpt lat="44.30638279345791" lon="8.306475598219468"><ele>484.0</ele><time>2026-04-17T07:40:43.999Z</time></trkpt><trkpt lat="44.306373690833816" lon="8.306170549799942"><ele>484.0</ele><time>2026-04-17T07:40:44.999Z</time></trkpt><trkpt lat="44.30636961743748" lon="8.305886612701332"><ele>484.0</ele><time>2026-04-17T07:40:45.999Z</time></trkpt><trkpt lat="44.30636581610732" lon="8.30560012984923"><ele>484.0</ele><time>2026-04-17T07:40:46.999Z</time></trkpt><trkpt lat="44.30635756544655" lon="8.305305088434231"><ele>483.6666666666667</ele><time>2026-04-17T07:40:47.999Z</time></trkpt><trkpt lat="44.30633960026834" lon="8.305029136280027"><ele>483.33333333333337</ele><time>2026-04-17T07:40:48.999Z</time></trkpt><trkpt lat="44.30630918844858" lon="8.304780119186107"><ele>483.0</ele><time>2026-04-17T07:40:49.999Z</time></trkpt><trkpt lat="44.306265896057084" lon="8.304554251072837"><ele>480.0</ele><time>2026-04-17T07:40:50.999Z</time></trkpt><trkpt lat="44.306206045487954" lon="8.30433106631073"><ele>477.0</ele><time>2026-04-17T07:40:51.999Z</time></trkpt><trkpt lat="44.306122617109715" lon="8.304110792318127"><ele>474.0</ele><time>2026-04-17T07:40:52.999Z</time></trkpt><trkpt lat="44.3060109660636" lon="8.303881838807031"><ele>472.66666666666663</ele><time>2026-04-17T07:40:53.999Z</time></trkpt><trkpt lat="44.30588016644922" lon="8.30365436178739"><ele>471.3333333333333</ele><time>2026-04-17T07:40:54.999Z</time></trkpt><trkpt lat="44.30574157823532" lon="8.303467613707744"><ele>470.0</ele><time>2026-04-17T07:40:55.999Z</time></trkpt><trkpt lat="44.30557121031056" lon="8.30326666198221"><ele>465.0</ele><time>2026-04-17T07:40:56.999Z</time></trkpt><trkpt lat="44.30540530872244" lon="8.303078645766057"><ele>460.0</ele><time>2026-04-17T07:40:57.999Z</time></trkpt><trkpt lat="44.305249503730074" lon="8.302884686251167"><ele>455.0</ele><time>2026-04-17T07:40:58.999Z</time></trkpt><trkpt lat="44.305096783362984" lon="8.302686197490559"><ele>455.0</ele><time>2026-04-17T07:40:59.999Z</time></trkpt><trkpt lat="44.304958284602286" lon="8.302478830410012"><ele>455.0</ele><time>2026-04-17T07:41:00.999Z</time></trkpt><trkpt lat="44.30483723752316" lon="8.30227486509185"><ele>455.0</ele><time>2026-04-17T07:41:01.999Z</time></trkpt><trkpt lat="44.304729986820426" lon="8.30206170559767"><ele>456.0</ele><time>2026-04-17T07:41:02.999Z</time></trkpt><trkpt lat="44.30465040305575" lon="8.30186857108725"><ele>457.0</ele><time>2026-04-17T07:41:03.999Z</time></trkpt><trkpt lat="44.30456918889788" lon="8.301709160697607"><ele>458.0</ele><time>2026-04-17T07:41:04.999Z</time></trkpt><trkpt lat="44.30447937606055" lon="8.301614649227707"><ele>459.0</ele><time>2026-04-17T07:41:05.999Z</time></trkpt><trkpt lat="44.30433873074947" lon="8.301537166513393"><ele>459.0</ele><time>2026-04-17T07:41:06.999Z</time></trkpt><trkpt lat="44.30414309376272" lon="8.301503970091437"><ele>459.0</ele><time>2026-04-17T07:41:07.999Z</time></trkpt><trkpt lat="44.30393299555798" lon="8.301483190812988"><ele>459.0</ele><time>2026-04-17T07:41:08.999Z</time></trkpt><trkpt lat="44.30375061065883" lon="8.301454294676818"><ele>455.0</ele><time>2026-04-17T07:41:09.999Z</time></trkpt><trkpt lat="44.303589559469195" lon="8.301395068706608"><ele>451.0</ele><time>2026-04-17T07:41:10.999Z</time></trkpt><trkpt lat="44.30344847602001" lon="8.301319509139834"><ele>447.0</ele><time>2026-04-17T07:41:11.999Z</time></trkpt><trkpt lat="44.303328063849335" lon="8.301282000790264"><ele>443.0</ele><time>2026-04-17T07:41:12.999Z</time></trkpt><trkpt lat="44.303227389595094" lon="8.301307591729085"><ele>443.0</ele><time>2026-04-17T07:41:13.999Z</time></trkpt><trkpt lat="44.30314590386071" lon="8.301393663570485"><ele>443.0</ele><time>2026-04-17T07:41:14.999Z</time></trkpt><trkpt lat="44.303085041808814" lon="8.301547867355106"><ele>443.0</ele><time>2026-04-17T07:41:16Z</time></trkpt><trkpt lat="44.303035277471054" lon="8.301763831908238"><ele>443.0</ele><time>2026-04-17T07:41:17Z</time></trkpt><trkpt lat="44.30298677657702" lon="8.302016146763725"><ele>444.0</ele><time>2026-04-17T07:41:18Z</time></trkpt><trkpt lat="44.30288903656978" lon="8.302227831183506"><ele>445.0</ele><time>2026-04-17T07:41:19Z</time></trkpt><trkpt lat="44.30281637911432" lon="8.302437079300521"><ele>446.0</ele><time>2026-04-17T07:41:20Z</time></trkpt><trkpt lat="44.30277060185958" lon="8.30264676468795"><ele>446.0</ele><time>2026-04-17T07:41:21Z</time></trkpt><trkpt lat="44.302690655213276" lon="8.302822772362427"><ele>446.0</ele><time>2026-04-17T07:41:22Z</time></trkpt><trkpt lat="44.30260161785765" lon="8.302994651583282"><ele>446.0</ele><time>2026-04-17T07:41:23Z</time></trkpt><trkpt lat="44.302477843685104" lon="8.303165442952594"><ele>447.0</ele><time>2026-04-17T07:41:24Z</time></trkpt><trkpt lat="44.30234409650885" lon="8.303315882612207"><ele>448.0</ele><time>2026-04-17T07:41:25Z</time></trkpt><trkpt lat="44.302213653433604" lon="8.303436654022448"><ele>449.0</ele><time>2026-04-17T07:41:26Z</time></trkpt><trkpt lat="44.30209145918656" lon="8.303539695961824"><ele>449.0</ele><time>2026-04-17T07:41:27Z</time></trkpt><trkpt lat="44.30193781661244" lon="8.303539827010908"><ele>449.0</ele><time>2026-04-17T07:41:28Z</time></trkpt><trkpt lat="44.301770341373306" lon="8.30350727246609"><ele>449.0</ele><time>2026-04-17T07:41:29Z</time></trkpt><trkpt lat="44.30158596570951" lon="8.303453168803575"><ele>449.0</ele><time>2026-04-17T07:41:30Z</time></trkpt><trkpt lat="44.30143913669451" lon="8.303399857227115"><ele>449.0</ele><time>2026-04-17T07:41:31Z</time></trkpt><trkpt lat="44.30130045826446" lon="8.30339532471028"><ele>449.0</ele><time>2026-04-17T07:41:32Z</time></trkpt><trkpt lat="44.301161854274056" lon="8.303461238975016"><ele>449.0</ele><time>2026-04-17T07:41:33Z</time></trkpt><trkpt lat="44.30101521606168" lon="8.303575567839859"><ele>448.66666666666663</ele><time>2026-04-17T07:41:34Z</time></trkpt><trkpt lat="44.30085168130524" lon="8.30371862835779"><ele>448.33333333333337</ele><time>2026-04-17T07:41:35Z</time></trkpt><trkpt lat="44.300687134055465" lon="8.303788729746987"><ele>448.0</ele><time>2026-04-17T07:41:36Z</time></trkpt><trkpt lat="44.30054400317316" lon="8.3038452849968"><ele>447.25</ele><time>2026-04-17T07:41:37Z</time></trkpt><trkpt lat="44.30040365225524" lon="8.303852460393914"><ele>446.5</ele><time>2026-04-17T07:41:38Z</time></trkpt><trkpt lat="44.30027289412892" lon="8.303839808928396"><ele>445.75</ele><time>2026-04-17T07:41:39Z</time></trkpt><trkpt lat="44.300149082991574" lon="8.303813454015454"><ele>445.0</ele><time>2026-04-17T07:41:40Z</time></trkpt><trkpt lat="44.30003667662491" lon="8.303781173898361"><ele>445.0</ele><time>2026-04-17T07:41:41Z</time></trkpt><trkpt lat="44.29991776102879" lon="8.30375339948309"><ele>445.0</ele><time>2026-04-17T07:41:42Z</time></trkpt><trkpt lat="44.29980418837775" lon="8.303719910830539"><ele>445.0</ele><time>2026-04-17T07:41:43Z</time></trkpt><trkpt lat="44.29968958657274" lon="8.303697843883851"><ele>445.0</ele><time>2026-04-17T07:41:44Z</time></trkpt><trkpt lat="44.29955847976798" lon="8.30374376344414"><ele>445.6666666666667</ele><time>2026-04-17T07:41:45Z</time></trkpt><trkpt lat="44.299411056522" lon="8.303839084026704"><ele>446.33333333333337</ele><time>2026-04-17T07:41:46Z</time></trkpt><trkpt lat="44.299260871702906" lon="8.303940667974091"><ele>447.0</ele><time>2026-04-17T07:41:47Z</time></trkpt><trkpt lat="44.29910902379222" lon="8.30396547102021"><ele>449.0</ele><time>2026-04-17T07:41:48Z</time></trkpt><trkpt lat="44.298949355572844" lon="8.303992996343423"><ele>451.0</ele><time>2026-04-17T07:41:49Z</time></trkpt><trkpt lat="44.298804339847095" lon="8.303975590532083"><ele>453.0</ele><time>2026-04-17T07:41:50Z</time></trkpt><trkpt lat="44.29866063911894" lon="8.303972754929806"><ele>453.75</ele><time>2026-04-17T07:41:51Z</time></trkpt><trkpt lat="44.29850563886551" lon="8.303982562453752"><ele>454.5</ele><time>2026-04-17T07:41:52Z</time></trkpt><trkpt lat="44.298355029737614" lon="8.30400323970232"><ele>455.25</ele><time>2026-04-17T07:41:53Z</time></trkpt><trkpt lat="44.29821968470442" lon="8.304047507980908"><ele>456.0</ele><time>2026-04-17T07:41:54Z</time></trkpt><trkpt lat="44.29809483425888" lon="8.304107799602122"><ele>456.25</ele><time>2026-04-17T07:41:55Z</time></trkpt><trkpt lat="44.29797146141568" lon="8.304134825864454"><ele>456.5</ele><time>2026-04-17T07:41:56Z</time></trkpt><trkpt lat="44.29785104023004" lon="8.304102859653737"><ele>456.75</ele><time>2026-04-17T07:41:57Z</time></trkpt><trkpt lat="44.29772007306008" lon="8.30402516865191"><ele>457.0</ele><time>2026-04-17T07:41:58Z</time></trkpt><trkpt lat="44.297588517934074" lon="8.303925202856592"><ele>457.0</ele><time>2026-04-17T07:41:59Z</time></trkpt><trkpt lat="44.29746923818654" lon="8.303823464559411"><ele>457.0</ele><time>2026-04-17T07:42:00Z</time></trkpt><trkpt lat="44.29736963364022" lon="8.303721034571385"><ele>457.0</ele><time>2026-04-17T07:42:01Z</time></trkpt><trkpt lat="44.297273979596255" lon="8.303619710256678"><ele>457.0</ele><time>2026-04-17T07:42:02Z</time></trkpt><trkpt lat="44.29716098557255" lon="8.303520495909808"><ele>457.0</ele><time>2026-04-17T07:42:02.999Z</time></trkpt><trkpt lat="44.297044234948515" lon="8.303420844584313"><ele>457.0</ele><time>2026-04-17T07:42:03.999Z</time></trkpt><trkpt lat="44.29692593854032" lon="8.30330209912673"><ele>457.0</ele><time>2026-04-17T07:42:04.999Z</time></trkpt><trkpt lat="44.2968015677839" lon="8.303179649656084"><ele>457.0</ele><time>2026-04-17T07:42:05.999Z</time></trkpt><trkpt lat="44.29666594695547" lon="8.30305286089654"><ele>457.0</ele><time>2026-04-17T07:42:06.999Z</time></trkpt><trkpt lat="44.296539054103945" lon="8.302926820795863"><ele>457.0</ele><time>2026-04-17T07:42:07.999Z</time></trkpt><trkpt lat="44.296412581305546" lon="8.302808385972769"><ele>457.0</ele><time>2026-04-17T07:42:08.999Z</time></trkpt><trkpt lat="44.29627394342135" lon="8.302686873930075"><ele>457.0</ele><time>2026-04-17T07:42:09.999Z</time></trkpt><trkpt lat="44.29613894084746" lon="8.302559133629345"><ele>457.0</ele><time>2026-04-17T07:42:10.999Z</time></trkpt><trkpt lat="44.296012989138" lon="8.302433075431036"><ele>457.0</ele><time>2026-04-17T07:42:11.999Z</time></trkpt><trkpt lat="44.29589224810486" lon="8.302328305969537"><ele>457.0</ele><time>2026-04-17T07:42:12.999Z</time></trkpt><trkpt lat="44.29575674846615" lon="8.30225825325623"><ele>457.0</ele><time>2026-04-17T07:42:13.999Z</time></trkpt><trkpt lat="44.29559107770738" lon="8.302234586330572"><ele>457.0</ele><time>2026-04-17T07:42:14.999Z</time></trkpt><trkpt lat="44.295410120852935" lon="8.302236958894488"><ele>456.33333333333337</ele><time>2026-04-17T07:42:15.999Z</time></trkpt><trkpt lat="44.295247435953414" lon="8.302217873142313"><ele>455.66666666666663</ele><time>2026-04-17T07:42:16.999Z</time></trkpt><trkpt lat="44.295100434993685" lon="8.302149316820037"><ele>455.0</ele><time>2026-04-17T07:42:17.999Z</time></trkpt><trkpt lat="44.29495591277333" lon="8.302030415316043"><ele>455.0</ele><time>2026-04-17T07:42:18.999Z</time></trkpt><trkpt lat="44.29481858748517" lon="8.301878189395257"><ele>455.0</ele><time>2026-04-17T07:42:19.999Z</time></trkpt><trkpt lat="44.29467895834003" lon="8.30170605836946"><ele>455.0</ele><time>2026-04-17T07:42:20.999Z</time></trkpt><trkpt lat="44.29452195148432" lon="8.30156018044999"><ele>455.0</ele><time>2026-04-17T07:42:21.999Z</time></trkpt><trkpt lat="44.294360316260935" lon="8.301455577996704"><ele>455.0</ele><time>2026-04-17T07:42:22.999Z</time></trkpt><trkpt lat="44.294198394116435" lon="8.301353736383351"><ele>455.0</ele><time>2026-04-17T07:42:23.999Z</time></trkpt><trkpt lat="44.29407615239815" lon="8.301198208978633"><ele>455.0</ele><time>2026-04-17T07:42:24.999Z</time></trkpt><trkpt lat="44.29398029245079" lon="8.30102251610935"><ele>455.0</ele><time>2026-04-17T07:42:25.999Z</time></trkpt><trkpt lat="44.293874507576646" lon="8.30083640538834"><ele>455.0</ele><time>2026-04-17T07:42:26.999Z</time></trkpt><trkpt lat="44.29376880929386" lon="8.300630911976759"><ele>456.3333333333333</ele><time>2026-04-17T07:42:27.999Z</time></trkpt><trkpt lat="44.29366176393949" lon="8.30044386296018"><ele>457.66666666666663</ele><time>2026-04-17T07:42:28.999Z</time></trkpt><trkpt lat="44.29355571105384" lon="8.300237641701578"><ele>459.0</ele><time>2026-04-17T07:42:29.999Z</time></trkpt><trkpt lat="44.29345729260749" lon="8.300037317651364"><ele>459.0</ele><time>2026-04-17T07:42:30.999Z</time></trkpt><trkpt lat="44.293366660569724" lon="8.299863367022462"><ele>459.0</ele><time>2026-04-17T07:42:31.999Z</time></trkpt><trkpt lat="44.29328204871822" lon="8.299717306979941"><ele>459.0</ele><time>2026-04-17T07:42:32.999Z</time></trkpt><trkpt lat="44.29318316221408" lon="8.29958269272655"><ele>459.0</ele><time>2026-04-17T07:42:33.999Z</time></trkpt><trkpt lat="44.293047733459204" lon="8.299465036628407"><ele>459.0</ele><time>2026-04-17T07:42:34.999Z</time></trkpt><trkpt lat="44.2929041909108" lon="8.29938733893008"><ele>459.0</ele><time>2026-04-17T07:42:35.999Z</time></trkpt><trkpt lat="44.29274887323906" lon="8.299344714533571"><ele>459.0</ele><time>2026-04-17T07:42:36.999Z</time></trkpt><trkpt lat="44.292579671752854" lon="8.299331262594487"><ele>459.0</ele><time>2026-04-17T07:42:37.999Z</time></trkpt><trkpt lat="44.29240676901043" lon="8.299339338080044"><ele>459.0</ele><time>2026-04-17T07:42:38.999Z</time></trkpt><trkpt lat="44.29223032724169" lon="8.299351807129243"><ele>459.0</ele><time>2026-04-17T07:42:39.999Z</time></trkpt><trkpt lat="44.29206871143095" lon="8.299359217204367"><ele>459.66666666666663</ele><time>2026-04-17T07:42:40.999Z</time></trkpt><trkpt lat="44.29191952982296" lon="8.29937315366144"><ele>460.3333333333333</ele><time>2026-04-17T07:42:41.999Z</time></trkpt><trkpt lat="44.2917711891437" lon="8.299378021453155"><ele>461.0</ele><time>2026-04-17T07:42:42.999Z</time></trkpt><trkpt lat="44.2916191499859" lon="8.299349749158425"><ele>461.0</ele><time>2026-04-17T07:42:43.999Z</time></trkpt><trkpt lat="44.29147849724114" lon="8.299294875212281"><ele>461.0</ele><time>2026-04-17T07:42:44.999Z</time></trkpt><trkpt lat="44.29135524691423" lon="8.29921978373015"><ele>461.0</ele><time>2026-04-17T07:42:45.999Z</time></trkpt><trkpt lat="44.29123658521095" lon="8.2991080769144"><ele>461.0</ele><time>2026-04-17T07:42:46.999Z</time></trkpt><trkpt lat="44.291128751307596" lon="8.298961994848755"><ele>460.0</ele><time>2026-04-17T07:42:47.999Z</time></trkpt><trkpt lat="44.291021650311535" lon="8.298796737497442"><ele>459.0</ele><time>2026-04-17T07:42:48.999Z</time></trkpt><trkpt lat="44.290934673655656" lon="8.298627788719651"><ele>458.0</ele><time>2026-04-17T07:42:49.999Z</time></trkpt><trkpt lat="44.29087207403574" lon="8.298458298588129"><ele>457.0</ele><time>2026-04-17T07:42:50.999Z</time></trkpt><trkpt lat="44.29082935223955" lon="8.298304672905976"><ele>457.00000000000006</ele><time>2026-04-17T07:42:51.999Z</time></trkpt><trkpt lat="44.29079470072843" lon="8.298162031371445"><ele>457.0</ele><time>2026-04-17T07:42:52.999Z</time></trkpt><trkpt lat="44.29076238097577" lon="8.298038228593832"><ele>457.0</ele><time>2026-04-17T07:42:53.999Z</time></trkpt><trkpt lat="44.290732494819736" lon="8.29792596861492"><ele>457.0</ele><time>2026-04-17T07:42:54.999Z</time></trkpt><trkpt lat="44.290705509167815" lon="8.297819172978024"><ele>457.00000000000006</ele><time>2026-04-17T07:42:55.999Z</time></trkpt><trkpt lat="44.290684124397686" lon="8.297721169852673"><ele>457.0</ele><time>2026-04-17T07:42:56.999Z</time></trkpt><trkpt lat="44.29066036485545" lon="8.297634232347681"><ele>457.33333333333337</ele><time>2026-04-17T07:42:57.999Z</time></trkpt><trkpt lat="44.2906241623331" lon="8.297478818448113"><ele>457.6666666666667</ele><time>2026-04-17T07:42:59.999Z</time></trkpt><trkpt lat="44.29059625597161" lon="8.297392310150103"><ele>458.0</ele><time>2026-04-17T07:43:01.999Z</time></trkpt><trkpt lat="44.29057078992677" lon="8.2973096999568"><ele>458.33333333333337</ele><time>2026-04-17T07:43:08.999Z</time></trkpt><trkpt lat="44.2905796389813" lon="8.297212596372535"><ele>458.6666666666667</ele><time>2026-04-17T07:44:12Z</time></trkpt><trkpt lat="44.29065329146057" lon="8.297154033712804"><ele>459.0</ele><time>2026-04-17T07:44:34.999Z</time></trkpt><trkpt lat="44.29057064426226" lon="8.297126037932813"><ele>459.5</ele><time>2026-04-17T07:46:26.999Z</time></trkpt><trkpt lat="44.290635210606176" lon="8.297128133282472"><ele>460.0</ele><time>2026-04-17T07:47:37Z</time></trkpt><trkpt lat="44.290623876039255" lon="8.297227378442718"><ele>460.5</ele><time>2026-04-17T07:47:49Z</time></trkpt><trkpt lat="44.290543274482104" lon="8.297251138415728"><ele>461.0</ele><time>2026-04-17T07:48:08Z</time></trkpt><trkpt lat="44.290619698143495" lon="8.297216544087446"><ele>461.5</ele><time>2026-04-17T07:49:00.999Z</time></trkpt><trkpt lat="44.29061346310364" lon="8.297108743171224"><ele>462.0</ele><time>2026-04-17T07:49:15.999Z</time></trkpt><trkpt lat="44.29059604854495" lon="8.297209273452793"><ele>462.0</ele><time>2026-04-17T07:50:16Z</time></trkpt><trkpt lat="44.290688458916335" lon="8.297187136852871"><ele>462.0</ele><time>2026-04-17T07:52:03Z</time></trkpt><trkpt lat="44.29062021546515" lon="8.297213800573799"><ele>462.0</ele><time>2026-04-17T07:54:09Z</time></trkpt><trkpt lat="44.290559265034176" lon="8.297243440425577"><ele>462.0</ele><time>2026-04-17T07:56:33Z</time></trkpt><trkpt lat="44.29052178401994" lon="8.297164988000565"><ele>462.0</ele><time>2026-04-17T07:58:46.999Z</time></trkpt><trkpt lat="44.29045996635815" lon="8.297098572153715"><ele>462.0</ele><time>2026-04-17T07:58:48.999Z</time></trkpt><trkpt lat="44.29035976693604" lon="8.297168215378033"><ele>462.1666666666667</ele><time>2026-04-17T07:58:50.999Z</time></trkpt><trkpt lat="44.29030146025782" lon="8.297213383274837"><ele>462.33333333333337</ele><time>2026-04-17T07:58:51.999Z</time></trkpt><trkpt lat="44.29023808164283" lon="8.29725188606887"><ele>462.5</ele><time>2026-04-17T07:58:52.999Z</time></trkpt><trkpt lat="44.29016864387101" lon="8.297290596464363"><ele>462.6666666666667</ele><time>2026-04-17T07:58:53.999Z</time></trkpt><trkpt lat="44.29009621827229" lon="8.29732664800529"><ele>462.83333333333337</ele><time>2026-04-17T07:58:54.999Z</time></trkpt><trkpt lat="44.29001889620775" lon="8.29735654420546"><ele>463.0</ele><time>2026-04-17T07:58:55.999Z</time></trkpt><trkpt lat="44.28992849046396" lon="8.297380814765148"><ele>462.59999999999997</ele><time>2026-04-17T07:58:56.999Z</time></trkpt><trkpt lat="44.28983674844896" lon="8.297404549330997"><ele>462.19999999999993</ele><time>2026-04-17T07:58:57.999Z</time></trkpt><trkpt lat="44.28973004483439" lon="8.297430176084454"><ele>461.8</ele><time>2026-04-17T07:58:58.999Z</time></trkpt><trkpt lat="44.28961648251309" lon="8.297447539958396"><ele>461.4</ele><time>2026-04-17T07:58:59.999Z</time></trkpt><trkpt lat="44.2894891704062" lon="8.297461442055209"><ele>461.0</ele><time>2026-04-17T07:59:00.999Z</time></trkpt><trkpt lat="44.289368462071536" lon="8.29747023340084"><ele>461.0</ele><time>2026-04-17T07:59:01.999Z</time></trkpt><trkpt lat="44.28922058685973" lon="8.29749564933886"><ele>461.0</ele><time>2026-04-17T07:59:02.999Z</time></trkpt><trkpt lat="44.28907757004612" lon="8.297517999200936"><ele>461.0</ele><time>2026-04-17T07:59:03.999Z</time></trkpt><trkpt lat="44.288934707171514" lon="8.297540477053108"><ele>461.0</ele><time>2026-04-17T07:59:04.999Z</time></trkpt><trkpt lat="44.28878617906504" lon="8.29755934845322"><ele>461.0</ele><time>2026-04-17T07:59:05.999Z</time></trkpt><trkpt lat="44.28862481297911" lon="8.297573603896637"><ele>461.0</ele><time>2026-04-17T07:59:06.999Z</time></trkpt><trkpt lat="44.288471704608234" lon="8.297584508814134"><ele>461.0</ele><time>2026-04-17T07:59:07.999Z</time></trkpt><trkpt lat="44.288313614498875" lon="8.297593880761038"><ele>461.0</ele><time>2026-04-17T07:59:08.999Z</time></trkpt><trkpt lat="44.288147276496105" lon="8.297605096427663"><ele>461.0</ele><time>2026-04-17T07:59:09.999Z</time></trkpt><trkpt lat="44.287980224522535" lon="8.29761726563167"><ele>461.0</ele><time>2026-04-17T07:59:10.999Z</time></trkpt><trkpt lat="44.28781709686453" lon="8.297628839681122"><ele>461.3333333333333</ele><time>2026-04-17T07:59:11.999Z</time></trkpt><trkpt lat="44.28764505040798" lon="8.29763803238887"><ele>461.66666666666663</ele><time>2026-04-17T07:59:12.999Z</time></trkpt><trkpt lat="44.28746935362428" lon="8.29764970674465"><ele>462.0</ele><time>2026-04-17T07:59:13.999Z</time></trkpt><trkpt lat="44.28729856359354" lon="8.297660871258703"><ele>463.0</ele><time>2026-04-17T07:59:14.999Z</time></trkpt><trkpt lat="44.28711882838827" lon="8.297670540604251"><ele>464.0</ele><time>2026-04-17T07:59:15.999Z</time></trkpt><trkpt lat="44.286931452467314" lon="8.297678582529931"><ele>465.0</ele><time>2026-04-17T07:59:16.999Z</time></trkpt><trkpt lat="44.28672785074391" lon="8.297700661172268"><ele>465.0</ele><time>2026-04-17T07:59:17.999Z</time></trkpt><trkpt lat="44.28651722027356" lon="8.29770439383347"><ele>465.0</ele><time>2026-04-17T07:59:18.999Z</time></trkpt><trkpt lat="44.286396722041076" lon="8.297701664652784"><ele>465.0</ele><time>2026-04-17T07:59:19.999Z</time></trkpt><trkpt lat="44.28620472004064" lon="8.297702714880854"><ele>465.66666666666663</ele><time>2026-04-17T07:59:20.999Z</time></trkpt><trkpt lat="44.28602741239912" lon="8.297700964078551"><ele>466.3333333333333</ele><time>2026-04-17T07:59:21.999Z</time></trkpt><trkpt lat="44.28586419233842" lon="8.297703504097738"><ele>467.0</ele><time>2026-04-17T07:59:22.999Z</time></trkpt><trkpt lat="44.28570059600512" lon="8.297696521376361"><ele>467.66666666666663</ele><time>2026-04-17T07:59:23.999Z</time></trkpt><trkpt lat="44.28554334904604" lon="8.297688207401679"><ele>468.33333333333337</ele><time>2026-04-17T07:59:24.999Z</time></trkpt><trkpt lat="44.285377486396456" lon="8.2976866393393"><ele>469.0</ele><time>2026-04-17T07:59:25.999Z</time></trkpt><trkpt lat="44.28519235917354" lon="8.297692137960457"><ele>469.0</ele><time>2026-04-17T07:59:26.999Z</time></trkpt><trkpt lat="44.285016888161984" lon="8.297695994596838"><ele>469.0</ele><time>2026-04-17T07:59:27.999Z</time></trkpt><trkpt lat="44.28483687721504" lon="8.297699028612493"><ele>469.0</ele><time>2026-04-17T07:59:28.999Z</time></trkpt><trkpt lat="44.284641774213355" lon="8.297668338101206"><ele>469.0</ele><time>2026-04-17T07:59:29.999Z</time></trkpt><trkpt lat="44.28442545609893" lon="8.297621436431788"><ele>469.0</ele><time>2026-04-17T07:59:30.999Z</time></trkpt><trkpt lat="44.28422640316903" lon="8.297576681189375"><ele>469.0</ele><time>2026-04-17T07:59:31.999Z</time></trkpt><trkpt lat="44.284042759550076" lon="8.297524835807735"><ele>470.33333333333337</ele><time>2026-04-17T07:59:32.999Z</time></trkpt><trkpt lat="44.28387489163607" lon="8.297480379469645"><ele>471.66666666666663</ele><time>2026-04-17T07:59:33.999Z</time></trkpt><trkpt lat="44.28371850670845" lon="8.297437380369939"><ele>473.0</ele><time>2026-04-17T07:59:34.999Z</time></trkpt><trkpt lat="44.28357099660014" lon="8.297401633831582"><ele>473.0</ele><time>2026-04-17T07:59:35.999Z</time></trkpt><trkpt lat="44.283429887859974" lon="8.297370872999425"><ele>473.0</ele><time>2026-04-17T07:59:36.999Z</time></trkpt><trkpt lat="44.2832967159466" lon="8.297342118157866"><ele>473.0</ele><time>2026-04-17T07:59:37.999Z</time></trkpt><trkpt lat="44.283165403159096" lon="8.297295962451045"><ele>473.0</ele><time>2026-04-17T07:59:38.999Z</time></trkpt><trkpt lat="44.283036458598836" lon="8.29724072235118"><ele>473.5</ele><time>2026-04-17T07:59:39.999Z</time></trkpt><trkpt lat="44.28291116377645" lon="8.297186313206403"><ele>474.0</ele><time>2026-04-17T07:59:40.999Z</time></trkpt><trkpt lat="44.28277356166477" lon="8.297137813138617"><ele>474.5</ele><time>2026-04-17T07:59:41.999Z</time></trkpt><trkpt lat="44.28263723401804" lon="8.29708476607959"><ele>475.0</ele><time>2026-04-17T07:59:42.999Z</time></trkpt><trkpt lat="44.282503634588124" lon="8.297028717158403"><ele>475.0</ele><time>2026-04-17T07:59:43.999Z</time></trkpt><trkpt lat="44.28236708044596" lon="8.296974839399684"><ele>475.0</ele><time>2026-04-17T07:59:44.998Z</time></trkpt><trkpt lat="44.28222791830474" lon="8.296910331790844"><ele>475.0</ele><time>2026-04-17T07:59:45.998Z</time></trkpt><trkpt lat="44.28208317386955" lon="8.296833285906148"><ele>475.0</ele><time>2026-04-17T07:59:46.998Z</time></trkpt><trkpt lat="44.281942038302496" lon="8.296763325335531"><ele>476.0</ele><time>2026-04-17T07:59:47.998Z</time></trkpt><trkpt lat="44.28180750192417" lon="8.296699913077434"><ele>477.0</ele><time>2026-04-17T07:59:48.998Z</time></trkpt><trkpt lat="44.28168390565743" lon="8.296650954342645"><ele>478.0</ele><time>2026-04-17T07:59:49.998Z</time></trkpt><trkpt lat="44.28155568973054" lon="8.296626875544595"><ele>479.0</ele><time>2026-04-17T07:59:50.998Z</time></trkpt><trkpt lat="44.28141112581137" lon="8.296658245062904"><ele>481.5</ele><time>2026-04-17T07:59:51.998Z</time></trkpt><trkpt lat="44.28126377907013" lon="8.296693238674932"><ele>484.0</ele><time>2026-04-17T07:59:52.998Z</time></trkpt><trkpt lat="44.281130656961736" lon="8.296752286181063"><ele>486.5</ele><time>2026-04-17T07:59:53.998Z</time></trkpt><trkpt lat="44.281002817447366" lon="8.296856753867024"><ele>489.0</ele><time>2026-04-17T07:59:54.998Z</time></trkpt><trkpt lat="44.28087963014161" lon="8.29700227754128"><ele>489.0</ele><time>2026-04-17T07:59:55.998Z</time></trkpt><trkpt lat="44.280760631751576" lon="8.297181886512323"><ele>489.0</ele><time>2026-04-17T07:59:56.998Z</time></trkpt><trkpt lat="44.2805947574229" lon="8.297310904451695"><ele>489.0</ele><time>2026-04-17T07:59:57.998Z</time></trkpt><trkpt lat="44.28041942821812" lon="8.297412275415969"><ele>487.33333333333337</ele><time>2026-04-17T07:59:58.998Z</time></trkpt><trkpt lat="44.28026420203424" lon="8.297485998685353"><ele>485.6666666666667</ele><time>2026-04-17T07:59:59.998Z</time></trkpt><trkpt lat="44.28010772781536" lon="8.297536308611303"><ele>484.0</ele><time>2026-04-17T08:00:00.998Z</time></trkpt><trkpt lat="44.27993235766707" lon="8.29756076619153"><ele>486.33333333333337</ele><time>2026-04-17T08:00:01.998Z</time></trkpt><trkpt lat="44.27975407677343" lon="8.297562954835751"><ele>488.66666666666663</ele><time>2026-04-17T08:00:02.998Z</time></trkpt><trkpt lat="44.27956066145251" lon="8.297530911539676"><ele>491.0</ele><time>2026-04-17T08:00:03.998Z</time></trkpt><trkpt lat="44.27938281572471" lon="8.297522694053326"><ele>491.0</ele><time>2026-04-17T08:00:04.998Z</time></trkpt><trkpt lat="44.27923214968159" lon="8.297495305448509"><ele>491.0</ele><time>2026-04-17T08:00:05.998Z</time></trkpt><trkpt lat="44.27909391433506" lon="8.297495671732491"><ele>491.0</ele><time>2026-04-17T08:00:06.998Z</time></trkpt><trkpt lat="44.27893754120187" lon="8.297531610243071"><ele>491.0</ele><time>2026-04-17T08:00:08Z</time></trkpt><trkpt lat="44.27877363510146" lon="8.297598458100614"><ele>496.3333333333333</ele><time>2026-04-17T08:00:09Z</time></trkpt><trkpt lat="44.278603661410706" lon="8.297711381727456"><ele>501.66666666666663</ele><time>2026-04-17T08:00:10Z</time></trkpt><trkpt lat="44.27844615562291" lon="8.297830267400096"><ele>507.0</ele><time>2026-04-17T08:00:11Z</time></trkpt><trkpt lat="44.27828187490931" lon="8.297886509705325"><ele>507.0</ele><time>2026-04-17T08:00:12Z</time></trkpt><trkpt lat="44.27812593495937" lon="8.297976788195841"><ele>507.0</ele><time>2026-04-17T08:00:13Z</time></trkpt><trkpt lat="44.277998844919" lon="8.298099001709083"><ele>507.0</ele><time>2026-04-17T08:00:14Z</time></trkpt><trkpt lat="44.27787197171447" lon="8.29819728369381"><ele>503.33333333333337</ele><time>2026-04-17T08:00:15Z</time></trkpt><trkpt lat="44.277723264529676" lon="8.298241960412911"><ele>499.6666666666667</ele><time>2026-04-17T08:00:16Z</time></trkpt><trkpt lat="44.27755389177424" lon="8.29829271838211"><ele>496.0</ele><time>2026-04-17T08:00:17Z</time></trkpt><trkpt lat="44.27738060280762" lon="8.298358332750805"><ele>500.0</ele><time>2026-04-17T08:00:18Z</time></trkpt><trkpt lat="44.27722456045661" lon="8.298412651704812"><ele>504.0</ele><time>2026-04-17T08:00:19Z</time></trkpt><trkpt lat="44.277077156344866" lon="8.298432421727998"><ele>508.0</ele><time>2026-04-17T08:00:20Z</time></trkpt><trkpt lat="44.27692816208211" lon="8.298437119759285"><ele>508.0</ele><time>2026-04-17T08:00:21Z</time></trkpt><trkpt lat="44.27677355024339" lon="8.298456962971878"><ele>508.0</ele><time>2026-04-17T08:00:22Z</time></trkpt><trkpt lat="44.276612816255664" lon="8.298454030163201"><ele>508.0</ele><time>2026-04-17T08:00:23Z</time></trkpt><trkpt lat="44.276441234030294" lon="8.298458053775441"><ele>509.33333333333337</ele><time>2026-04-17T08:00:24Z</time></trkpt><trkpt lat="44.276259325303" lon="8.298476806662524"><ele>510.66666666666663</ele><time>2026-04-17T08:00:25Z</time></trkpt><trkpt lat="44.27606289607681" lon="8.298513087095111"><ele>512.0</ele><time>2026-04-17T08:00:26Z</time></trkpt><trkpt lat="44.27586688940233" lon="8.298565069549117"><ele>512.0</ele><time>2026-04-17T08:00:27Z</time></trkpt><trkpt lat="44.27569972385628" lon="8.29861433711024"><ele>512.0</ele><time>2026-04-17T08:00:28Z</time></trkpt><trkpt lat="44.27555432137092" lon="8.298676380069136"><ele>512.0</ele><time>2026-04-17T08:00:29Z</time></trkpt><trkpt lat="44.27541433718086" lon="8.298775408373492"><ele>513.0</ele><time>2026-04-17T08:00:30Z</time></trkpt><trkpt lat="44.275288571817306" lon="8.298870295510941"><ele>514.0</ele><time>2026-04-17T08:00:31Z</time></trkpt><trkpt lat="44.27516265683648" lon="8.298910407062547"><ele>515.0</ele><time>2026-04-17T08:00:32Z</time></trkpt><trkpt lat="44.27505162133048" lon="8.298946021213515"><ele>516.0</ele><time>2026-04-17T08:00:33Z</time></trkpt><trkpt lat="44.274943917939034" lon="8.298968628301397"><ele>516.5</ele><time>2026-04-17T08:00:34Z</time></trkpt><trkpt lat="44.27482935484016" lon="8.29896665000274"><ele>517.0</ele><time>2026-04-17T08:00:35Z</time></trkpt><trkpt lat="44.274704860518966" lon="8.298963752175188"><ele>517.5</ele><time>2026-04-17T08:00:36Z</time></trkpt><trkpt lat="44.27457605883929" lon="8.298931787268758"><ele>518.0</ele><time>2026-04-17T08:00:37Z</time></trkpt><trkpt lat="44.274435506058104" lon="8.29890046009532"><ele>518.0</ele><time>2026-04-17T08:00:38Z</time></trkpt><trkpt lat="44.27426864194677" lon="8.298873457255622"><ele>518.0</ele><time>2026-04-17T08:00:39Z</time></trkpt><trkpt lat="44.274083897275965" lon="8.29884733807997"><ele>518.0</ele><time>2026-04-17T08:00:40Z</time></trkpt><trkpt lat="44.27392057655446" lon="8.298785756817217"><ele>517.75</ele><time>2026-04-17T08:00:41Z</time></trkpt><trkpt lat="44.27377941059189" lon="8.298722135084118"><ele>517.5</ele><time>2026-04-17T08:00:42Z</time></trkpt><trkpt lat="44.2736563595923" lon="8.298666551911559"><ele>517.25</ele><time>2026-04-17T08:00:43Z</time></trkpt><trkpt lat="44.27354179776803" lon="8.298645635028267"><ele>517.0</ele><time>2026-04-17T08:00:44Z</time></trkpt><trkpt lat="44.27344100027892" lon="8.298649470066946"><ele>517.0</ele><time>2026-04-17T08:00:45Z</time></trkpt><trkpt lat="44.273359416772024" lon="8.298651037366707"><ele>517.0</ele><time>2026-04-17T08:00:45.999Z</time></trkpt><trkpt lat="44.27329607922672" lon="8.298697453526197"><ele>517.0</ele><time>2026-04-17T08:00:46.999Z</time></trkpt><trkpt lat="44.2732496257276" lon="8.298832440443142"><ele>517.0</ele><time>2026-04-17T08:00:47.999Z</time></trkpt><trkpt lat="44.27321488524001" lon="8.298918217649403"><ele>517.0</ele><time>2026-04-17T08:00:48.999Z</time></trkpt><trkpt lat="44.273177989197876" lon="8.299002265763917"><ele>517.0</ele><time>2026-04-17T08:00:49.999Z</time></trkpt><trkpt lat="44.273154484959235" lon="8.299113509662538"><ele>518.0</ele><time>2026-04-17T08:00:50.999Z</time></trkpt><trkpt lat="44.27313484934867" lon="8.299221693866421"><ele>519.0</ele><time>2026-04-17T08:00:51.999Z</time></trkpt><trkpt lat="44.27311483437734" lon="8.299338116707979"><ele>520.0</ele><time>2026-04-17T08:00:52.999Z</time></trkpt><trkpt lat="44.27309925836723" lon="8.299468322691016"><ele>521.0</ele><time>2026-04-17T08:00:53.999Z</time></trkpt><trkpt lat="44.27309374419422" lon="8.29959796984053"><ele>522.0</ele><time>2026-04-17T08:00:54.999Z</time></trkpt><trkpt lat="44.27311108512186" lon="8.299727469858695"><ele>523.0</ele><time>2026-04-17T08:00:55.999Z</time></trkpt><trkpt lat="44.27309443216996" lon="8.299847408485617"><ele>525.4</ele><time>2026-04-17T08:00:56.999Z</time></trkpt><trkpt lat="44.27308932300659" lon="8.29997001519737"><ele>527.8</ele><time>2026-04-17T08:00:57.999Z</time></trkpt><trkpt lat="44.273042018733655" lon="8.300073571413161"><ele>530.2</ele><time>2026-04-17T08:00:58.999Z</time></trkpt><trkpt lat="44.27297230332026" lon="8.30021139209594"><ele>532.6</ele><time>2026-04-17T08:00:59.999Z</time></trkpt><trkpt lat="44.27292274226616" lon="8.300372929069992"><ele>535.0</ele><time>2026-04-17T08:01:00.999Z</time></trkpt><trkpt lat="44.272878428942434" lon="8.30056981135702"><ele>536.25</ele><time>2026-04-17T08:01:01.999Z</time></trkpt><trkpt lat="44.27283180726174" lon="8.300787971051887"><ele>537.5</ele><time>2026-04-17T08:01:02.999Z</time></trkpt><trkpt lat="44.27279126980895" lon="8.3009788087745"><ele>538.75</ele><time>2026-04-17T08:01:03.999Z</time></trkpt><trkpt lat="44.27275347621981" lon="8.301141288933122"><ele>540.0</ele><time>2026-04-17T08:01:04.999Z</time></trkpt><trkpt lat="44.272725105237285" lon="8.301259762950759"><ele>540.0</ele><time>2026-04-17T08:01:05.999Z</time></trkpt><trkpt lat="44.272692662609984" lon="8.301374799695159"><ele>540.0</ele><time>2026-04-17T08:01:06.999Z</time></trkpt><trkpt lat="44.272661303916166" lon="8.301471482508926"><ele>540.0</ele><time>2026-04-17T08:01:07.999Z</time></trkpt><trkpt lat="44.27260341410324" lon="8.301539706499486"><ele>540.0</ele><time>2026-04-17T08:01:08.999Z</time></trkpt><trkpt lat="44.27252670219369" lon="8.301536540083745"><ele>540.0</ele><time>2026-04-17T08:01:09.999Z</time></trkpt><trkpt lat="44.27245449272298" lon="8.301539295224611"><ele>540.0</ele><time>2026-04-17T08:01:10.999Z</time></trkpt><trkpt lat="44.27238545320775" lon="8.301558982827112"><ele>538.8333333333334</ele><time>2026-04-17T08:01:11.999Z</time></trkpt><trkpt lat="44.272306171683866" lon="8.301544566231135"><ele>537.6666666666666</ele><time>2026-04-17T08:01:12.999Z</time></trkpt><trkpt lat="44.27222261436545" lon="8.30155840634991"><ele>536.5</ele><time>2026-04-17T08:01:13.999Z</time></trkpt><trkpt lat="44.2721608192346" lon="8.301583716160092"><ele>535.3333333333333</ele><time>2026-04-17T08:01:14.999Z</time></trkpt><trkpt lat="44.272081676754006" lon="8.30168290914321"><ele>534.1666666666666</ele><time>2026-04-17T08:01:16.999Z</time></trkpt><trkpt lat="44.27198453630774" lon="8.301741475664867"><ele>533.0</ele><time>2026-04-17T08:01:18.999Z</time></trkpt><trkpt lat="44.27190797529144" lon="8.3017217298368"><ele>534.4</ele><time>2026-04-17T08:01:20.999Z</time></trkpt><trkpt lat="44.27198267479856" lon="8.301596252524455"><ele>535.8</ele><time>2026-04-17T08:01:24.999Z</time></trkpt><trkpt lat="44.27209357635865" lon="8.30157341619177"><ele>537.2</ele><time>2026-04-17T08:01:26.999Z</time></trkpt><trkpt lat="44.27216557242072" lon="8.301495459787914"><ele>538.6</ele><time>2026-04-17T08:01:53.998Z</time></trkpt><trkpt lat="44.27224363010644" lon="8.301378237276786"><ele>540.0</ele><time>2026-04-17T08:01:55.998Z</time></trkpt><trkpt lat="44.27231332947429" lon="8.30128662381818"><ele>540.0</ele><time>2026-04-17T08:01:56.998Z</time></trkpt><trkpt lat="44.27237027683314" lon="8.301176331424516"><ele>540.0</ele><time>2026-04-17T08:01:57.998Z</time></trkpt><trkpt lat="44.27241031840842" lon="8.30106747398226"><ele>540.0</ele><time>2026-04-17T08:01:58.998Z</time></trkpt><trkpt lat="44.272413164232134" lon="8.30093514443762"><ele>540.0</ele><time>2026-04-17T08:01:59.998Z</time></trkpt><trkpt lat="44.27240038191733" lon="8.300786344801665"><ele>540.0</ele><time>2026-04-17T08:02:00.998Z</time></trkpt><trkpt lat="44.272368341680554" lon="8.300634009503638"><ele>539.0</ele><time>2026-04-17T08:02:01.998Z</time></trkpt><trkpt lat="44.27234590280004" lon="8.300507359496908"><ele>538.0</ele><time>2026-04-17T08:02:02.998Z</time></trkpt><trkpt lat="44.27231494003244" lon="8.300428940060703"><ele>537.0</ele><time>2026-04-17T08:02:03.998Z</time></trkpt><trkpt lat="44.27219142119907" lon="8.300384714127345"><ele>536.0</ele><time>2026-04-17T08:02:05.998Z</time></trkpt><trkpt lat="44.272104097766345" lon="8.30041486447376"><ele>535.0</ele><time>2026-04-17T08:02:06.998Z</time></trkpt><trkpt lat="44.272017116693625" lon="8.300426029879675"><ele>537.6666666666667</ele><time>2026-04-17T08:02:07.998Z</time></trkpt><trkpt lat="44.271934922575895" lon="8.300401715859502"><ele>540.3333333333334</ele><time>2026-04-17T08:02:08.998Z</time></trkpt><trkpt lat="44.27184117505427" lon="8.300355972364327"><ele>543.0</ele><time>2026-04-17T08:02:09.998Z</time></trkpt><trkpt lat="44.27175314454279" lon="8.300293778082308"><ele>545.6666666666666</ele><time>2026-04-17T08:02:10.998Z</time></trkpt><trkpt lat="44.271688761963574" lon="8.300225999736915"><ele>548.3333333333333</ele><time>2026-04-17T08:02:11.998Z</time></trkpt><trkpt lat="44.27164148186828" lon="8.300152953784654"><ele>551.0</ele><time>2026-04-17T08:02:12.998Z</time></trkpt><trkpt lat="44.27161800346478" lon="8.300049434046878"><ele>551.0</ele><time>2026-04-17T08:02:14Z</time></trkpt><trkpt lat="44.271603509504864" lon="8.29992053826472"><ele>551.0</ele><time>2026-04-17T08:02:15Z</time></trkpt><trkpt lat="44.27157747610495" lon="8.299819194412358"><ele>551.0</ele><time>2026-04-17T08:02:16Z</time></trkpt><trkpt lat="44.27152469789323" lon="8.299749450257755"><ele>551.0</ele><time>2026-04-17T08:02:17Z</time></trkpt><trkpt lat="44.27144500573764" lon="8.29971681371572"><ele>551.0</ele><time>2026-04-17T08:02:18Z</time></trkpt><trkpt lat="44.27136777472924" lon="8.299737929916363"><ele>551.0</ele><time>2026-04-17T08:02:19Z</time></trkpt><trkpt lat="44.271309526899586" lon="8.29984929450701"><ele>553.0</ele><time>2026-04-17T08:02:20Z</time></trkpt><trkpt lat="44.27125872627844" lon="8.299926143039098"><ele>555.0</ele><time>2026-04-17T08:02:21Z</time></trkpt><trkpt lat="44.2711849612313" lon="8.299973187979916"><ele>557.0</ele><time>2026-04-17T08:02:22Z</time></trkpt><trkpt lat="44.2710842905759" lon="8.30001535301147"><ele>559.0</ele><time>2026-04-17T08:02:24Z</time></trkpt><trkpt lat="44.27102451711512" lon="8.299948787418014"><ele>561.0</ele><time>2026-04-17T08:02:25Z</time></trkpt><trkpt lat="44.27094916782424" lon="8.299851242165927"><ele>563.0</ele><time>2026-04-17T08:02:27Z</time></trkpt><trkpt lat="44.27088257000943" lon="8.299799668348458"><ele>563.0</ele><time>2026-04-17T08:02:30Z</time></trkpt><trkpt lat="44.2708197026546" lon="8.299780916909715"><ele>563.0</ele><time>2026-04-17T08:03:47.999Z</time></trkpt><trkpt lat="44.27074014959538" lon="8.299772055072403"><ele>563.0</ele><time>2026-04-17T08:03:48.999Z</time></trkpt><trkpt lat="44.270646711941076" lon="8.299770129948513"><ele>563.0</ele><time>2026-04-17T08:03:49.999Z</time></trkpt><trkpt lat="44.270548518924365" lon="8.299772914957858"><ele>563.0</ele><time>2026-04-17T08:03:50.999Z</time></trkpt><trkpt lat="44.27045960853994" lon="8.299799213139174"><ele>563.0</ele><time>2026-04-17T08:03:51.999Z</time></trkpt><trkpt lat="44.2703930486757" lon="8.299803926943056"><ele>562.5</ele><time>2026-04-17T08:03:52.999Z</time></trkpt><trkpt lat="44.27033080346773" lon="8.299832542863449"><ele>562.0</ele><time>2026-04-17T08:03:53.999Z</time></trkpt><trkpt lat="44.27027599115106" lon="8.299888144402264"><ele>561.5</ele><time>2026-04-17T08:03:54.999Z</time></trkpt><trkpt lat="44.27021758036726" lon="8.299974500089368"><ele>561.0</ele><time>2026-04-17T08:03:55.999Z</time></trkpt><trkpt lat="44.27014838076073" lon="8.300052810470989"><ele>560.5</ele><time>2026-04-17T08:03:56.999Z</time></trkpt><trkpt lat="44.27006087875644" lon="8.300147623467025"><ele>560.0</ele><time>2026-04-17T08:03:57.998Z</time></trkpt><trkpt lat="44.26997801134377" lon="8.300304998638246"><ele>560.0</ele><time>2026-04-17T08:03:58.998Z</time></trkpt><trkpt lat="44.269909620730985" lon="8.300425310054084"><ele>560.0</ele><time>2026-04-17T08:03:59.998Z</time></trkpt><trkpt lat="44.26983008951071" lon="8.300520704379249"><ele>560.0</ele><time>2026-04-17T08:04:00.998Z</time></trkpt><trkpt lat="44.26977799448264" lon="8.300576484546221"><ele>560.0</ele><time>2026-04-17T08:04:01.998Z</time></trkpt><trkpt lat="44.26972482929303" lon="8.300632931942454"><ele>560.0</ele><time>2026-04-17T08:04:02.998Z</time></trkpt><trkpt lat="44.26967041568681" lon="8.300762882222848"><ele>563.8</ele><time>2026-04-17T08:04:04.998Z</time></trkpt><trkpt lat="44.269708354532014" lon="8.300879666258878"><ele>567.6</ele><time>2026-04-17T08:04:05.998Z</time></trkpt><trkpt lat="44.26978018195886" lon="8.300913259091896"><ele>571.4</ele><time>2026-04-17T08:04:06.998Z</time></trkpt><trkpt lat="44.269856393516406" lon="8.300832920040433"><ele>575.2</ele><time>2026-04-17T08:04:07.998Z</time></trkpt><trkpt lat="44.269946809502656" lon="8.300732614369"><ele>579.0</ele><time>2026-04-17T08:04:09.998Z</time></trkpt><trkpt lat="44.27000782114963" lon="8.300664035407921"><ele>579.5</ele><time>2026-04-17T08:04:10.998Z</time></trkpt><trkpt lat="44.270085173897854" lon="8.300639642016625"><ele>580.0</ele><time>2026-04-17T08:04:11.998Z</time></trkpt><trkpt lat="44.27016639753526" lon="8.30059009070327"><ele>580.5</ele><time>2026-04-17T08:04:12.998Z</time></trkpt><trkpt lat="44.27025779320346" lon="8.30055710217057"><ele>581.0</ele><time>2026-04-17T08:04:13.998Z</time></trkpt><trkpt lat="44.270348678232814" lon="8.300533760101542"><ele>581.5</ele><time>2026-04-17T08:04:14.998Z</time></trkpt><trkpt lat="44.27042620150611" lon="8.300554169994088"><ele>582.0</ele><time>2026-04-17T08:04:15.998Z</time></trkpt><trkpt lat="44.27049268220524" lon="8.300581089109603"><ele>582.0</ele><time>2026-04-17T08:04:16.998Z</time></trkpt><trkpt lat="44.270555869553576" lon="8.30063332993535"><ele>582.0</ele><time>2026-04-17T08:04:17.998Z</time></trkpt><trkpt lat="44.270632978258185" lon="8.300703212763871"><ele>582.0</ele><time>2026-04-17T08:04:18.998Z</time></trkpt><trkpt lat="44.27068747505839" lon="8.300759777713445"><ele>582.0</ele><time>2026-04-17T08:04:20Z</time></trkpt><trkpt lat="44.270740633316365" lon="8.300831538642544"><ele>582.0</ele><time>2026-04-17T08:04:21Z</time></trkpt><trkpt lat="44.27080409700719" lon="8.300964344941365"><ele>582.0</ele><time>2026-04-17T08:04:23Z</time></trkpt><trkpt lat="44.27079067393115" lon="8.30105332015387"><ele>582.0</ele><time>2026-04-17T08:04:24Z</time></trkpt><trkpt lat="44.27073181656538" lon="8.301123540387954"><ele>582.0</ele><time>2026-04-17T08:04:25Z</time></trkpt><trkpt lat="44.27066242870273" lon="8.30118726236631"><ele>582.0</ele><time>2026-04-17T08:04:26Z</time></trkpt><trkpt lat="44.27058576659385" lon="8.30125135117045"><ele>582.0</ele><time>2026-04-17T08:04:27Z</time></trkpt><trkpt lat="44.270530262492514" lon="8.301356810006798"><ele>582.0</ele><time>2026-04-17T08:04:28Z</time></trkpt><trkpt lat="44.27048368484762" lon="8.301475751962819"><ele>582.0</ele><time>2026-04-17T08:04:29Z</time></trkpt><trkpt lat="44.270451713245706" lon="8.30162675251956"><ele>585.0</ele><time>2026-04-17T08:04:30Z</time></trkpt><trkpt lat="44.27040354794079" lon="8.301769958439248"><ele>588.0</ele><time>2026-04-17T08:04:31Z</time></trkpt><trkpt lat="44.27034567394603" lon="8.301880574593437"><ele>591.0</ele><time>2026-04-17T08:04:32Z</time></trkpt><trkpt lat="44.27028894105337" lon="8.301992948947042"><ele>594.0</ele><time>2026-04-17T08:04:33Z</time></trkpt><trkpt lat="44.270275266652334" lon="8.302116320982197"><ele>597.0</ele><time>2026-04-17T08:04:34Z</time></trkpt><trkpt lat="44.27030482285499" lon="8.302253416919115"><ele>598.6</ele><time>2026-04-17T08:04:35Z</time></trkpt><trkpt lat="44.270340013457805" lon="8.302361471319479"><ele>600.2</ele><time>2026-04-17T08:04:36Z</time></trkpt><trkpt lat="44.27040766416105" lon="8.302439343679588"><ele>601.8</ele><time>2026-04-17T08:04:37Z</time></trkpt><trkpt lat="44.2704599478935" lon="8.302554680598895"><ele>603.4</ele><time>2026-04-17T08:04:39Z</time></trkpt><trkpt lat="44.270381339484544" lon="8.302619021744853"><ele>605.0</ele><time>2026-04-17T08:04:41Z</time></trkpt><trkpt lat="44.270289516945" lon="8.302539597113293"><ele>605.0</ele><time>2026-04-17T08:04:43Z</time></trkpt><trkpt lat="44.27022779141138" lon="8.302455193555321"><ele>605.0</ele><time>2026-04-17T08:04:44Z</time></trkpt><trkpt lat="44.27015548072238" lon="8.302350523417202"><ele>605.0</ele><time>2026-04-17T08:04:45Z</time></trkpt><trkpt lat="44.27008302709816" lon="8.302238812485363"><ele>605.0</ele><time>2026-04-17T08:04:46Z</time></trkpt><trkpt lat="44.270039203751836" lon="8.302095937523955"><ele>605.0</ele><time>2026-04-17T08:04:47Z</time></trkpt><trkpt lat="44.27001335155443" lon="8.301984102051232"><ele>604.0</ele><time>2026-04-17T08:04:48Z</time></trkpt><trkpt lat="44.26999956532531" lon="8.301849274491616"><ele>603.0</ele><time>2026-04-17T08:04:49Z</time></trkpt><trkpt lat="44.26998740945333" lon="8.301717010024879"><ele>602.0</ele><time>2026-04-17T08:04:50Z</time></trkpt><trkpt lat="44.26993052507676" lon="8.301561413722853"><ele>601.0</ele><time>2026-04-17T08:04:52Z</time></trkpt><trkpt lat="44.269833072954604" lon="8.30154321328983"><ele>600.0</ele><time>2026-04-17T08:04:53Z</time></trkpt><trkpt lat="44.269758287474275" lon="8.30154917126042"><ele>600.0</ele><time>2026-04-17T08:04:54Z</time></trkpt><trkpt lat="44.26967693965164" lon="8.301604218595076"><ele>600.0</ele><time>2026-04-17T08:04:55Z</time></trkpt><trkpt lat="44.269622626075126" lon="8.30173960597105"><ele>600.0</ele><time>2026-04-17T08:04:56Z</time></trkpt><trkpt lat="44.26953112519164" lon="8.301852027045209"><ele>600.0</ele><time>2026-04-17T08:04:57Z</time></trkpt><trkpt lat="44.269436316947484" lon="8.301946245884164"><ele>600.0</ele><time>2026-04-17T08:04:58Z</time></trkpt><trkpt lat="44.26937591242162" lon="8.302029083206511"><ele>600.0</ele><time>2026-04-17T08:04:59Z</time></trkpt><trkpt lat="44.26931741922346" lon="8.302120589718708"><ele>600.0</ele><time>2026-04-17T08:05:00Z</time></trkpt><trkpt lat="44.269253498972425" lon="8.302212010118277"><ele>600.0</ele><time>2026-04-17T08:05:01Z</time></trkpt><trkpt lat="44.269184765384956" lon="8.302300826470173"><ele>600.0</ele><time>2026-04-17T08:05:02.999Z</time></trkpt><trkpt lat="44.26912405217507" lon="8.302356847871497"><ele>600.0</ele><time>2026-04-17T08:05:03.999Z</time></trkpt><trkpt lat="44.26905298453305" lon="8.302331110756652"><ele>600.0</ele><time>2026-04-17T08:05:04.999Z</time></trkpt><trkpt lat="44.26896195341313" lon="8.302307259625465"><ele>600.8</ele><time>2026-04-17T08:05:05.999Z</time></trkpt><trkpt lat="44.268882051333115" lon="8.302249982465318"><ele>601.6</ele><time>2026-04-17T08:05:06.999Z</time></trkpt><trkpt lat="44.268786797568154" lon="8.302227680820035"><ele>602.4</ele><time>2026-04-17T08:05:07.999Z</time></trkpt><trkpt lat="44.268717930935416" lon="8.302228246901633"><ele>603.2</ele><time>2026-04-17T08:05:08.999Z</time></trkpt><trkpt lat="44.26862075189896" lon="8.302292313447039"><ele>604.0</ele><time>2026-04-17T08:05:09.999Z</time></trkpt><trkpt lat="44.26855783159856" lon="8.302395406895336"><ele>608.4</ele><time>2026-04-17T08:05:10.999Z</time></trkpt><trkpt lat="44.26851078760136" lon="8.302477888185031"><ele>612.8</ele><time>2026-04-17T08:05:11.999Z</time></trkpt><trkpt lat="44.26844535239995" lon="8.302520311007076"><ele>617.2</ele><time>2026-04-17T08:05:13.999Z</time></trkpt><trkpt lat="44.268390981417525" lon="8.302426021983726"><ele>621.6</ele><time>2026-04-17T08:05:14.999Z</time></trkpt><trkpt lat="44.268280420163954" lon="8.302367909371785"><ele>626.0</ele><time>2026-04-17T08:05:15.999Z</time></trkpt><trkpt lat="44.26816037492913" lon="8.302315212586636"><ele>628.2</ele><time>2026-04-17T08:05:16.999Z</time></trkpt><trkpt lat="44.26806237153876" lon="8.302264815526845"><ele>630.4000000000001</ele><time>2026-04-17T08:05:17.999Z</time></trkpt><trkpt lat="44.267988199507656" lon="8.302213609462882"><ele>632.6</ele><time>2026-04-17T08:05:18.999Z</time></trkpt><trkpt lat="44.26791149724528" lon="8.302160575819412"><ele>634.8000000000001</ele><time>2026-04-17T08:05:19.999Z</time></trkpt><trkpt lat="44.267828054196805" lon="8.302117224373651"><ele>637.0</ele><time>2026-04-17T08:05:20.999Z</time></trkpt><trkpt lat="44.26773843625004" lon="8.302089060049608"><ele>632.6</ele><time>2026-04-17T08:05:21.999Z</time></trkpt><trkpt lat="44.26762882850627" lon="8.30206135699551"><ele>628.2</ele><time>2026-04-17T08:05:22.999Z</time></trkpt><trkpt lat="44.26751928782035" lon="8.302035893603646"><ele>623.8</ele><time>2026-04-17T08:05:23.999Z</time></trkpt><trkpt lat="44.267416698809896" lon="8.302021464117507"><ele>619.4</ele><time>2026-04-17T08:05:24.999Z</time></trkpt><trkpt lat="44.267323684122864" lon="8.302032130736874"><ele>615.0</ele><time>2026-04-17T08:05:25.999Z</time></trkpt><trkpt lat="44.267223271737805" lon="8.302057477021114"><ele>614.0</ele><time>2026-04-17T08:05:26.999Z</time></trkpt><trkpt lat="44.26712619974937" lon="8.302098694190612"><ele>613.0</ele><time>2026-04-17T08:05:27.999Z</time></trkpt><trkpt lat="44.26703901264163" lon="8.302130699569608"><ele>612.0</ele><time>2026-04-17T08:05:28.999Z</time></trkpt><trkpt lat="44.266971326641865" lon="8.302165181023835"><ele>611.0</ele><time>2026-04-17T08:05:29.999Z</time></trkpt><trkpt lat="44.266929315863074" lon="8.302254262991694"><ele>610.0</ele><time>2026-04-17T08:05:31.999Z</time></trkpt><trkpt lat="44.26702100806747" lon="8.30238715003173"><ele>615.0</ele><time>2026-04-17T08:05:33.999Z</time></trkpt><trkpt lat="44.26715857092641" lon="8.302391645832488"><ele>620.0</ele><time>2026-04-17T08:05:35.999Z</time></trkpt><trkpt lat="44.26724011474832" lon="8.302391138128508"><ele>625.0</ele><time>2026-04-17T08:05:36.999Z</time></trkpt><trkpt lat="44.26732081837947" lon="8.302435934621442"><ele>630.0</ele><time>2026-04-17T08:05:37.999Z</time></trkpt><trkpt lat="44.26738875004234" lon="8.302488091129009"><ele>635.0</ele><time>2026-04-17T08:05:38.999Z</time></trkpt><trkpt lat="44.26745474262824" lon="8.302542341857027"><ele>635.0</ele><time>2026-04-17T08:05:40.999Z</time></trkpt><trkpt lat="44.26738367327602" lon="8.30265253463268"><ele>635.0</ele><time>2026-04-17T08:05:43.999Z</time></trkpt><trkpt lat="44.26734892753523" lon="8.302575828341626"><ele>635.0</ele><time>2026-04-17T08:05:44.999Z</time></trkpt><trkpt lat="44.26723401963522" lon="8.302492286434362"><ele>635.0</ele><time>2026-04-17T08:05:46.999Z</time></trkpt><trkpt lat="44.26713502878531" lon="8.30245500432742"><ele>635.0</ele><time>2026-04-17T08:05:47.999Z</time></trkpt><trkpt lat="44.26702433528036" lon="8.302480391030508"><ele>635.0</ele><time>2026-04-17T08:05:48.999Z</time></trkpt><trkpt lat="44.26689270786344" lon="8.302503679528694"><ele>635.0</ele><time>2026-04-17T08:05:49.999Z</time></trkpt><trkpt lat="44.266761226802345" lon="8.302528361887221"><ele>635.0</ele><time>2026-04-17T08:05:50.999Z</time></trkpt><trkpt lat="44.266634169358454" lon="8.30257523937002"><ele>635.0</ele><time>2026-04-17T08:05:51.999Z</time></trkpt><trkpt lat="44.26650085987305" lon="8.30264990425094"><ele>634.4</ele><time>2026-04-17T08:05:52.999Z</time></trkpt><trkpt lat="44.26637440572169" lon="8.302725219707595"><ele>633.8</ele><time>2026-04-17T08:05:53.999Z</time></trkpt><trkpt lat="44.266272675571685" lon="8.302749018873431"><ele>633.2</ele><time>2026-04-17T08:05:54.999Z</time></trkpt><trkpt lat="44.266190765480474" lon="8.302811158283193"><ele>632.6</ele><time>2026-04-17T08:05:55.999Z</time></trkpt><trkpt lat="44.26613798024845" lon="8.302901251746958"><ele>632.0</ele><time>2026-04-17T08:05:56.999Z</time></trkpt><trkpt lat="44.266116594673555" lon="8.302985615816587"><ele>632.6</ele><time>2026-04-17T08:05:57.999Z</time></trkpt><trkpt lat="44.2661110736827" lon="8.303097645818351"><ele>633.2</ele><time>2026-04-17T08:05:59.999Z</time></trkpt><trkpt lat="44.266246026603184" lon="8.30313476784545"><ele>633.8</ele><time>2026-04-17T08:06:01.999Z</time></trkpt><trkpt lat="44.266327517825445" lon="8.303127287945134"><ele>634.4</ele><time>2026-04-17T08:06:02.999Z</time></trkpt><trkpt lat="44.26643667217011" lon="8.303105458572238"><ele>635.0</ele><time>2026-04-17T08:06:03.999Z</time></trkpt><trkpt lat="44.266557139364636" lon="8.30306395070826"><ele>635.0</ele><time>2026-04-17T08:06:04.999Z</time></trkpt><trkpt lat="44.26668467222127" lon="8.303010027442259"><ele>635.0</ele><time>2026-04-17T08:06:05.999Z</time></trkpt><trkpt lat="44.26680351022708" lon="8.30302382285733"><ele>635.0</ele><time>2026-04-17T08:06:06.999Z</time></trkpt><trkpt lat="44.26689183565616" lon="8.303045426248602"><ele>635.0</ele><time>2026-04-17T08:06:07.999Z</time></trkpt><trkpt lat="44.26694911559723" lon="8.30308892244149"><ele>635.0</ele><time>2026-04-17T08:06:08.999Z</time></trkpt><trkpt lat="44.26702392490056" lon="8.303144802183683"><ele>639.6</ele><time>2026-04-17T08:06:09.999Z</time></trkpt><trkpt lat="44.267119144895744" lon="8.303218323737708"><ele>644.2</ele><time>2026-04-17T08:06:10.999Z</time></trkpt><trkpt lat="44.26721654186697" lon="8.303280507172799"><ele>648.8</ele><time>2026-04-17T08:06:11.999Z</time></trkpt><trkpt lat="44.2673199612335" lon="8.30329832680886"><ele>653.4</ele><time>2026-04-17T08:06:12.998Z</time></trkpt><trkpt lat="44.26741662971254" lon="8.30330438552358"><ele>658.0</ele><time>2026-04-17T08:06:13.998Z</time></trkpt><trkpt lat="44.26750807799306" lon="8.303304253939475"><ele>659.4</ele><time>2026-04-17T08:06:14.998Z</time></trkpt><trkpt lat="44.26759888305658" lon="8.303298336626517"><ele>660.8</ele><time>2026-04-17T08:06:16.998Z</time></trkpt><trkpt lat="44.2675921530921" lon="8.303414113642795"><ele>662.2</ele><time>2026-04-17T08:06:18.998Z</time></trkpt><trkpt lat="44.267474891600415" lon="8.303465180056822"><ele>663.6</ele><time>2026-04-17T08:06:20.998Z</time></trkpt><trkpt lat="44.26737823490236" lon="8.303474330402745"><ele>665.0</ele><time>2026-04-17T08:06:21.998Z</time></trkpt><trkpt lat="44.267283115282986" lon="8.303530066273417"><ele>663.25</ele><time>2026-04-17T08:06:22.998Z</time></trkpt><trkpt lat="44.267172914464645" lon="8.303619775055177"><ele>661.5</ele><time>2026-04-17T08:06:23.998Z</time></trkpt><trkpt lat="44.26706232049019" lon="8.303723699217587"><ele>659.75</ele><time>2026-04-17T08:06:24.998Z</time></trkpt><trkpt lat="44.26696732317952" lon="8.303838229097098"><ele>658.0</ele><time>2026-04-17T08:06:26Z</time></trkpt><trkpt lat="44.2668720834781" lon="8.303937861494223"><ele>662.5</ele><time>2026-04-17T08:06:27Z</time></trkpt><trkpt lat="44.26677894667487" lon="8.30401927823156"><ele>667.0</ele><time>2026-04-17T08:06:28Z</time></trkpt><trkpt lat="44.266682662020685" lon="8.30411488979746"><ele>671.5</ele><time>2026-04-17T08:06:29Z</time></trkpt><trkpt lat="44.26660527161708" lon="8.30423847023675"><ele>676.0</ele><time>2026-04-17T08:06:30Z</time></trkpt><trkpt lat="44.26651019558248" lon="8.304343227838752"><ele>674.8333333333334</ele><time>2026-04-17T08:06:31Z</time></trkpt><trkpt lat="44.26642924016029" lon="8.304439968777052"><ele>673.6666666666667</ele><time>2026-04-17T08:06:32Z</time></trkpt><trkpt lat="44.26633774380404" lon="8.30450698098447"><ele>672.5</ele><time>2026-04-17T08:06:33Z</time></trkpt><trkpt lat="44.26627320172056" lon="8.304573391397572"><ele>671.3333333333334</ele><time>2026-04-17T08:06:34Z</time></trkpt><trkpt lat="44.266216807975574" lon="8.30462953033176"><ele>670.1666666666666</ele><time>2026-04-17T08:06:35Z</time></trkpt><trkpt lat="44.266163818724166" lon="8.304677794359728"><ele>669.0</ele><time>2026-04-17T08:06:36Z</time></trkpt><trkpt lat="44.266127419492975" lon="8.304800184431391"><ele>669.0</ele><time>2026-04-17T08:06:38Z</time></trkpt><trkpt lat="44.26619204681453" lon="8.304865452407162"><ele>669.0</ele><time>2026-04-17T08:06:39Z</time></trkpt><trkpt lat="44.266305242875504" lon="8.304874102909832"><ele>669.0</ele><time>2026-04-17T08:06:41Z</time></trkpt><trkpt lat="44.26634843567773" lon="8.304789181214995"><ele>669.0</ele><time>2026-04-17T08:06:42Z</time></trkpt><trkpt lat="44.26642057431322" lon="8.304741582560185"><ele>669.0</ele><time>2026-04-17T08:06:43Z</time></trkpt><trkpt lat="44.26649714020505" lon="8.304687816769428"><ele>669.0</ele><time>2026-04-17T08:06:44Z</time></trkpt><trkpt lat="44.266575649304684" lon="8.304627271679172"><ele>670.4000000000001</ele><time>2026-04-17T08:06:45Z</time></trkpt><trkpt lat="44.266695657514425" lon="8.30460807785483"><ele>671.8</ele><time>2026-04-17T08:06:46Z</time></trkpt><trkpt lat="44.26680664441669" lon="8.304604676581818"><ele>673.2</ele><time>2026-04-17T08:06:47Z</time></trkpt><trkpt lat="44.26689599776644" lon="8.304610862625054"><ele>674.5999999999999</ele><time>2026-04-17T08:06:48Z</time></trkpt><trkpt lat="44.26698108089276" lon="8.304620630709298"><ele>676.0</ele><time>2026-04-17T08:06:49Z</time></trkpt><trkpt lat="44.26709049205071" lon="8.304624945045145"><ele>676.0</ele><time>2026-04-17T08:06:50Z</time></trkpt><trkpt lat="44.26720201546731" lon="8.304658884460945"><ele>676.0</ele><time>2026-04-17T08:06:51Z</time></trkpt><trkpt lat="44.26731171115842" lon="8.304676242468425"><ele>676.0</ele><time>2026-04-17T08:06:52Z</time></trkpt><trkpt lat="44.26741046795405" lon="8.304707785590859"><ele>676.0</ele><time>2026-04-17T08:06:53Z</time></trkpt><trkpt lat="44.26749000124669" lon="8.304691407809672"><ele>676.0</ele><time>2026-04-17T08:06:54Z</time></trkpt><trkpt lat="44.26757570973497" lon="8.304648782121383"><ele>677.6666666666667</ele><time>2026-04-17T08:06:55Z</time></trkpt><trkpt lat="44.26766620807335" lon="8.304628879254997"><ele>679.3333333333334</ele><time>2026-04-17T08:06:56Z</time></trkpt><trkpt lat="44.26776318985502" lon="8.304631844902474"><ele>681.0</ele><time>2026-04-17T08:06:57Z</time></trkpt><trkpt lat="44.26783576499903" lon="8.304644018322103"><ele>682.6666666666666</ele><time>2026-04-17T08:06:58Z</time></trkpt><trkpt lat="44.26788176518472" lon="8.304715660571592"><ele>684.3333333333333</ele><time>2026-04-17T08:06:59Z</time></trkpt><trkpt lat="44.267853019745864" lon="8.304848246087525"><ele>686.0</ele><time>2026-04-17T08:07:01Z</time></trkpt><trkpt lat="44.26772324357706" lon="8.304850584698963"><ele>689.0</ele><time>2026-04-17T08:07:03Z</time></trkpt><trkpt lat="44.26765419281643" lon="8.304799217511219"><ele>692.0</ele><time>2026-04-17T08:07:04Z</time></trkpt><trkpt lat="44.26754119253828" lon="8.304855513303472"><ele>695.0</ele><time>2026-04-17T08:07:06Z</time></trkpt><trkpt lat="44.26745206537932" lon="8.304933012988457"><ele>698.0</ele><time>2026-04-17T08:07:06.999Z</time></trkpt><trkpt lat="44.26734554931291" lon="8.305051122320508"><ele>701.0</ele><time>2026-04-17T08:07:07.999Z</time></trkpt><trkpt lat="44.26724391920482" lon="8.305156883474478"><ele>701.0</ele><time>2026-04-17T08:07:08.999Z</time></trkpt><trkpt lat="44.26716764485853" lon="8.305225670332081"><ele>701.0</ele><time>2026-04-17T08:07:09.999Z</time></trkpt><trkpt lat="44.267060760078444" lon="8.305248300530234"><ele>701.0</ele><time>2026-04-17T08:07:10.999Z</time></trkpt><trkpt lat="44.26695042829854" lon="8.305305105805521"><ele>701.0</ele><time>2026-04-17T08:07:11.999Z</time></trkpt><trkpt lat="44.266821322278275" lon="8.305362842787131"><ele>701.0</ele><time>2026-04-17T08:07:12.999Z</time></trkpt><trkpt lat="44.26672106123284" lon="8.305399795856493"><ele>701.0</ele><time>2026-04-17T08:07:13.999Z</time></trkpt><trkpt lat="44.26661578621171" lon="8.305439581523654"><ele>701.0</ele><time>2026-04-17T08:07:14.999Z</time></trkpt><trkpt lat="44.26652183559894" lon="8.305451546286086"><ele>701.0</ele><time>2026-04-17T08:07:15.999Z</time></trkpt><trkpt lat="44.266454826376815" lon="8.305465871988154"><ele>701.0</ele><time>2026-04-17T08:07:16.999Z</time></trkpt><trkpt lat="44.266361034070925" lon="8.305590766510619"><ele>705.1666666666666</ele><time>2026-04-17T08:07:18.999Z</time></trkpt><trkpt lat="44.266333415431404" lon="8.305695878675134"><ele>709.3333333333333</ele><time>2026-04-17T08:07:19.999Z</time></trkpt><trkpt lat="44.26631357467461" lon="8.305816094802788"><ele>713.5</ele><time>2026-04-17T08:07:20.999Z</time></trkpt><trkpt lat="44.26627211812964" lon="8.305923303512422"><ele>717.6666666666666</ele><time>2026-04-17T08:07:21.999Z</time></trkpt><trkpt lat="44.26621031112802" lon="8.306002726374953"><ele>721.8333333333334</ele><time>2026-04-17T08:07:22.999Z</time></trkpt><trkpt lat="44.266139212643964" lon="8.306055095946727"><ele>726.0</ele><time>2026-04-17T08:07:23.999Z</time></trkpt><trkpt lat="44.26605638607286" lon="8.306064182094682"><ele>726.0</ele><time>2026-04-17T08:07:24.999Z</time></trkpt><trkpt lat="44.265969999493144" lon="8.30603283640473"><ele>726.0</ele><time>2026-04-17T08:07:25.999Z</time></trkpt><trkpt lat="44.26588758658199" lon="8.305951832562917"><ele>726.0</ele><time>2026-04-17T08:07:26.999Z</time></trkpt><trkpt lat="44.26578167702739" lon="8.305876389439707"><ele>726.0</ele><time>2026-04-17T08:07:27.999Z</time></trkpt><trkpt lat="44.26566787864393" lon="8.305803608557582"><ele>726.0</ele><time>2026-04-17T08:07:28.999Z</time></trkpt><trkpt lat="44.265557807965834" lon="8.305744914824901"><ele>723.4</ele><time>2026-04-17T08:07:29.999Z</time></trkpt><trkpt lat="44.265469356372655" lon="8.305673770495519"><ele>720.8</ele><time>2026-04-17T08:07:30.999Z</time></trkpt><trkpt lat="44.26540515519959" lon="8.305607278458174"><ele>718.1999999999999</ele><time>2026-04-17T08:07:31.999Z</time></trkpt><trkpt lat="44.26534148221044" lon="8.305548366106319"><ele>715.5999999999999</ele><time>2026-04-17T08:07:32.999Z</time></trkpt><trkpt lat="44.26524411331749" lon="8.305512474383004"><ele>713.0</ele><time>2026-04-17T08:07:33.999Z</time></trkpt><trkpt lat="44.26513327104071" lon="8.305502085494682"><ele>713.0</ele><time>2026-04-17T08:07:34.999Z</time></trkpt><trkpt lat="44.26503608365397" lon="8.305504433279186"><ele>713.0</ele><time>2026-04-17T08:07:35.999Z</time></trkpt><trkpt lat="44.264950257357" lon="8.30550914451388"><ele>713.0</ele><time>2026-04-17T08:07:36.999Z</time></trkpt><trkpt lat="44.26485691250425" lon="8.305513560974008"><ele>713.0</ele><time>2026-04-17T08:07:37.999Z</time></trkpt><trkpt lat="44.264778171166746" lon="8.305474838846695"><ele>713.0</ele><time>2026-04-17T08:07:38.999Z</time></trkpt><trkpt lat="44.26468891613515" lon="8.305403935547178"><ele>717.5</ele><time>2026-04-17T08:07:39.999Z</time></trkpt><trkpt lat="44.26460114916127" lon="8.30530743366501"><ele>722.0</ele><time>2026-04-17T08:07:40.999Z</time></trkpt><trkpt lat="44.264513369752876" lon="8.305220399009118"><ele>726.5</ele><time>2026-04-17T08:07:41.999Z</time></trkpt><trkpt lat="44.2644026178287" lon="8.305183472062435"><ele>731.0</ele><time>2026-04-17T08:07:42.999Z</time></trkpt><trkpt lat="44.264285866102966" lon="8.305186489240144"><ele>731.0</ele><time>2026-04-17T08:07:43.999Z</time></trkpt><trkpt lat="44.264170033557846" lon="8.305203350386767"><ele>731.0</ele><time>2026-04-17T08:07:44.999Z</time></trkpt><trkpt lat="44.26407302279229" lon="8.305182621552566"><ele>731.0</ele><time>2026-04-17T08:07:45.999Z</time></trkpt><trkpt lat="44.26399372238043" lon="8.305150533038733"><ele>731.0</ele><time>2026-04-17T08:07:46.999Z</time></trkpt><trkpt lat="44.26391496205586" lon="8.305164019181584"><ele>731.0</ele><time>2026-04-17T08:07:47.999Z</time></trkpt><trkpt lat="44.263847118530784" lon="8.305233025517357"><ele>731.0</ele><time>2026-04-17T08:07:48.999Z</time></trkpt><trkpt lat="44.263805728838165" lon="8.30530215561701"><ele>731.0</ele><time>2026-04-17T08:07:49.999Z</time></trkpt><trkpt lat="44.263835424280266" lon="8.305455779845623"><ele>731.0</ele><time>2026-04-17T08:07:51.999Z</time></trkpt><trkpt lat="44.263896096236344" lon="8.305490453182108"><ele>731.0</ele><time>2026-04-17T08:07:52.999Z</time></trkpt><trkpt lat="44.26400841762299" lon="8.30543281689298"><ele>731.0</ele><time>2026-04-17T08:07:54.999Z</time></trkpt><trkpt lat="44.26406181090536" lon="8.305359522665201"><ele>731.0</ele><time>2026-04-17T08:07:55.999Z</time></trkpt><trkpt lat="44.26413226770561" lon="8.305361839955992"><ele>731.0</ele><time>2026-04-17T08:07:56.999Z</time></trkpt><trkpt lat="44.2642149593982" lon="8.305404057602077"><ele>731.0</ele><time>2026-04-17T08:07:57.999Z</time></trkpt><trkpt lat="44.264309801009645" lon="8.305443187846326"><ele>731.0</ele><time>2026-04-17T08:07:58.999Z</time></trkpt><trkpt lat="44.26440147801569" lon="8.30551061530053"><ele>731.0</ele><time>2026-04-17T08:08:00.999Z</time></trkpt><trkpt lat="44.26437054121666" lon="8.305657453060151"><ele>731.0</ele><time>2026-04-17T08:08:02.999Z</time></trkpt><trkpt lat="44.26430522113966" lon="8.305676067077856"><ele>731.5999999999999</ele><time>2026-04-17T08:08:03.999Z</time></trkpt><trkpt lat="44.26423210804855" lon="8.305660063562414"><ele>732.2</ele><time>2026-04-17T08:08:04.999Z</time></trkpt><trkpt lat="44.264139327312314" lon="8.30564671662794"><ele>732.8</ele><time>2026-04-17T08:08:05.999Z</time></trkpt><trkpt lat="44.26405821952366" lon="8.305676728693145"><ele>733.4000000000001</ele><time>2026-04-17T08:08:06.999Z</time></trkpt><trkpt lat="44.26399367100478" lon="8.305758516976283"><ele>734.0</ele><time>2026-04-17T08:08:07.999Z</time></trkpt><trkpt lat="44.26393052298175" lon="8.305896197244346"><ele>734.0</ele><time>2026-04-17T08:08:08.999Z</time></trkpt><trkpt lat="44.26388015903603" lon="8.306053694007403"><ele>734.0</ele><time>2026-04-17T08:08:09.999Z</time></trkpt><trkpt lat="44.263846072702215" lon="8.306220396891074"><ele>734.0</ele><time>2026-04-17T08:08:10.999Z</time></trkpt><trkpt lat="44.263808345504295" lon="8.306376662394733"><ele>734.0</ele><time>2026-04-17T08:08:11.999Z</time></trkpt><trkpt lat="44.263752109195124" lon="8.306488769464814"><ele>738.6</ele><time>2026-04-17T08:08:12.999Z</time></trkpt><trkpt lat="44.263668003299074" lon="8.30657362971175"><ele>743.2</ele><time>2026-04-17T08:08:13.999Z</time></trkpt><trkpt lat="44.263574525107316" lon="8.30664647050355"><ele>747.8000000000001</ele><time>2026-04-17T08:08:14.999Z</time></trkpt><trkpt lat="44.263491748870436" lon="8.306715568135063"><ele>752.4000000000001</ele><time>2026-04-17T08:08:15.999Z</time></trkpt><trkpt lat="44.26341992058039" lon="8.30680893892218"><ele>757.0</ele><time>2026-04-17T08:08:16.998Z</time></trkpt><trkpt lat="44.26336840809853" lon="8.306918777443352"><ele>757.0</ele><time>2026-04-17T08:08:17.998Z</time></trkpt><trkpt lat="44.26333061055631" lon="8.307028678211477"><ele>757.0</ele><time>2026-04-17T08:08:18.998Z</time></trkpt><trkpt lat="44.26325318522975" lon="8.30711082212063"><ele>757.0</ele><time>2026-04-17T08:08:19.998Z</time></trkpt><trkpt lat="44.26315794893863" lon="8.307154839905234"><ele>757.0</ele><time>2026-04-17T08:08:20.998Z</time></trkpt><trkpt lat="44.26305354210289" lon="8.307147845128148"><ele>757.0</ele><time>2026-04-17T08:08:21.998Z</time></trkpt><trkpt lat="44.26293878087334" lon="8.307146536235832"><ele>755.75</ele><time>2026-04-17T08:08:22.998Z</time></trkpt><trkpt lat="44.26283677925952" lon="8.307181913800154"><ele>754.5</ele><time>2026-04-17T08:08:23.998Z</time></trkpt><trkpt lat="44.262733532497755" lon="8.30725170515216"><ele>753.25</ele><time>2026-04-17T08:08:24.998Z</time></trkpt><trkpt lat="44.26262193011774" lon="8.307355788343719"><ele>752.0</ele><time>2026-04-17T08:08:25.998Z</time></trkpt><trkpt lat="44.2625103799811" lon="8.30739821299867"><ele>753.6</ele><time>2026-04-17T08:08:26.998Z</time></trkpt><trkpt lat="44.262421336756" lon="8.307427878976982"><ele>755.2</ele><time>2026-04-17T08:08:27.998Z</time></trkpt><trkpt lat="44.26235015731596" lon="8.307486111484607"><ele>756.8</ele><time>2026-04-17T08:08:28.998Z</time></trkpt><trkpt lat="44.262292925864344" lon="8.307565233538226"><ele>758.4</ele><time>2026-04-17T08:08:29.998Z</time></trkpt><trkpt lat="44.262257601794424" lon="8.307708302988578"><ele>760.0</ele><time>2026-04-17T08:08:30.998Z</time></trkpt><trkpt lat="44.262243650139006" lon="8.30784373556803"><ele>760.0</ele><time>2026-04-17T08:08:32Z</time></trkpt><trkpt lat="44.262236173761224" lon="8.307992390169002"><ele>760.0</ele><time>2026-04-17T08:08:33Z</time></trkpt><trkpt lat="44.26221162745667" lon="8.308102201331831"><ele>760.0</ele><time>2026-04-17T08:08:34Z</time></trkpt><trkpt lat="44.26215361559867" lon="8.30816508338514"><ele>760.0</ele><time>2026-04-17T08:08:35Z</time></trkpt><trkpt lat="44.26208241588592" lon="8.30829090085972"><ele>760.0</ele><time>2026-04-17T08:08:36Z</time></trkpt><trkpt lat="44.26197326600774" lon="8.308399870179157"><ele>764.0</ele><time>2026-04-17T08:08:37Z</time></trkpt><trkpt lat="44.26187605328179" lon="8.308513101835059"><ele>768.0</ele><time>2026-04-17T08:08:38Z</time></trkpt><trkpt lat="44.261781467469376" lon="8.308603779230197"><ele>772.0</ele><time>2026-04-17T08:08:39Z</time></trkpt><trkpt lat="44.261665878207616" lon="8.308706033235083"><ele>776.0</ele><time>2026-04-17T08:08:40Z</time></trkpt><trkpt lat="44.26157719911312" lon="8.308799776885042"><ele>776.0</ele><time>2026-04-17T08:08:41Z</time></trkpt><trkpt lat="44.261501851881754" lon="8.308850779906356"><ele>776.0</ele><time>2026-04-17T08:08:42Z</time></trkpt><trkpt lat="44.26142781432339" lon="8.308914412565853"><ele>776.0</ele><time>2026-04-17T08:08:43Z</time></trkpt><trkpt lat="44.26136808968367" lon="8.309016310767861"><ele>776.0</ele><time>2026-04-17T08:08:44Z</time></trkpt><trkpt lat="44.26134530900617" lon="8.30914701375633"><ele>776.0</ele><time>2026-04-17T08:08:45Z</time></trkpt><trkpt lat="44.26132119225488" lon="8.309301872441416"><ele>777.8</ele><time>2026-04-17T08:08:46Z</time></trkpt><trkpt lat="44.26127086208569" lon="8.309426182963124"><ele>779.5999999999999</ele><time>2026-04-17T08:08:47Z</time></trkpt><trkpt lat="44.26118286332306" lon="8.30953490529725"><ele>781.4</ele><time>2026-04-17T08:08:48Z</time></trkpt><trkpt lat="44.26108439789121" lon="8.309629245167121"><ele>783.2</ele><time>2026-04-17T08:08:49Z</time></trkpt><trkpt lat="44.26100323849652" lon="8.30970643441196"><ele>785.0</ele><time>2026-04-17T08:08:50Z</time></trkpt><trkpt lat="44.26093560658157" lon="8.309755607884126"><ele>788.25</ele><time>2026-04-17T08:08:51Z</time></trkpt><trkpt lat="44.26083692760577" lon="8.30977062952049"><ele>791.5</ele><time>2026-04-17T08:08:52Z</time></trkpt><trkpt lat="44.26072066787685" lon="8.309755881720813"><ele>794.75</ele><time>2026-04-17T08:08:53Z</time></trkpt><trkpt lat="44.260599047898346" lon="8.309725753153554"><ele>798.0</ele><time>2026-04-17T08:08:54Z</time></trkpt><trkpt lat="44.26048372566884" lon="8.309691415200604"><ele>798.0</ele><time>2026-04-17T08:08:55Z</time></trkpt><trkpt lat="44.2603875246983" lon="8.309674148347808"><ele>798.0</ele><time>2026-04-17T08:08:56Z</time></trkpt><trkpt lat="44.26028961910795" lon="8.309714326840483"><ele>798.0</ele><time>2026-04-17T08:08:57Z</time></trkpt><trkpt lat="44.26017481464769" lon="8.309792205017223"><ele>798.0</ele><time>2026-04-17T08:08:58Z</time></trkpt><trkpt lat="44.26004970321458" lon="8.30989839030201"><ele>798.5999999999999</ele><time>2026-04-17T08:08:59Z</time></trkpt><trkpt lat="44.25995439156624" lon="8.310006538644458"><ele>799.1999999999999</ele><time>2026-04-17T08:09:00Z</time></trkpt><trkpt lat="44.25987898833855" lon="8.310126510995206"><ele>799.8</ele><time>2026-04-17T08:09:01Z</time></trkpt><trkpt lat="44.25980885472637" lon="8.310241952617595"><ele>800.4</ele><time>2026-04-17T08:09:02Z</time></trkpt><trkpt lat="44.259742827889106" lon="8.310317209565879"><ele>801.0</ele><time>2026-04-17T08:09:03Z</time></trkpt><trkpt lat="44.25966596451349" lon="8.310368665655052"><ele>802.0</ele><time>2026-04-17T08:09:05Z</time></trkpt><trkpt lat="44.25960734540761" lon="8.310310107577351"><ele>803.0</ele><time>2026-04-17T08:09:08Z</time></trkpt><trkpt lat="44.259550893316245" lon="8.31024232789439"><ele>804.0</ele><time>2026-04-17T08:09:39.999Z</time></trkpt><trkpt lat="44.25950689735851" lon="8.310113883322018"><ele>805.0</ele><time>2026-04-17T08:09:41.999Z</time></trkpt><trkpt lat="44.25950515988665" lon="8.309966189582427"><ele>806.0</ele><time>2026-04-17T08:09:44.999Z</time></trkpt><trkpt lat="44.259492067927006" lon="8.309844058099904"><ele>807.0</ele><time>2026-04-17T08:09:46.999Z</time></trkpt><trkpt lat="44.25944115314909" lon="8.309782948833636"><ele>808.4000000000001</ele><time>2026-04-17T08:09:48.999Z</time></trkpt><trkpt lat="44.259401039128235" lon="8.30967781570079"><ele>809.8000000000001</ele><time>2026-04-17T08:09:50.999Z</time></trkpt><trkpt lat="44.25934768010009" lon="8.309525811958535"><ele>811.2</ele><time>2026-04-17T08:09:52.999Z</time></trkpt><trkpt lat="44.25932223702468" lon="8.309416887744034"><ele>812.6</ele><time>2026-04-17T08:09:54.999Z</time></trkpt><trkpt lat="44.25929319249477" lon="8.309277032168277"><ele>814.0</ele><time>2026-04-17T08:09:56.999Z</time></trkpt><trkpt lat="44.25927782914435" lon="8.30913280729469"><ele>814.0</ele><time>2026-04-17T08:09:58.999Z</time></trkpt><trkpt lat="44.25926001374907" lon="8.308967254034341"><ele>814.0</ele><time>2026-04-17T08:10:00.999Z</time></trkpt><trkpt lat="44.25926879774352" lon="8.308813858164992"><ele>814.0</ele><time>2026-04-17T08:10:02.999Z</time></trkpt><trkpt lat="44.259277092382355" lon="8.308712866379778"><ele>814.0</ele><time>2026-04-17T08:10:04.999Z</time></trkpt><trkpt lat="44.25930416250689" lon="8.308623382154115"><ele>814.0</ele><time>2026-04-17T08:10:06.999Z</time></trkpt><trkpt lat="44.259345792445615" lon="8.30847945181874"><ele>814.9999999999999</ele><time>2026-04-17T08:10:09.999Z</time></trkpt><trkpt lat="44.25938418627419" lon="8.308387758819105"><ele>816.0</ele><time>2026-04-17T08:10:11.999Z</time></trkpt><trkpt lat="44.259396832780666" lon="8.308263943980469"><ele>817.0</ele><time>2026-04-17T08:10:13.999Z</time></trkpt><trkpt lat="44.25943659761773" lon="8.308094848225629"><ele>818.0</ele><time>2026-04-17T08:10:15.999Z</time></trkpt><trkpt lat="44.25945944027345" lon="8.307992718270471"><ele>818.9999999999999</ele><time>2026-04-17T08:10:16.999Z</time></trkpt><trkpt lat="44.259474529644855" lon="8.30789651946544"><ele>820.0</ele><time>2026-04-17T08:10:17.999Z</time></trkpt><trkpt lat="44.25947773526748" lon="8.307808639476002"><ele>821.0</ele><time>2026-04-17T08:10:18.999Z</time></trkpt><trkpt lat="44.25950557546513" lon="8.307660513267141"><ele>822.0</ele><time>2026-04-17T08:10:20.999Z</time></trkpt><trkpt lat="44.25952659410571" lon="8.307559559250528"><ele>823.0</ele><time>2026-04-17T08:10:21.999Z</time></trkpt><trkpt lat="44.25954841143848" lon="8.307449943439359"><ele>824.0</ele><time>2026-04-17T08:10:22.999Z</time></trkpt><trkpt lat="44.25955637326951" lon="8.307361483591976"><ele>825.0</ele><time>2026-04-17T08:10:23.999Z</time></trkpt><trkpt lat="44.25954299298567" lon="8.307162403608586"><ele>826.1666666666666</ele><time>2026-04-17T08:10:25.999Z</time></trkpt><trkpt lat="44.25952898905311" lon="8.307052313035934"><ele>827.3333333333333</ele><time>2026-04-17T08:10:26.999Z</time></trkpt><trkpt lat="44.25951141191991" lon="8.306939019918351"><ele>828.5</ele><time>2026-04-17T08:10:27.999Z</time></trkpt><trkpt lat="44.2594783258938" lon="8.3068309048901"><ele>829.6666666666666</ele><time>2026-04-17T08:10:28.999Z</time></trkpt><trkpt lat="44.25944907305238" lon="8.3067269899515"><ele>830.8333333333333</ele><time>2026-04-17T08:10:29.999Z</time></trkpt><trkpt lat="44.259430800408886" lon="8.306641106911275"><ele>832.0</ele><time>2026-04-17T08:10:30.999Z</time></trkpt><trkpt lat="44.259426961899656" lon="8.306548249426697"><ele>831.9999999999999</ele><time>2026-04-17T08:10:31.998Z</time></trkpt><trkpt lat="44.259450503244146" lon="8.306454685159094"><ele>832.0</ele><time>2026-04-17T08:10:32.998Z</time></trkpt><trkpt lat="44.25948215683449" lon="8.306366326122632"><ele>832.0</ele><time>2026-04-17T08:10:33.998Z</time></trkpt><trkpt lat="44.25951802727529" lon="8.306281836726342"><ele>832.0</ele><time>2026-04-17T08:10:34.998Z</time></trkpt><trkpt lat="44.259569795307925" lon="8.306145999342306"><ele>831.9999999999999</ele><time>2026-04-17T08:10:36.998Z</time></trkpt><trkpt lat="44.259612061342445" lon="8.306060550116653"><ele>832.0</ele><time>2026-04-17T08:10:38Z</time></trkpt><trkpt lat="44.25965218615141" lon="8.305967141131696"><ele>832.4999999999999</ele><time>2026-04-17T08:10:39Z</time></trkpt><trkpt lat="44.25968630042555" lon="8.305882539518258"><ele>833.0</ele><time>2026-04-17T08:10:40Z</time></trkpt><trkpt lat="44.25972960914084" lon="8.305746793783182"><ele>833.5</ele><time>2026-04-17T08:10:42Z</time></trkpt><trkpt lat="44.25974261786255" lon="8.305612343117827"><ele>834.0</ele><time>2026-04-17T08:10:44Z</time></trkpt><trkpt lat="44.25972311688117" lon="8.305527649074127"><ele>834.4999999999999</ele><time>2026-04-17T08:10:45Z</time></trkpt><trkpt lat="44.25968550698318" lon="8.305428321558725"><ele>835.0</ele><time>2026-04-17T08:10:46Z</time></trkpt><trkpt lat="44.2596577901333" lon="8.305335327805928"><ele>835.0</ele><time>2026-04-17T08:10:47Z</time></trkpt><trkpt lat="44.25966139785698" lon="8.3051809019557"><ele>835.0</ele><time>2026-04-17T08:10:49Z</time></trkpt><trkpt lat="44.25971653772334" lon="8.305011302767936"><ele>835.0</ele><time>2026-04-17T08:10:51Z</time></trkpt><trkpt lat="44.259757399681504" lon="8.30490275935756"><ele>835.0</ele><time>2026-04-17T08:10:52Z</time></trkpt><trkpt lat="44.25979293336751" lon="8.30478913827953"><ele>835.0</ele><time>2026-04-17T08:10:53Z</time></trkpt><trkpt lat="44.25981550799551" lon="8.304699458720979"><ele>831.2</ele><time>2026-04-17T08:10:54Z</time></trkpt><trkpt lat="44.25980480747689" lon="8.304565063152149"><ele>827.4</ele><time>2026-04-17T08:10:56Z</time></trkpt><trkpt lat="44.259718382172935" lon="8.304465310660689"><ele>823.5999999999999</ele><time>2026-04-17T08:10:58Z</time></trkpt><trkpt lat="44.259643072704655" lon="8.30443084506763"><ele>819.8</ele><time>2026-04-17T08:10:59Z</time></trkpt><trkpt lat="44.259558609525804" lon="8.30439460309993"><ele>816.0</ele><time>2026-04-17T08:11:00Z</time></trkpt><trkpt lat="44.259466736282064" lon="8.30439338113962"><ele>816.0</ele><time>2026-04-17T08:11:01Z</time></trkpt><trkpt lat="44.25938606920896" lon="8.304359271475896"><ele>816.0</ele><time>2026-04-17T08:11:02Z</time></trkpt><trkpt lat="44.2592996005817" lon="8.304315722120448"><ele>816.0</ele><time>2026-04-17T08:11:03Z</time></trkpt><trkpt lat="44.25922114039753" lon="8.304265091297303"><ele>816.0</ele><time>2026-04-17T08:11:04Z</time></trkpt><trkpt lat="44.25913533314956" lon="8.304208339543505"><ele>816.0</ele><time>2026-04-17T08:11:05Z</time></trkpt><trkpt lat="44.25904982523068" lon="8.304162904652028"><ele>816.0</ele><time>2026-04-17T08:11:06Z</time></trkpt><trkpt lat="44.258972411607914" lon="8.304106761644913"><ele>818.1666666666666</ele><time>2026-04-17T08:11:07Z</time></trkpt><trkpt lat="44.25890599397144" lon="8.304055205419607"><ele>820.3333333333333</ele><time>2026-04-17T08:11:08Z</time></trkpt><trkpt lat="44.25884627350544" lon="8.304005468215351"><ele>822.5</ele><time>2026-04-17T08:11:09Z</time></trkpt><trkpt lat="44.258797838373326" lon="8.303945437547744"><ele>824.6666666666666</ele><time>2026-04-17T08:11:10Z</time></trkpt><trkpt lat="44.258709917456315" lon="8.303809264518796"><ele>826.8333333333333</ele><time>2026-04-17T08:11:12Z</time></trkpt><trkpt lat="44.258677488943206" lon="8.303725423465323"><ele>829.0</ele><time>2026-04-17T08:11:13Z</time></trkpt><trkpt lat="44.25864003005211" lon="8.303565070254564"><ele>828.9999999999999</ele><time>2026-04-17T08:11:15Z</time></trkpt><trkpt lat="44.25861699394254" lon="8.30340724863703"><ele>829.0</ele><time>2026-04-17T08:11:17Z</time></trkpt><trkpt lat="44.2585760599123" lon="8.303340016080014"><ele>829.0</ele><time>2026-04-17T08:11:18Z</time></trkpt><trkpt lat="44.258510827079355" lon="8.303288075452176"><ele>829.0</ele><time>2026-04-17T08:11:19Z</time></trkpt><trkpt lat="44.258431112009724" lon="8.30323885185443"><ele>828.9999999999999</ele><time>2026-04-17T08:11:20Z</time></trkpt><trkpt lat="44.258363505850596" lon="8.303177949284173"><ele>829.0</ele><time>2026-04-17T08:11:21Z</time></trkpt><trkpt lat="44.258300501582646" lon="8.303118930264779"><ele>827.8000000000001</ele><time>2026-04-17T08:11:23Z</time></trkpt><trkpt lat="44.2582624815622" lon="8.303002674408827"><ele>826.6</ele><time>2026-04-17T08:11:26Z</time></trkpt><trkpt lat="44.25827849855928" lon="8.302880042547448"><ele>825.4</ele><time>2026-04-17T08:11:29Z</time></trkpt><trkpt lat="44.25826407817074" lon="8.302760846501513"><ele>824.2</ele><time>2026-04-17T08:11:30.999Z</time></trkpt><trkpt lat="44.258218413671095" lon="8.302636224157483"><ele>823.0</ele><time>2026-04-17T08:11:32.999Z</time></trkpt><trkpt lat="44.25822081116389" lon="8.302521605191249"><ele>823.0</ele><time>2026-04-17T08:11:34.999Z</time></trkpt><trkpt lat="44.258272360339234" lon="8.30240606177037"><ele>823.0</ele><time>2026-04-17T08:11:36.999Z</time></trkpt><trkpt lat="44.258315149643195" lon="8.30230398618083"><ele>823.0</ele><time>2026-04-17T08:11:38.999Z</time></trkpt><trkpt lat="44.25834478475104" lon="8.30215132303806"><ele>823.0</ele><time>2026-04-17T08:11:40.999Z</time></trkpt><trkpt lat="44.25835964992667" lon="8.302056167609226"><ele>823.0</ele><time>2026-04-17T08:11:41.999Z</time></trkpt><trkpt lat="44.25837033519379" lon="8.30190887989971"><ele>824.6666666666666</ele><time>2026-04-17T08:11:43.999Z</time></trkpt><trkpt lat="44.2584039472341" lon="8.301822707144138"><ele>826.3333333333333</ele><time>2026-04-17T08:11:44.999Z</time></trkpt><trkpt lat="44.25844901129639" lon="8.301742967962353"><ele>828.0</ele><time>2026-04-17T08:11:45.999Z</time></trkpt><trkpt lat="44.25849342960468" lon="8.301668495275754"><ele>829.6666666666667</ele><time>2026-04-17T08:11:46.999Z</time></trkpt><trkpt lat="44.258538458213124" lon="8.301605348721592"><ele>831.3333333333334</ele><time>2026-04-17T08:11:47.999Z</time></trkpt><trkpt lat="44.25864727909861" lon="8.301541769014197"><ele>833.0</ele><time>2026-04-17T08:11:49.999Z</time></trkpt><trkpt lat="44.25871559926802" lon="8.301511610495115"><ele>833.0000000000001</ele><time>2026-04-17T08:11:50.999Z</time></trkpt><trkpt lat="44.25878342444135" lon="8.301456720282305"><ele>833.0</ele><time>2026-04-17T08:11:51.999Z</time></trkpt><trkpt lat="44.25886761905349" lon="8.30132699327448"><ele>833.0</ele><time>2026-04-17T08:11:53.999Z</time></trkpt><trkpt lat="44.25890102244693" lon="8.301229545062816"><ele>833.0</ele><time>2026-04-17T08:11:54.999Z</time></trkpt><trkpt lat="44.25893145005441" lon="8.301148777919408"><ele>833.0000000000001</ele><time>2026-04-17T08:11:55.999Z</time></trkpt><trkpt lat="44.258947693334854" lon="8.301057608791353"><ele>833.0</ele><time>2026-04-17T08:11:56.999Z</time></trkpt><trkpt lat="44.25896337675832" lon="8.300970263929097"><ele>830.8</ele><time>2026-04-17T08:11:57.999Z</time></trkpt><trkpt lat="44.259008893696794" lon="8.300833398841757"><ele>828.5999999999999</ele><time>2026-04-17T08:11:59.999Z</time></trkpt><trkpt lat="44.25905946737126" lon="8.300713275419287"><ele>826.4000000000001</ele><time>2026-04-17T08:12:01.999Z</time></trkpt><trkpt lat="44.25909092291936" lon="8.300575550180326"><ele>824.2</ele><time>2026-04-17T08:12:03.999Z</time></trkpt><trkpt lat="44.25912395658477" lon="8.3004229136193"><ele>822.0</ele><time>2026-04-17T08:12:05.999Z</time></trkpt><trkpt lat="44.25913848844194" lon="8.300270956562997"><ele>822.0</ele><time>2026-04-17T08:12:07.999Z</time></trkpt><trkpt lat="44.2591709171564" lon="8.300163750399522"><ele>822.0</ele><time>2026-04-17T08:12:09.999Z</time></trkpt><trkpt lat="44.25924739676476" lon="8.300079242140901"><ele>822.0</ele><time>2026-04-17T08:12:11.999Z</time></trkpt><trkpt lat="44.25931794271497" lon="8.29998196994418"><ele>822.0</ele><time>2026-04-17T08:12:13.999Z</time></trkpt><trkpt lat="44.2593319134246" lon="8.299841009201412"><ele>822.0</ele><time>2026-04-17T08:12:15.999Z</time></trkpt><trkpt lat="44.25932737569772" lon="8.299735895204192"><ele>820.6</ele><time>2026-04-17T08:12:17.999Z</time></trkpt><trkpt lat="44.25940088681757" lon="8.29969330844263"><ele>819.2</ele><time>2026-04-17T08:12:19.999Z</time></trkpt><trkpt lat="44.25951914807145" lon="8.29965797171916"><ele>817.8</ele><time>2026-04-17T08:12:21.999Z</time></trkpt><trkpt lat="44.25958886286746" lon="8.299630193101965"><ele>816.4</ele><time>2026-04-17T08:12:22.999Z</time></trkpt><trkpt lat="44.2596945238421" lon="8.29959466841082"><ele>815.0</ele><time>2026-04-17T08:12:24.999Z</time></trkpt><trkpt lat="44.25979207835703" lon="8.29955187147102"><ele>815.0</ele><time>2026-04-17T08:12:26.999Z</time></trkpt><trkpt lat="44.25986497774863" lon="8.299441928931534"><ele>815.0</ele><time>2026-04-17T08:12:28.999Z</time></trkpt><trkpt lat="44.25992345542302" lon="8.299328562810997"><ele>815.0</ele><time>2026-04-17T08:12:30.999Z</time></trkpt><trkpt lat="44.26000895055229" lon="8.299248669265648"><ele>815.0</ele><time>2026-04-17T08:12:32.999Z</time></trkpt><trkpt lat="44.26006937038693" lon="8.299196963153234"><ele>815.0</ele><time>2026-04-17T08:12:33.999Z</time></trkpt><trkpt lat="44.260173981764716" lon="8.299091525543979"><ele>815.0000000000001</ele><time>2026-04-17T08:12:35.999Z</time></trkpt><trkpt lat="44.26025164937471" lon="8.299002593076144"><ele>815.0</ele><time>2026-04-17T08:12:37.999Z</time></trkpt><trkpt lat="44.26033616410072" lon="8.298939756365575"><ele>815.0</ele><time>2026-04-17T08:12:39.999Z</time></trkpt><trkpt lat="44.26042457787828" lon="8.298916475970106"><ele>815.0</ele><time>2026-04-17T08:12:41.999Z</time></trkpt><trkpt lat="44.26051028121284" lon="8.29891473226834"><ele>815.0000000000001</ele><time>2026-04-17T08:12:45Z</time></trkpt><trkpt lat="44.26058388158605" lon="8.29894236466467"><ele>815.0</ele><time>2026-04-17T08:12:47Z</time></trkpt><trkpt lat="44.26064961935001" lon="8.298964947746237"><ele>815.6666666666667</ele><time>2026-04-17T08:12:49Z</time></trkpt><trkpt lat="44.26072437029128" lon="8.29900507717906"><ele>816.3333333333334</ele><time>2026-04-17T08:12:51Z</time></trkpt><trkpt lat="44.26078904016617" lon="8.299019915934537"><ele>817.0</ele><time>2026-04-17T08:12:53Z</time></trkpt><trkpt lat="44.26088311058441" lon="8.299022291264956"><ele>817.6666666666667</ele><time>2026-04-17T08:12:56Z</time></trkpt><trkpt lat="44.260974201423544" lon="8.2989873764509"><ele>818.3333333333334</ele><time>2026-04-17T08:12:59Z</time></trkpt><trkpt lat="44.261056250763254" lon="8.298943647404357"><ele>819.0</ele><time>2026-04-17T08:13:02Z</time></trkpt><trkpt lat="44.261124432108495" lon="8.298915767891996"><ele>819.0</ele><time>2026-04-17T08:13:04Z</time></trkpt><trkpt lat="44.261186294917366" lon="8.298852604233904"><ele>819.0</ele><time>2026-04-17T08:13:06Z</time></trkpt><trkpt lat="44.26123789582574" lon="8.298789849951088"><ele>819.0</ele><time>2026-04-17T08:13:08Z</time></trkpt><trkpt lat="44.2613256341206" lon="8.298689435968491"><ele>819.0</ele><time>2026-04-17T08:13:10Z</time></trkpt><trkpt lat="44.26141070964468" lon="8.298610028775814"><ele>819.0</ele><time>2026-04-17T08:13:12Z</time></trkpt><trkpt lat="44.26150120109116" lon="8.298524682589871"><ele>814.3333333333334</ele><time>2026-04-17T08:13:14Z</time></trkpt><trkpt lat="44.26158959203013" lon="8.298416680518015"><ele>809.6666666666667</ele><time>2026-04-17T08:13:16Z</time></trkpt><trkpt lat="44.26165532130071" lon="8.298322058549884"><ele>805.0</ele><time>2026-04-17T08:13:18Z</time></trkpt><trkpt lat="44.26169529010084" lon="8.29822729700484"><ele>800.3333333333334</ele><time>2026-04-17T08:13:20Z</time></trkpt><trkpt lat="44.26171035403748" lon="8.298124631282192"><ele>795.6666666666667</ele><time>2026-04-17T08:13:23Z</time></trkpt><trkpt lat="44.261710621851215" lon="8.29802569293478"><ele>791.0</ele><time>2026-04-17T08:13:25Z</time></trkpt><trkpt lat="44.261706999153674" lon="8.29789219838521"><ele>791.0</ele><time>2026-04-17T08:13:27Z</time></trkpt><trkpt lat="44.261737246226005" lon="8.29771902392408"><ele>791.0</ele><time>2026-04-17T08:13:29Z</time></trkpt><trkpt lat="44.26177217404841" lon="8.29756933016734"><ele>791.0</ele><time>2026-04-17T08:13:31Z</time></trkpt><trkpt lat="44.26179512185075" lon="8.297484982859617"><ele>791.0</ele><time>2026-04-17T08:13:32Z</time></trkpt><trkpt lat="44.26183184272211" lon="8.297354833541783"><ele>791.0</ele><time>2026-04-17T08:13:34Z</time></trkpt><trkpt lat="44.26185373929292" lon="8.297239583508125"><ele>792.8333333333334</ele><time>2026-04-17T08:13:36Z</time></trkpt><trkpt lat="44.26188166078929" lon="8.297152536349534"><ele>794.6666666666667</ele><time>2026-04-17T08:13:38Z</time></trkpt><trkpt lat="44.26190805011197" lon="8.297048443019522"><ele>796.5</ele><time>2026-04-17T08:13:40Z</time></trkpt><trkpt lat="44.26195922351263" lon="8.296953045552401"><ele>798.3333333333333</ele><time>2026-04-17T08:13:41.999Z</time></trkpt><trkpt lat="44.26201632924631" lon="8.29688099620258"><ele>800.1666666666666</ele><time>2026-04-17T08:13:43.999Z</time></trkpt><trkpt lat="44.262059431527405" lon="8.296788306032687"><ele>802.0</ele><time>2026-04-17T08:13:45.999Z</time></trkpt><trkpt lat="44.26209909437128" lon="8.296645134368562"><ele>801.9999999999999</ele><time>2026-04-17T08:13:47.999Z</time></trkpt><trkpt lat="44.26212648900749" lon="8.296518548775412"><ele>802.0</ele><time>2026-04-17T08:13:49.999Z</time></trkpt><trkpt lat="44.26212690385988" lon="8.296414656662657"><ele>802.0</ele><time>2026-04-17T08:13:51.999Z</time></trkpt><trkpt lat="44.26217726956556" lon="8.296316494119786"><ele>802.0</ele><time>2026-04-17T08:13:53.999Z</time></trkpt><trkpt lat="44.26224547159377" lon="8.296238528758957"><ele>801.9999999999999</ele><time>2026-04-17T08:13:55.999Z</time></trkpt><trkpt lat="44.26229693346273" lon="8.296186745473788"><ele>802.0</ele><time>2026-04-17T08:13:56.999Z</time></trkpt><trkpt lat="44.26235381268775" lon="8.296112575399126"><ele>797.9999999999999</ele><time>2026-04-17T08:13:58.999Z</time></trkpt><trkpt lat="44.262423982209384" lon="8.296019188495578"><ele>794.0</ele><time>2026-04-17T08:14:00.999Z</time></trkpt><trkpt lat="44.262475789383664" lon="8.295938466734594"><ele>790.0</ele><time>2026-04-17T08:14:02.999Z</time></trkpt><trkpt lat="44.26249165980507" lon="8.2958504985598"><ele>786.0</ele><time>2026-04-17T08:14:04.999Z</time></trkpt><trkpt lat="44.26252849437736" lon="8.295749754318873"><ele>781.9999999999999</ele><time>2026-04-17T08:14:06.999Z</time></trkpt><trkpt lat="44.2625331970928" lon="8.295637453528723"><ele>778.0</ele><time>2026-04-17T08:14:08.999Z</time></trkpt><trkpt lat="44.26253748244384" lon="8.295535908285757"><ele>777.9999999999999</ele><time>2026-04-17T08:14:10.999Z</time></trkpt><trkpt lat="44.262542860837655" lon="8.295434522263504"><ele>778.0</ele><time>2026-04-17T08:14:12.999Z</time></trkpt><trkpt lat="44.26252042628393" lon="8.295322210844045"><ele>778.0</ele><time>2026-04-17T08:14:15.999Z</time></trkpt><trkpt lat="44.26251612622348" lon="8.29522942069266"><ele>778.0</ele><time>2026-04-17T08:14:17.999Z</time></trkpt><trkpt lat="44.26252000447674" lon="8.295121084963826"><ele>777.9999999999999</ele><time>2026-04-17T08:14:19.999Z</time></trkpt><trkpt lat="44.26251440418984" lon="8.294977368547434"><ele>778.0</ele><time>2026-04-17T08:14:22.999Z</time></trkpt><trkpt lat="44.26252678320888" lon="8.294876141636527"><ele>779.9999999999999</ele><time>2026-04-17T08:14:24.999Z</time></trkpt><trkpt lat="44.26251323921105" lon="8.294740855544083"><ele>782.0</ele><time>2026-04-17T08:14:26.999Z</time></trkpt><trkpt lat="44.26249060035852" lon="8.294639245688266"><ele>784.0</ele><time>2026-04-17T08:14:28.999Z</time></trkpt><trkpt lat="44.26250444190598" lon="8.294548212817961"><ele>786.0</ele><time>2026-04-17T08:14:31.999Z</time></trkpt><trkpt lat="44.26258239625504" lon="8.294507326607079"><ele>787.9999999999999</ele><time>2026-04-17T08:14:35.999Z</time></trkpt><trkpt lat="44.262668393068054" lon="8.294527113501413"><ele>790.0</ele><time>2026-04-17T08:14:37.999Z</time></trkpt><trkpt lat="44.262753418734896" lon="8.2945642964136"><ele>790.0</ele><time>2026-04-17T08:14:39.999Z</time></trkpt><trkpt lat="44.26283397730191" lon="8.294592836633377"><ele>790.0</ele><time>2026-04-17T08:14:41.999Z</time></trkpt><trkpt lat="44.26295558370837" lon="8.294576523268582"><ele>790.0</ele><time>2026-04-17T08:14:43.999Z</time></trkpt><trkpt lat="44.263034683910554" lon="8.294544434023571"><ele>790.0</ele><time>2026-04-17T08:14:45.999Z</time></trkpt><trkpt lat="44.26311574649767" lon="8.29451659720231"><ele>790.0</ele><time>2026-04-17T08:14:48Z</time></trkpt><trkpt lat="44.26321508262848" lon="8.294481804198817"><ele>788.2</ele><time>2026-04-17T08:14:50Z</time></trkpt><trkpt lat="44.26330398131078" lon="8.294444996737774"><ele>786.4</ele><time>2026-04-17T08:14:52Z</time></trkpt><trkpt lat="44.26341099573045" lon="8.294386887531022"><ele>784.5999999999999</ele><time>2026-04-17T08:14:54Z</time></trkpt><trkpt lat="44.26352059266189" lon="8.294333199976224"><ele>782.8</ele><time>2026-04-17T08:14:56Z</time></trkpt><trkpt lat="44.26362604144928" lon="8.294278449529868"><ele>781.0</ele><time>2026-04-17T08:14:58Z</time></trkpt><trkpt lat="44.263734942801484" lon="8.29422195001253"><ele>781.0</ele><time>2026-04-17T08:15:00Z</time></trkpt><trkpt lat="44.26378236454644" lon="8.294163779677895"><ele>781.0</ele><time>2026-04-17T08:15:02Z</time></trkpt><trkpt lat="44.26387749067909" lon="8.294091593616882"><ele>781.0</ele><time>2026-04-17T08:15:05Z</time></trkpt><trkpt lat="44.26394126919916" lon="8.294035518396399"><ele>781.0</ele><time>2026-04-17T08:15:08Z</time></trkpt><trkpt lat="44.26402217630732" lon="8.293956646596191"><ele>781.0</ele><time>2026-04-17T08:15:10Z</time></trkpt><trkpt lat="44.26409670105917" lon="8.29383020923719"><ele>781.1428571428571</ele><time>2026-04-17T08:15:12Z</time></trkpt><trkpt lat="44.264121517198504" lon="8.293737903136515"><ele>781.2857142857143</ele><time>2026-04-17T08:15:13Z</time></trkpt><trkpt lat="44.26417725196195" lon="8.29367558268417"><ele>781.4285714285713</ele><time>2026-04-17T08:15:15Z</time></trkpt><trkpt lat="44.26425496876356" lon="8.293601567995735"><ele>781.5714285714286</ele><time>2026-04-17T08:15:18Z</time></trkpt><trkpt lat="44.264306870328916" lon="8.29352235816224"><ele>781.7142857142857</ele><time>2026-04-17T08:20:37.999Z</time></trkpt><trkpt lat="44.2643705585041" lon="8.293534757614367"><ele>781.8571428571428</ele><time>2026-04-17T08:20:57.999Z</time></trkpt><trkpt lat="44.264404266364124" lon="8.29345689274302"><ele>782.0</ele><time>2026-04-17T08:21:06Z</time></trkpt><trkpt lat="44.26446189244737" lon="8.293421209287374"><ele>782.0000000000001</ele><time>2026-04-17T08:21:14Z</time></trkpt><trkpt lat="44.26440153597522" lon="8.293478891701488"><ele>782.0</ele><time>2026-04-17T08:21:29Z</time></trkpt><trkpt lat="44.26437690627012" lon="8.293564838256394"><ele>782.0</ele><time>2026-04-17T08:22:09.999Z</time></trkpt><trkpt lat="44.26429336048439" lon="8.293555907007306"><ele>782.0</ele><time>2026-04-17T08:23:01.999Z</time></trkpt><trkpt lat="44.264358681438665" lon="8.293544295072182"><ele>782.0000000000001</ele><time>2026-04-17T08:28:01Z</time></trkpt><trkpt lat="44.26441560005757" lon="8.293472797722599"><ele>782.0</ele><time>2026-04-17T08:30:43Z</time></trkpt><trkpt lat="44.26449877705839" lon="8.293424861348019"><ele>782.0000000000001</ele><time>2026-04-17T08:30:45Z</time></trkpt><trkpt lat="44.2645821873968" lon="8.293367943087665"><ele>782.0</ele><time>2026-04-17T08:30:47Z</time></trkpt><trkpt lat="44.26466665175789" lon="8.293267472870436"><ele>782.0</ele><time>2026-04-17T08:30:50Z</time></trkpt><trkpt lat="44.264724393708235" lon="8.293191468025496"><ele>782.0</ele><time>2026-04-17T08:30:52Z</time></trkpt><trkpt lat="44.26478289650224" lon="8.293111169025282"><ele>782.0000000000001</ele><time>2026-04-17T08:30:54Z</time></trkpt><trkpt lat="44.26484354980281" lon="8.293048555903612"><ele>782.0</ele><time>2026-04-17T08:30:56Z</time></trkpt><trkpt lat="44.26493344362905" lon="8.292987528907071"><ele>780.6</ele><time>2026-04-17T08:30:58Z</time></trkpt><trkpt lat="44.265043678126915" lon="8.292938587707695"><ele>779.2</ele><time>2026-04-17T08:31:00Z</time></trkpt><trkpt lat="44.26511853551957" lon="8.292933660340168"><ele>777.8</ele><time>2026-04-17T08:31:02Z</time></trkpt><trkpt lat="44.26520191636087" lon="8.292918161135004"><ele>776.4</ele><time>2026-04-17T08:31:04Z</time></trkpt><trkpt lat="44.265278992634016" lon="8.292963121684531"><ele>775.0</ele><time>2026-04-17T08:31:05.999Z</time></trkpt><trkpt lat="44.26536126816369" lon="8.293033939557068"><ele>775.0</ele><time>2026-04-17T08:31:07.999Z</time></trkpt><trkpt lat="44.26546989517097" lon="8.29306746502956"><ele>775.0</ele><time>2026-04-17T08:31:09.999Z</time></trkpt><trkpt lat="44.265572737328775" lon="8.293062680292048"><ele>775.0</ele><time>2026-04-17T08:31:11.999Z</time></trkpt><trkpt lat="44.2656541949193" lon="8.293057985204388"><ele>775.0</ele><time>2026-04-17T08:31:13.999Z</time></trkpt><trkpt lat="44.265766509893105" lon="8.292974625945062"><ele>775.0</ele><time>2026-04-17T08:31:15.999Z</time></trkpt><trkpt lat="44.26583574077208" lon="8.292945316476237"><ele>773.4999999999999</ele><time>2026-04-17T08:31:17.999Z</time></trkpt><trkpt lat="44.265916277774785" lon="8.29296507429689"><ele>772.0</ele><time>2026-04-17T08:31:19.999Z</time></trkpt><trkpt lat="44.26599645557204" lon="8.292956335854125"><ele>770.5</ele><time>2026-04-17T08:31:22.999Z</time></trkpt><trkpt lat="44.2660760057002" lon="8.292940960526515"><ele>769.0</ele><time>2026-04-17T08:31:24.999Z</time></trkpt><trkpt lat="44.26617220564923" lon="8.292930966838785"><ele>767.5</ele><time>2026-04-17T08:31:27.999Z</time></trkpt><trkpt lat="44.26623807752836" lon="8.292929849570887"><ele>766.0</ele><time>2026-04-17T08:31:29.999Z</time></trkpt><trkpt lat="44.26630585880168" lon="8.292963777770806"><ele>766.0</ele><time>2026-04-17T08:31:31.999Z</time></trkpt><trkpt lat="44.26636565707972" lon="8.293012665628705"><ele>766.0</ele><time>2026-04-17T08:31:33.999Z</time></trkpt><trkpt lat="44.26643343419655" lon="8.293030494340497"><ele>766.0</ele><time>2026-04-17T08:31:36.001Z</time></trkpt><trkpt lat="44.266519035635135" lon="8.293075711466393"><ele>766.0</ele><time>2026-04-17T08:31:39.001Z</time></trkpt><trkpt lat="44.26659873471162" lon="8.293087400363572"><ele>766.0</ele><time>2026-04-17T08:31:42.001Z</time></trkpt><trkpt lat="44.2666742987993" lon="8.293124127643873"><ele>766.0</ele><time>2026-04-17T08:31:45.001Z</time></trkpt><trkpt lat="44.2667629003816" lon="8.29317949513651"><ele>765.2857142857142</ele><time>2026-04-17T08:31:47.001Z</time></trkpt><trkpt lat="44.26683911773215" lon="8.293184767154676"><ele>764.5714285714286</ele><time>2026-04-17T08:31:49.001Z</time></trkpt><trkpt lat="44.266904472898986" lon="8.293222749792598"><ele>763.8571428571429</ele><time>2026-04-17T08:32:05Z</time></trkpt><trkpt lat="44.26696896380595" lon="8.29322969077152"><ele>763.1428571428571</ele><time>2026-04-17T08:32:37Z</time></trkpt><trkpt lat="44.267034086201896" lon="8.293207218265525"><ele>762.4285714285714</ele><time>2026-04-17T08:32:42Z</time></trkpt><trkpt lat="44.267093120223215" lon="8.293127056711736"><ele>761.7142857142857</ele><time>2026-04-17T08:32:47Z</time></trkpt><trkpt lat="44.26713769374046" lon="8.29305518714587"><ele>761.0</ele><time>2026-04-17T08:32:50Z</time></trkpt><trkpt lat="44.26719462742576" lon="8.293002467075922"><ele>761.0</ele><time>2026-04-17T08:32:53Z</time></trkpt><trkpt lat="44.26726917608829" lon="8.292969689026286"><ele>761.0</ele><time>2026-04-17T08:32:56Z</time></trkpt><trkpt lat="44.267333857525074" lon="8.292944953959362"><ele>761.0</ele><time>2026-04-17T08:32:58Z</time></trkpt><trkpt lat="44.26741430892696" lon="8.292948617013623"><ele>761.0</ele><time>2026-04-17T08:33:00Z</time></trkpt><trkpt lat="44.267517409960334" lon="8.292908617145939"><ele>761.0</ele><time>2026-04-17T08:33:02Z</time></trkpt><trkpt lat="44.267602839597025" lon="8.292866798234606"><ele>761.0</ele><time>2026-04-17T08:33:04Z</time></trkpt><trkpt lat="44.267658279503046" lon="8.292793133876582"><ele>757.4285714285713</ele><time>2026-04-17T08:33:07Z</time></trkpt><trkpt lat="44.267723585201" lon="8.29276071464463"><ele>753.8571428571429</ele><time>2026-04-17T08:33:10Z</time></trkpt><trkpt lat="44.267801594090464" lon="8.292721137762154"><ele>750.2857142857142</ele><time>2026-04-17T08:33:12Z</time></trkpt><trkpt lat="44.26787053665794" lon="8.292690409395814"><ele>746.7142857142857</ele><time>2026-04-17T08:33:14Z</time></trkpt><trkpt lat="44.26793667154026" lon="8.29270175329635"><ele>743.1428571428571</ele><time>2026-04-17T08:33:15.999Z</time></trkpt><trkpt lat="44.268007914481565" lon="8.292709675543382"><ele>739.5714285714286</ele><time>2026-04-17T08:33:17.999Z</time></trkpt><trkpt lat="44.26807809681676" lon="8.292711097077811"><ele>736.0</ele><time>2026-04-17T08:33:19.999Z</time></trkpt><trkpt lat="44.26814721848084" lon="8.292745852808196"><ele>731.6666666666667</ele><time>2026-04-17T08:33:21.999Z</time></trkpt><trkpt lat="44.2682388700193" lon="8.292725387487089"><ele>727.3333333333334</ele><time>2026-04-17T08:33:23.999Z</time></trkpt><trkpt lat="44.26830533569356" lon="8.292698927088274"><ele>723.0</ele><time>2026-04-17T08:33:26.999Z</time></trkpt><trkpt lat="44.26839134227462" lon="8.29268232108077"><ele>718.6666666666666</ele><time>2026-04-17T08:33:28.999Z</time></trkpt><trkpt lat="44.26847771665427" lon="8.292664534641494"><ele>714.3333333333333</ele><time>2026-04-17T08:33:31.999Z</time></trkpt><trkpt lat="44.26854957480507" lon="8.292620821473989"><ele>710.0</ele><time>2026-04-17T08:33:33.999Z</time></trkpt><trkpt lat="44.26861929521268" lon="8.292534248890618"><ele>710.0</ele><time>2026-04-17T08:33:36.999Z</time></trkpt><trkpt lat="44.26866758030447" lon="8.292470260924615"><ele>710.0</ele><time>2026-04-17T08:33:39.999Z</time></trkpt><trkpt lat="44.26870078888488" lon="8.292372079802556"><ele>710.0</ele><time>2026-04-17T08:33:44Z</time></trkpt><trkpt lat="44.26870304598589" lon="8.292255573165114"><ele>710.0</ele><time>2026-04-17T08:33:47Z</time></trkpt><trkpt lat="44.26871333193795" lon="8.29214890957292"><ele>710.0</ele><time>2026-04-17T08:33:50Z</time></trkpt><trkpt lat="44.26872364991204" lon="8.292061405780721"><ele>710.0</ele><time>2026-04-17T08:33:52Z</time></trkpt><trkpt lat="44.26876597095903" lon="8.291986118224436"><ele>710.0</ele><time>2026-04-17T08:34:42Z</time></trkpt><trkpt lat="44.268804641008245" lon="8.291915786894833"><ele>707.8333333333333</ele><time>2026-04-17T08:35:07.999Z</time></trkpt><trkpt lat="44.26885230502355" lon="8.291856649233699"><ele>705.6666666666666</ele><time>2026-04-17T08:35:44.999Z</time></trkpt><trkpt lat="44.26890099452004" lon="8.29179246773054"><ele>703.5</ele><time>2026-04-17T08:36:36Z</time></trkpt><trkpt lat="44.268878632056634" lon="8.291678726971499"><ele>701.3333333333334</ele><time>2026-04-17T08:36:45Z</time></trkpt><trkpt lat="44.26895728337347" lon="8.291585336408385"><ele>699.1666666666667</ele><time>2026-04-17T08:39:46.999Z</time></trkpt><trkpt lat="44.26901812840048" lon="8.291544998120328"><ele>697.0</ele><time>2026-04-17T08:39:52.999Z</time></trkpt><trkpt lat="44.269077991031374" lon="8.291502577018532"><ele>697.0</ele><time>2026-04-17T08:40:01Z</time></trkpt><trkpt lat="44.26913215789752" lon="8.29154952476518"><ele>697.0</ele><time>2026-04-17T08:40:11Z</time></trkpt><trkpt lat="44.26920079517249" lon="8.29160096131905"><ele>697.0</ele><time>2026-04-17T08:40:22Z</time></trkpt><trkpt lat="44.269267715974564" lon="8.291623957792067"><ele>697.0</ele><time>2026-04-17T08:40:26Z</time></trkpt><trkpt lat="44.26930325160598" lon="8.291708964352743"><ele>697.0</ele><time>2026-04-17T08:40:29Z</time></trkpt><trkpt lat="44.26934473896657" lon="8.291787463534867"><ele>697.0</ele><time>2026-04-17T08:40:32Z</time></trkpt><trkpt lat="44.26943001938063" lon="8.29181304922012"><ele>697.0</ele><time>2026-04-17T08:40:36Z</time></trkpt><trkpt lat="44.26950212969301" lon="8.291811953936962"><ele>697.0</ele><time>2026-04-17T08:40:38Z</time></trkpt><trkpt lat="44.269579110100665" lon="8.291810617546027"><ele>697.0</ele><time>2026-04-17T08:40:40Z</time></trkpt><trkpt lat="44.26966859933883" lon="8.29180744538402"><ele>697.0</ele><time>2026-04-17T08:40:43Z</time></trkpt><trkpt lat="44.26974701556483" lon="8.291778818299498"><ele>697.0</ele><time>2026-04-17T08:40:45Z</time></trkpt><trkpt lat="44.269819915160525" lon="8.29175758810301"><ele>697.0</ele><time>2026-04-17T08:40:47Z</time></trkpt><trkpt lat="44.269884118872355" lon="8.291829102682646"><ele>697.0</ele><time>2026-04-17T08:40:50Z</time></trkpt><trkpt lat="44.269895126265645" lon="8.291925386892668"><ele>697.0</ele><time>2026-04-17T08:40:52Z</time></trkpt><trkpt lat="44.26993185698137" lon="8.292008926404867"><ele>697.0</ele><time>2026-04-17T08:40:54Z</time></trkpt><trkpt lat="44.269977524522666" lon="8.292082063101889"><ele>697.0</ele><time>2026-04-17T08:40:56Z</time></trkpt><trkpt lat="44.27004087798645" lon="8.292120009521202"><ele>697.0</ele><time>2026-04-17T08:40:58Z</time></trkpt><trkpt lat="44.27011955138104" lon="8.292156267090581"><ele>697.0</ele><time>2026-04-17T08:41:00Z</time></trkpt><trkpt lat="44.27022218405575" lon="8.292194131490092"><ele>697.0</ele><time>2026-04-17T08:41:02Z</time></trkpt><trkpt lat="44.27030852269467" lon="8.29225618057806"><ele>693.3333333333334</ele><time>2026-04-17T08:41:04Z</time></trkpt><trkpt lat="44.270397029851374" lon="8.29231281467768"><ele>689.6666666666667</ele><time>2026-04-17T08:41:06Z</time></trkpt><trkpt lat="44.27047203609471" lon="8.29234793578771"><ele>686.0</ele><time>2026-04-17T08:41:08Z</time></trkpt><trkpt lat="44.27053201343191" lon="8.29239901162644"><ele>682.3333333333334</ele><time>2026-04-17T08:41:17Z</time></trkpt><trkpt lat="44.27061237155269" lon="8.292445282986051"><ele>678.6666666666666</ele><time>2026-04-17T08:41:30.999Z</time></trkpt><trkpt lat="44.27068610714982" lon="8.29243528356927"><ele>675.0</ele><time>2026-04-17T08:41:32.999Z</time></trkpt><trkpt lat="44.270774021666774" lon="8.292452999629939"><ele>675.0</ele><time>2026-04-17T08:41:34.999Z</time></trkpt><trkpt lat="44.27084409646808" lon="8.292444194368196"><ele>675.0</ele><time>2026-04-17T08:41:36.999Z</time></trkpt><trkpt lat="44.27091447884114" lon="8.292424178372938"><ele>675.0</ele><time>2026-04-17T08:41:38.999Z</time></trkpt><trkpt lat="44.270987715168616" lon="8.292440558898587"><ele>675.0</ele><time>2026-04-17T08:41:40.999Z</time></trkpt><trkpt lat="44.271048786209484" lon="8.292505572252544"><ele>675.0</ele><time>2026-04-17T08:41:42.999Z</time></trkpt><trkpt lat="44.271124896404174" lon="8.29255698039631"><ele>675.0</ele><time>2026-04-17T08:41:44.999Z</time></trkpt><trkpt lat="44.27122967536258" lon="8.292536842167234"><ele>675.0</ele><time>2026-04-17T08:41:46.999Z</time></trkpt><trkpt lat="44.2713376090178" lon="8.292513719109179"><ele>675.0</ele><time>2026-04-17T08:41:48.999Z</time></trkpt><trkpt lat="44.27143670503523" lon="8.29247460823106"><ele>675.0</ele><time>2026-04-17T08:41:50.999Z</time></trkpt><trkpt lat="44.27153384205871" lon="8.292481678828727"><ele>675.0</ele><time>2026-04-17T08:41:52.999Z</time></trkpt><trkpt lat="44.271642809812626" lon="8.292485730416939"><ele>675.0</ele><time>2026-04-17T08:41:54.999Z</time></trkpt><trkpt lat="44.27173018681021" lon="8.29250754548258"><ele>673.2857142857142</ele><time>2026-04-17T08:41:56.999Z</time></trkpt><trkpt lat="44.27178122505343" lon="8.292578616122134"><ele>671.5714285714286</ele><time>2026-04-17T08:41:58.999Z</time></trkpt><trkpt lat="44.271867779485035" lon="8.292598523567323"><ele>669.8571428571429</ele><time>2026-04-17T08:42:00.999Z</time></trkpt><trkpt lat="44.27193481524328" lon="8.29260789796828"><ele>668.1428571428571</ele><time>2026-04-17T08:42:02.999Z</time></trkpt><trkpt lat="44.27200005789959" lon="8.292616947128371"><ele>666.4285714285714</ele><time>2026-04-17T08:42:05Z</time></trkpt><trkpt lat="44.2720661403031" lon="8.292604431998452"><ele>664.7142857142857</ele><time>2026-04-17T08:42:07Z</time></trkpt><trkpt lat="44.27214005275776" lon="8.292565575188496"><ele>663.0</ele><time>2026-04-17T08:42:09Z</time></trkpt><trkpt lat="44.272234462673126" lon="8.292597141990138"><ele>659.5999999999999</ele><time>2026-04-17T08:42:11Z</time></trkpt><trkpt lat="44.2723443446274" lon="8.292696340168812"><ele>656.1999999999999</ele><time>2026-04-17T08:42:13Z</time></trkpt><trkpt lat="44.272439439351274" lon="8.292745367339359"><ele>652.8</ele><time>2026-04-17T08:42:15Z</time></trkpt><trkpt lat="44.27251121433356" lon="8.292815201406261"><ele>649.4</ele><time>2026-04-17T08:42:17Z</time></trkpt><trkpt lat="44.272596572739275" lon="8.292893967000143"><ele>646.0</ele><time>2026-04-17T08:42:19Z</time></trkpt><trkpt lat="44.272663635056375" lon="8.29299853418847"><ele>646.6666666666667</ele><time>2026-04-17T08:42:21Z</time></trkpt><trkpt lat="44.272718973122366" lon="8.293105833854824"><ele>647.3333333333334</ele><time>2026-04-17T08:42:23Z</time></trkpt><trkpt lat="44.27279501974537" lon="8.293180842504471"><ele>648.0</ele><time>2026-04-17T08:46:58.999Z</time></trkpt><trkpt lat="44.27285228820482" lon="8.293226777812356"><ele>648.6666666666666</ele><time>2026-04-17T08:47:01.999Z</time></trkpt><trkpt lat="44.27290883348932" lon="8.293274653904238"><ele>649.3333333333333</ele><time>2026-04-17T08:47:03.999Z</time></trkpt><trkpt lat="44.272972418473486" lon="8.29334710462329"><ele>650.0</ele><time>2026-04-17T08:47:06.999Z</time></trkpt><trkpt lat="44.27278825227733" lon="8.29316854956969"><ele>650.0</ele><time>2026-04-17T08:47:08.999Z</time></trkpt><trkpt lat="44.2727220425927" lon="8.293119105229072"><ele>650.0</ele><time>2026-04-17T08:47:24.999Z</time></trkpt><trkpt lat="44.27267066549814" lon="8.293036410559887"><ele>650.0</ele><time>2026-04-17T08:47:26.999Z</time></trkpt><trkpt lat="44.272616605306325" lon="8.292966111446974"><ele>650.0</ele><time>2026-04-17T08:47:28.999Z</time></trkpt><trkpt lat="44.27255132110466" lon="8.292861509829587"><ele>650.0</ele><time>2026-04-17T08:47:30.999Z</time></trkpt><trkpt lat="44.27247648846422" lon="8.292807286937546"><ele>650.0</ele><time>2026-04-17T08:47:32.999Z</time></trkpt><trkpt lat="44.27239293124402" lon="8.292729395923509"><ele>649.3333333333333</ele><time>2026-04-17T08:47:35.999Z</time></trkpt><trkpt lat="44.27229506287806" lon="8.292681677918537"><ele>648.6666666666666</ele><time>2026-04-17T08:47:37.999Z</time></trkpt><trkpt lat="44.272217298506526" lon="8.29261936750552"><ele>648.0</ele><time>2026-04-17T08:47:39.999Z</time></trkpt><trkpt lat="44.27212999153503" lon="8.292604497008856"><ele>647.3333333333334</ele><time>2026-04-17T08:47:41.999Z</time></trkpt><trkpt lat="44.27206014210922" lon="8.292647044279036"><ele>646.6666666666667</ele><time>2026-04-17T08:47:43.999Z</time></trkpt><trkpt lat="44.27197875658534" lon="8.292658385672256"><ele>646.0</ele><time>2026-04-17T08:47:45.999Z</time></trkpt><trkpt lat="44.271865082633724" lon="8.292614029480879"><ele>649.4</ele><time>2026-04-17T08:47:47.999Z</time></trkpt><trkpt lat="44.27177640658241" lon="8.292574067066017"><ele>652.8</ele><time>2026-04-17T08:47:49.999Z</time></trkpt><trkpt lat="44.27167235944294" lon="8.292519037205864"><ele>656.1999999999999</ele><time>2026-04-17T08:47:51.999Z</time></trkpt><trkpt lat="44.271581579215294" lon="8.292506212817761"><ele>659.5999999999999</ele><time>2026-04-17T08:47:53.999Z</time></trkpt><trkpt lat="44.27147497625282" lon="8.29250763817469"><ele>663.0</ele><time>2026-04-17T08:47:55.999Z</time></trkpt><trkpt lat="44.27138922044964" lon="8.29251329642657"><ele>665.0</ele><time>2026-04-17T08:47:57.999Z</time></trkpt><trkpt lat="44.27130126241334" lon="8.292547346121358"><ele>667.0</ele><time>2026-04-17T08:47:59.999Z</time></trkpt><trkpt lat="44.27123870754585" lon="8.292561330445452"><ele>669.0</ele><time>2026-04-17T08:48:00.999Z</time></trkpt><trkpt lat="44.27113619904391" lon="8.29256718375048"><ele>671.0</ele><time>2026-04-17T08:48:02.999Z</time></trkpt><trkpt lat="44.27104243444263" lon="8.292510755536194"><ele>673.0</ele><time>2026-04-17T08:48:04.999Z</time></trkpt><trkpt lat="44.27096451023534" lon="8.29245013117233"><ele>675.0</ele><time>2026-04-17T08:48:06.999Z</time></trkpt><trkpt lat="44.27086675680698" lon="8.29246355540278"><ele>675.0</ele><time>2026-04-17T08:48:08.999Z</time></trkpt><trkpt lat="44.27077258283502" lon="8.292481847751604"><ele>675.0</ele><time>2026-04-17T08:48:10.999Z</time></trkpt><trkpt lat="44.270708254070314" lon="8.292467544853888"><ele>675.0</ele><time>2026-04-17T08:48:12.999Z</time></trkpt><trkpt lat="44.27063387461694" lon="8.29245115580306"><ele>675.0</ele><time>2026-04-17T08:48:14.999Z</time></trkpt><trkpt lat="44.27056630375971" lon="8.292446270734334"><ele>675.0</ele><time>2026-04-17T08:48:24.999Z</time></trkpt><trkpt lat="44.27059084199596" lon="8.29253958326824"><ele>675.0</ele><time>2026-04-17T08:48:42.999Z</time></trkpt><trkpt lat="44.27063464919011" lon="8.292624090621441"><ele>675.0</ele><time>2026-04-17T08:48:46.999Z</time></trkpt><trkpt lat="44.27066621456444" lon="8.292700786722278"><ele>675.0</ele><time>2026-04-17T08:48:50.999Z</time></trkpt><trkpt lat="44.27069694342309" lon="8.292804655426073"><ele>675.0</ele><time>2026-04-17T08:48:54.999Z</time></trkpt><trkpt lat="44.27072630300959" lon="8.29290902137354"><ele>675.0</ele><time>2026-04-17T08:48:58.999Z</time></trkpt><trkpt lat="44.270758005696216" lon="8.292985489073667"><ele>675.0</ele><time>2026-04-17T08:49:03.999Z</time></trkpt><trkpt lat="44.27080231658609" lon="8.293066281593225"><ele>675.0</ele><time>2026-04-17T08:49:06.999Z</time></trkpt><trkpt lat="44.270843885136536" lon="8.293165959213571"><ele>675.0</ele><time>2026-04-17T08:49:10.999Z</time></trkpt><trkpt lat="44.27087494844185" lon="8.293248831230688"><ele>675.0</ele><time>2026-04-17T08:49:13.999Z</time></trkpt><trkpt lat="44.27090211275308" lon="8.293335578780246"><ele>670.1666666666666</ele><time>2026-04-17T08:49:18.999Z</time></trkpt><trkpt lat="44.27092970883065" lon="8.29343037266848"><ele>665.3333333333334</ele><time>2026-04-17T08:50:10.999Z</time></trkpt><trkpt lat="44.270965859442974" lon="8.293508061557361"><ele>660.5</ele><time>2026-04-17T08:50:29.999Z</time></trkpt><trkpt lat="44.27102251385377" lon="8.293563985336963"><ele>655.6666666666667</ele><time>2026-04-17T08:51:23.999Z</time></trkpt><trkpt lat="44.271056087512235" lon="8.293654718455047"><ele>650.8333333333334</ele><time>2026-04-17T08:51:48.999Z</time></trkpt><trkpt lat="44.27110593101638" lon="8.293737208815068"><ele>646.0</ele><time>2026-04-17T08:54:48.999Z</time></trkpt><trkpt lat="44.27100668047594" lon="8.293753111716503"><ele>646.0000000000001</ele><time>2026-04-17T09:00:04.999Z</time></trkpt><trkpt lat="44.270940195811505" lon="8.29375432202158"><ele>646.0</ele><time>2026-04-17T09:00:06.999Z</time></trkpt><trkpt lat="44.27087953902977" lon="8.293728909833145"><ele>646.0</ele><time>2026-04-17T09:00:08.999Z</time></trkpt><trkpt lat="44.27080739823863" lon="8.293701751364868"><ele>646.0</ele><time>2026-04-17T09:00:10.999Z</time></trkpt><trkpt lat="44.270725036564436" lon="8.29366984261472"><ele>646.0</ele><time>2026-04-17T09:00:12.999Z</time></trkpt><trkpt lat="44.27065992995006" lon="8.293645410885553"><ele>646.0000000000001</ele><time>2026-04-17T09:00:14.999Z</time></trkpt><trkpt lat="44.27058546232073" lon="8.293625074880671"><ele>646.0</ele><time>2026-04-17T09:00:16.999Z</time></trkpt><trkpt lat="44.270488670754105" lon="8.293600242827347"><ele>644.5</ele><time>2026-04-17T09:00:19.999Z</time></trkpt><trkpt lat="44.27039913228838" lon="8.293562406367668"><ele>643.0</ele><time>2026-04-17T09:00:21.999Z</time></trkpt><trkpt lat="44.27032799054192" lon="8.293551668638916"><ele>641.5</ele><time>2026-04-17T09:00:23.999Z</time></trkpt><trkpt lat="44.270256350940016" lon="8.293516592872681"><ele>640.0</ele><time>2026-04-17T09:00:25.999Z</time></trkpt><trkpt lat="44.270208696858504" lon="8.29343772415333"><ele>638.5</ele><time>2026-04-17T09:00:27.999Z</time></trkpt><trkpt lat="44.27016537577566" lon="8.293370414852365"><ele>637.0</ele><time>2026-04-17T09:00:29.999Z</time></trkpt><trkpt lat="44.270092564765655" lon="8.293424472486569"><ele>637.0</ele><time>2026-04-17T09:00:32.999Z</time></trkpt><trkpt lat="44.270065293017915" lon="8.293524616058287"><ele>637.0</ele><time>2026-04-17T09:00:35.999Z</time></trkpt><trkpt lat="44.270018671985476" lon="8.293583941228825"><ele>637.0</ele><time>2026-04-17T09:00:38.999Z</time></trkpt><trkpt lat="44.26993931323816" lon="8.293598636840974"><ele>637.0</ele><time>2026-04-17T09:00:42.999Z</time></trkpt><trkpt lat="44.269872481741004" lon="8.293561744595868"><ele>637.0</ele><time>2026-04-17T09:00:44.999Z</time></trkpt><trkpt lat="44.269827943118415" lon="8.293652957963753"><ele>637.0</ele><time>2026-04-17T09:00:47.999Z</time></trkpt><trkpt lat="44.26982925858566" lon="8.293762731929005"><ele>637.0</ele><time>2026-04-17T09:00:50.999Z</time></trkpt><trkpt lat="44.26986363522685" lon="8.293850300714665"><ele>634.1666666666667</ele><time>2026-04-17T09:00:52.999Z</time></trkpt><trkpt lat="44.26991134739447" lon="8.293960074662653"><ele>631.3333333333334</ele><time>2026-04-17T09:00:55.999Z</time></trkpt><trkpt lat="44.26995500453809" lon="8.294050221342083"><ele>628.5</ele><time>2026-04-17T09:00:57.999Z</time></trkpt><trkpt lat="44.270033733834914" lon="8.29410487628503"><ele>625.6666666666666</ele><time>2026-04-17T09:01:00.999Z</time></trkpt><trkpt lat="44.2700937569722" lon="8.294185211890884"><ele>622.8333333333333</ele><time>2026-04-17T09:01:02.999Z</time></trkpt><trkpt lat="44.27013045604545" lon="8.294295049513185"><ele>620.0</ele><time>2026-04-17T09:01:04.999Z</time></trkpt><trkpt lat="44.27016034901487" lon="8.294393913032065"><ele>620.0</ele><time>2026-04-17T09:01:07.999Z</time></trkpt><trkpt lat="44.27015088396956" lon="8.294512288836048"><ele>620.0</ele><time>2026-04-17T09:01:09.999Z</time></trkpt><trkpt lat="44.270158769774916" lon="8.294630714348889"><ele>620.0</ele><time>2026-04-17T09:01:11.999Z</time></trkpt><trkpt lat="44.27018416667382" lon="8.294724610994479"><ele>620.0</ele><time>2026-04-17T09:01:13.999Z</time></trkpt><trkpt lat="44.27019347121159" lon="8.294848848540916"><ele>620.0</ele><time>2026-04-17T09:01:15.999Z</time></trkpt><trkpt lat="44.270200753483145" lon="8.29494202147783"><ele>620.0</ele><time>2026-04-17T09:01:17.999Z</time></trkpt><trkpt lat="44.270210840198864" lon="8.295085084530667"><ele>619.5</ele><time>2026-04-17T09:01:19.999Z</time></trkpt><trkpt lat="44.27023287434907" lon="8.295253398543215"><ele>619.0</ele><time>2026-04-17T09:01:21.999Z</time></trkpt><trkpt lat="44.27025408278419" lon="8.295342343344721"><ele>618.5</ele><time>2026-04-17T09:01:22.999Z</time></trkpt><trkpt lat="44.27028152977378" lon="8.295421509805257"><ele>618.0</ele><time>2026-04-17T09:01:23.999Z</time></trkpt><trkpt lat="44.270320314321765" lon="8.29555720048035"><ele>617.5</ele><time>2026-04-17T09:01:25.999Z</time></trkpt><trkpt lat="44.270318019476285" lon="8.295651443532634"><ele>617.0</ele><time>2026-04-17T09:01:27.999Z</time></trkpt><trkpt lat="44.270290863724" lon="8.29577113260349"><ele>616.1428571428572</ele><time>2026-04-17T09:01:29.999Z</time></trkpt><trkpt lat="44.270248144248136" lon="8.295845453636463"><ele>615.2857142857142</ele><time>2026-04-17T09:01:31.999Z</time></trkpt><trkpt lat="44.270172010340836" lon="8.295897496006084"><ele>614.4285714285714</ele><time>2026-04-17T09:01:33.999Z</time></trkpt><trkpt lat="44.270099803257644" lon="8.295943033318038"><ele>613.5714285714287</ele><time>2026-04-17T09:01:35.999Z</time></trkpt><trkpt lat="44.27002756422494" lon="8.29595324948149"><ele>612.7142857142858</ele><time>2026-04-17T09:01:37.999Z</time></trkpt><trkpt lat="44.26996710161955" lon="8.29598550033271"><ele>611.8571428571429</ele><time>2026-04-17T09:01:39.999Z</time></trkpt><trkpt lat="44.26991039507419" lon="8.296052624282016"><ele>611.0</ele><time>2026-04-17T09:01:41.999Z</time></trkpt><trkpt lat="44.26985918682464" lon="8.296128176802023"><ele>608.5</ele><time>2026-04-17T09:01:43.999Z</time></trkpt><trkpt lat="44.26977006901074" lon="8.296181831908"><ele>606.0</ele><time>2026-04-17T09:01:45.999Z</time></trkpt><trkpt lat="44.269696226083305" lon="8.29618404650027"><ele>603.5</ele><time>2026-04-17T09:01:47.999Z</time></trkpt><trkpt lat="44.26963626219902" lon="8.29624337074495"><ele>601.0</ele><time>2026-04-17T09:01:49.999Z</time></trkpt><trkpt lat="44.26959537114477" lon="8.296328899601578"><ele>598.5</ele><time>2026-04-17T09:01:51.999Z</time></trkpt><trkpt lat="44.26956207194064" lon="8.296409926195889"><ele>596.0</ele><time>2026-04-17T09:01:53.999Z</time></trkpt><trkpt lat="44.269486074625746" lon="8.296389873382681"><ele>596.0</ele><time>2026-04-17T09:01:56.999Z</time></trkpt><trkpt lat="44.26943856810689" lon="8.296318363357502"><ele>596.0</ele><time>2026-04-17T09:01:59.999Z</time></trkpt><trkpt lat="44.26937427068758" lon="8.296268584935167"><ele>596.0</ele><time>2026-04-17T09:02:01.999Z</time></trkpt><trkpt lat="44.26928042091342" lon="8.296220482343731"><ele>596.0</ele><time>2026-04-17T09:02:03.999Z</time></trkpt><trkpt lat="44.269203940447376" lon="8.296116195387503"><ele>596.0</ele><time>2026-04-17T09:02:05.999Z</time></trkpt><trkpt lat="44.26917303760158" lon="8.295993282042824"><ele>596.0</ele><time>2026-04-17T09:02:07.999Z</time></trkpt><trkpt lat="44.26915095196773" lon="8.295888170959843"><ele>596.0</ele><time>2026-04-17T09:02:09.999Z</time></trkpt><trkpt lat="44.269140907484605" lon="8.295764151261075"><ele>596.0</ele><time>2026-04-17T09:02:13.999Z</time></trkpt><trkpt lat="44.269144202558024" lon="8.295656376685912"><ele>596.0</ele><time>2026-04-17T09:02:15.999Z</time></trkpt><trkpt lat="44.26912616566155" lon="8.295567537177625"><ele>596.0</ele><time>2026-04-17T09:02:17.999Z</time></trkpt><trkpt lat="44.26905811621078" lon="8.295565426327002"><ele>596.0</ele><time>2026-04-17T09:02:25.999Z</time></trkpt><trkpt lat="44.2690300688507" lon="8.295694556391844"><ele>596.0</ele><time>2026-04-17T09:02:27.999Z</time></trkpt><trkpt lat="44.269040304453256" lon="8.295852004140764"><ele>596.0</ele><time>2026-04-17T09:02:29.999Z</time></trkpt><trkpt lat="44.269129991310564" lon="8.295890193300247"><ele>596.0</ele><time>2026-04-17T09:02:30.999Z</time></trkpt><trkpt lat="44.269150114188946" lon="8.295996165006871"><ele>596.0</ele><time>2026-04-17T09:02:32.999Z</time></trkpt><trkpt lat="44.26917348010033" lon="8.296088130221442"><ele>596.0</ele><time>2026-04-17T09:02:34.999Z</time></trkpt><trkpt lat="44.269206819792124" lon="8.296168639326392"><ele>596.0</ele><time>2026-04-17T09:02:36.999Z</time></trkpt><trkpt lat="44.26927021090837" lon="8.29625863886721"><ele>596.0</ele><time>2026-04-17T09:02:39.999Z</time></trkpt><trkpt lat="44.269187956447055" lon="8.296966479842878"><ele>593.2</ele><time>2026-04-17T09:02:47.999Z</time></trkpt><trkpt lat="44.26923173254646" lon="8.29711395000056"><ele>590.4000000000001</ele><time>2026-04-17T09:02:49.999Z</time></trkpt><trkpt lat="44.26926886737091" lon="8.29724316837083"><ele>587.6</ele><time>2026-04-17T09:02:51.999Z</time></trkpt><trkpt lat="44.269343255973276" lon="8.297333945528234"><ele>584.8000000000001</ele><time>2026-04-17T09:02:53.999Z</time></trkpt><trkpt lat="44.26942918266849" lon="8.29740793865972"><ele>582.0</ele><time>2026-04-17T09:02:55.999Z</time></trkpt><trkpt lat="44.26953150749296" lon="8.297442402953152"><ele>583.2</ele><time>2026-04-17T09:02:57.999Z</time></trkpt><trkpt lat="44.26961894196353" lon="8.297435420171071"><ele>584.4000000000001</ele><time>2026-04-17T09:02:59.999Z</time></trkpt><trkpt lat="44.26970394551912" lon="8.297363829315618"><ele>585.5999999999999</ele><time>2026-04-17T09:03:01.999Z</time></trkpt><trkpt lat="44.26980339502182" lon="8.297297857221002"><ele>586.8</ele><time>2026-04-17T09:03:03.999Z</time></trkpt><trkpt lat="44.269860212851896" lon="8.297192340660407"><ele>588.0</ele><time>2026-04-17T09:03:05.999Z</time></trkpt><trkpt lat="44.26992104835645" lon="8.29711804558335"><ele>588.0</ele><time>2026-04-17T09:03:07.999Z</time></trkpt><trkpt lat="44.270017074672886" lon="8.297144019815624"><ele>588.0</ele><time>2026-04-17T09:03:09.999Z</time></trkpt><trkpt lat="44.27012073332958" lon="8.297198539976018"><ele>588.0</ele><time>2026-04-17T09:03:11.999Z</time></trkpt><trkpt lat="44.27020223880689" lon="8.297259960720023"><ele>588.0</ele><time>2026-04-17T09:03:13.999Z</time></trkpt><trkpt lat="44.27029450032914" lon="8.297297591834147"><ele>588.0</ele><time>2026-04-17T09:03:15.999Z</time></trkpt><trkpt lat="44.27037697682056" lon="8.29736518192078"><ele>582.5</ele><time>2026-04-17T09:03:17.999Z</time></trkpt><trkpt lat="44.270456289305976" lon="8.297382538526426"><ele>577.0</ele><time>2026-04-17T09:03:18.999Z</time></trkpt><trkpt lat="44.270522108140455" lon="8.297431583126517"><ele>571.5</ele><time>2026-04-17T09:03:19.999Z</time></trkpt><trkpt lat="44.27058599144586" lon="8.297469770257859"><ele>566.0</ele><time>2026-04-17T09:03:20.999Z</time></trkpt><trkpt lat="44.27069808033482" lon="8.297532963022524"><ele>560.5</ele><time>2026-04-17T09:03:22.999Z</time></trkpt><trkpt lat="44.27076182624322" lon="8.297583118526386"><ele>555.0</ele><time>2026-04-17T09:03:23.999Z</time></trkpt><trkpt lat="44.27087010778382" lon="8.297652180553081"><ele>554.1428571428572</ele><time>2026-04-17T09:03:25.999Z</time></trkpt><trkpt lat="44.27093075340632" lon="8.297688374417486"><ele>553.2857142857143</ele><time>2026-04-17T09:03:26.999Z</time></trkpt><trkpt lat="44.27098830059878" lon="8.297727109883937"><ele>552.4285714285714</ele><time>2026-04-17T09:03:27.999Z</time></trkpt><trkpt lat="44.27105755870759" lon="8.297773188463497"><ele>551.5714285714287</ele><time>2026-04-17T09:03:28.999Z</time></trkpt><trkpt lat="44.27113471572007" lon="8.29781243164061"><ele>550.7142857142858</ele><time>2026-04-17T09:03:29.999Z</time></trkpt><trkpt lat="44.27120462333084" lon="8.297833253924171"><ele>549.8571428571429</ele><time>2026-04-17T09:03:30.999Z</time></trkpt><trkpt lat="44.27129200804334" lon="8.297852923984179"><ele>549.0</ele><time>2026-04-17T09:03:31.999Z</time></trkpt><trkpt lat="44.27137366335313" lon="8.297891545148392"><ele>547.8571428571429</ele><time>2026-04-17T09:03:32.999Z</time></trkpt><trkpt lat="44.27144877293174" lon="8.297912757542143"><ele>546.7142857142858</ele><time>2026-04-17T09:03:33.999Z</time></trkpt><trkpt lat="44.271520105393165" lon="8.29792691563651"><ele>545.5714285714287</ele><time>2026-04-17T09:03:34.999Z</time></trkpt><trkpt lat="44.271583001338904" lon="8.297952181580738"><ele>544.4285714285714</ele><time>2026-04-17T09:03:35.999Z</time></trkpt><trkpt lat="44.271650768342845" lon="8.297951807020393"><ele>543.2857142857143</ele><time>2026-04-17T09:03:36.999Z</time></trkpt><trkpt lat="44.271722833632076" lon="8.297927828566799"><ele>542.1428571428572</ele><time>2026-04-17T09:03:37.999Z</time></trkpt><trkpt lat="44.271790051819295" lon="8.297882706684145"><ele>541.0</ele><time>2026-04-17T09:03:38.999Z</time></trkpt><trkpt lat="44.27189633325838" lon="8.297847740023512"><ele>541.0</ele><time>2026-04-17T09:03:40.999Z</time></trkpt><trkpt lat="44.27198225098613" lon="8.297898139664046"><ele>541.0</ele><time>2026-04-17T09:03:42.999Z</time></trkpt><trkpt lat="44.27205840332542" lon="8.29791129886691"><ele>541.0</ele><time>2026-04-17T09:03:44.999Z</time></trkpt><trkpt lat="44.27213226096563" lon="8.297827625967445"><ele>541.0</ele><time>2026-04-17T09:03:47.999Z</time></trkpt><trkpt lat="44.272211187970804" lon="8.297754735432427"><ele>541.0</ele><time>2026-04-17T09:03:49.999Z</time></trkpt><trkpt lat="44.27230042577208" lon="8.297720411912794"><ele>539.8</ele><time>2026-04-17T09:03:51.999Z</time></trkpt><trkpt lat="44.272385987849916" lon="8.297746573764112"><ele>538.6</ele><time>2026-04-17T09:03:53.999Z</time></trkpt><trkpt lat="44.27248178082246" lon="8.297840744572245"><ele>537.4</ele><time>2026-04-17T09:03:55.999Z</time></trkpt><trkpt lat="44.27251935252158" lon="8.297927237535504"><ele>536.2</ele><time>2026-04-17T09:03:56.999Z</time></trkpt><trkpt lat="44.272550878579075" lon="8.29800811036085"><ele>535.0</ele><time>2026-04-17T09:03:57.999Z</time></trkpt><trkpt lat="44.272638922020555" lon="8.298154885215887"><ele>532.6</ele><time>2026-04-17T09:03:59.999Z</time></trkpt><trkpt lat="44.27270280346845" lon="8.298196230505079"><ele>530.2</ele><time>2026-04-17T09:04:00.999Z</time></trkpt><trkpt lat="44.27276548704508" lon="8.29820643181673"><ele>527.8</ele><time>2026-04-17T09:04:01.999Z</time></trkpt><trkpt lat="44.272869538139894" lon="8.298224023944949"><ele>525.4</ele><time>2026-04-17T09:04:03.999Z</time></trkpt><trkpt lat="44.27297726294783" lon="8.298292897557051"><ele>523.0</ele><time>2026-04-17T09:04:05.999Z</time></trkpt><trkpt lat="44.27307314694129" lon="8.298370880336401"><ele>522.0</ele><time>2026-04-17T09:04:07.999Z</time></trkpt><trkpt lat="44.273155437284615" lon="8.298451448835758"><ele>521.0</ele><time>2026-04-17T09:04:09.999Z</time></trkpt><trkpt lat="44.273226840788894" lon="8.298508085422855"><ele>520.0</ele><time>2026-04-17T09:04:11.999Z</time></trkpt><trkpt lat="44.273277930029565" lon="8.29856414436729"><ele>519.0</ele><time>2026-04-17T09:04:13.999Z</time></trkpt><trkpt lat="44.27332934644642" lon="8.298636294810912"><ele>518.0</ele><time>2026-04-17T09:04:17.999Z</time></trkpt><trkpt lat="44.273369823344204" lon="8.298706510750435"><ele>517.0</ele><time>2026-04-17T09:06:49.999Z</time></trkpt><trkpt lat="44.273305380452875" lon="8.298815998879519"><ele>517.0</ele><time>2026-04-17T09:06:51.999Z</time></trkpt><trkpt lat="44.27323800422096" lon="8.298880902857835"><ele>517.0</ele><time>2026-04-17T09:06:52.999Z</time></trkpt><trkpt lat="44.273206831841755" lon="8.29895960582251"><ele>517.0</ele><time>2026-04-17T09:06:53.999Z</time></trkpt><trkpt lat="44.27318741796162" lon="8.299061190276959"><ele>517.0</ele><time>2026-04-17T09:06:54.999Z</time></trkpt><trkpt lat="44.27316677181534" lon="8.299179283550762"><ele>517.0</ele><time>2026-04-17T09:06:55.999Z</time></trkpt><trkpt lat="44.27314810211492" lon="8.29928030341501"><ele>517.0</ele><time>2026-04-17T09:06:56.999Z</time></trkpt><trkpt lat="44.27313566326112" lon="8.299393535699494"><ele>516.3333333333334</ele><time>2026-04-17T09:06:57.999Z</time></trkpt><trkpt lat="44.27312345034499" lon="8.299504318644987"><ele>515.6666666666667</ele><time>2026-04-17T09:06:58.999Z</time></trkpt><trkpt lat="44.27311623777885" lon="8.299622159891046"><ele>515.0</ele><time>2026-04-17T09:06:59.999Z</time></trkpt><trkpt lat="44.27311496473911" lon="8.299731997444125"><ele>514.3333333333334</ele><time>2026-04-17T09:07:00.999Z</time></trkpt><trkpt lat="44.27311955429043" lon="8.29983684613571"><ele>513.6666666666666</ele><time>2026-04-17T09:07:01.999Z</time></trkpt><trkpt lat="44.27311579425687" lon="8.299961805342551"><ele>513.0</ele><time>2026-04-17T09:07:02.999Z</time></trkpt><trkpt lat="44.27308372096423" lon="8.300087693643029"><ele>517.4</ele><time>2026-04-17T09:07:03.999Z</time></trkpt><trkpt lat="44.273026348954126" lon="8.300206999320213"><ele>521.8</ele><time>2026-04-17T09:07:04.999Z</time></trkpt><trkpt lat="44.27297235769856" lon="8.30032398068311"><ele>526.2</ele><time>2026-04-17T09:07:05.999Z</time></trkpt><trkpt lat="44.27293495851459" lon="8.300442774363376"><ele>530.6</ele><time>2026-04-17T09:07:06.999Z</time></trkpt><trkpt lat="44.27290806173816" lon="8.30056445615473"><ele>535.0</ele><time>2026-04-17T09:07:07.999Z</time></trkpt><trkpt lat="44.27288158708113" lon="8.300690157736476"><ele>536.0</ele><time>2026-04-17T09:07:08.999Z</time></trkpt><trkpt lat="44.27285376073121" lon="8.30082167729133"><ele>537.0</ele><time>2026-04-17T09:07:09.999Z</time></trkpt><trkpt lat="44.27282410660664" lon="8.30095067190516"><ele>538.0</ele><time>2026-04-17T09:07:10.999Z</time></trkpt><trkpt lat="44.272796775417845" lon="8.301072502881455"><ele>539.0</ele><time>2026-04-17T09:07:11.999Z</time></trkpt><trkpt lat="44.27277117177872" lon="8.301193613448675"><ele>540.0</ele><time>2026-04-17T09:07:12.999Z</time></trkpt><trkpt lat="44.27274540703974" lon="8.301306760965712"><ele>540.0</ele><time>2026-04-17T09:07:13.999Z</time></trkpt><trkpt lat="44.27271458484726" lon="8.301404294180491"><ele>540.0</ele><time>2026-04-17T09:07:14.999Z</time></trkpt><trkpt lat="44.27267607278146" lon="8.301483194526252"><ele>540.0</ele><time>2026-04-17T09:07:15.999Z</time></trkpt><trkpt lat="44.272622439970164" lon="8.301544173291914"><ele>540.0</ele><time>2026-04-17T09:07:17Z</time></trkpt><trkpt lat="44.272543884001095" lon="8.301571166340272"><ele>540.0</ele><time>2026-04-17T09:07:18Z</time></trkpt><trkpt lat="44.27247218685143" lon="8.30157784719633"><ele>540.0</ele><time>2026-04-17T09:07:19Z</time></trkpt><trkpt lat="44.27236170983502" lon="8.301583263197763"><ele>543.0</ele><time>2026-04-17T09:07:20Z</time></trkpt><trkpt lat="44.27225178066445" lon="8.301602483347132"><ele>546.0</ele><time>2026-04-17T09:07:21Z</time></trkpt><trkpt lat="44.272148253652716" lon="8.301646338841566"><ele>549.0</ele><time>2026-04-17T09:07:22Z</time></trkpt><trkpt lat="44.27207433788087" lon="8.301707551414529"><ele>552.0</ele><time>2026-04-17T09:07:23Z</time></trkpt><trkpt lat="44.27198243337833" lon="8.301792872820151"><ele>555.0</ele><time>2026-04-17T09:07:25Z</time></trkpt><trkpt lat="44.27192901653822" lon="8.301680579582733"><ele>555.0</ele><time>2026-04-17T09:07:28Z</time></trkpt><trkpt lat="44.272003953018796" lon="8.301610524503493"><ele>555.0</ele><time>2026-04-17T09:07:30Z</time></trkpt><trkpt lat="44.2720838219212" lon="8.301574322232463"><ele>555.0</ele><time>2026-04-17T09:07:31Z</time></trkpt><trkpt lat="44.27217003252459" lon="8.301538255402331"><ele>555.0</ele><time>2026-04-17T09:07:32Z</time></trkpt><trkpt lat="44.27223489060494" lon="8.30147802701435"><ele>555.0</ele><time>2026-04-17T09:07:33Z</time></trkpt><trkpt lat="44.27228625334258" lon="8.301397897032706"><ele>555.0</ele><time>2026-04-17T09:07:34Z</time></trkpt><trkpt lat="44.27233793070798" lon="8.301298978175913"><ele>552.5</ele><time>2026-04-17T09:07:35Z</time></trkpt><trkpt lat="44.272382254728704" lon="8.301194851296705"><ele>550.0</ele><time>2026-04-17T09:07:36Z</time></trkpt><trkpt lat="44.27239924655438" lon="8.301093040099857"><ele>547.5</ele><time>2026-04-17T09:07:37Z</time></trkpt><trkpt lat="44.27239898121933" lon="8.300984514857916"><ele>545.0</ele><time>2026-04-17T09:07:38Z</time></trkpt><trkpt lat="44.27239172736643" lon="8.30086356946494"><ele>542.5</ele><time>2026-04-17T09:07:39Z</time></trkpt><trkpt lat="44.2723682757168" lon="8.3007126759154"><ele>540.0</ele><time>2026-04-17T09:07:40Z</time></trkpt><trkpt lat="44.2723595683637" lon="8.300585187267911"><ele>539.0</ele><time>2026-04-17T09:07:41Z</time></trkpt><trkpt lat="44.27229811374329" lon="8.300450095604411"><ele>538.0</ele><time>2026-04-17T09:07:43Z</time></trkpt><trkpt lat="44.27222391308984" lon="8.300443754966384"><ele>537.0</ele><time>2026-04-17T09:07:44Z</time></trkpt><trkpt lat="44.27213249546219" lon="8.300468767023474"><ele>536.0</ele><time>2026-04-17T09:07:45Z</time></trkpt><trkpt lat="44.27203708371583" lon="8.300493030374057"><ele>535.0</ele><time>2026-04-17T09:07:46Z</time></trkpt><trkpt lat="44.271952672771555" lon="8.300482441155934"><ele>537.6666666666667</ele><time>2026-04-17T09:07:47Z</time></trkpt><trkpt lat="44.2718664924471" lon="8.30043774207567"><ele>540.3333333333334</ele><time>2026-04-17T09:07:48Z</time></trkpt><trkpt lat="44.27179179328795" lon="8.300355346653616"><ele>543.0</ele><time>2026-04-17T09:07:49Z</time></trkpt><trkpt lat="44.271720751953104" lon="8.30030504526297"><ele>545.6666666666666</ele><time>2026-04-17T09:07:50Z</time></trkpt><trkpt lat="44.271664056673515" lon="8.300248789784249"><ele>548.3333333333333</ele><time>2026-04-17T09:07:51Z</time></trkpt><trkpt lat="44.27162208332043" lon="8.300163595167406"><ele>551.0</ele><time>2026-04-17T09:07:52Z</time></trkpt><trkpt lat="44.27160786834109" lon="8.300041893823366"><ele>551.0</ele><time>2026-04-17T09:07:53Z</time></trkpt><trkpt lat="44.271594117182254" lon="8.299921076529799"><ele>551.0</ele><time>2026-04-17T09:07:54Z</time></trkpt><trkpt lat="44.27155545719745" lon="8.299798863215816"><ele>551.0</ele><time>2026-04-17T09:07:55Z</time></trkpt><trkpt lat="44.27150678132308" lon="8.299701311744274"><ele>551.0</ele><time>2026-04-17T09:07:56Z</time></trkpt><trkpt lat="44.27141484678226" lon="8.299782596284984"><ele>551.0</ele><time>2026-04-17T09:07:57Z</time></trkpt><trkpt lat="44.271349153341724" lon="8.299821307905036"><ele>551.0</ele><time>2026-04-17T09:07:58Z</time></trkpt><trkpt lat="44.2712891081986" lon="8.299889273085318"><ele>553.4</ele><time>2026-04-17T09:07:59Z</time></trkpt><trkpt lat="44.2712446628942" lon="8.299963105593088"><ele>555.8</ele><time>2026-04-17T09:08:00Z</time></trkpt><trkpt lat="44.27114963218327" lon="8.300022535192634"><ele>558.1999999999999</ele><time>2026-04-17T09:08:02Z</time></trkpt><trkpt lat="44.27101591196949" lon="8.299897080975853"><ele>560.6</ele><time>2026-04-17T09:08:04Z</time></trkpt><trkpt lat="44.270942435123345" lon="8.299825189643277"><ele>563.0</ele><time>2026-04-17T09:08:05Z</time></trkpt><trkpt lat="44.27087768485474" lon="8.299778086840398"><ele>563.0</ele><time>2026-04-17T09:08:06Z</time></trkpt><trkpt lat="44.270786672299835" lon="8.299780511842254"><ele>563.0</ele><time>2026-04-17T09:08:07Z</time></trkpt><trkpt lat="44.27065798027352" lon="8.299776229690783"><ele>563.0</ele><time>2026-04-17T09:08:08Z</time></trkpt><trkpt lat="44.27053943151081" lon="8.29977721342099"><ele>563.0</ele><time>2026-04-17T09:08:09Z</time></trkpt><trkpt lat="44.270450142050365" lon="8.299775062022091"><ele>563.0</ele><time>2026-04-17T09:08:10Z</time></trkpt><trkpt lat="44.27037879221451" lon="8.299808768015321"><ele>562.4</ele><time>2026-04-17T09:08:11Z</time></trkpt><trkpt lat="44.270284351535565" lon="8.29986213325384"><ele>561.8</ele><time>2026-04-17T09:08:12Z</time></trkpt><trkpt lat="44.27022953052406" lon="8.299922808485915"><ele>561.2</ele><time>2026-04-17T09:08:13Z</time></trkpt><trkpt lat="44.27017838355512" lon="8.300033366614512"><ele>560.6</ele><time>2026-04-17T09:08:14Z</time></trkpt><trkpt lat="44.27011647961982" lon="8.300150698473944"><ele>560.0</ele><time>2026-04-17T09:08:15Z</time></trkpt><trkpt lat="44.27003797726846" lon="8.300286502603566"><ele>560.0</ele><time>2026-04-17T09:08:16Z</time></trkpt><trkpt lat="44.269965091082945" lon="8.300413493286909"><ele>560.0</ele><time>2026-04-17T09:08:17Z</time></trkpt><trkpt lat="44.26988609959187" lon="8.30053311932034"><ele>560.0</ele><time>2026-04-17T09:08:18Z</time></trkpt><trkpt lat="44.26980586618516" lon="8.300619423409733"><ele>560.0</ele><time>2026-04-17T09:08:19Z</time></trkpt><trkpt lat="44.26975315926977" lon="8.300682006415128"><ele>560.0</ele><time>2026-04-17T09:08:20Z</time></trkpt><trkpt lat="44.26972832757167" lon="8.300767005781534"><ele>563.6666666666666</ele><time>2026-04-17T09:08:22Z</time></trkpt><trkpt lat="44.26979065562238" lon="8.30085193196062"><ele>567.3333333333333</ele><time>2026-04-17T09:08:24Z</time></trkpt><trkpt lat="44.269879173375" lon="8.300803506509263"><ele>571.0</ele><time>2026-04-17T09:08:26Z</time></trkpt><trkpt lat="44.269925491663734" lon="8.3007433485489"><ele>574.6666666666666</ele><time>2026-04-17T09:08:27Z</time></trkpt><trkpt lat="44.26998635823533" lon="8.300687902575893"><ele>578.3333333333334</ele><time>2026-04-17T09:08:28Z</time></trkpt><trkpt lat="44.270073882852685" lon="8.30065807894803"><ele>582.0</ele><time>2026-04-17T09:08:29Z</time></trkpt><trkpt lat="44.270190425954745" lon="8.300609325456445"><ele>582.0</ele><time>2026-04-17T09:08:30Z</time></trkpt><trkpt lat="44.27031581561474" lon="8.300547294175164"><ele>582.0</ele><time>2026-04-17T09:08:31Z</time></trkpt><trkpt lat="44.27040906833476" lon="8.300531879250524"><ele>582.0</ele><time>2026-04-17T09:08:32Z</time></trkpt><trkpt lat="44.27048757796236" lon="8.300544078581593"><ele>582.0</ele><time>2026-04-17T09:08:33Z</time></trkpt><trkpt lat="44.27056171312599" lon="8.300590263425644"><ele>582.0</ele><time>2026-04-17T09:08:34Z</time></trkpt><trkpt lat="44.270632950251844" lon="8.300658875727809"><ele>581.3333333333334</ele><time>2026-04-17T09:08:35Z</time></trkpt><trkpt lat="44.27070125783684" lon="8.300747663656114"><ele>580.6666666666666</ele><time>2026-04-17T09:08:36Z</time></trkpt><trkpt lat="44.27075689322521" lon="8.300819216817926"><ele>580.0</ele><time>2026-04-17T09:08:37Z</time></trkpt><trkpt lat="44.2708109815456" lon="8.30092431524238"><ele>579.3333333333333</ele><time>2026-04-17T09:08:39Z</time></trkpt><trkpt lat="44.270801235525525" lon="8.301072766458791"><ele>578.6666666666666</ele><time>2026-04-17T09:08:41Z</time></trkpt><trkpt lat="44.2707600483405" lon="8.301151125558448"><ele>578.0</ele><time>2026-04-17T09:08:42Z</time></trkpt><trkpt lat="44.27070705482857" lon="8.301208813601495"><ele>578.0</ele><time>2026-04-17T09:08:43Z</time></trkpt><trkpt lat="44.27062547447255" lon="8.30127129137078"><ele>578.0</ele><time>2026-04-17T09:08:45Z</time></trkpt><trkpt lat="44.270561939724644" lon="8.301375321673369"><ele>578.0</ele><time>2026-04-17T09:08:47Z</time></trkpt><trkpt lat="44.27053732836202" lon="8.301499395978947"><ele>578.0</ele><time>2026-04-17T09:08:49Z</time></trkpt><trkpt lat="44.27050037608308" lon="8.30162359976252"><ele>578.0</ele><time>2026-04-17T09:08:51Z</time></trkpt><trkpt lat="44.27045423916673" lon="8.301721308319994"><ele>581.8</ele><time>2026-04-17T09:08:53Z</time></trkpt><trkpt lat="44.27041098642563" lon="8.301831818133069"><ele>585.5999999999999</ele><time>2026-04-17T09:08:55Z</time></trkpt><trkpt lat="44.270367900699306" lon="8.301918832296769"><ele>589.4000000000001</ele><time>2026-04-17T09:08:57Z</time></trkpt><trkpt lat="44.27033196360962" lon="8.302058730569346"><ele>593.2</ele><time>2026-04-17T09:08:59Z</time></trkpt><trkpt lat="44.27033844881691" lon="8.302185024935648"><ele>597.0</ele><time>2026-04-17T09:09:01Z</time></trkpt><trkpt lat="44.27036890050834" lon="8.302304336342683"><ele>598.3333333333334</ele><time>2026-04-17T09:09:03Z</time></trkpt><trkpt lat="44.27041898156703" lon="8.30238113333032"><ele>599.6666666666666</ele><time>2026-04-17T09:09:05Z</time></trkpt><trkpt lat="44.27047320801317" lon="8.302471643873094"><ele>601.0</ele><time>2026-04-17T09:09:07Z</time></trkpt><trkpt lat="44.27044088081859" lon="8.302597626073029"><ele>602.3333333333333</ele><time>2026-04-17T09:09:10Z</time></trkpt><trkpt lat="44.27034536604219" lon="8.302585240520632"><ele>603.6666666666666</ele><time>2026-04-17T09:09:12Z</time></trkpt><trkpt lat="44.27029752128729" lon="8.30252740011112"><ele>605.0</ele><time>2026-04-17T09:09:13Z</time></trkpt><trkpt lat="44.27023626492076" lon="8.302440146178265"><ele>605.0</ele><time>2026-04-17T09:09:15Z</time></trkpt><trkpt lat="44.27015119008583" lon="8.302365769947981"><ele>605.0</ele><time>2026-04-17T09:09:18Z</time></trkpt><trkpt lat="44.270090934262015" lon="8.302251477525537"><ele>605.0</ele><time>2026-04-17T09:09:21Z</time></trkpt><trkpt lat="44.270051565796116" lon="8.302145247907744"><ele>605.0</ele><time>2026-04-17T09:09:23Z</time></trkpt><trkpt lat="44.27002187222367" lon="8.302057411988004"><ele>605.0</ele><time>2026-04-17T09:09:25Z</time></trkpt><trkpt lat="44.26999890221297" lon="8.30191298493321"><ele>604.1666666666666</ele><time>2026-04-17T09:09:27Z</time></trkpt><trkpt lat="44.269971647183525" lon="8.301786008527401"><ele>603.3333333333333</ele><time>2026-04-17T09:09:30Z</time></trkpt><trkpt lat="44.26992755623529" lon="8.3016876397692"><ele>602.5</ele><time>2026-04-17T09:09:32Z</time></trkpt><trkpt lat="44.269838540324855" lon="8.301648531342343"><ele>601.6666666666666</ele><time>2026-04-17T09:09:34Z</time></trkpt><trkpt lat="44.26975954587949" lon="8.30168222657391"><ele>600.8333333333334</ele><time>2026-04-17T09:09:36Z</time></trkpt><trkpt lat="44.26970516369863" lon="8.301730347597028"><ele>600.0</ele><time>2026-04-17T09:09:37Z</time></trkpt><trkpt lat="44.26963220959804" lon="8.301795778688216"><ele>600.0</ele><time>2026-04-17T09:09:38Z</time></trkpt><trkpt lat="44.26955668563535" lon="8.3018797529159"><ele>600.0</ele><time>2026-04-17T09:09:39Z</time></trkpt><trkpt lat="44.26949803279038" lon="8.30196558564248"><ele>600.0</ele><time>2026-04-17T09:09:40Z</time></trkpt><trkpt lat="44.26943673772391" lon="8.302040833716324"><ele>600.0</ele><time>2026-04-17T09:09:41Z</time></trkpt><trkpt lat="44.26937229082503" lon="8.302133405441163"><ele>600.0</ele><time>2026-04-17T09:09:42Z</time></trkpt><trkpt lat="44.26932250724989" lon="8.302249276377593"><ele>602.8333333333334</ele><time>2026-04-17T09:09:43Z</time></trkpt><trkpt lat="44.26927378321602" lon="8.30231591433744"><ele>605.6666666666666</ele><time>2026-04-17T09:09:44Z</time></trkpt><trkpt lat="44.269210812972354" lon="8.30236884327956"><ele>608.5</ele><time>2026-04-17T09:09:45Z</time></trkpt><trkpt lat="44.269133707221854" lon="8.302406376918263"><ele>611.3333333333333</ele><time>2026-04-17T09:09:46Z</time></trkpt><trkpt lat="44.269055336662284" lon="8.302418718222908"><ele>614.1666666666666</ele><time>2026-04-17T09:09:47Z</time></trkpt><trkpt lat="44.26897539112609" lon="8.302396494255822"><ele>617.0</ele><time>2026-04-17T09:09:48Z</time></trkpt><trkpt lat="44.26889206320481" lon="8.30235663777688"><ele>618.5</ele><time>2026-04-17T09:09:49Z</time></trkpt><trkpt lat="44.268825189155606" lon="8.302315873411002"><ele>620.0</ele><time>2026-04-17T09:09:50Z</time></trkpt><trkpt lat="44.26875918061674" lon="8.302299259903846"><ele>621.5</ele><time>2026-04-17T09:09:51Z</time></trkpt><trkpt lat="44.268686935112434" lon="8.302333533564784"><ele>623.0</ele><time>2026-04-17T09:09:52Z</time></trkpt><trkpt lat="44.26862323183958" lon="8.30241090943353"><ele>624.5</ele><time>2026-04-17T09:09:53Z</time></trkpt><trkpt lat="44.268574078083326" lon="8.302511164797885"><ele>626.0</ele><time>2026-04-17T09:09:54Z</time></trkpt><trkpt lat="44.26851769405972" lon="8.302569739273565"><ele>626.0</ele><time>2026-04-17T09:09:55Z</time></trkpt><trkpt lat="44.26845281021722" lon="8.302570731992562"><ele>626.0</ele><time>2026-04-17T09:09:56Z</time></trkpt><trkpt lat="44.268380389841845" lon="8.302530764300744"><ele>626.0</ele><time>2026-04-17T09:09:57Z</time></trkpt><trkpt lat="44.26831112683775" lon="8.302467503103962"><ele>626.0</ele><time>2026-04-17T09:09:58Z</time></trkpt><trkpt lat="44.26821856474335" lon="8.302422445854075"><ele>626.0</ele><time>2026-04-17T09:09:59Z</time></trkpt><trkpt lat="44.26811152126044" lon="8.302368565078785"><ele>626.0</ele><time>2026-04-17T09:10:00Z</time></trkpt><trkpt lat="44.268001016496335" lon="8.302285026603052"><ele>623.8</ele><time>2026-04-17T09:10:01Z</time></trkpt><trkpt lat="44.26789700310849" lon="8.302182703185814"><ele>621.6</ele><time>2026-04-17T09:10:02Z</time></trkpt><trkpt lat="44.26778691515707" lon="8.302103059718766"><ele>619.4</ele><time>2026-04-17T09:10:03Z</time></trkpt><trkpt lat="44.267709547557075" lon="8.302122854332614"><ele>617.2</ele><time>2026-04-17T09:10:04Z</time></trkpt><trkpt lat="44.26762605543123" lon="8.302096731952485"><ele>615.0</ele><time>2026-04-17T09:10:05Z</time></trkpt><trkpt lat="44.267513811220994" lon="8.302055704786062"><ele>615.0</ele><time>2026-04-17T09:10:06Z</time></trkpt><trkpt lat="44.2674066701204" lon="8.302028747423623"><ele>615.0</ele><time>2026-04-17T09:10:07Z</time></trkpt><trkpt lat="44.26732053735939" lon="8.302043954095089"><ele>615.0</ele><time>2026-04-17T09:10:08Z</time></trkpt><trkpt lat="44.26722024407758" lon="8.302081840543744"><ele>615.0</ele><time>2026-04-17T09:10:09Z</time></trkpt><trkpt lat="44.26712499237883" lon="8.302123661562664"><ele>615.0</ele><time>2026-04-17T09:10:10Z</time></trkpt><trkpt lat="44.267049749009914" lon="8.30216739414391"><ele>614.0</ele><time>2026-04-17T09:10:11Z</time></trkpt><trkpt lat="44.26699155649675" lon="8.30220428234942"><ele>613.0</ele><time>2026-04-17T09:10:12Z</time></trkpt><trkpt lat="44.26695340890927" lon="8.302294383565949"><ele>612.0</ele><time>2026-04-17T09:10:14Z</time></trkpt><trkpt lat="44.26701823530596" lon="8.302382482653266"><ele>611.0</ele><time>2026-04-17T09:10:16Z</time></trkpt><trkpt lat="44.26714353658009" lon="8.302379036224036"><ele>610.0</ele><time>2026-04-17T09:10:18Z</time></trkpt><trkpt lat="44.26724961134809" lon="8.302384789888011"><ele>615.4</ele><time>2026-04-17T09:10:19Z</time></trkpt><trkpt lat="44.26735510205715" lon="8.302425991978016"><ele>620.8</ele><time>2026-04-17T09:10:20Z</time></trkpt><trkpt lat="44.267421526313754" lon="8.302469950631792"><ele>626.2</ele><time>2026-04-17T09:10:21Z</time></trkpt><trkpt lat="44.267478249030596" lon="8.302564187066865"><ele>631.6</ele><time>2026-04-17T09:10:23Z</time></trkpt><trkpt lat="44.26740961516456" lon="8.302657832365483"><ele>637.0</ele><time>2026-04-17T09:10:25Z</time></trkpt><trkpt lat="44.267289127499104" lon="8.302612120425692"><ele>636.6</ele><time>2026-04-17T09:10:27Z</time></trkpt><trkpt lat="44.26720625859129" lon="8.30256415257571"><ele>636.2</ele><time>2026-04-17T09:10:28Z</time></trkpt><trkpt lat="44.26712211369021" lon="8.302526858709097"><ele>635.8</ele><time>2026-04-17T09:10:29Z</time></trkpt><trkpt lat="44.26702165427979" lon="8.302530290860993"><ele>635.4</ele><time>2026-04-17T09:10:30Z</time></trkpt><trkpt lat="44.266904433752515" lon="8.302552584668712"><ele>635.0</ele><time>2026-04-17T09:10:31Z</time></trkpt><trkpt lat="44.26677983256984" lon="8.30257626974539"><ele>635.0</ele><time>2026-04-17T09:10:32Z</time></trkpt><trkpt lat="44.26668493261294" lon="8.302607081177728"><ele>635.0</ele><time>2026-04-17T09:10:33Z</time></trkpt><trkpt lat="44.26659529384228" lon="8.302650372379306"><ele>635.0</ele><time>2026-04-17T09:10:34Z</time></trkpt><trkpt lat="44.26650114309929" lon="8.302696873336082"><ele>635.0</ele><time>2026-04-17T09:10:35Z</time></trkpt><trkpt lat="44.26640576234702" lon="8.30274569935451"><ele>635.0</ele><time>2026-04-17T09:10:36Z</time></trkpt><trkpt lat="44.26631922687579" lon="8.302793080047143"><ele>634.4</ele><time>2026-04-17T09:10:37Z</time></trkpt><trkpt lat="44.26623366893432" lon="8.302855195765883"><ele>633.8</ele><time>2026-04-17T09:10:38Z</time></trkpt><trkpt lat="44.266173787580506" lon="8.302915489297492"><ele>633.2</ele><time>2026-04-17T09:10:39Z</time></trkpt><trkpt lat="44.26612890738664" lon="8.303047666694606"><ele>632.6</ele><time>2026-04-17T09:10:41Z</time></trkpt><trkpt lat="44.266182001629794" lon="8.303148220494123"><ele>632.0</ele><time>2026-04-17T09:10:43Z</time></trkpt><trkpt lat="44.26631025314162" lon="8.30311959379827"><ele>632.6</ele><time>2026-04-17T09:10:45Z</time></trkpt><trkpt lat="44.266397813143676" lon="8.30308122131804"><ele>633.2</ele><time>2026-04-17T09:10:46Z</time></trkpt><trkpt lat="44.266498268053745" lon="8.303035255430531"><ele>633.8</ele><time>2026-04-17T09:10:47Z</time></trkpt><trkpt lat="44.26659556977936" lon="8.303010937697664"><ele>634.4</ele><time>2026-04-17T09:10:48Z</time></trkpt><trkpt lat="44.26669671655125" lon="8.302976947220392"><ele>635.0</ele><time>2026-04-17T09:10:49Z</time></trkpt><trkpt lat="44.26679767791786" lon="8.302956689253735"><ele>635.0</ele><time>2026-04-17T09:10:50Z</time></trkpt><trkpt lat="44.26687900799273" lon="8.302962191690563"><ele>635.0</ele><time>2026-04-17T09:10:51Z</time></trkpt><trkpt lat="44.266953804668546" lon="8.302992162623175"><ele>635.0</ele><time>2026-04-17T09:10:52Z</time></trkpt><trkpt lat="44.26702719031511" lon="8.303042570867417"><ele>635.0</ele><time>2026-04-17T09:10:53Z</time></trkpt><trkpt lat="44.26710278104671" lon="8.303119337665265"><ele>635.0</ele><time>2026-04-17T09:10:54Z</time></trkpt><trkpt lat="44.26719537259881" lon="8.303212193279196"><ele>635.0</ele><time>2026-04-17T09:10:55Z</time></trkpt><trkpt lat="44.26729225782168" lon="8.30325504221856"><ele>641.0</ele><time>2026-04-17T09:10:56Z</time></trkpt><trkpt lat="44.267396219971516" lon="8.303262751204187"><ele>647.0</ele><time>2026-04-17T09:10:57Z</time></trkpt><trkpt lat="44.2674842794614" lon="8.303260964337015"><ele>653.0</ele><time>2026-04-17T09:10:58Z</time></trkpt><trkpt lat="44.26758823586625" lon="8.303270295761461"><ele>659.0</ele><time>2026-04-17T09:11:00Z</time></trkpt><trkpt lat="44.267600619746524" lon="8.30336629205186"><ele>665.0</ele><time>2026-04-17T09:11:02Z</time></trkpt><trkpt lat="44.26753474356548" lon="8.303468749546488"><ele>665.0</ele><time>2026-04-17T09:11:04Z</time></trkpt><trkpt lat="44.26747340704763" lon="8.303504387337298"><ele>665.0</ele><time>2026-04-17T09:11:05Z</time></trkpt><trkpt lat="44.26737701006564" lon="8.303534625184476"><ele>665.0</ele><time>2026-04-17T09:11:06Z</time></trkpt><trkpt lat="44.26726880081887" lon="8.303589405523248"><ele>665.0</ele><time>2026-04-17T09:11:07Z</time></trkpt><trkpt lat="44.26718076980862" lon="8.303663476571787"><ele>665.0</ele><time>2026-04-17T09:11:08Z</time></trkpt><trkpt lat="44.26707288046451" lon="8.30374208827197"><ele>663.25</ele><time>2026-04-17T09:11:09Z</time></trkpt><trkpt lat="44.26697217994368" lon="8.303837596776802"><ele>661.5</ele><time>2026-04-17T09:11:10Z</time></trkpt><trkpt lat="44.266871158596096" lon="8.303945484201543"><ele>659.75</ele><time>2026-04-17T09:11:11Z</time></trkpt><trkpt lat="44.266777645121635" lon="8.304046200040196"><ele>658.0</ele><time>2026-04-17T09:11:12Z</time></trkpt><trkpt lat="44.26670393099288" lon="8.304148825616753"><ele>660.2</ele><time>2026-04-17T09:11:13Z</time></trkpt><trkpt lat="44.26662704666967" lon="8.304253683830808"><ele>662.4</ele><time>2026-04-17T09:11:14Z</time></trkpt><trkpt lat="44.26654699148506" lon="8.304344201562198"><ele>664.6</ele><time>2026-04-17T09:11:15Z</time></trkpt><trkpt lat="44.26646698207646" lon="8.304435218856076"><ele>666.8000000000001</ele><time>2026-04-17T09:11:16Z</time></trkpt><trkpt lat="44.26640308283052" lon="8.304524154393032"><ele>669.0</ele><time>2026-04-17T09:11:17Z</time></trkpt><trkpt lat="44.26632486651046" lon="8.304627014367329"><ele>669.0</ele><time>2026-04-17T09:11:18Z</time></trkpt><trkpt lat="44.26626971868561" lon="8.304684848720575"><ele>669.0</ele><time>2026-04-17T09:11:19Z</time></trkpt><trkpt lat="44.266168933441996" lon="8.304736020699764"><ele>669.0</ele><time>2026-04-17T09:11:21Z</time></trkpt><trkpt lat="44.2661880368919" lon="8.304873856373751"><ele>669.0</ele><time>2026-04-17T09:11:23Z</time></trkpt><trkpt lat="44.26630509771225" lon="8.304860475226286"><ele>669.0</ele><time>2026-04-17T09:11:25Z</time></trkpt><trkpt lat="44.26635018630677" lon="8.304780803497964"><ele>669.0</ele><time>2026-04-17T09:11:26Z</time></trkpt><trkpt lat="44.26641141774475" lon="8.30467941671649"><ele>669.0</ele><time>2026-04-17T09:11:27Z</time></trkpt><trkpt lat="44.26649844479825" lon="8.30461052355872"><ele>669.0</ele><time>2026-04-17T09:11:28Z</time></trkpt><trkpt lat="44.26659670433422" lon="8.304572332253821"><ele>669.0</ele><time>2026-04-17T09:11:29Z</time></trkpt><trkpt lat="44.26668957100938" lon="8.304559743747939"><ele>669.0</ele><time>2026-04-17T09:11:30Z</time></trkpt><trkpt lat="44.26678869935625" lon="8.304560692123728"><ele>670.75</ele><time>2026-04-17T09:11:31Z</time></trkpt><trkpt lat="44.26688375626594" lon="8.304570031559873"><ele>672.5</ele><time>2026-04-17T09:11:32Z</time></trkpt><trkpt lat="44.26701180637218" lon="8.304593776567208"><ele>674.25</ele><time>2026-04-17T09:11:33Z</time></trkpt><trkpt lat="44.26714497508534" lon="8.304622209074164"><ele>676.0</ele><time>2026-04-17T09:11:34Z</time></trkpt><trkpt lat="44.26725455876317" lon="8.30464017536054"><ele>677.6666666666667</ele><time>2026-04-17T09:11:35Z</time></trkpt><trkpt lat="44.2673556303635" lon="8.304683473913862"><ele>679.3333333333334</ele><time>2026-04-17T09:11:36Z</time></trkpt><trkpt lat="44.26742305221682" lon="8.304705899554968"><ele>681.0</ele><time>2026-04-17T09:11:37Z</time></trkpt><trkpt lat="44.2674947861898" lon="8.304682749665611"><ele>682.6666666666666</ele><time>2026-04-17T09:11:38Z</time></trkpt><trkpt lat="44.26756809102043" lon="8.304632946456481"><ele>684.3333333333333</ele><time>2026-04-17T09:11:39Z</time></trkpt><trkpt lat="44.267657404726556" lon="8.30459401496807"><ele>686.0</ele><time>2026-04-17T09:11:40Z</time></trkpt><trkpt lat="44.26774407055093" lon="8.304592983326625"><ele>686.0</ele><time>2026-04-17T09:11:41Z</time></trkpt><trkpt lat="44.2678244684322" lon="8.304631810260611"><ele>686.0</ele><time>2026-04-17T09:11:42Z</time></trkpt><trkpt lat="44.26789290769103" lon="8.304743545622358"><ele>686.0</ele><time>2026-04-17T09:11:44Z</time></trkpt><trkpt lat="44.26785121172408" lon="8.30486978833248"><ele>686.0</ele><time>2026-04-17T09:11:46Z</time></trkpt><trkpt lat="44.26778655777072" lon="8.30487861537656"><ele>686.0</ele><time>2026-04-17T09:11:47Z</time></trkpt><trkpt lat="44.26765126047983" lon="8.304816079744421"><ele>689.0</ele><time>2026-04-17T09:11:49Z</time></trkpt><trkpt lat="44.26758757756717" lon="8.30481295283288"><ele>692.0</ele><time>2026-04-17T09:11:50Z</time></trkpt><trkpt lat="44.26751540604787" lon="8.304856976512145"><ele>695.0</ele><time>2026-04-17T09:11:51Z</time></trkpt><trkpt lat="44.267436904874316" lon="8.304944646408957"><ele>698.0</ele><time>2026-04-17T09:11:52Z</time></trkpt><trkpt lat="44.267355672162964" lon="8.30503518448737"><ele>701.0</ele><time>2026-04-17T09:11:53Z</time></trkpt><trkpt lat="44.26724985256018" lon="8.30512108118216"><ele>701.0</ele><time>2026-04-17T09:11:54Z</time></trkpt><trkpt lat="44.26717040421853" lon="8.305171766568558"><ele>701.0</ele><time>2026-04-17T09:11:55Z</time></trkpt><trkpt lat="44.26706889414874" lon="8.305231990708165"><ele>701.0</ele><time>2026-04-17T09:11:56Z</time></trkpt><trkpt lat="44.26695163307037" lon="8.305279670761683"><ele>701.0</ele><time>2026-04-17T09:11:57Z</time></trkpt><trkpt lat="44.26683132374462" lon="8.305338195715894"><ele>701.0</ele><time>2026-04-17T09:11:58Z</time></trkpt><trkpt lat="44.266729821625944" lon="8.30537715081966"><ele>701.0</ele><time>2026-04-17T09:11:59Z</time></trkpt><trkpt lat="44.266640416439735" lon="8.30541296074226"><ele>701.0</ele><time>2026-04-17T09:12:00Z</time></trkpt><trkpt lat="44.266556865883054" lon="8.305432680307286"><ele>701.0</ele><time>2026-04-17T09:12:01Z</time></trkpt><trkpt lat="44.26648408563777" lon="8.305441342731225"><ele>701.0</ele><time>2026-04-17T09:12:02Z</time></trkpt><trkpt lat="44.2664064376492" lon="8.305490113776514"><ele>701.0</ele><time>2026-04-17T09:12:03Z</time></trkpt><trkpt lat="44.26635433180917" lon="8.305579887147257"><ele>701.0</ele><time>2026-04-17T09:12:04Z</time></trkpt><trkpt lat="44.26631842493888" lon="8.305707819866628"><ele>705.1666666666666</ele><time>2026-04-17T09:12:05Z</time></trkpt><trkpt lat="44.26629535817366" lon="8.305831201613294"><ele>709.3333333333333</ele><time>2026-04-17T09:12:06Z</time></trkpt><trkpt lat="44.26624676403363" lon="8.30592932330407"><ele>713.5</ele><time>2026-04-17T09:12:07Z</time></trkpt><trkpt lat="44.26618185449082" lon="8.305999116857397"><ele>717.6666666666666</ele><time>2026-04-17T09:12:08Z</time></trkpt><trkpt lat="44.26609999844862" lon="8.306041437254796"><ele>721.8333333333334</ele><time>2026-04-17T09:12:09Z</time></trkpt><trkpt lat="44.266015092980986" lon="8.306031035860759"><ele>726.0</ele><time>2026-04-17T09:12:10Z</time></trkpt><trkpt lat="44.265926020099535" lon="8.305976487168152"><ele>726.0</ele><time>2026-04-17T09:12:11Z</time></trkpt><trkpt lat="44.26581093045495" lon="8.305899850521184"><ele>726.0</ele><time>2026-04-17T09:12:12Z</time></trkpt><trkpt lat="44.265686213375005" lon="8.305812672147683"><ele>726.0</ele><time>2026-04-17T09:12:13Z</time></trkpt><trkpt lat="44.26557314713047" lon="8.305747975793667"><ele>726.0</ele><time>2026-04-17T09:12:14Z</time></trkpt><trkpt lat="44.26550053158164" lon="8.305676634879134"><ele>723.4</ele><time>2026-04-17T09:12:15Z</time></trkpt><trkpt lat="44.26542966549841" lon="8.305597657998014"><ele>720.8</ele><time>2026-04-17T09:12:16Z</time></trkpt><trkpt lat="44.265354928198526" lon="8.30554079540524"><ele>718.1999999999999</ele><time>2026-04-17T09:12:17Z</time></trkpt><trkpt lat="44.26525089915833" lon="8.305504687634377"><ele>715.5999999999999</ele><time>2026-04-17T09:12:18Z</time></trkpt><trkpt lat="44.2651202594925" lon="8.305494271820617"><ele>713.0</ele><time>2026-04-17T09:12:19Z</time></trkpt><trkpt lat="44.264992894746236" lon="8.305508451281005"><ele>713.0</ele><time>2026-04-17T09:12:20Z</time></trkpt><trkpt lat="44.26488139223545" lon="8.305506126794883"><ele>713.0</ele><time>2026-04-17T09:12:21Z</time></trkpt><trkpt lat="44.26479595841959" lon="8.305483959662261"><ele>713.0</ele><time>2026-04-17T09:12:22Z</time></trkpt><trkpt lat="44.26472196267169" lon="8.305436872545116"><ele>713.0</ele><time>2026-04-17T09:12:23Z</time></trkpt><trkpt lat="44.26465118834942" lon="8.30536168900743"><ele>713.0</ele><time>2026-04-17T09:12:24Z</time></trkpt><trkpt lat="44.264560590187195" lon="8.305280128536213"><ele>716.5999999999999</ele><time>2026-04-17T09:12:25Z</time></trkpt><trkpt lat="44.26446294182011" lon="8.305215458326003"><ele>720.1999999999999</ele><time>2026-04-17T09:12:26Z</time></trkpt><trkpt lat="44.264355332489686" lon="8.305191753292558"><ele>723.8</ele><time>2026-04-17T09:12:27Z</time></trkpt><trkpt lat="44.26423262058707" lon="8.305205490927092"><ele>727.4</ele><time>2026-04-17T09:12:28Z</time></trkpt><trkpt lat="44.26412591426182" lon="8.305216602741702"><ele>731.0</ele><time>2026-04-17T09:12:29Z</time></trkpt><trkpt lat="44.264021271452556" lon="8.305198851254483"><ele>728.0</ele><time>2026-04-17T09:12:30Z</time></trkpt><trkpt lat="44.26394561477319" lon="8.305176132467725"><ele>725.0</ele><time>2026-04-17T09:12:31Z</time></trkpt><trkpt lat="44.263872167696135" lon="8.305206849933725"><ele>722.0</ele><time>2026-04-17T09:12:32Z</time></trkpt><trkpt lat="44.26381182058603" lon="8.305276007173296"><ele>719.0</ele><time>2026-04-17T09:12:33Z</time></trkpt><trkpt lat="44.26379701648301" lon="8.30543633459038"><ele>716.0</ele><time>2026-04-17T09:12:35Z</time></trkpt><trkpt lat="44.263848430161474" lon="8.305493398782088"><ele>713.0</ele><time>2026-04-17T09:12:36Z</time></trkpt><trkpt lat="44.26391633323957" lon="8.305507200341046"><ele>716.5999999999999</ele><time>2026-04-17T09:12:37Z</time></trkpt><trkpt lat="44.264018368671906" lon="8.30539866394055"><ele>720.1999999999999</ele><time>2026-04-17T09:12:39Z</time></trkpt><trkpt lat="44.264105853759304" lon="8.305360556959439"><ele>723.8</ele><time>2026-04-17T09:12:40Z</time></trkpt><trkpt lat="44.264208848577866" lon="8.30536639739047"><ele>727.4</ele><time>2026-04-17T09:12:41Z</time></trkpt><trkpt lat="44.26428758362062" lon="8.305456131180362"><ele>731.0</ele><time>2026-04-17T09:12:42Z</time></trkpt><trkpt lat="44.264366039845854" lon="8.30548728753351"><ele>731.0</ele><time>2026-04-17T09:12:43Z</time></trkpt><trkpt lat="44.264420666286185" lon="8.305548273510146"><ele>731.0</ele><time>2026-04-17T09:12:45Z</time></trkpt><trkpt lat="44.26439226904896" lon="8.305628660375483"><ele>731.0</ele><time>2026-04-17T09:12:46Z</time></trkpt><trkpt lat="44.26426686286383" lon="8.305670774558257"><ele>731.0</ele><time>2026-04-17T09:12:48Z</time></trkpt><trkpt lat="44.264177257394564" lon="8.305641684396255"><ele>731.0</ele><time>2026-04-17T09:12:49Z</time></trkpt><trkpt lat="44.26409289398208" lon="8.305628846719527"><ele>731.0</ele><time>2026-04-17T09:12:50Z</time></trkpt><trkpt lat="44.26403582137513" lon="8.305688094007515"><ele>731.5999999999999</ele><time>2026-04-17T09:12:51Z</time></trkpt><trkpt lat="44.263979437428425" lon="8.305792556602979"><ele>732.2</ele><time>2026-04-17T09:12:52Z</time></trkpt><trkpt lat="44.26393386140954" lon="8.305922465331362"><ele>732.8</ele><time>2026-04-17T09:12:53Z</time></trkpt><trkpt lat="44.263888724635216" lon="8.306053527037786"><ele>733.4000000000001</ele><time>2026-04-17T09:12:54Z</time></trkpt><trkpt lat="44.263855648295994" lon="8.30621474524758"><ele>734.0</ele><time>2026-04-17T09:12:55Z</time></trkpt><trkpt lat="44.26381596092882" lon="8.306371665487431"><ele>738.6</ele><time>2026-04-17T09:12:56Z</time></trkpt><trkpt lat="44.26376094490091" lon="8.306467449122168"><ele>743.2</ele><time>2026-04-17T09:12:57Z</time></trkpt><trkpt lat="44.26368598665873" lon="8.306544105366601"><ele>747.8000000000001</ele><time>2026-04-17T09:12:58Z</time></trkpt><trkpt lat="44.26358729028217" lon="8.306633796473712"><ele>752.4000000000001</ele><time>2026-04-17T09:12:59Z</time></trkpt><trkpt lat="44.26349271388676" lon="8.306735927970287"><ele>757.0</ele><time>2026-04-17T09:13:00Z</time></trkpt><trkpt lat="44.26341821194323" lon="8.306853434019393"><ele>757.0</ele><time>2026-04-17T09:13:01Z</time></trkpt><trkpt lat="44.2633636235274" lon="8.306961746696356"><ele>757.0</ele><time>2026-04-17T09:13:02Z</time></trkpt><trkpt lat="44.26330874165518" lon="8.307046707099351"><ele>757.0</ele><time>2026-04-17T09:13:03Z</time></trkpt><trkpt lat="44.263227098298195" lon="8.307114624580834"><ele>757.0</ele><time>2026-04-17T09:13:04Z</time></trkpt><trkpt lat="44.26313793662914" lon="8.307128267156886"><ele>757.0</ele><time>2026-04-17T09:13:05Z</time></trkpt><trkpt lat="44.26304036667385" lon="8.307115062546274"><ele>756.0</ele><time>2026-04-17T09:13:06Z</time></trkpt><trkpt lat="44.26294300790738" lon="8.307115173045828"><ele>755.0</ele><time>2026-04-17T09:13:07Z</time></trkpt><trkpt lat="44.262855157437386" lon="8.30714638069956"><ele>754.0</ele><time>2026-04-17T09:13:08Z</time></trkpt><trkpt lat="44.26274906451273" lon="8.30720514433426"><ele>753.0</ele><time>2026-04-17T09:13:09Z</time></trkpt><trkpt lat="44.262653166504094" lon="8.307295914370945"><ele>752.0</ele><time>2026-04-17T09:13:10Z</time></trkpt><trkpt lat="44.26256240797148" lon="8.30736281644504"><ele>753.6</ele><time>2026-04-17T09:13:11Z</time></trkpt><trkpt lat="44.262454675638004" lon="8.307403778917886"><ele>755.2</ele><time>2026-04-17T09:13:12Z</time></trkpt><trkpt lat="44.262361715605714" lon="8.307433954502116"><ele>756.8</ele><time>2026-04-17T09:13:13Z</time></trkpt><trkpt lat="44.262298627692566" lon="8.307510099127075"><ele>758.4</ele><time>2026-04-17T09:13:14Z</time></trkpt><trkpt lat="44.262262892694274" lon="8.307618335142806"><ele>760.0</ele><time>2026-04-17T09:13:15Z</time></trkpt><trkpt lat="44.262242965172916" lon="8.307755928977237"><ele>760.0</ele><time>2026-04-17T09:13:16Z</time></trkpt><trkpt lat="44.262237860471515" lon="8.307917997852295"><ele>760.0</ele><time>2026-04-17T09:13:17Z</time></trkpt><trkpt lat="44.26222962249692" lon="8.308065298182308"><ele>760.0</ele><time>2026-04-17T09:13:18Z</time></trkpt><trkpt lat="44.26219110803862" lon="8.308153575342116"><ele>760.0</ele><time>2026-04-17T09:13:19Z</time></trkpt><trkpt lat="44.262122965308535" lon="8.308231479029205"><ele>760.0</ele><time>2026-04-17T09:13:20Z</time></trkpt><trkpt lat="44.262031622175655" lon="8.308310583706508"><ele>764.0</ele><time>2026-04-17T09:13:21Z</time></trkpt><trkpt lat="44.26193106517037" lon="8.308419114224145"><ele>768.0</ele><time>2026-04-17T09:13:22Z</time></trkpt><trkpt lat="44.26182428122378" lon="8.308528151548954"><ele>772.0</ele><time>2026-04-17T09:13:23Z</time></trkpt><trkpt lat="44.26173838800437" lon="8.308619061477154"><ele>776.0</ele><time>2026-04-17T09:13:24Z</time></trkpt><trkpt lat="44.261651571475895" lon="8.308711191997048"><ele>776.0000000000001</ele><time>2026-04-17T09:13:25Z</time></trkpt><trkpt lat="44.261580436721665" lon="8.308788854721355"><ele>776.0</ele><time>2026-04-17T09:13:26Z</time></trkpt><trkpt lat="44.26149685114514" lon="8.308842985499592"><ele>776.0</ele><time>2026-04-17T09:13:27Z</time></trkpt><trkpt lat="44.26142659008098" lon="8.308897945697785"><ele>776.0</ele><time>2026-04-17T09:13:28Z</time></trkpt><trkpt lat="44.261377770413816" lon="8.30895716099543"><ele>776.0000000000001</ele><time>2026-04-17T09:13:29Z</time></trkpt><trkpt lat="44.26135076535192" lon="8.309094025809237"><ele>776.0</ele><time>2026-04-17T09:13:31Z</time></trkpt><trkpt lat="44.26133569246281" lon="8.309202920046376"><ele>777.8</ele><time>2026-04-17T09:13:32Z</time></trkpt><trkpt lat="44.26130669970541" lon="8.309324055197091"><ele>779.5999999999999</ele><time>2026-04-17T09:13:33Z</time></trkpt><trkpt lat="44.261249167894015" lon="8.30943489084793"><ele>781.4</ele><time>2026-04-17T09:13:34Z</time></trkpt><trkpt lat="44.26116712615642" lon="8.30954223155063"><ele>783.2</ele><time>2026-04-17T09:13:35Z</time></trkpt><trkpt lat="44.261074751877" lon="8.309639398757744"><ele>785.0</ele><time>2026-04-17T09:13:36Z</time></trkpt><trkpt lat="44.261004410741414" lon="8.309710198500253"><ele>787.6</ele><time>2026-04-17T09:13:37Z</time></trkpt><trkpt lat="44.26094004511335" lon="8.309750253727778"><ele>790.2</ele><time>2026-04-17T09:13:38Z</time></trkpt><trkpt lat="44.2608495248342" lon="8.30977132781489"><ele>792.8</ele><time>2026-04-17T09:13:39Z</time></trkpt><trkpt lat="44.260749287807" lon="8.30976574801005"><ele>795.4</ele><time>2026-04-17T09:13:40Z</time></trkpt><trkpt lat="44.26066661648793" lon="8.309748266733637"><ele>798.0</ele><time>2026-04-17T09:13:41Z</time></trkpt><trkpt lat="44.26054944181827" lon="8.309726202486758"><ele>798.0</ele><time>2026-04-17T09:13:43Z</time></trkpt><trkpt lat="44.26047443895812" lon="8.309713181546076"><ele>798.0</ele><time>2026-04-17T09:13:44Z</time></trkpt><trkpt lat="44.26040362777381" lon="8.309706681442783"><ele>798.0</ele><time>2026-04-17T09:13:45Z</time></trkpt><trkpt lat="44.260328485711305" lon="8.309706048339192"><ele>798.0</ele><time>2026-04-17T09:13:46Z</time></trkpt><trkpt lat="44.26024787014665" lon="8.309753181557637"><ele>798.0</ele><time>2026-04-17T09:13:47Z</time></trkpt><trkpt lat="44.26016087450309" lon="8.30981505924582"><ele>798.0</ele><time>2026-04-17T09:13:48Z</time></trkpt><trkpt lat="44.26007639276498" lon="8.309880646835149"><ele>798.5</ele><time>2026-04-17T09:13:49Z</time></trkpt><trkpt lat="44.260005780382514" lon="8.309952908047693"><ele>799.0</ele><time>2026-04-17T09:13:50Z</time></trkpt><trkpt lat="44.25993532472533" lon="8.310031741640655"><ele>799.5</ele><time>2026-04-17T09:13:51Z</time></trkpt><trkpt lat="44.259878783812724" lon="8.310111168562386"><ele>800.0</ele><time>2026-04-17T09:13:52Z</time></trkpt><trkpt lat="44.25983338071075" lon="8.310188962027462"><ele>800.5</ele><time>2026-04-17T09:13:53Z</time></trkpt><trkpt lat="44.259785312367775" lon="8.310245885897638"><ele>801.0</ele><time>2026-04-17T09:13:54Z</time></trkpt><trkpt lat="44.25971068360022" lon="8.310294837991135"><ele>800.8333333333334</ele><time>2026-04-17T09:13:56Z</time></trkpt><trkpt lat="44.25962915779044" lon="8.310305445640063"><ele>800.6666666666667</ele><time>2026-04-17T09:14:01Z</time></trkpt><trkpt lat="44.25955797647242" lon="8.310275926099036"><ele>800.5</ele><time>2026-04-17T09:14:04Z</time></trkpt><trkpt lat="44.2595104723997" lon="8.310335522935556"><ele>800.3333333333334</ele><time>2026-04-17T09:14:08Z</time></trkpt><trkpt lat="44.259519018875174" lon="8.310493610533154"><ele>800.1666666666667</ele><time>2026-04-17T09:14:11Z</time></trkpt><trkpt lat="44.25954596177557" lon="8.31058761990635"><ele>800.0</ele><time>2026-04-17T09:14:13Z</time></trkpt><trkpt lat="44.25953835131288" lon="8.310710975578678"><ele>800.0000000000001</ele><time>2026-04-17T09:14:15Z</time></trkpt><trkpt lat="44.25953975828177" lon="8.310814842915397"><ele>800.0</ele><time>2026-04-17T09:14:16Z</time></trkpt><trkpt lat="44.259561171610244" lon="8.31098998102677"><ele>800.0</ele><time>2026-04-17T09:14:18Z</time></trkpt><trkpt lat="44.25956687607785" lon="8.311084972938461"><ele>800.0</ele><time>2026-04-17T09:14:19Z</time></trkpt><trkpt lat="44.259556140653686" lon="8.311179305393651"><ele>800.0000000000001</ele><time>2026-04-17T09:14:20Z</time></trkpt><trkpt lat="44.25953725000609" lon="8.311265129171364"><ele>800.0</ele><time>2026-04-17T09:14:21Z</time></trkpt><trkpt lat="44.25949098174022" lon="8.311386151260033"><ele>799.5000000000001</ele><time>2026-04-17T09:14:22Z</time></trkpt><trkpt lat="44.2594433184733" lon="8.311506779441041"><ele>799.0</ele><time>2026-04-17T09:14:23Z</time></trkpt><trkpt lat="44.25941596803006" lon="8.311634705627897"><ele>798.5</ele><time>2026-04-17T09:14:24Z</time></trkpt><trkpt lat="44.25939112176995" lon="8.311746456994815"><ele>798.0</ele><time>2026-04-17T09:14:25Z</time></trkpt><trkpt lat="44.25936781901975" lon="8.311856444176323"><ele>797.5000000000001</ele><time>2026-04-17T09:14:26Z</time></trkpt><trkpt lat="44.25934165867033" lon="8.311959139141422"><ele>797.0</ele><time>2026-04-17T09:14:27Z</time></trkpt><trkpt lat="44.25932255740478" lon="8.31206393617143"><ele>797.0</ele><time>2026-04-17T09:14:28Z</time></trkpt><trkpt lat="44.25932225150359" lon="8.312163760507978"><ele>797.0</ele><time>2026-04-17T09:14:29Z</time></trkpt><trkpt lat="44.25934518278002" lon="8.312307226691711"><ele>797.0</ele><time>2026-04-17T09:14:31Z</time></trkpt><trkpt lat="44.259367411063536" lon="8.312401508759304"><ele>797.0</ele><time>2026-04-17T09:14:34Z</time></trkpt><trkpt lat="44.25933699112549" lon="8.312319135160879"><ele>797.0</ele><time>2026-04-17T09:15:28Z</time></trkpt><trkpt lat="44.25928592068222" lon="8.312258243744196"><ele>797.0</ele><time>2026-04-17T09:18:36Z</time></trkpt><trkpt lat="44.259298414434305" lon="8.312345090749167"><ele>797.0</ele><time>2026-04-17T09:18:47Z</time></trkpt><trkpt lat="44.25936978317477" lon="8.312408856780653"><ele>797.0</ele><time>2026-04-17T09:19:20Z</time></trkpt><trkpt lat="44.25932632817652" lon="8.312244939044023"><ele>797.0</ele><time>2026-04-17T09:26:48Z</time></trkpt><trkpt lat="44.25930512154037" lon="8.312106377915075"><ele>797.0</ele><time>2026-04-17T09:26:50Z</time></trkpt><trkpt lat="44.259334849913266" lon="8.311939171344427"><ele>797.0</ele><time>2026-04-17T09:26:52Z</time></trkpt><trkpt lat="44.259360773329654" lon="8.311835389107614"><ele>797.0</ele><time>2026-04-17T09:26:53Z</time></trkpt><trkpt lat="44.25938495985207" lon="8.311740661544714"><ele>797.0</ele><time>2026-04-17T09:26:54Z</time></trkpt><trkpt lat="44.259413623317556" lon="8.311643208848707"><ele>797.0</ele><time>2026-04-17T09:26:55Z</time></trkpt><trkpt lat="44.25942643473312" lon="8.311543112819635"><ele>797.0</ele><time>2026-04-17T09:26:56Z</time></trkpt><trkpt lat="44.25945267335631" lon="8.311445840407105"><ele>797.0</ele><time>2026-04-17T09:26:57Z</time></trkpt><trkpt lat="44.259473272172805" lon="8.311356351350383"><ele>797.0</ele><time>2026-04-17T09:26:58Z</time></trkpt><trkpt lat="44.25949085656287" lon="8.311260479806284"><ele>797.0</ele><time>2026-04-17T09:26:59Z</time></trkpt><trkpt lat="44.2595249394266" lon="8.311171651865328"><ele>797.0</ele><time>2026-04-17T09:27:00Z</time></trkpt><trkpt lat="44.25953298866658" lon="8.311067044164346"><ele>797.75</ele><time>2026-04-17T09:27:01Z</time></trkpt><trkpt lat="44.25958261756698" lon="8.31093623018595"><ele>798.5</ele><time>2026-04-17T09:27:03Z</time></trkpt><trkpt lat="44.25952622498842" lon="8.310828590663688"><ele>799.25</ele><time>2026-04-17T09:27:04Z</time></trkpt><trkpt lat="44.25948920972784" lon="8.310689547127"><ele>800.0</ele><time>2026-04-17T09:27:06Z</time></trkpt><trkpt lat="44.25969746292886" lon="8.310411501628417"><ele>801.4</ele><time>2026-04-17T09:27:08Z</time></trkpt><trkpt lat="44.25963708040583" lon="8.310295592031347"><ele>802.8</ele><time>2026-04-17T09:27:10Z</time></trkpt><trkpt lat="44.25955575427403" lon="8.310227219530471"><ele>804.2</ele><time>2026-04-17T09:27:12Z</time></trkpt><trkpt lat="44.25947468734869" lon="8.310201259412922"><ele>805.6</ele><time>2026-04-17T09:27:28.999Z</time></trkpt><trkpt lat="44.25938339996942" lon="8.310169251133589"><ele>807.0</ele><time>2026-04-17T09:27:30.999Z</time></trkpt><trkpt lat="44.25928636768193" lon="8.310163636213465"><ele>807.0</ele><time>2026-04-17T09:27:32.999Z</time></trkpt><trkpt lat="44.25918994014205" lon="8.310183472535622"><ele>807.0</ele><time>2026-04-17T09:27:34.999Z</time></trkpt><trkpt lat="44.25911613068043" lon="8.310201669659415"><ele>807.0</ele><time>2026-04-17T09:27:36.999Z</time></trkpt><trkpt lat="44.25902546173277" lon="8.310223478709212"><ele>807.0</ele><time>2026-04-17T09:27:38.999Z</time></trkpt><trkpt lat="44.258960939167736" lon="8.310233503700124"><ele>807.0</ele><time>2026-04-17T09:27:42.999Z</time></trkpt><trkpt lat="44.25903757952556" lon="8.310220646803263"><ele>807.0</ele><time>2026-04-17T09:28:01.999Z</time></trkpt><trkpt lat="44.25920582035838" lon="8.310194657247854"><ele>807.0</ele><time>2026-04-17T09:28:03.999Z</time></trkpt><trkpt lat="44.25927250722206" lon="8.310164730028264"><ele>807.0</ele><time>2026-04-17T09:28:04.999Z</time></trkpt><trkpt lat="44.259336384391325" lon="8.310150756856538"><ele>807.0</ele><time>2026-04-17T09:28:05.999Z</time></trkpt><trkpt lat="44.25940424159793" lon="8.310163636231993"><ele>807.0</ele><time>2026-04-17T09:28:06.999Z</time></trkpt><trkpt lat="44.25952129816198" lon="8.310200890059027"><ele>807.0</ele><time>2026-04-17T09:28:08.999Z</time></trkpt><trkpt lat="44.259588530721736" lon="8.310264999702776"><ele>807.0</ele><time>2026-04-17T09:28:09.999Z</time></trkpt><trkpt lat="44.259643391504525" lon="8.310324455949882"><ele>807.0</ele><time>2026-04-17T09:28:10.999Z</time></trkpt><trkpt lat="44.2597028908225" lon="8.31037309006894"><ele>807.0</ele><time>2026-04-17T09:28:11.999Z</time></trkpt><trkpt lat="44.259703787527094" lon="8.310550640865802"><ele>807.0</ele><time>2026-04-17T09:28:12.999Z</time></trkpt><trkpt lat="44.25973397073142" lon="8.310640266765436"><ele>807.0</ele><time>2026-04-17T09:28:13.999Z</time></trkpt><trkpt lat="44.25975219201154" lon="8.310729627750913"><ele>807.0</ele><time>2026-04-17T09:28:14.999Z</time></trkpt><trkpt lat="44.25976424839846" lon="8.310907572663954"><ele>805.8333333333334</ele><time>2026-04-17T09:28:17Z</time></trkpt><trkpt lat="44.25974575350206" lon="8.311013460087183"><ele>804.6666666666667</ele><time>2026-04-17T09:28:18Z</time></trkpt><trkpt lat="44.25973995930417" lon="8.311128103343675"><ele>803.5</ele><time>2026-04-17T09:28:19Z</time></trkpt><trkpt lat="44.259729492712275" lon="8.311244419399749"><ele>802.3333333333334</ele><time>2026-04-17T09:28:20Z</time></trkpt><trkpt lat="44.25971242866741" lon="8.31134356085309"><ele>801.1666666666667</ele><time>2026-04-17T09:28:21Z</time></trkpt><trkpt lat="44.25969300761248" lon="8.311448554685244"><ele>800.0</ele><time>2026-04-17T09:28:22Z</time></trkpt><trkpt lat="44.25967224465054" lon="8.311560803115368"><ele>799.4</ele><time>2026-04-17T09:28:23Z</time></trkpt><trkpt lat="44.25964758520833" lon="8.31169411664502"><ele>798.8</ele><time>2026-04-17T09:28:24Z</time></trkpt><trkpt lat="44.25961953379464" lon="8.311845771271999"><ele>798.2</ele><time>2026-04-17T09:28:25Z</time></trkpt><trkpt lat="44.25959051123703" lon="8.312005476855244"><ele>797.6</ele><time>2026-04-17T09:28:26Z</time></trkpt><trkpt lat="44.25958191468074" lon="8.312136568507459"><ele>797.0</ele><time>2026-04-17T09:28:27Z</time></trkpt><trkpt lat="44.25956183852692" lon="8.312240219064988"><ele>796.6</ele><time>2026-04-17T09:28:28Z</time></trkpt><trkpt lat="44.2595457179" lon="8.312372889274073"><ele>796.2</ele><time>2026-04-17T09:28:29Z</time></trkpt><trkpt lat="44.25952629660546" lon="8.312523987767165"><ele>795.8</ele><time>2026-04-17T09:28:30Z</time></trkpt><trkpt lat="44.25951139005722" lon="8.312659364490452"><ele>795.4</ele><time>2026-04-17T09:28:31Z</time></trkpt><trkpt lat="44.25951312773355" lon="8.312800875603548"><ele>795.0</ele><time>2026-04-17T09:28:32Z</time></trkpt><trkpt lat="44.25949158048086" lon="8.31293699913543"><ele>795.0</ele><time>2026-04-17T09:28:33Z</time></trkpt><trkpt lat="44.25949801588739" lon="8.313041334136974"><ele>795.0</ele><time>2026-04-17T09:28:34Z</time></trkpt><trkpt lat="44.2594830168608" lon="8.313169252026094"><ele>795.0</ele><time>2026-04-17T09:28:35Z</time></trkpt><trkpt lat="44.25945810272734" lon="8.313322606262709"><ele>795.0</ele><time>2026-04-17T09:28:36Z</time></trkpt><trkpt lat="44.25945611213598" lon="8.313450140724639"><ele>795.0</ele><time>2026-04-17T09:28:37Z</time></trkpt><trkpt lat="44.25944228543673" lon="8.313583875781188"><ele>795.0</ele><time>2026-04-17T09:28:38Z</time></trkpt><trkpt lat="44.25942855521345" lon="8.313752506728681"><ele>795.0</ele><time>2026-04-17T09:28:39Z</time></trkpt><trkpt lat="44.259417314966335" lon="8.31391172615052"><ele>795.0</ele><time>2026-04-17T09:28:40Z</time></trkpt><trkpt lat="44.25940509771269" lon="8.314046028040007"><ele>795.0</ele><time>2026-04-17T09:28:41Z</time></trkpt><trkpt lat="44.25938164523504" lon="8.314166112302274"><ele>795.0</ele><time>2026-04-17T09:28:42Z</time></trkpt><trkpt lat="44.25937031791937" lon="8.314277821955347"><ele>795.0</ele><time>2026-04-17T09:28:43Z</time></trkpt><trkpt lat="44.259360960006575" lon="8.31437010941926"><ele>795.0</ele><time>2026-04-17T09:28:44Z</time></trkpt><trkpt lat="44.259352291893336" lon="8.314458201798624"><ele>795.0</ele><time>2026-04-17T09:28:45Z</time></trkpt><trkpt lat="44.25934596838604" lon="8.314562824410846"><ele>795.0</ele><time>2026-04-17T09:28:46Z</time></trkpt><trkpt lat="44.25934425303274" lon="8.314662836766098"><ele>795.0</ele><time>2026-04-17T09:28:47Z</time></trkpt><trkpt lat="44.25934425303476" lon="8.314753803454611"><ele>795.0</ele><time>2026-04-17T09:28:48Z</time></trkpt><trkpt lat="44.25941480393629" lon="8.314851476617964"><ele>795.0</ele><time>2026-04-17T09:28:49Z</time></trkpt><trkpt lat="44.2594822596926" lon="8.314973846201868"><ele>793.8</ele><time>2026-04-17T09:28:50Z</time></trkpt><trkpt lat="44.25955913558221" lon="8.315078582786741"><ele>792.6</ele><time>2026-04-17T09:28:51Z</time></trkpt><trkpt lat="44.259620682628906" lon="8.315150760648995"><ele>791.4000000000001</ele><time>2026-04-17T09:28:52Z</time></trkpt><trkpt lat="44.25966400729649" lon="8.315249848737489"><ele>790.2</ele><time>2026-04-17T09:28:53Z</time></trkpt><trkpt lat="44.259687035456004" lon="8.31536261560751"><ele>789.0</ele><time>2026-04-17T09:28:54Z</time></trkpt><trkpt lat="44.25969963724653" lon="8.315540750654968"><ele>787.1666666666666</ele><time>2026-04-17T09:28:56Z</time></trkpt><trkpt lat="44.259693935270185" lon="8.315634543611498"><ele>785.3333333333333</ele><time>2026-04-17T09:28:57Z</time></trkpt><trkpt lat="44.25966492069922" lon="8.31583967476638"><ele>783.5</ele><time>2026-04-17T09:28:59Z</time></trkpt><trkpt lat="44.25967321502712" lon="8.315929555327978"><ele>781.6666666666666</ele><time>2026-04-17T09:29:00Z</time></trkpt><trkpt lat="44.259655406431456" lon="8.316040553346822"><ele>779.8333333333333</ele><time>2026-04-17T09:29:01Z</time></trkpt><trkpt lat="44.25966673891431" lon="8.316150762481442"><ele>778.0</ele><time>2026-04-17T09:29:02Z</time></trkpt><trkpt lat="44.25965310362967" lon="8.316243144449505"><ele>777.9999999999999</ele><time>2026-04-17T09:29:03Z</time></trkpt><trkpt lat="44.259652641351614" lon="8.316340273213381"><ele>778.0</ele><time>2026-04-17T09:29:04Z</time></trkpt><trkpt lat="44.25965470391425" lon="8.316531482285503"><ele>778.0</ele><time>2026-04-17T09:29:06Z</time></trkpt><trkpt lat="44.25963297857653" lon="8.316615246229912"><ele>778.0</ele><time>2026-04-17T09:29:07Z</time></trkpt><trkpt lat="44.25960559969537" lon="8.316724271709909"><ele>777.9999999999999</ele><time>2026-04-17T09:29:08Z</time></trkpt><trkpt lat="44.259570033548876" lon="8.316818141807536"><ele>778.0</ele><time>2026-04-17T09:29:09Z</time></trkpt><trkpt lat="44.25952753889519" lon="8.316908944409624"><ele>777.8</ele><time>2026-04-17T09:29:10Z</time></trkpt><trkpt lat="44.2594844173987" lon="8.317007188029288"><ele>777.5999999999999</ele><time>2026-04-17T09:29:11Z</time></trkpt><trkpt lat="44.2594646504882" lon="8.317096768886463"><ele>777.4000000000001</ele><time>2026-04-17T09:29:12Z</time></trkpt><trkpt lat="44.25947005398053" lon="8.317281794044996"><ele>777.2</ele><time>2026-04-17T09:29:14Z</time></trkpt><trkpt lat="44.2594602214274" lon="8.317373947332921"><ele>777.0</ele><time>2026-04-17T09:29:15Z</time></trkpt><trkpt lat="44.2594516532949" lon="8.317516167051137"><ele>777.6</ele><time>2026-04-17T09:29:17Z</time></trkpt><trkpt lat="44.259378357444966" lon="8.317693077084813"><ele>778.2</ele><time>2026-04-17T09:29:19Z</time></trkpt><trkpt lat="44.2593231927928" lon="8.31776479384631"><ele>778.8</ele><time>2026-04-17T09:29:20Z</time></trkpt><trkpt lat="44.25926664813028" lon="8.317832934250312"><ele>779.4</ele><time>2026-04-17T09:29:21Z</time></trkpt><trkpt lat="44.25921888385782" lon="8.317901991168833"><ele>780.0</ele><time>2026-04-17T09:29:22Z</time></trkpt><trkpt lat="44.259141736852456" lon="8.318007575078468"><ele>780.0</ele><time>2026-04-17T09:29:23.999Z</time></trkpt><trkpt lat="44.25913195401006" lon="8.31809752599653"><ele>780.0</ele><time>2026-04-17T09:35:43.999Z</time></trkpt><trkpt lat="44.259082342437445" lon="8.318186864039804"><ele>780.0</ele><time>2026-04-17T09:35:47.999Z</time></trkpt><trkpt lat="44.259106728991874" lon="8.318101195320384"><ele>780.0</ele><time>2026-04-17T09:36:09.999Z</time></trkpt><trkpt lat="44.25913525193808" lon="8.318018423758812"><ele>780.0</ele><time>2026-04-17T09:36:11.999Z</time></trkpt><trkpt lat="44.25919128482723" lon="8.317963848167873"><ele>780.0</ele><time>2026-04-17T09:36:12.999Z</time></trkpt><trkpt lat="44.25923791199762" lon="8.317861065133771"><ele>780.0</ele><time>2026-04-17T09:36:13.999Z</time></trkpt><trkpt lat="44.25929237668499" lon="8.317798419741322"><ele>780.0</ele><time>2026-04-17T09:36:14.999Z</time></trkpt><trkpt lat="44.25936234525607" lon="8.317698506376002"><ele>780.0</ele><time>2026-04-17T09:36:16.999Z</time></trkpt><trkpt lat="44.259406738578654" lon="8.31762688826224"><ele>780.0</ele><time>2026-04-17T09:36:17.999Z</time></trkpt><trkpt lat="44.25943839270794" lon="8.317546765781925"><ele>780.0</ele><time>2026-04-17T09:36:18.999Z</time></trkpt><trkpt lat="44.25946791999787" lon="8.317368653042376"><ele>780.0</ele><time>2026-04-17T09:36:20.999Z</time></trkpt><trkpt lat="44.25946314245215" lon="8.317266702365178"><ele>780.0</ele><time>2026-04-17T09:36:21.999Z</time></trkpt><trkpt lat="44.25945315945362" lon="8.317170716629743"><ele>779.4</ele><time>2026-04-17T09:36:22.999Z</time></trkpt><trkpt lat="44.25944221822286" lon="8.31706498095092"><ele>778.8</ele><time>2026-04-17T09:36:24.999Z</time></trkpt><trkpt lat="44.25957807742793" lon="8.3168971968914"><ele>778.2</ele><time>2026-04-17T09:36:26.999Z</time></trkpt><trkpt lat="44.2596148567629" lon="8.316752406247055"><ele>777.6</ele><time>2026-04-17T09:36:28.999Z</time></trkpt><trkpt lat="44.2596327330307" lon="8.316660467207345"><ele>777.0</ele><time>2026-04-17T09:36:29.999Z</time></trkpt><trkpt lat="44.259642714436765" lon="8.316556414550384"><ele>777.2</ele><time>2026-04-17T09:36:30.999Z</time></trkpt><trkpt lat="44.259683890895566" lon="8.316385130605354"><ele>777.4000000000001</ele><time>2026-04-17T09:36:32.999Z</time></trkpt><trkpt lat="44.25967338588288" lon="8.316278431869863"><ele>777.5999999999999</ele><time>2026-04-17T09:36:33.999Z</time></trkpt><trkpt lat="44.259677459299155" lon="8.316117798764493"><ele>777.8</ele><time>2026-04-17T09:36:35.999Z</time></trkpt><trkpt lat="44.25968861788703" lon="8.316018325185048"><ele>778.0</ele><time>2026-04-17T09:36:36.999Z</time></trkpt><trkpt lat="44.25970163067526" lon="8.31586501712914"><ele>778.0</ele><time>2026-04-17T09:36:38.999Z</time></trkpt><trkpt lat="44.259714017819526" lon="8.315759418405788"><ele>778.0</ele><time>2026-04-17T09:36:40Z</time></trkpt><trkpt lat="44.25971767109502" lon="8.315662283681743"><ele>778.0</ele><time>2026-04-17T09:36:41Z</time></trkpt><trkpt lat="44.25971454655013" lon="8.315573840447367"><ele>778.0</ele><time>2026-04-17T09:36:42Z</time></trkpt><trkpt lat="44.259729165735514" lon="8.315488303210948"><ele>778.0</ele><time>2026-04-17T09:36:43Z</time></trkpt><trkpt lat="44.25972149560209" lon="8.315399513018507"><ele>778.0</ele><time>2026-04-17T09:36:44Z</time></trkpt><trkpt lat="44.25969953663418" lon="8.31528176111149"><ele>778.0</ele><time>2026-04-17T09:36:45Z</time></trkpt><trkpt lat="44.2596618114417" lon="8.31516536306336"><ele>780.2</ele><time>2026-04-17T09:36:46Z</time></trkpt><trkpt lat="44.25960552193241" lon="8.315047721513414"><ele>782.4</ele><time>2026-04-17T09:36:47Z</time></trkpt><trkpt lat="44.25954690753032" lon="8.31494273137506"><ele>784.6</ele><time>2026-04-17T09:36:48Z</time></trkpt><trkpt lat="44.25948841851755" lon="8.314863009363805"><ele>786.8000000000001</ele><time>2026-04-17T09:36:49Z</time></trkpt><trkpt lat="44.25940038818316" lon="8.314735084826387"><ele>789.0</ele><time>2026-04-17T09:36:51Z</time></trkpt><trkpt lat="44.25936720610599" lon="8.31463868968317"><ele>790.2</ele><time>2026-04-17T09:36:52Z</time></trkpt><trkpt lat="44.25938036406034" lon="8.314530257805396"><ele>791.4000000000001</ele><time>2026-04-17T09:36:53Z</time></trkpt><trkpt lat="44.2593816434137" lon="8.314413411187026"><ele>792.6</ele><time>2026-04-17T09:36:54Z</time></trkpt><trkpt lat="44.25939091056506" lon="8.314288541491774"><ele>793.8</ele><time>2026-04-17T09:36:55Z</time></trkpt><trkpt lat="44.259415753944985" lon="8.314161329067542"><ele>795.0</ele><time>2026-04-17T09:36:56Z</time></trkpt><trkpt lat="44.2594175927217" lon="8.314015467328884"><ele>795.2</ele><time>2026-04-17T09:36:57Z</time></trkpt><trkpt lat="44.25944397032275" lon="8.31385433643678"><ele>795.4</ele><time>2026-04-17T09:36:58Z</time></trkpt><trkpt lat="44.25944565383983" lon="8.313711962825359"><ele>795.5999999999999</ele><time>2026-04-17T09:36:59Z</time></trkpt><trkpt lat="44.2594655291629" lon="8.313584489224564"><ele>795.8</ele><time>2026-04-17T09:37:00Z</time></trkpt><trkpt lat="44.25946675544664" lon="8.313449413444763"><ele>796.0</ele><time>2026-04-17T09:37:01Z</time></trkpt><trkpt lat="44.259490566576815" lon="8.31332815916728"><ele>795.9999999999999</ele><time>2026-04-17T09:37:02Z</time></trkpt><trkpt lat="44.259498465788724" lon="8.313201514551912"><ele>796.0</ele><time>2026-04-17T09:37:03Z</time></trkpt><trkpt lat="44.25951370509089" lon="8.313094817828272"><ele>796.0</ele><time>2026-04-17T09:37:04Z</time></trkpt><trkpt lat="44.259530515545265" lon="8.313008604859048"><ele>796.0</ele><time>2026-04-17T09:37:05Z</time></trkpt><trkpt lat="44.259532426942435" lon="8.312913013568114"><ele>795.9999999999999</ele><time>2026-04-17T09:37:06Z</time></trkpt><trkpt lat="44.259527484586336" lon="8.312812446232638"><ele>796.0</ele><time>2026-04-17T09:37:07Z</time></trkpt><trkpt lat="44.25954412312929" lon="8.312631471181309"><ele>795.8333333333333</ele><time>2026-04-17T09:37:09Z</time></trkpt><trkpt lat="44.25954922006056" lon="8.31252082103508"><ele>795.6666666666666</ele><time>2026-04-17T09:37:10Z</time></trkpt><trkpt lat="44.25956019532856" lon="8.312400241472432"><ele>795.5</ele><time>2026-04-17T09:37:11Z</time></trkpt><trkpt lat="44.25957708243746" lon="8.312280333857819"><ele>795.3333333333333</ele><time>2026-04-17T09:37:12Z</time></trkpt><trkpt lat="44.25959601224586" lon="8.31215091469556"><ele>795.1666666666666</ele><time>2026-04-17T09:37:13Z</time></trkpt><trkpt lat="44.25962238616561" lon="8.312024343711883"><ele>795.0</ele><time>2026-04-17T09:37:14Z</time></trkpt><trkpt lat="44.25965434153009" lon="8.311898183989884"><ele>795.4</ele><time>2026-04-17T09:37:15Z</time></trkpt><trkpt lat="44.259675241242014" lon="8.31175075681436"><ele>795.8</ele><time>2026-04-17T09:37:16Z</time></trkpt><trkpt lat="44.25969653638278" lon="8.311605269369139"><ele>796.2</ele><time>2026-04-17T09:37:17Z</time></trkpt><trkpt lat="44.25971484556073" lon="8.311474850977858"><ele>796.6</ele><time>2026-04-17T09:37:18Z</time></trkpt><trkpt lat="44.259731904046546" lon="8.311362888894399"><ele>797.0</ele><time>2026-04-17T09:37:19Z</time></trkpt><trkpt lat="44.25975882481613" lon="8.311249576341533"><ele>797.5000000000001</ele><time>2026-04-17T09:37:20Z</time></trkpt><trkpt lat="44.25977956150258" lon="8.311154981218973"><ele>798.0</ele><time>2026-04-17T09:37:21Z</time></trkpt><trkpt lat="44.25978155184612" lon="8.311048238310153"><ele>798.5</ele><time>2026-04-17T09:37:22Z</time></trkpt><trkpt lat="44.25978309232005" lon="8.31090933497103"><ele>799.0</ele><time>2026-04-17T09:37:23Z</time></trkpt><trkpt lat="44.25979408019853" lon="8.310781505450544"><ele>799.5000000000001</ele><time>2026-04-17T09:37:24Z</time></trkpt><trkpt lat="44.25978046164957" lon="8.310679511736321"><ele>800.0</ele><time>2026-04-17T09:37:25Z</time></trkpt><trkpt lat="44.259749586004304" lon="8.310550611340206"><ele>801.0000000000001</ele><time>2026-04-17T09:37:27Z</time></trkpt><trkpt lat="44.25973091637066" lon="8.310464915281894"><ele>802.0</ele><time>2026-04-17T09:37:37Z</time></trkpt><trkpt lat="44.25963875661766" lon="8.310370976215626"><ele>803.0</ele><time>2026-04-17T09:37:39Z</time></trkpt><trkpt lat="44.25960410556944" lon="8.31029234409356"><ele>804.0</ele><time>2026-04-17T09:37:40Z</time></trkpt><trkpt lat="44.25954802387216" lon="8.310246566020561"><ele>805.0</ele><time>2026-04-17T09:37:41Z</time></trkpt><trkpt lat="44.25948820830941" lon="8.310208829734549"><ele>806.0000000000001</ele><time>2026-04-17T09:37:42Z</time></trkpt><trkpt lat="44.259421198767136" lon="8.310176147936872"><ele>807.0</ele><time>2026-04-17T09:37:43Z</time></trkpt><trkpt lat="44.25929350753625" lon="8.310159310652903"><ele>807.0</ele><time>2026-04-17T09:37:45Z</time></trkpt><trkpt lat="44.25922702670137" lon="8.310172648489155"><ele>807.0</ele><time>2026-04-17T09:37:46Z</time></trkpt><trkpt lat="44.25912935575971" lon="8.310198386330699"><ele>807.0</ele><time>2026-04-17T09:37:47Z</time></trkpt><trkpt lat="44.25903423711019" lon="8.310221353214862"><ele>807.0</ele><time>2026-04-17T09:37:48Z</time></trkpt><trkpt lat="44.25894345603534" lon="8.310236220076705"><ele>807.0</ele><time>2026-04-17T09:37:49Z</time></trkpt><trkpt lat="44.25885371944012" lon="8.310239642812181"><ele>807.0</ele><time>2026-04-17T09:37:50Z</time></trkpt><trkpt lat="44.25875869047258" lon="8.310243857892452"><ele>808.6</ele><time>2026-04-17T09:37:51Z</time></trkpt><trkpt lat="44.25865907438957" lon="8.310252154711307"><ele>810.2</ele><time>2026-04-17T09:37:52Z</time></trkpt><trkpt lat="44.25854926552881" lon="8.310266380546997"><ele>811.8</ele><time>2026-04-17T09:37:53Z</time></trkpt><trkpt lat="44.25845323801559" lon="8.310280339922036"><ele>813.4</ele><time>2026-04-17T09:37:54Z</time></trkpt><trkpt lat="44.2583611930933" lon="8.3102962694097"><ele>815.0</ele><time>2026-04-17T09:37:55Z</time></trkpt><trkpt lat="44.258264008847796" lon="8.310315133787634"><ele>815.0</ele><time>2026-04-17T09:37:56Z</time></trkpt><trkpt lat="44.25817375850242" lon="8.310346533989703"><ele>815.0</ele><time>2026-04-17T09:37:56.999Z</time></trkpt><trkpt lat="44.25811127574736" lon="8.310371988378643"><ele>815.0</ele><time>2026-04-17T09:37:57.999Z</time></trkpt><trkpt lat="44.25797357199302" lon="8.310354811164341"><ele>815.0</ele><time>2026-04-17T09:37:59.999Z</time></trkpt><trkpt lat="44.25790032445946" lon="8.310290168069846"><ele>815.0</ele><time>2026-04-17T09:38:00.999Z</time></trkpt><trkpt lat="44.25782908160832" lon="8.310186487216258"><ele>813.4</ele><time>2026-04-17T09:38:01.999Z</time></trkpt><trkpt lat="44.257755831951066" lon="8.310082350847637"><ele>811.8</ele><time>2026-04-17T09:38:02.999Z</time></trkpt><trkpt lat="44.257699667146646" lon="8.309982477601684"><ele>810.2</ele><time>2026-04-17T09:38:03.999Z</time></trkpt><trkpt lat="44.25763008986027" lon="8.309897225322128"><ele>808.6</ele><time>2026-04-17T09:38:04.999Z</time></trkpt><trkpt lat="44.25755097423283" lon="8.309833122630415"><ele>807.0</ele><time>2026-04-17T09:38:05.999Z</time></trkpt><trkpt lat="44.257453426154925" lon="8.309792427380877"><ele>807.8</ele><time>2026-04-17T09:38:06.999Z</time></trkpt><trkpt lat="44.257354692167" lon="8.309707448077924"><ele>808.6</ele><time>2026-04-17T09:38:07.999Z</time></trkpt><trkpt lat="44.257274496102184" lon="8.30962904624302"><ele>809.4</ele><time>2026-04-17T09:38:08.999Z</time></trkpt><trkpt lat="44.25719247004158" lon="8.30953722443823"><ele>810.1999999999999</ele><time>2026-04-17T09:38:09.999Z</time></trkpt><trkpt lat="44.257109591107834" lon="8.309444763801439"><ele>811.0</ele><time>2026-04-17T09:38:10.999Z</time></trkpt><trkpt lat="44.25702354327587" lon="8.309358356225472"><ele>811.0</ele><time>2026-04-17T09:38:11.999Z</time></trkpt><trkpt lat="44.25693382764617" lon="8.309282243723066"><ele>811.0</ele><time>2026-04-17T09:38:12.999Z</time></trkpt><trkpt lat="44.25684343240996" lon="8.309242433485355"><ele>811.0</ele><time>2026-04-17T09:38:13.999Z</time></trkpt><trkpt lat="44.256758611109554" lon="8.309177134766093"><ele>811.0</ele><time>2026-04-17T09:38:14.999Z</time></trkpt><trkpt lat="44.25667863146136" lon="8.309124403112824"><ele>811.0</ele><time>2026-04-17T09:38:15.999Z</time></trkpt><trkpt lat="44.25659888924295" lon="8.30907207816351"><ele>810.9999999999999</ele><time>2026-04-17T09:38:16.999Z</time></trkpt><trkpt lat="44.25652818859833" lon="8.309015510844363"><ele>811.0</ele><time>2026-04-17T09:38:17.999Z</time></trkpt><trkpt lat="44.256476617490236" lon="8.308958778956203"><ele>811.0</ele><time>2026-04-17T09:38:18.999Z</time></trkpt><trkpt lat="44.25642940763522" lon="8.308885162072198"><ele>811.0</ele><time>2026-04-17T09:38:19.999Z</time></trkpt><trkpt lat="44.25638841270368" lon="8.308801659749491"><ele>810.9999999999999</ele><time>2026-04-17T09:38:20.999Z</time></trkpt><trkpt lat="44.256331695951395" lon="8.308689922675063"><ele>811.0</ele><time>2026-04-17T09:38:21.999Z</time></trkpt><trkpt lat="44.256260133179715" lon="8.308587110446602"><ele>811.1999999999999</ele><time>2026-04-17T09:38:22.999Z</time></trkpt><trkpt lat="44.25618498719225" lon="8.308516150306772"><ele>811.4</ele><time>2026-04-17T09:38:23.999Z</time></trkpt><trkpt lat="44.256096765360226" lon="8.308435113804089"><ele>811.6</ele><time>2026-04-17T09:38:24.999Z</time></trkpt><trkpt lat="44.255989135015724" lon="8.308365440204083"><ele>811.8</ele><time>2026-04-17T09:38:25.999Z</time></trkpt><trkpt lat="44.25588764388617" lon="8.308288613866798"><ele>812.0</ele><time>2026-04-17T09:38:26.999Z</time></trkpt><trkpt lat="44.25577903996115" lon="8.308180750715087"><ele>812.0</ele><time>2026-04-17T09:38:27.999Z</time></trkpt><trkpt lat="44.25566321765823" lon="8.308104710719526"><ele>812.0</ele><time>2026-04-17T09:38:28.999Z</time></trkpt><trkpt lat="44.25555784754764" lon="8.308038216887878"><ele>812.0</ele><time>2026-04-17T09:38:29.999Z</time></trkpt><trkpt lat="44.25546516080588" lon="8.307978290531707"><ele>812.0</ele><time>2026-04-17T09:38:30.999Z</time></trkpt><trkpt lat="44.255370918448094" lon="8.307913465885772"><ele>811.6666666666667</ele><time>2026-04-17T09:38:31.999Z</time></trkpt><trkpt lat="44.25529759395873" lon="8.307854124002585"><ele>811.3333333333334</ele><time>2026-04-17T09:38:32.999Z</time></trkpt><trkpt lat="44.255233158625245" lon="8.307797282313352"><ele>811.0</ele><time>2026-04-17T09:38:33.999Z</time></trkpt><trkpt lat="44.25518458023326" lon="8.307689202132828"><ele>810.6666666666667</ele><time>2026-04-17T09:38:34.999Z</time></trkpt><trkpt lat="44.25513647289046" lon="8.307577396830844"><ele>810.3333333333334</ele><time>2026-04-17T09:38:35.999Z</time></trkpt><trkpt lat="44.25509606674036" lon="8.30748241854076"><ele>810.0</ele><time>2026-04-17T09:38:36.999Z</time></trkpt><trkpt lat="44.255057665957494" lon="8.307403776034283"><ele>810.0</ele><time>2026-04-17T09:38:37.999Z</time></trkpt><trkpt lat="44.254987225483724" lon="8.307342066754607"><ele>810.0</ele><time>2026-04-17T09:38:38.999Z</time></trkpt><trkpt lat="44.25488234699951" lon="8.3072747759032"><ele>810.0</ele><time>2026-04-17T09:38:39.999Z</time></trkpt><trkpt lat="44.2547866055577" lon="8.307209452795222"><ele>810.0</ele><time>2026-04-17T09:38:40.999Z</time></trkpt><trkpt lat="44.25473023571289" lon="8.307157878965054"><ele>810.0</ele><time>2026-04-17T09:38:41.999Z</time></trkpt><trkpt lat="44.25467939927666" lon="8.307097237150002"><ele>810.0</ele><time>2026-04-17T09:38:42.999Z</time></trkpt><trkpt lat="44.254630310780605" lon="8.307038926856155"><ele>809.5</ele><time>2026-04-17T09:38:43.999Z</time></trkpt><trkpt lat="44.254590566086996" lon="8.30696737478292"><ele>809.0</ele><time>2026-04-17T09:38:44.999Z</time></trkpt><trkpt lat="44.25457081699146" lon="8.306808619633768"><ele>808.5</ele><time>2026-04-17T09:38:47Z</time></trkpt><trkpt lat="44.254576331792215" lon="8.30670196453821"><ele>808.0</ele><time>2026-04-17T09:38:48Z</time></trkpt><trkpt lat="44.25460640529871" lon="8.306591634943349"><ele>807.5</ele><time>2026-04-17T09:38:49Z</time></trkpt><trkpt lat="44.25464370015912" lon="8.30645361058817"><ele>807.0</ele><time>2026-04-17T09:38:50Z</time></trkpt><trkpt lat="44.25465178420627" lon="8.306315658954588"><ele>807.0</ele><time>2026-04-17T09:38:51Z</time></trkpt><trkpt lat="44.254651845388075" lon="8.306186954052945"><ele>807.0</ele><time>2026-04-17T09:38:52Z</time></trkpt><trkpt lat="44.25460778044356" lon="8.306038099106665"><ele>807.0</ele><time>2026-04-17T09:38:53Z</time></trkpt><trkpt lat="44.2545605723199" lon="8.305906590570899"><ele>807.0</ele><time>2026-04-17T09:38:54Z</time></trkpt><trkpt lat="44.25452602031824" lon="8.305819540276183"><ele>807.0</ele><time>2026-04-17T09:38:55Z</time></trkpt><trkpt lat="44.254492107241965" lon="8.30573505198953"><ele>807.0</ele><time>2026-04-17T09:38:56Z</time></trkpt><trkpt lat="44.25445186069651" lon="8.305631483321482"><ele>807.0</ele><time>2026-04-17T09:38:57Z</time></trkpt><trkpt lat="44.254415149608576" lon="8.305527589587413"><ele>807.0</ele><time>2026-04-17T09:38:58Z</time></trkpt><trkpt lat="44.25438911051226" lon="8.305431652638948"><ele>807.0</ele><time>2026-04-17T09:38:59Z</time></trkpt><trkpt lat="44.25436281725896" lon="8.305324211482894"><ele>807.0</ele><time>2026-04-17T09:39:00Z</time></trkpt><trkpt lat="44.25433532540021" lon="8.305210964650676"><ele>807.0</ele><time>2026-04-17T09:39:01Z</time></trkpt><trkpt lat="44.25431014564646" lon="8.305036826982814"><ele>807.8333333333334</ele><time>2026-04-17T09:39:03Z</time></trkpt><trkpt lat="44.25429894907723" lon="8.304918404558183"><ele>808.6666666666667</ele><time>2026-04-17T09:39:04Z</time></trkpt><trkpt lat="44.254292198809615" lon="8.304798245710078"><ele>809.5</ele><time>2026-04-17T09:39:05Z</time></trkpt><trkpt lat="44.2542895969546" lon="8.304685823426583"><ele>810.3333333333334</ele><time>2026-04-17T09:39:06Z</time></trkpt><trkpt lat="44.25428935038848" lon="8.30458536266673"><ele>811.1666666666667</ele><time>2026-04-17T09:39:07Z</time></trkpt><trkpt lat="44.254290749450504" lon="8.304477708242091"><ele>812.0</ele><time>2026-04-17T09:39:08Z</time></trkpt><trkpt lat="44.25429535370466" lon="8.304369153152546"><ele>812.8</ele><time>2026-04-17T09:39:09Z</time></trkpt><trkpt lat="44.2543044746518" lon="8.304237946646108"><ele>813.6</ele><time>2026-04-17T09:39:10Z</time></trkpt><trkpt lat="44.254318975503885" lon="8.304103871603846"><ele>814.4</ele><time>2026-04-17T09:39:11Z</time></trkpt><trkpt lat="44.254343049126945" lon="8.303958526519402"><ele>815.1999999999999</ele><time>2026-04-17T09:39:12Z</time></trkpt><trkpt lat="44.25436683849807" lon="8.303831245557028"><ele>816.0</ele><time>2026-04-17T09:39:13Z</time></trkpt><trkpt lat="44.25439282889839" lon="8.30372181780997"><ele>814.6666666666666</ele><time>2026-04-17T09:39:14Z</time></trkpt><trkpt lat="44.25444978442855" lon="8.303638943786629"><ele>813.3333333333333</ele><time>2026-04-17T09:39:15Z</time></trkpt><trkpt lat="44.254493395740134" lon="8.3035378717979"><ele>812.0</ele><time>2026-04-17T09:39:16Z</time></trkpt><trkpt lat="44.25453973790415" lon="8.303439310647653"><ele>810.6666666666666</ele><time>2026-04-17T09:39:17Z</time></trkpt><trkpt lat="44.25460524233064" lon="8.303346359355587"><ele>809.3333333333333</ele><time>2026-04-17T09:39:18Z</time></trkpt><trkpt lat="44.254674360941706" lon="8.303239313098043"><ele>808.0</ele><time>2026-04-17T09:39:19Z</time></trkpt><trkpt lat="44.25470352521881" lon="8.303118631480135"><ele>805.4</ele><time>2026-04-17T09:39:20Z</time></trkpt><trkpt lat="44.25471168122557" lon="8.30300715923019"><ele>802.8</ele><time>2026-04-17T09:39:21Z</time></trkpt><trkpt lat="44.254684822965466" lon="8.30289154375235"><ele>800.2</ele><time>2026-04-17T09:39:22Z</time></trkpt><trkpt lat="44.25466787514707" lon="8.302789703546624"><ele>797.6</ele><time>2026-04-17T09:39:23Z</time></trkpt><trkpt lat="44.254725137850905" lon="8.302619208918772"><ele>795.0</ele><time>2026-04-17T09:39:25Z</time></trkpt><trkpt lat="44.25478135820262" lon="8.30252043283598"><ele>798.4</ele><time>2026-04-17T09:39:26Z</time></trkpt><trkpt lat="44.25483915688385" lon="8.302419473390026"><ele>801.8</ele><time>2026-04-17T09:39:27Z</time></trkpt><trkpt lat="44.25491343288077" lon="8.302309047917582"><ele>805.2</ele><time>2026-04-17T09:39:28Z</time></trkpt><trkpt lat="44.255002241433445" lon="8.302187240689408"><ele>808.6</ele><time>2026-04-17T09:39:29Z</time></trkpt><trkpt lat="44.25507660433737" lon="8.302083617913773"><ele>812.0</ele><time>2026-04-17T09:39:30Z</time></trkpt><trkpt lat="44.25516146340572" lon="8.301961641670346"><ele>812.0</ele><time>2026-04-17T09:39:31Z</time></trkpt><trkpt lat="44.25523882443194" lon="8.301844917820894"><ele>812.0</ele><time>2026-04-17T09:39:32Z</time></trkpt><trkpt lat="44.25531838418509" lon="8.301759920927436"><ele>812.0</ele><time>2026-04-17T09:39:33Z</time></trkpt><trkpt lat="44.25538515167691" lon="8.30162692684981"><ele>812.0</ele><time>2026-04-17T09:39:34Z</time></trkpt><trkpt lat="44.25544702195943" lon="8.301492671441629"><ele>812.0</ele><time>2026-04-17T09:39:35Z</time></trkpt><trkpt lat="44.25549698045016" lon="8.301359617961065"><ele>809.6</ele><time>2026-04-17T09:39:36Z</time></trkpt><trkpt lat="44.25552814539136" lon="8.301243776992937"><ele>807.2</ele><time>2026-04-17T09:39:37Z</time></trkpt><trkpt lat="44.25561577732837" lon="8.301161104723652"><ele>804.8</ele><time>2026-04-17T09:39:38Z</time></trkpt><trkpt lat="44.25566234633555" lon="8.301017115315927"><ele>802.4</ele><time>2026-04-17T09:39:39Z</time></trkpt><trkpt lat="44.25566736660823" lon="8.30089567017363"><ele>800.0</ele><time>2026-04-17T09:39:40Z</time></trkpt><trkpt lat="44.25567678964413" lon="8.300799987375392"><ele>802.8</ele><time>2026-04-17T09:39:41Z</time></trkpt><trkpt lat="44.25570743901198" lon="8.300630361254587"><ele>805.6</ele><time>2026-04-17T09:39:43Z</time></trkpt><trkpt lat="44.255774220747476" lon="8.30056677183192"><ele>808.4000000000001</ele><time>2026-04-17T09:39:44Z</time></trkpt><trkpt lat="44.25582582995593" lon="8.30048532594961"><ele>811.2</ele><time>2026-04-17T09:39:45Z</time></trkpt><trkpt lat="44.2559014740489" lon="8.300378171462077"><ele>814.0</ele><time>2026-04-17T09:39:46Z</time></trkpt><trkpt lat="44.25598192762861" lon="8.300265520476177"><ele>814.0</ele><time>2026-04-17T09:39:47Z</time></trkpt><trkpt lat="44.25603923293821" lon="8.300145509174722"><ele>814.0</ele><time>2026-04-17T09:39:48Z</time></trkpt><trkpt lat="44.256084726129515" lon="8.300025206405646"><ele>814.0</ele><time>2026-04-17T09:39:49Z</time></trkpt><trkpt lat="44.256129656211066" lon="8.299913456781475"><ele>814.0</ele><time>2026-04-17T09:39:50Z</time></trkpt><trkpt lat="44.25619145808989" lon="8.299780726514502"><ele>814.0</ele><time>2026-04-17T09:39:51Z</time></trkpt><trkpt lat="44.25623610153572" lon="8.299681401278189"><ele>812.4000000000001</ele><time>2026-04-17T09:39:52Z</time></trkpt><trkpt lat="44.25628774222406" lon="8.299532312350449"><ele>810.8</ele><time>2026-04-17T09:39:53Z</time></trkpt><trkpt lat="44.25631035203134" lon="8.29939401616249"><ele>809.2</ele><time>2026-04-17T09:39:54Z</time></trkpt><trkpt lat="44.25634899833967" lon="8.299290912027777"><ele>807.5999999999999</ele><time>2026-04-17T09:39:55Z</time></trkpt><trkpt lat="44.256378806685476" lon="8.299151800897128"><ele>806.0</ele><time>2026-04-17T09:39:56Z</time></trkpt><trkpt lat="44.25641620064456" lon="8.299004688440201"><ele>806.5000000000001</ele><time>2026-04-17T09:39:57.999Z</time></trkpt><trkpt lat="44.25642886148732" lon="8.29890907312819"><ele>807.0</ele><time>2026-04-17T09:39:58.999Z</time></trkpt><trkpt lat="44.25643446552169" lon="8.298797950569842"><ele>807.5</ele><time>2026-04-17T09:39:59.999Z</time></trkpt><trkpt lat="44.256423291817306" lon="8.298682466654956"><ele>808.0</ele><time>2026-04-17T09:40:00.999Z</time></trkpt><trkpt lat="44.25640119159275" lon="8.298570973376433"><ele>808.5000000000001</ele><time>2026-04-17T09:40:01.999Z</time></trkpt><trkpt lat="44.25636997172218" lon="8.29847416886383"><ele>809.0</ele><time>2026-04-17T09:40:02.999Z</time></trkpt><trkpt lat="44.256333150300755" lon="8.298398546704224"><ele>809.0</ele><time>2026-04-17T09:40:03.999Z</time></trkpt><trkpt lat="44.256316050924895" lon="8.298299350073103"><ele>809.0</ele><time>2026-04-17T09:40:25.999Z</time></trkpt><trkpt lat="44.25625640186931" lon="8.298116288573077"><ele>809.0</ele><time>2026-04-17T09:40:27.999Z</time></trkpt><trkpt lat="44.25622639493984" lon="8.298030494654183"><ele>809.0</ele><time>2026-04-17T09:40:28.999Z</time></trkpt><trkpt lat="44.25618768879933" lon="8.297919157138674"><ele>809.0</ele><time>2026-04-17T09:40:29.999Z</time></trkpt><trkpt lat="44.25615322274859" lon="8.297809326430253"><ele>810.0</ele><time>2026-04-17T09:40:30.999Z</time></trkpt><trkpt lat="44.25612575542809" lon="8.29768612356674"><ele>811.0</ele><time>2026-04-17T09:40:31.999Z</time></trkpt><trkpt lat="44.25611802568198" lon="8.297517256453503"><ele>812.0</ele><time>2026-04-17T09:40:32.999Z</time></trkpt><trkpt lat="44.25609525815922" lon="8.297366420049661"><ele>813.0</ele><time>2026-04-17T09:40:33.999Z</time></trkpt><trkpt lat="44.25608569946227" lon="8.297239010240261"><ele>814.0</ele><time>2026-04-17T09:40:34.999Z</time></trkpt><trkpt lat="44.25601838144855" lon="8.297111081784553"><ele>817.5</ele><time>2026-04-17T09:40:35.999Z</time></trkpt><trkpt lat="44.25594021352371" lon="8.29697660977839"><ele>821.0</ele><time>2026-04-17T09:40:36.999Z</time></trkpt><trkpt lat="44.25586592777394" lon="8.296839700561769"><ele>824.5</ele><time>2026-04-17T09:40:37.999Z</time></trkpt><trkpt lat="44.25577919684141" lon="8.296682932743241"><ele>828.0</ele><time>2026-04-17T09:40:38.999Z</time></trkpt><trkpt lat="44.25568142200674" lon="8.296533389380105"><ele>820.5</ele><time>2026-04-17T09:40:39.999Z</time></trkpt><trkpt lat="44.25561410709315" lon="8.296387691870333"><ele>813.0</ele><time>2026-04-17T09:40:40.999Z</time></trkpt><trkpt lat="44.255551296027164" lon="8.296250544595626"><ele>805.5</ele><time>2026-04-17T09:40:41.999Z</time></trkpt><trkpt lat="44.255499744716424" lon="8.296107115631417"><ele>798.0</ele><time>2026-04-17T09:40:42.999Z</time></trkpt><trkpt lat="44.255454730546894" lon="8.295982591297815"><ele>798.0</ele><time>2026-04-17T09:40:43.999Z</time></trkpt><trkpt lat="44.25541750659475" lon="8.295865871343725"><ele>798.0</ele><time>2026-04-17T09:40:44.999Z</time></trkpt><trkpt lat="44.255382876522376" lon="8.295724014722142"><ele>798.0</ele><time>2026-04-17T09:40:45.999Z</time></trkpt><trkpt lat="44.25536868166959" lon="8.295599685740696"><ele>798.0</ele><time>2026-04-17T09:40:46.999Z</time></trkpt><trkpt lat="44.255386045871454" lon="8.295446356356642"><ele>798.0</ele><time>2026-04-17T09:40:47.999Z</time></trkpt><trkpt lat="44.25538293485926" lon="8.295247315800815"><ele>799.0</ele><time>2026-04-17T09:40:48.999Z</time></trkpt><trkpt lat="44.25536116284233" lon="8.295089351505913"><ele>800.0</ele><time>2026-04-17T09:40:49.999Z</time></trkpt><trkpt lat="44.255342721099815" lon="8.29492765501803"><ele>801.0</ele><time>2026-04-17T09:40:50.999Z</time></trkpt><trkpt lat="44.25534825965947" lon="8.294778500025956"><ele>802.0</ele><time>2026-04-17T09:40:52Z</time></trkpt><trkpt lat="44.25534803740119" lon="8.294629754869128"><ele>803.0</ele><time>2026-04-17T09:40:53Z</time></trkpt><trkpt lat="44.25537221939309" lon="8.294448312132392"><ele>804.0</ele><time>2026-04-17T09:40:54Z</time></trkpt><trkpt lat="44.25541329551057" lon="8.294260758754612"><ele>805.0</ele><time>2026-04-17T09:40:55Z</time></trkpt><trkpt lat="44.255474416153135" lon="8.294134530525145"><ele>806.0</ele><time>2026-04-17T09:40:56Z</time></trkpt><trkpt lat="44.25551691147828" lon="8.294029216278242"><ele>807.0</ele><time>2026-04-17T09:40:57Z</time></trkpt><trkpt lat="44.25557271633883" lon="8.293920893418385"><ele>808.0</ele><time>2026-04-17T09:40:58Z</time></trkpt><trkpt lat="44.255620475957926" lon="8.293813967594705"><ele>809.4</ele><time>2026-04-17T09:41:00Z</time></trkpt><trkpt lat="44.25559642602976" lon="8.293697298142801"><ele>810.8</ele><time>2026-04-17T09:41:02Z</time></trkpt><trkpt lat="44.255481067021734" lon="8.293581751515053"><ele>812.2</ele><time>2026-04-17T09:41:04Z</time></trkpt><trkpt lat="44.2553798485493" lon="8.293575019735323"><ele>813.6</ele><time>2026-04-17T09:41:05Z</time></trkpt><trkpt lat="44.25526329422556" lon="8.293594989603632"><ele>815.0</ele><time>2026-04-17T09:41:06Z</time></trkpt><trkpt lat="44.255136545743504" lon="8.293610253237555"><ele>815.0000000000001</ele><time>2026-04-17T09:41:07Z</time></trkpt><trkpt lat="44.25503533482215" lon="8.293610945775134"><ele>815.0</ele><time>2026-04-17T09:41:08Z</time></trkpt><trkpt lat="44.25497236076422" lon="8.29359220576784"><ele>815.0</ele><time>2026-04-17T09:41:09Z</time></trkpt><trkpt lat="44.254932186359895" lon="8.293507171260064"><ele>815.0</ele><time>2026-04-17T09:41:11Z</time></trkpt><trkpt lat="44.25494881743451" lon="8.293409321287044"><ele>815.0000000000001</ele><time>2026-04-17T09:41:13Z</time></trkpt><trkpt lat="44.25495060198996" lon="8.293307427377252"><ele>815.0</ele><time>2026-04-17T09:41:14Z</time></trkpt><trkpt lat="44.25498181884696" lon="8.293186734500432"><ele>816.75</ele><time>2026-04-17T09:41:15Z</time></trkpt><trkpt lat="44.254993846445416" lon="8.293061578556012"><ele>818.5</ele><time>2026-04-17T09:41:16Z</time></trkpt><trkpt lat="44.25491363513243" lon="8.292903045303996"><ele>820.25</ele><time>2026-04-17T09:41:17Z</time></trkpt><trkpt lat="44.25487395601585" lon="8.29275659558522"><ele>822.0</ele><time>2026-04-17T09:41:18Z</time></trkpt><trkpt lat="44.25484592580122" lon="8.292598704009489"><ele>822.0</ele><time>2026-04-17T09:41:19Z</time></trkpt><trkpt lat="44.254824990427835" lon="8.292462531900867"><ele>822.0</ele><time>2026-04-17T09:41:20Z</time></trkpt><trkpt lat="44.25480644553666" lon="8.292309338324667"><ele>822.0</ele><time>2026-04-17T09:41:21Z</time></trkpt><trkpt lat="44.25479350633704" lon="8.29213699732978"><ele>822.0</ele><time>2026-04-17T09:41:22Z</time></trkpt><trkpt lat="44.25479054696174" lon="8.291929008380645"><ele>822.5</ele><time>2026-04-17T09:41:23Z</time></trkpt><trkpt lat="44.25479658812704" lon="8.291728351947235"><ele>823.0</ele><time>2026-04-17T09:41:24Z</time></trkpt><trkpt lat="44.25480360509931" lon="8.291547247274728"><ele>823.5</ele><time>2026-04-17T09:41:25Z</time></trkpt><trkpt lat="44.25480684696871" lon="8.291380895620623"><ele>824.0</ele><time>2026-04-17T09:41:26Z</time></trkpt><trkpt lat="44.25479183874976" lon="8.291219474363064"><ele>824.0</ele><time>2026-04-17T09:41:27Z</time></trkpt><trkpt lat="44.25479797398417" lon="8.291061004509555"><ele>824.0</ele><time>2026-04-17T09:41:28Z</time></trkpt><trkpt lat="44.25478983936297" lon="8.290897264637067"><ele>824.0</ele><time>2026-04-17T09:41:29Z</time></trkpt><trkpt lat="44.25479662054366" lon="8.29075369470194"><ele>824.0</ele><time>2026-04-17T09:41:30Z</time></trkpt><trkpt lat="44.25480551213717" lon="8.290620602283488"><ele>824.0</ele><time>2026-04-17T09:41:31Z</time></trkpt><trkpt lat="44.25482876634104" lon="8.29049026140742"><ele>825.0</ele><time>2026-04-17T09:41:32Z</time></trkpt><trkpt lat="44.254847246974286" lon="8.290389707463161"><ele>826.0</ele><time>2026-04-17T09:41:33Z</time></trkpt><trkpt lat="44.25482390230724" lon="8.290265506050025"><ele>827.0</ele><time>2026-04-17T09:41:34Z</time></trkpt><trkpt lat="44.25471254873908" lon="8.290182505348747"><ele>828.0</ele><time>2026-04-17T09:41:35Z</time></trkpt><trkpt lat="44.254665786411984" lon="8.290058665240803"><ele>829.0</ele><time>2026-04-17T09:41:36Z</time></trkpt><trkpt lat="44.25464869116764" lon="8.289948464228942"><ele>823.75</ele><time>2026-04-17T09:41:37Z</time></trkpt><trkpt lat="44.25464517573716" lon="8.289814830267561"><ele>818.5</ele><time>2026-04-17T09:41:38Z</time></trkpt><trkpt lat="44.25463681481673" lon="8.289662616024472"><ele>813.25</ele><time>2026-04-17T09:41:39Z</time></trkpt><trkpt lat="44.25461758544102" lon="8.28948568068491"><ele>808.0</ele><time>2026-04-17T09:41:40Z</time></trkpt><trkpt lat="44.25454671654234" lon="8.289330313989863"><ele>808.0</ele><time>2026-04-17T09:41:41Z</time></trkpt><trkpt lat="44.254453598276484" lon="8.289223119370275"><ele>808.0</ele><time>2026-04-17T09:41:42Z</time></trkpt><trkpt lat="44.254404986715144" lon="8.28909686936103"><ele>808.0</ele><time>2026-04-17T09:41:43Z</time></trkpt><trkpt lat="44.25436978979295" lon="8.288954106404608"><ele>808.0</ele><time>2026-04-17T09:41:44Z</time></trkpt><trkpt lat="44.254342911379666" lon="8.288810880258236"><ele>808.0</ele><time>2026-04-17T09:41:45Z</time></trkpt><trkpt lat="44.25435580735926" lon="8.288680157319314"><ele>810.4999999999999</ele><time>2026-04-17T09:41:46Z</time></trkpt><trkpt lat="44.25434193468066" lon="8.288562686959947"><ele>813.0</ele><time>2026-04-17T09:41:47Z</time></trkpt><trkpt lat="44.2543054236037" lon="8.288458557347914"><ele>815.5</ele><time>2026-04-17T09:41:48Z</time></trkpt><trkpt lat="44.25424876332964" lon="8.28837233256688"><ele>818.0</ele><time>2026-04-17T09:41:49Z</time></trkpt><trkpt lat="44.25416527397296" lon="8.288311125177735"><ele>820.4999999999999</ele><time>2026-04-17T09:41:50Z</time></trkpt><trkpt lat="44.254062886153314" lon="8.28832167890367"><ele>823.0</ele><time>2026-04-17T09:41:51Z</time></trkpt><trkpt lat="44.25396722994771" lon="8.28842382458158"><ele>820.8</ele><time>2026-04-17T09:41:52Z</time></trkpt><trkpt lat="44.2538753951682" lon="8.288464138181796"><ele>818.5999999999999</ele><time>2026-04-17T09:41:53Z</time></trkpt><trkpt lat="44.253780620643305" lon="8.288480737616947"><ele>816.4000000000001</ele><time>2026-04-17T09:41:54Z</time></trkpt><trkpt lat="44.253688502953565" lon="8.288413548371079"><ele>814.2</ele><time>2026-04-17T09:41:55Z</time></trkpt><trkpt lat="44.2535847557024" lon="8.288357828878643"><ele>812.0</ele><time>2026-04-17T09:41:56Z</time></trkpt><trkpt lat="44.25346062586764" lon="8.288313415037065"><ele>812.0</ele><time>2026-04-17T09:41:57Z</time></trkpt><trkpt lat="44.25333023500156" lon="8.288291244542464"><ele>812.0</ele><time>2026-04-17T09:41:58Z</time></trkpt><trkpt lat="44.25322289444559" lon="8.288230056309775"><ele>812.0</ele><time>2026-04-17T09:41:59Z</time></trkpt><trkpt lat="44.25312528401252" lon="8.288172924291663"><ele>812.0</ele><time>2026-04-17T09:42:00Z</time></trkpt><trkpt lat="44.25301516297402" lon="8.288088330349641"><ele>812.4000000000001</ele><time>2026-04-17T09:42:00.999Z</time></trkpt><trkpt lat="44.252911233402926" lon="8.288005317020785"><ele>812.8000000000001</ele><time>2026-04-17T09:42:01.999Z</time></trkpt><trkpt lat="44.25281678805766" lon="8.287923703252792"><ele>813.2</ele><time>2026-04-17T09:42:02.999Z</time></trkpt><trkpt lat="44.252736577023796" lon="8.28784533848738"><ele>813.6</ele><time>2026-04-17T09:42:03.999Z</time></trkpt><trkpt lat="44.252669319603" lon="8.28776199015706"><ele>814.0</ele><time>2026-04-17T09:42:04.999Z</time></trkpt><trkpt lat="44.25262091934304" lon="8.28767540610071"><ele>814.0</ele><time>2026-04-17T09:42:05.999Z</time></trkpt><trkpt lat="44.25256839570661" lon="8.287580859109939"><ele>814.0</ele><time>2026-04-17T09:42:06.999Z</time></trkpt><trkpt lat="44.252524541576776" lon="8.287487653906007"><ele>814.0</ele><time>2026-04-17T09:42:07.999Z</time></trkpt><trkpt lat="44.25248656394674" lon="8.287408381090817"><ele>814.0</ele><time>2026-04-17T09:42:08.999Z</time></trkpt><trkpt lat="44.25239990914304" lon="8.287243213833774"><ele>814.0</ele><time>2026-04-17T09:42:10.999Z</time></trkpt><trkpt lat="44.252303172698966" lon="8.287162344924367"><ele>814.0</ele><time>2026-04-17T09:42:11.999Z</time></trkpt><trkpt lat="44.25221119297742" lon="8.287097642105081"><ele>814.0</ele><time>2026-04-17T09:42:12.999Z</time></trkpt><trkpt lat="44.25211605128291" lon="8.287027506657047"><ele>814.0</ele><time>2026-04-17T09:42:13.999Z</time></trkpt><trkpt lat="44.25200863169682" lon="8.286936561552592"><ele>814.0</ele><time>2026-04-17T09:42:14.999Z</time></trkpt><trkpt lat="44.251895140255634" lon="8.28683418117589"><ele>814.0</ele><time>2026-04-17T09:42:15.999Z</time></trkpt><trkpt lat="44.25178006858457" lon="8.286717784912996"><ele>814.0</ele><time>2026-04-17T09:42:16.999Z</time></trkpt><trkpt lat="44.25167434774594" lon="8.286616187973827"><ele>814.0</ele><time>2026-04-17T09:42:17.999Z</time></trkpt><trkpt lat="44.251580436339815" lon="8.286538031387842"><ele>814.0</ele><time>2026-04-17T09:42:18.999Z</time></trkpt><trkpt lat="44.2514938642359" lon="8.286497033833841"><ele>815.2</ele><time>2026-04-17T09:42:19.999Z</time></trkpt><trkpt lat="44.25142653470978" lon="8.286427666311917"><ele>816.4000000000001</ele><time>2026-04-17T09:42:20.999Z</time></trkpt><trkpt lat="44.2513332746791" lon="8.2863938657094"><ele>817.6</ele><time>2026-04-17T09:42:21.999Z</time></trkpt><trkpt lat="44.251211074172886" lon="8.286422127985078"><ele>818.8</ele><time>2026-04-17T09:42:22.999Z</time></trkpt><trkpt lat="44.25109876925442" lon="8.286450299024706"><ele>820.0</ele><time>2026-04-17T09:42:23.999Z</time></trkpt><trkpt lat="44.250991877026124" lon="8.286474119994296"><ele>819.9999999999999</ele><time>2026-04-17T09:42:24.999Z</time></trkpt><trkpt lat="44.250908534124626" lon="8.286471916355506"><ele>820.0</ele><time>2026-04-17T09:42:25.999Z</time></trkpt><trkpt lat="44.25083363968401" lon="8.286450056378044"><ele>820.0</ele><time>2026-04-17T09:42:26.999Z</time></trkpt><trkpt lat="44.25075805098613" lon="8.286410358779536"><ele>820.0</ele><time>2026-04-17T09:42:27.999Z</time></trkpt><trkpt lat="44.25068651228037" lon="8.286357767299867"><ele>819.9999999999999</ele><time>2026-04-17T09:42:28.999Z</time></trkpt><trkpt lat="44.25062105392049" lon="8.286265280058974"><ele>820.0</ele><time>2026-04-17T09:42:29.999Z</time></trkpt><trkpt lat="44.250566515369464" lon="8.28615206411915"><ele>818.2</ele><time>2026-04-17T09:42:30.999Z</time></trkpt><trkpt lat="44.250503030985975" lon="8.286031908981153"><ele>816.4</ele><time>2026-04-17T09:42:31.999Z</time></trkpt><trkpt lat="44.25044194632923" lon="8.285931609050921"><ele>814.5999999999999</ele><time>2026-04-17T09:42:32.999Z</time></trkpt><trkpt lat="44.25038082397176" lon="8.285857203964419"><ele>812.8</ele><time>2026-04-17T09:42:33.999Z</time></trkpt><trkpt lat="44.250289099256705" lon="8.285846267775716"><ele>811.0</ele><time>2026-04-17T09:42:34.999Z</time></trkpt><trkpt lat="44.2501843470933" lon="8.285900024849374"><ele>811.0</ele><time>2026-04-17T09:42:35.999Z</time></trkpt><trkpt lat="44.25006902161651" lon="8.285901275075"><ele>811.0</ele><time>2026-04-17T09:42:36.999Z</time></trkpt><trkpt lat="44.24996396004908" lon="8.285982225334052"><ele>811.0</ele><time>2026-04-17T09:42:37.999Z</time></trkpt><trkpt lat="44.24986425213874" lon="8.285997249423792"><ele>811.0</ele><time>2026-04-17T09:42:38.999Z</time></trkpt><trkpt lat="44.24978475515834" lon="8.286023188130828"><ele>811.0</ele><time>2026-04-17T09:42:39.999Z</time></trkpt><trkpt lat="44.249701226736335" lon="8.285979587101949"><ele>812.5999999999999</ele><time>2026-04-17T09:42:40.999Z</time></trkpt><trkpt lat="44.24962979111974" lon="8.285865739437204"><ele>814.2</ele><time>2026-04-17T09:42:41.999Z</time></trkpt><trkpt lat="44.24953914698824" lon="8.285777356562285"><ele>815.8</ele><time>2026-04-17T09:42:42.999Z</time></trkpt><trkpt lat="44.24946555065905" lon="8.285702779613002"><ele>817.4000000000001</ele><time>2026-04-17T09:42:43.999Z</time></trkpt><trkpt lat="44.249414414897004" lon="8.285639971854069"><ele>819.0</ele><time>2026-04-17T09:42:44.999Z</time></trkpt><trkpt lat="44.249347788636406" lon="8.285558326498093"><ele>819.0</ele><time>2026-04-17T09:42:45.999Z</time></trkpt><trkpt lat="44.24931760678995" lon="8.285424910443055"><ele>819.0</ele><time>2026-04-17T09:42:46.999Z</time></trkpt><trkpt lat="44.24928831869444" lon="8.285320030538951"><ele>819.0</ele><time>2026-04-17T09:42:47.999Z</time></trkpt><trkpt lat="44.24926378757034" lon="8.28520830456668"><ele>819.0</ele><time>2026-04-17T09:42:48.999Z</time></trkpt><trkpt lat="44.249209064812376" lon="8.28512547695438"><ele>819.0</ele><time>2026-04-17T09:42:49.999Z</time></trkpt><trkpt lat="44.2491101232602" lon="8.285070653030385"><ele>819.0</ele><time>2026-04-17T09:42:50.999Z</time></trkpt><trkpt lat="44.24900485361893" lon="8.28510129161859"><ele>819.0</ele><time>2026-04-17T09:42:51.999Z</time></trkpt><trkpt lat="44.24893895006476" lon="8.285135182288112"><ele>819.0</ele><time>2026-04-17T09:42:52.999Z</time></trkpt><trkpt lat="44.24890051400975" lon="8.28529265802544"><ele>819.0</ele><time>2026-04-17T09:42:54.999Z</time></trkpt><trkpt lat="44.24883894159849" lon="8.285472220782546"><ele>819.0</ele><time>2026-04-17T09:42:56.999Z</time></trkpt><trkpt lat="44.248797234090894" lon="8.285610573125368"><ele>817.2</ele><time>2026-04-17T09:42:58Z</time></trkpt><trkpt lat="44.24875105176816" lon="8.28575400895379"><ele>815.4000000000001</ele><time>2026-04-17T09:42:59Z</time></trkpt><trkpt lat="44.24870950433106" lon="8.285857669503"><ele>813.6</ele><time>2026-04-17T09:43:00Z</time></trkpt><trkpt lat="44.24867271924435" lon="8.285954892447277"><ele>811.8</ele><time>2026-04-17T09:43:01Z</time></trkpt><trkpt lat="44.24855389918201" lon="8.286068956822673"><ele>810.0</ele><time>2026-04-17T09:43:03Z</time></trkpt><trkpt lat="44.24845487203297" lon="8.286078333024268"><ele>810.0</ele><time>2026-04-17T09:43:04Z</time></trkpt><trkpt lat="44.24833851095995" lon="8.286112866958865"><ele>810.0</ele><time>2026-04-17T09:43:05Z</time></trkpt><trkpt lat="44.24823153758101" lon="8.286154017691185"><ele>810.0</ele><time>2026-04-17T09:43:06Z</time></trkpt><trkpt lat="44.248148602615885" lon="8.286194568478498"><ele>810.0</ele><time>2026-04-17T09:43:07Z</time></trkpt><trkpt lat="44.24806680737051" lon="8.286292037066366"><ele>810.0</ele><time>2026-04-17T09:43:08Z</time></trkpt><trkpt lat="44.247985174583484" lon="8.28642014857105"><ele>810.25</ele><time>2026-04-17T09:43:09Z</time></trkpt><trkpt lat="44.24790307618148" lon="8.286552067528893"><ele>810.5</ele><time>2026-04-17T09:43:10Z</time></trkpt><trkpt lat="44.2478167066623" lon="8.286710815044632"><ele>810.75</ele><time>2026-04-17T09:43:11Z</time></trkpt><trkpt lat="44.247730161812385" lon="8.286860055187631"><ele>811.0</ele><time>2026-04-17T09:43:12Z</time></trkpt><trkpt lat="44.24766438034743" lon="8.286961506923255"><ele>811.0</ele><time>2026-04-17T09:43:13Z</time></trkpt><trkpt lat="44.24760519383796" lon="8.287028250407968"><ele>811.0</ele><time>2026-04-17T09:43:14Z</time></trkpt><trkpt lat="44.247536904904344" lon="8.287083100356323"><ele>811.0</ele><time>2026-04-17T09:43:15Z</time></trkpt><trkpt lat="44.247463787777185" lon="8.287109885719461"><ele>811.0</ele><time>2026-04-17T09:43:16Z</time></trkpt><trkpt lat="44.24735875117706" lon="8.287072352197889"><ele>811.0</ele><time>2026-04-17T09:43:17Z</time></trkpt><trkpt lat="44.24722513216566" lon="8.287074237169188"><ele>814.75</ele><time>2026-04-17T09:43:18Z</time></trkpt><trkpt lat="44.247062874545406" lon="8.287084557799778"><ele>818.5</ele><time>2026-04-17T09:43:19Z</time></trkpt><trkpt lat="44.24691364817694" lon="8.28711387102915"><ele>822.25</ele><time>2026-04-17T09:43:20Z</time></trkpt><trkpt lat="44.24681665323565" lon="8.287197645561681"><ele>826.0</ele><time>2026-04-17T09:43:21Z</time></trkpt><trkpt lat="44.24674611546585" lon="8.28724092860681"><ele>826.0</ele><time>2026-04-17T09:43:22Z</time></trkpt><trkpt lat="44.24661459781814" lon="8.28724242305749"><ele>826.0</ele><time>2026-04-17T09:43:24Z</time></trkpt><trkpt lat="44.24653612926079" lon="8.287177349673403"><ele>826.0</ele><time>2026-04-17T09:43:25Z</time></trkpt><trkpt lat="44.24644825305089" lon="8.287097062433027"><ele>826.0</ele><time>2026-04-17T09:43:26Z</time></trkpt><trkpt lat="44.246341613025905" lon="8.287045015843129"><ele>826.0</ele><time>2026-04-17T09:43:27Z</time></trkpt><trkpt lat="44.24623818925953" lon="8.287042840064396"><ele>826.5999999999999</ele><time>2026-04-17T09:43:28Z</time></trkpt><trkpt lat="44.24612411340856" lon="8.28712038159011"><ele>827.2</ele><time>2026-04-17T09:43:29Z</time></trkpt><trkpt lat="44.24604290518556" lon="8.287211060978727"><ele>827.8</ele><time>2026-04-17T09:43:30Z</time></trkpt><trkpt lat="44.2459657192096" lon="8.28732610503025"><ele>828.4000000000001</ele><time>2026-04-17T09:43:31Z</time></trkpt><trkpt lat="44.2458886516336" lon="8.287416457987264"><ele>829.0</ele><time>2026-04-17T09:43:32Z</time></trkpt><trkpt lat="44.24579026806902" lon="8.287494410763342"><ele>826.5</ele><time>2026-04-17T09:43:33Z</time></trkpt><trkpt lat="44.245659593032514" lon="8.287545424195997"><ele>824.0</ele><time>2026-04-17T09:43:34Z</time></trkpt><trkpt lat="44.24553174431112" lon="8.287614326308743"><ele>821.5</ele><time>2026-04-17T09:43:35Z</time></trkpt><trkpt lat="44.24542613645281" lon="8.28770858054817"><ele>819.0</ele><time>2026-04-17T09:43:36Z</time></trkpt><trkpt lat="44.245320911814616" lon="8.287804997252522"><ele>819.0</ele><time>2026-04-17T09:43:37Z</time></trkpt><trkpt lat="44.245214760321566" lon="8.287878415685567"><ele>819.0</ele><time>2026-04-17T09:43:38Z</time></trkpt><trkpt lat="44.24510380567948" lon="8.287915419898377"><ele>819.0</ele><time>2026-04-17T09:43:39Z</time></trkpt><trkpt lat="44.24497201614548" lon="8.287959121299494"><ele>819.0</ele><time>2026-04-17T09:43:40Z</time></trkpt><trkpt lat="44.2448392307175" lon="8.288020797760655"><ele>814.6666666666667</ele><time>2026-04-17T09:43:41Z</time></trkpt><trkpt lat="44.24471120793412" lon="8.288088585250794"><ele>810.3333333333334</ele><time>2026-04-17T09:43:42Z</time></trkpt><trkpt lat="44.24456921404147" lon="8.288171583990518"><ele>806.0</ele><time>2026-04-17T09:43:43Z</time></trkpt><trkpt lat="44.24442375950179" lon="8.288274323132587"><ele>806.0</ele><time>2026-04-17T09:43:44Z</time></trkpt><trkpt lat="44.24430061779447" lon="8.288376547491664"><ele>806.0</ele><time>2026-04-17T09:43:45Z</time></trkpt><trkpt lat="44.2441995264226" lon="8.288476281064842"><ele>806.0</ele><time>2026-04-17T09:43:46Z</time></trkpt><trkpt lat="44.24408633127843" lon="8.288599584580242"><ele>806.0</ele><time>2026-04-17T09:43:47Z</time></trkpt><trkpt lat="44.24395361482154" lon="8.28871637923813"><ele>804.6666666666667</ele><time>2026-04-17T09:43:47.999Z</time></trkpt><trkpt lat="44.243823746138105" lon="8.2888584967365"><ele>803.3333333333333</ele><time>2026-04-17T09:43:48.999Z</time></trkpt><trkpt lat="44.243711879818825" lon="8.28899050125302"><ele>802.0</ele><time>2026-04-17T09:43:49.999Z</time></trkpt><trkpt lat="44.24360554836988" lon="8.289127038124281"><ele>802.0</ele><time>2026-04-17T09:43:50.999Z</time></trkpt><trkpt lat="44.24349336944016" lon="8.289259657804777"><ele>802.0</ele><time>2026-04-17T09:43:51.999Z</time></trkpt><trkpt lat="44.24336643266414" lon="8.289417448627708"><ele>802.0</ele><time>2026-04-17T09:43:52.999Z</time></trkpt><trkpt lat="44.24324486307566" lon="8.28956883945393"><ele>801.3333333333333</ele><time>2026-04-17T09:43:53.999Z</time></trkpt><trkpt lat="44.24312707458458" lon="8.289714258288283"><ele>800.6666666666667</ele><time>2026-04-17T09:43:54.999Z</time></trkpt><trkpt lat="44.24301059725288" lon="8.289845453663606"><ele>800.0</ele><time>2026-04-17T09:43:55.999Z</time></trkpt><trkpt lat="44.242883621060635" lon="8.289945798496444"><ele>800.0</ele><time>2026-04-17T09:43:56.999Z</time></trkpt><trkpt lat="44.24275762762264" lon="8.290062435050489"><ele>800.0</ele><time>2026-04-17T09:43:57.999Z</time></trkpt><trkpt lat="44.24264802555455" lon="8.290190302472494"><ele>800.0</ele><time>2026-04-17T09:43:58.999Z</time></trkpt><trkpt lat="44.24255704861799" lon="8.290340118088423"><ele>800.0</ele><time>2026-04-17T09:43:59.999Z</time></trkpt><trkpt lat="44.24247177811742" lon="8.290438488005115"><ele>800.0</ele><time>2026-04-17T09:44:00.999Z</time></trkpt><trkpt lat="44.24238815143774" lon="8.290491111311258"><ele>800.0</ele><time>2026-04-17T09:44:01.999Z</time></trkpt><trkpt lat="44.24232386149761" lon="8.29053824732208"><ele>800.0</ele><time>2026-04-17T09:44:02.999Z</time></trkpt><trkpt lat="44.242246644517486" lon="8.29060143704344"><ele>800.0</ele><time>2026-04-17T09:44:03.999Z</time></trkpt><trkpt lat="44.24213344225226" lon="8.29064971627021"><ele>800.0</ele><time>2026-04-17T09:44:04.999Z</time></trkpt><trkpt lat="44.24202953363268" lon="8.290642322886715"><ele>791.3333333333334</ele><time>2026-04-17T09:44:05.999Z</time></trkpt><trkpt lat="44.24190784354117" lon="8.290658901534643"><ele>782.6666666666667</ele><time>2026-04-17T09:44:06.999Z</time></trkpt><trkpt lat="44.24174966906589" lon="8.290685447653939"><ele>774.0</ele><time>2026-04-17T09:44:07.999Z</time></trkpt><trkpt lat="44.24157182612491" lon="8.290733307868681"><ele>775.25</ele><time>2026-04-17T09:44:08.999Z</time></trkpt><trkpt lat="44.241414335294195" lon="8.290788878000257"><ele>776.5</ele><time>2026-04-17T09:44:09.999Z</time></trkpt><trkpt lat="44.24128967728817" lon="8.29085484075618"><ele>777.75</ele><time>2026-04-17T09:44:10.999Z</time></trkpt><trkpt lat="44.24119048192784" lon="8.290938885996315"><ele>779.0</ele><time>2026-04-17T09:44:11.999Z</time></trkpt><trkpt lat="44.2411034998117" lon="8.2910209239137"><ele>779.0000000000001</ele><time>2026-04-17T09:44:12.999Z</time></trkpt><trkpt lat="44.241027589614774" lon="8.29110063382759"><ele>779.0</ele><time>2026-04-17T09:44:13.999Z</time></trkpt><trkpt lat="44.24095978733878" lon="8.291173055745098"><ele>779.0</ele><time>2026-04-17T09:44:14.999Z</time></trkpt><trkpt lat="44.24089569802598" lon="8.29122283182697"><ele>779.0</ele><time>2026-04-17T09:44:15.999Z</time></trkpt><trkpt lat="44.240819870045534" lon="8.291233234983677"><ele>779.0000000000001</ele><time>2026-04-17T09:44:16.999Z</time></trkpt><trkpt lat="44.240735667786936" lon="8.29121282009099"><ele>779.0</ele><time>2026-04-17T09:44:17.999Z</time></trkpt><trkpt lat="44.24064836829093" lon="8.291179642445812"><ele>776.1666666666667</ele><time>2026-04-17T09:44:18.999Z</time></trkpt><trkpt lat="44.24058119448358" lon="8.291097031759282"><ele>773.3333333333334</ele><time>2026-04-17T09:44:19.999Z</time></trkpt><trkpt lat="44.24051623303113" lon="8.291028825635248"><ele>770.5</ele><time>2026-04-17T09:44:20.999Z</time></trkpt><trkpt lat="44.24043685504792" lon="8.29095272543084"><ele>767.6666666666667</ele><time>2026-04-17T09:44:22.999Z</time></trkpt><trkpt lat="44.24038102869603" lon="8.290851078243207"><ele>764.8333333333334</ele><time>2026-04-17T09:44:24.999Z</time></trkpt><trkpt lat="44.24034746513411" lon="8.290762621821308"><ele>762.0</ele><time>2026-04-17T09:44:25.999Z</time></trkpt><trkpt lat="44.24031300307554" lon="8.290632164209745"><ele>762.3333333333334</ele><time>2026-04-17T09:44:26.999Z</time></trkpt><trkpt lat="44.24028691013865" lon="8.290509065384795"><ele>762.6666666666666</ele><time>2026-04-17T09:44:27.999Z</time></trkpt><trkpt lat="44.24026165594023" lon="8.290405555653592"><ele>763.0</ele><time>2026-04-17T09:44:28.999Z</time></trkpt><trkpt lat="44.24023694638366" lon="8.290311600239452"><ele>763.3333333333333</ele><time>2026-04-17T09:44:29.999Z</time></trkpt><trkpt lat="44.24021945887666" lon="8.290218467179578"><ele>763.6666666666666</ele><time>2026-04-17T09:44:30.999Z</time></trkpt><trkpt lat="44.24019732458435" lon="8.290052360274121"><ele>764.0</ele><time>2026-04-17T09:44:32.999Z</time></trkpt><trkpt lat="44.2401689163238" lon="8.28987754622733"><ele>764.0</ele><time>2026-04-17T09:44:34.999Z</time></trkpt><trkpt lat="44.24014122209942" lon="8.289798361329543"><ele>764.0</ele><time>2026-04-17T09:44:35.999Z</time></trkpt><trkpt lat="44.24010030899189" lon="8.289656202271747"><ele>764.0</ele><time>2026-04-17T09:44:37.999Z</time></trkpt><trkpt lat="44.24006202721468" lon="8.289583719344103"><ele>764.0</ele><time>2026-04-17T09:44:38.999Z</time></trkpt><trkpt lat="44.23998224780389" lon="8.289458532357349"><ele>764.0</ele><time>2026-04-17T09:44:40.999Z</time></trkpt><trkpt lat="44.2399626276868" lon="8.289360070162017"><ele>764.0</ele><time>2026-04-17T09:44:41.999Z</time></trkpt><trkpt lat="44.239953073272574" lon="8.289248022970632"><ele>764.0</ele><time>2026-04-17T09:44:42.999Z</time></trkpt><trkpt lat="44.239962808061875" lon="8.289112151274496"><ele>764.0</ele><time>2026-04-17T09:44:43.999Z</time></trkpt><trkpt lat="44.23997846063104" lon="8.288984452395319"><ele>764.0</ele><time>2026-04-17T09:44:44.999Z</time></trkpt><trkpt lat="44.23999457064072" lon="8.288853868699587"><ele>764.0</ele><time>2026-04-17T09:44:45.999Z</time></trkpt><trkpt lat="44.240011009087596" lon="8.2887289681006"><ele>764.0</ele><time>2026-04-17T09:44:46.999Z</time></trkpt><trkpt lat="44.240027024133546" lon="8.288615897000371"><ele>764.0</ele><time>2026-04-17T09:44:47.999Z</time></trkpt><trkpt lat="44.24004687237069" lon="8.288516012412025"><ele>764.0</ele><time>2026-04-17T09:44:48.999Z</time></trkpt><trkpt lat="44.24007100010192" lon="8.288390854793422"><ele>764.0</ele><time>2026-04-17T09:44:49.999Z</time></trkpt><trkpt lat="44.240095580409324" lon="8.288250596647522"><ele>764.0</ele><time>2026-04-17T09:44:50.999Z</time></trkpt><trkpt lat="44.24012325870661" lon="8.288120967457852"><ele>764.0</ele><time>2026-04-17T09:44:51.999Z</time></trkpt><trkpt lat="44.24013302574412" lon="8.287994161930149"><ele>763.8000000000001</ele><time>2026-04-17T09:44:52.999Z</time></trkpt><trkpt lat="44.24011993134578" lon="8.287870563093227"><ele>763.6</ele><time>2026-04-17T09:44:53.999Z</time></trkpt><trkpt lat="44.24009211309556" lon="8.28773694511515"><ele>763.4</ele><time>2026-04-17T09:44:54.999Z</time></trkpt><trkpt lat="44.24004901976523" lon="8.287595914890728"><ele>763.2</ele><time>2026-04-17T09:44:55.999Z</time></trkpt><trkpt lat="44.24001034591975" lon="8.287442244084115"><ele>763.0</ele><time>2026-04-17T09:44:56.999Z</time></trkpt><trkpt lat="44.23998451677136" lon="8.28727486438874"><ele>763.5</ele><time>2026-04-17T09:44:57.999Z</time></trkpt><trkpt lat="44.23997143029232" lon="8.287099923839294"><ele>764.0</ele><time>2026-04-17T09:44:58.999Z</time></trkpt><trkpt lat="44.23996819194161" lon="8.286936270877515"><ele>764.5</ele><time>2026-04-17T09:44:59.999Z</time></trkpt><trkpt lat="44.23994636574476" lon="8.286773078905949"><ele>765.0</ele><time>2026-04-17T09:45:00.999Z</time></trkpt><trkpt lat="44.239928101908546" lon="8.286609381198607"><ele>765.0</ele><time>2026-04-17T09:45:01.999Z</time></trkpt><trkpt lat="44.239909429683905" lon="8.286456310500276"><ele>765.0</ele><time>2026-04-17T09:45:02.999Z</time></trkpt><trkpt lat="44.23988889402946" lon="8.286312453405516"><ele>765.0</ele><time>2026-04-17T09:45:04Z</time></trkpt><trkpt lat="44.23985877081787" lon="8.286182462463714"><ele>765.0</ele><time>2026-04-17T09:45:05Z</time></trkpt><trkpt lat="44.23982516532999" lon="8.2860604558669"><ele>765.0</ele><time>2026-04-17T09:45:06Z</time></trkpt><trkpt lat="44.23978384324208" lon="8.285946885446444"><ele>759.5</ele><time>2026-04-17T09:45:07Z</time></trkpt><trkpt lat="44.23973948070614" lon="8.285825645133052"><ele>754.0</ele><time>2026-04-17T09:45:08Z</time></trkpt><trkpt lat="44.239705947325746" lon="8.285709457080863"><ele>748.5</ele><time>2026-04-17T09:45:09Z</time></trkpt><trkpt lat="44.23969199605518" lon="8.285601701437034"><ele>743.0</ele><time>2026-04-17T09:45:10Z</time></trkpt><trkpt lat="44.23969704541869" lon="8.285485646157323"><ele>737.5</ele><time>2026-04-17T09:45:11Z</time></trkpt><trkpt lat="44.239722690694556" lon="8.285357950202382"><ele>732.0</ele><time>2026-04-17T09:45:12Z</time></trkpt><trkpt lat="44.23977168256454" lon="8.285223212987496"><ele>733.6666666666666</ele><time>2026-04-17T09:45:13Z</time></trkpt><trkpt lat="44.23982829990795" lon="8.285104991936437"><ele>735.3333333333334</ele><time>2026-04-17T09:45:14Z</time></trkpt><trkpt lat="44.23987183508514" lon="8.284999888871026"><ele>737.0</ele><time>2026-04-17T09:45:15Z</time></trkpt><trkpt lat="44.2398964638012" lon="8.284896605249155"><ele>738.6666666666667</ele><time>2026-04-17T09:45:16Z</time></trkpt><trkpt lat="44.23992703064134" lon="8.284801396234773"><ele>740.3333333333334</ele><time>2026-04-17T09:45:17Z</time></trkpt><trkpt lat="44.239957092078804" lon="8.284720450027825"><ele>742.0</ele><time>2026-04-17T09:45:18Z</time></trkpt><trkpt lat="44.24002767266975" lon="8.284584360983668"><ele>742.0</ele><time>2026-04-17T09:45:20Z</time></trkpt><trkpt lat="44.240108708200744" lon="8.284478485095356"><ele>742.0</ele><time>2026-04-17T09:45:22Z</time></trkpt><trkpt lat="44.24015426716141" lon="8.284395795504734"><ele>742.0</ele><time>2026-04-17T09:45:24Z</time></trkpt><trkpt lat="44.24017454641378" lon="8.28430338062714"><ele>742.0</ele><time>2026-04-17T09:45:27Z</time></trkpt><trkpt lat="44.240233484023705" lon="8.284183153370755"><ele>742.0</ele><time>2026-04-17T09:46:34.999Z</time></trkpt><trkpt lat="44.240285728524945" lon="8.284107756467591"><ele>742.0</ele><time>2026-04-17T09:46:35.999Z</time></trkpt><trkpt lat="44.24036226474435" lon="8.28400065421337"><ele>738.6</ele><time>2026-04-17T09:46:36.999Z</time></trkpt><trkpt lat="44.2404275974956" lon="8.283882798420525"><ele>735.2</ele><time>2026-04-17T09:46:37.999Z</time></trkpt><trkpt lat="44.240485374306374" lon="8.283779165931687"><ele>731.8</ele><time>2026-04-17T09:46:38.999Z</time></trkpt><trkpt lat="44.240551861455955" lon="8.283682294778671"><ele>728.4</ele><time>2026-04-17T09:46:39.999Z</time></trkpt><trkpt lat="44.240642289106695" lon="8.283606439502964"><ele>725.0</ele><time>2026-04-17T09:46:40.999Z</time></trkpt><trkpt lat="44.24074951311059" lon="8.283555004304382"><ele>731.0</ele><time>2026-04-17T09:46:41.999Z</time></trkpt><trkpt lat="44.240838590243094" lon="8.283472080917143"><ele>737.0</ele><time>2026-04-17T09:46:42.999Z</time></trkpt><trkpt lat="44.24090100860324" lon="8.283338483808732"><ele>743.0</ele><time>2026-04-17T09:46:43.999Z</time></trkpt><trkpt lat="44.240965545830775" lon="8.28316749927334"><ele>749.0</ele><time>2026-04-17T09:46:44.999Z</time></trkpt><trkpt lat="44.24105060720902" lon="8.283008943616341"><ele>749.0</ele><time>2026-04-17T09:46:45.999Z</time></trkpt><trkpt lat="44.24112594939953" lon="8.282883779121281"><ele>749.0</ele><time>2026-04-17T09:46:46.999Z</time></trkpt><trkpt lat="44.24118607070399" lon="8.282737069094456"><ele>749.0</ele><time>2026-04-17T09:46:47.999Z</time></trkpt><trkpt lat="44.24124134955036" lon="8.282585047634589"><ele>749.0</ele><time>2026-04-17T09:46:48.999Z</time></trkpt><trkpt lat="44.24130509717868" lon="8.282455906683358"><ele>749.0</ele><time>2026-04-17T09:46:49.999Z</time></trkpt><trkpt lat="44.2413761448763" lon="8.282336478184172"><ele>749.0</ele><time>2026-04-17T09:46:50.999Z</time></trkpt><trkpt lat="44.24146416303822" lon="8.282241811027646"><ele>749.0</ele><time>2026-04-17T09:46:51.999Z</time></trkpt><trkpt lat="44.241545050979234" lon="8.282140610000118"><ele>749.0</ele><time>2026-04-17T09:46:52.999Z</time></trkpt><trkpt lat="44.24164223207038" lon="8.282013125562191"><ele>754.75</ele><time>2026-04-17T09:46:53.999Z</time></trkpt><trkpt lat="44.24178192331843" lon="8.281889788203308"><ele>760.5</ele><time>2026-04-17T09:46:54.999Z</time></trkpt><trkpt lat="44.24190519362944" lon="8.281784360055024"><ele>766.25</ele><time>2026-04-17T09:46:55.999Z</time></trkpt><trkpt lat="44.24203457970914" lon="8.281728662759981"><ele>772.0</ele><time>2026-04-17T09:46:56.999Z</time></trkpt><trkpt lat="44.242149981037315" lon="8.281626323272283"><ele>772.0</ele><time>2026-04-17T09:46:57.999Z</time></trkpt><trkpt lat="44.242270904629144" lon="8.281547030733599"><ele>772.0</ele><time>2026-04-17T09:46:58.999Z</time></trkpt><trkpt lat="44.242362423952635" lon="8.281465551729948"><ele>772.0</ele><time>2026-04-17T09:46:59.999Z</time></trkpt><trkpt lat="44.24242500865511" lon="8.281388171427496"><ele>772.0</ele><time>2026-04-17T09:47:00.999Z</time></trkpt><trkpt lat="44.2424729687305" lon="8.281318851122679"><ele>772.0</ele><time>2026-04-17T09:47:01.999Z</time></trkpt><trkpt lat="44.24251042007746" lon="8.281154082084669"><ele>777.4000000000001</ele><time>2026-04-17T09:47:03.999Z</time></trkpt><trkpt lat="44.24250951421688" lon="8.281062971717855"><ele>782.8000000000001</ele><time>2026-04-17T09:47:04.999Z</time></trkpt><trkpt lat="44.242439459474014" lon="8.280994677912432"><ele>788.2</ele><time>2026-04-17T09:47:05.999Z</time></trkpt><trkpt lat="44.242329138969865" lon="8.280971487047623"><ele>793.6</ele><time>2026-04-17T09:47:06.999Z</time></trkpt><trkpt lat="44.242246732347596" lon="8.281027524637544"><ele>799.0</ele><time>2026-04-17T09:47:07.999Z</time></trkpt><trkpt lat="44.24213809535795" lon="8.281055681558454"><ele>799.0</ele><time>2026-04-17T09:47:09Z</time></trkpt><trkpt lat="44.24203132370371" lon="8.281005068405381"><ele>799.0</ele><time>2026-04-17T09:47:10Z</time></trkpt><trkpt lat="44.24196104922621" lon="8.28097722971565"><ele>799.0</ele><time>2026-04-17T09:47:11Z</time></trkpt><trkpt lat="44.24187321370915" lon="8.280942261772353"><ele>799.0</ele><time>2026-04-17T09:47:12Z</time></trkpt><trkpt lat="44.24176695594549" lon="8.280901522656444"><ele>799.0</ele><time>2026-04-17T09:47:13Z</time></trkpt><trkpt lat="44.24164018650198" lon="8.280846417850691"><ele>799.0</ele><time>2026-04-17T09:47:14Z</time></trkpt><trkpt lat="44.24152384914611" lon="8.280768741265462"><ele>799.0</ele><time>2026-04-17T09:47:15Z</time></trkpt><trkpt lat="44.24139596176437" lon="8.280685305539029"><ele>799.0</ele><time>2026-04-17T09:47:16Z</time></trkpt><trkpt lat="44.2412313407157" lon="8.280603144911973"><ele>799.0</ele><time>2026-04-17T09:47:17Z</time></trkpt><trkpt lat="44.24108434688673" lon="8.28055190717252"><ele>800.0</ele><time>2026-04-17T09:47:18Z</time></trkpt><trkpt lat="44.24097163721477" lon="8.28050844951981"><ele>801.0</ele><time>2026-04-17T09:47:19Z</time></trkpt><trkpt lat="44.24088961928107" lon="8.280438333457187"><ele>802.0</ele><time>2026-04-17T09:47:20Z</time></trkpt><trkpt lat="44.240813113823606" lon="8.28038875025028"><ele>803.0</ele><time>2026-04-17T09:47:21Z</time></trkpt><trkpt lat="44.2407851506063" lon="8.280269486951976"><ele>804.0</ele><time>2026-04-17T09:47:22Z</time></trkpt><trkpt lat="44.24077947693475" lon="8.280125908065342"><ele>804.0</ele><time>2026-04-17T09:47:23Z</time></trkpt><trkpt lat="44.240811344877365" lon="8.279960506958552"><ele>804.0</ele><time>2026-04-17T09:47:24Z</time></trkpt><trkpt lat="44.24083456138019" lon="8.279771169755783"><ele>804.0</ele><time>2026-04-17T09:47:25Z</time></trkpt><trkpt lat="44.24087446948959" lon="8.279611062200928"><ele>804.0</ele><time>2026-04-17T09:47:26Z</time></trkpt><trkpt lat="44.24091288965562" lon="8.279469848106297"><ele>805.6</ele><time>2026-04-17T09:47:27Z</time></trkpt><trkpt lat="44.24094275780409" lon="8.279364190756544"><ele>807.2</ele><time>2026-04-17T09:47:28Z</time></trkpt><trkpt lat="44.240966505204796" lon="8.279251128050687"><ele>808.8000000000001</ele><time>2026-04-17T09:47:29Z</time></trkpt><trkpt lat="44.24096499076383" lon="8.27912125059467"><ele>810.4000000000001</ele><time>2026-04-17T09:47:30Z</time></trkpt><trkpt lat="44.24092451276057" lon="8.278984036375446"><ele>812.0</ele><time>2026-04-17T09:47:31Z</time></trkpt><trkpt lat="44.24084016221042" lon="8.278840352024027"><ele>811.4000000000001</ele><time>2026-04-17T09:47:32Z</time></trkpt><trkpt lat="44.24077220160219" lon="8.278681965709923"><ele>810.8000000000001</ele><time>2026-04-17T09:47:33Z</time></trkpt><trkpt lat="44.240705228112006" lon="8.278562403711982"><ele>810.2</ele><time>2026-04-17T09:47:34Z</time></trkpt><trkpt lat="44.240651024307134" lon="8.278466575835123"><ele>809.6</ele><time>2026-04-17T09:47:35Z</time></trkpt><trkpt lat="44.240600086738674" lon="8.278355959698787"><ele>809.0</ele><time>2026-04-17T09:47:36Z</time></trkpt><trkpt lat="44.24052975607622" lon="8.278235816589998"><ele>815.0</ele><time>2026-04-17T09:47:37Z</time></trkpt><trkpt lat="44.24045387176313" lon="8.278090037256833"><ele>821.0</ele><time>2026-04-17T09:47:38Z</time></trkpt><trkpt lat="44.2403199991972" lon="8.27798353504625"><ele>827.0</ele><time>2026-04-17T09:47:39Z</time></trkpt><trkpt lat="44.240204736891336" lon="8.27778313699089"><ele>827.0</ele><time>2026-04-17T09:47:40Z</time></trkpt><trkpt lat="44.240059868127496" lon="8.27758646736986"><ele>827.0</ele><time>2026-04-17T09:47:41Z</time></trkpt><trkpt lat="44.23993277967579" lon="8.277451874068298"><ele>827.0</ele><time>2026-04-17T09:47:42Z</time></trkpt><trkpt lat="44.239838956617135" lon="8.277302082402958"><ele>830.3333333333334</ele><time>2026-04-17T09:47:43Z</time></trkpt><trkpt lat="44.23975426137599" lon="8.277119853837457"><ele>833.6666666666667</ele><time>2026-04-17T09:47:44Z</time></trkpt><trkpt lat="44.23965734378767" lon="8.276925643858673"><ele>837.0</ele><time>2026-04-17T09:47:45Z</time></trkpt><trkpt lat="44.239563433216325" lon="8.276776584271303"><ele>837.0</ele><time>2026-04-17T09:47:46Z</time></trkpt><trkpt lat="44.23943829680243" lon="8.276669140046184"><ele>837.0</ele><time>2026-04-17T09:47:47Z</time></trkpt><trkpt lat="44.239302100832155" lon="8.276576444619268"><ele>837.0</ele><time>2026-04-17T09:47:48Z</time></trkpt><trkpt lat="44.239143681284474" lon="8.276494148077893"><ele>837.0</ele><time>2026-04-17T09:47:49Z</time></trkpt><trkpt lat="44.238968250121964" lon="8.27647171418294"><ele>837.0</ele><time>2026-04-17T09:47:50Z</time></trkpt><trkpt lat="44.238781626368095" lon="8.27647681239322"><ele>837.0</ele><time>2026-04-17T09:47:51Z</time></trkpt><trkpt lat="44.23856953158368" lon="8.276465208892361"><ele>838.25</ele><time>2026-04-17T09:47:52Z</time></trkpt><trkpt lat="44.238395108924514" lon="8.276451640697621"><ele>839.5</ele><time>2026-04-17T09:47:53Z</time></trkpt><trkpt lat="44.23829914527787" lon="8.276432522700128"><ele>840.75</ele><time>2026-04-17T09:47:54Z</time></trkpt><trkpt lat="44.23821726722432" lon="8.276388998262357"><ele>842.0</ele><time>2026-04-17T09:47:55Z</time></trkpt><trkpt lat="44.23816029252131" lon="8.276261807375143"><ele>842.0</ele><time>2026-04-17T09:47:57Z</time></trkpt><trkpt lat="44.23817931614832" lon="8.276141323666005"><ele>842.0</ele><time>2026-04-17T09:47:58Z</time></trkpt><trkpt lat="44.23824068899782" lon="8.275965048971859"><ele>842.0</ele><time>2026-04-17T09:47:59Z</time></trkpt><trkpt lat="44.23832851006095" lon="8.275774563560079"><ele>842.0</ele><time>2026-04-17T09:48:00Z</time></trkpt><trkpt lat="44.23843763899799" lon="8.275613030858585"><ele>839.6666666666667</ele><time>2026-04-17T09:48:01Z</time></trkpt><trkpt lat="44.23855898762604" lon="8.275455080743246"><ele>837.3333333333333</ele><time>2026-04-17T09:48:02Z</time></trkpt><trkpt lat="44.238683603973946" lon="8.27530691983127"><ele>835.0</ele><time>2026-04-17T09:48:03Z</time></trkpt><trkpt lat="44.238817777268395" lon="8.275152023765939"><ele>835.0</ele><time>2026-04-17T09:48:04Z</time></trkpt><trkpt lat="44.23893732757352" lon="8.274971036467285"><ele>835.0</ele><time>2026-04-17T09:48:05Z</time></trkpt><trkpt lat="44.239069554337846" lon="8.274772408882898"><ele>835.0</ele><time>2026-04-17T09:48:06Z</time></trkpt><trkpt lat="44.23918641361492" lon="8.274542716673853"><ele>837.0</ele><time>2026-04-17T09:48:07Z</time></trkpt><trkpt lat="44.23930699869802" lon="8.274327473034713"><ele>839.0</ele><time>2026-04-17T09:48:08Z</time></trkpt><trkpt lat="44.239449069764404" lon="8.274119937643924"><ele>841.0</ele><time>2026-04-17T09:48:09Z</time></trkpt><trkpt lat="44.239591348651864" lon="8.273912306753974"><ele>841.0</ele><time>2026-04-17T09:48:10Z</time></trkpt><trkpt lat="44.239729445692255" lon="8.273689543096523"><ele>841.0</ele><time>2026-04-17T09:48:11Z</time></trkpt><trkpt lat="44.23983863476803" lon="8.273479261752938"><ele>841.0</ele><time>2026-04-17T09:48:12Z</time></trkpt><trkpt lat="44.23992692815427" lon="8.273284703570939"><ele>846.6666666666666</ele><time>2026-04-17T09:48:13Z</time></trkpt><trkpt lat="44.24005653643389" lon="8.273142714377546"><ele>852.3333333333333</ele><time>2026-04-17T09:48:14Z</time></trkpt><trkpt lat="44.24021048794593" lon="8.272971318922638"><ele>858.0</ele><time>2026-04-17T09:48:15Z</time></trkpt><trkpt lat="44.2403810759283" lon="8.272760014352908"><ele>858.0</ele><time>2026-04-17T09:48:16Z</time></trkpt><trkpt lat="44.24058048826936" lon="8.272561554915201"><ele>858.0</ele><time>2026-04-17T09:48:17Z</time></trkpt><trkpt lat="44.24079023963822" lon="8.272343160583459"><ele>862.0</ele><time>2026-04-17T09:48:18Z</time></trkpt><trkpt lat="44.24098392554664" lon="8.272103820826475"><ele>866.0</ele><time>2026-04-17T09:48:19Z</time></trkpt><trkpt lat="44.24114421641538" lon="8.271858222950625"><ele>866.0</ele><time>2026-04-17T09:48:20Z</time></trkpt><trkpt lat="44.24127212932127" lon="8.271655221310413"><ele>866.0</ele><time>2026-04-17T09:48:21Z</time></trkpt><trkpt lat="44.24138669870954" lon="8.27151058400843"><ele>866.0</ele><time>2026-04-17T09:48:22Z</time></trkpt><trkpt lat="44.24151747787932" lon="8.271416220477732"><ele>868.3333333333334</ele><time>2026-04-17T09:48:23Z</time></trkpt><trkpt lat="44.241654872698426" lon="8.27126669233977"><ele>870.6666666666667</ele><time>2026-04-17T09:48:24Z</time></trkpt><trkpt lat="44.24179025896261" lon="8.271129208760518"><ele>873.0</ele><time>2026-04-17T09:48:25Z</time></trkpt><trkpt lat="44.24196076943993" lon="8.271031189567198"><ele>873.0</ele><time>2026-04-17T09:48:26Z</time></trkpt><trkpt lat="44.24215796559244" lon="8.27095400039734"><ele>873.0</ele><time>2026-04-17T09:48:27Z</time></trkpt><trkpt lat="44.24234483488653" lon="8.270919363035215"><ele>873.0</ele><time>2026-04-17T09:48:28Z</time></trkpt><trkpt lat="44.242498930907274" lon="8.270864986040898"><ele>871.3333333333333</ele><time>2026-04-17T09:48:29Z</time></trkpt><trkpt lat="44.24262900187394" lon="8.270754498208932"><ele>869.6666666666666</ele><time>2026-04-17T09:48:30Z</time></trkpt><trkpt lat="44.24277662598439" lon="8.270598899740484"><ele>868.0</ele><time>2026-04-17T09:48:31Z</time></trkpt><trkpt lat="44.242928449589456" lon="8.270388450746236"><ele>868.0</ele><time>2026-04-17T09:48:32Z</time></trkpt><trkpt lat="44.24308743716421" lon="8.270143170334135"><ele>868.0</ele><time>2026-04-17T09:48:33Z</time></trkpt><trkpt lat="44.243297437661276" lon="8.269942656616175"><ele>870.3333333333333</ele><time>2026-04-17T09:48:34Z</time></trkpt><trkpt lat="44.24348095094206" lon="8.269760693589665"><ele>872.6666666666667</ele><time>2026-04-17T09:48:35Z</time></trkpt><trkpt lat="44.2436331214118" lon="8.269610057909059"><ele>875.0</ele><time>2026-04-17T09:48:35.999Z</time></trkpt><trkpt lat="44.24373948920723" lon="8.269441485750617"><ele>875.0</ele><time>2026-04-17T09:48:36.999Z</time></trkpt><trkpt lat="44.243830802337754" lon="8.269244804733347"><ele>875.0</ele><time>2026-04-17T09:48:37.999Z</time></trkpt><trkpt lat="44.24393526747963" lon="8.269011907669709"><ele>875.0</ele><time>2026-04-17T09:48:38.999Z</time></trkpt><trkpt lat="44.24406745070126" lon="8.268751993139206"><ele>881.6666666666667</ele><time>2026-04-17T09:48:39.999Z</time></trkpt><trkpt lat="44.244166034225856" lon="8.268496814582765"><ele>888.3333333333333</ele><time>2026-04-17T09:48:40.999Z</time></trkpt><trkpt lat="44.24421462817266" lon="8.268272156409655"><ele>895.0</ele><time>2026-04-17T09:48:41.999Z</time></trkpt><trkpt lat="44.244314114449445" lon="8.268086262252382"><ele>895.0</ele><time>2026-04-17T09:48:42.999Z</time></trkpt><trkpt lat="44.24442752951626" lon="8.26792643773801"><ele>895.0</ele><time>2026-04-17T09:48:43.999Z</time></trkpt><trkpt lat="44.244531780691794" lon="8.267801753625474"><ele>895.0</ele><time>2026-04-17T09:48:44.999Z</time></trkpt><trkpt lat="44.24463729997983" lon="8.267726185123928"><ele>895.0</ele><time>2026-04-17T09:48:45.999Z</time></trkpt><trkpt lat="44.24475725287663" lon="8.267718949328456"><ele>899.5</ele><time>2026-04-17T09:48:46.999Z</time></trkpt><trkpt lat="44.244896581144616" lon="8.267669828404623"><ele>904.0</ele><time>2026-04-17T09:48:47.999Z</time></trkpt><trkpt lat="44.2450250397232" lon="8.267577405447778"><ele>908.5</ele><time>2026-04-17T09:48:48.999Z</time></trkpt><trkpt lat="44.24512339911165" lon="8.267420505072838"><ele>913.0</ele><time>2026-04-17T09:48:49.999Z</time></trkpt><trkpt lat="44.24520071497328" lon="8.26721972852336"><ele>913.0</ele><time>2026-04-17T09:48:50.999Z</time></trkpt><trkpt lat="44.24529750881764" lon="8.267004662036932"><ele>913.0</ele><time>2026-04-17T09:48:51.999Z</time></trkpt><trkpt lat="44.24539648353318" lon="8.266773209300537"><ele>913.0</ele><time>2026-04-17T09:48:52.999Z</time></trkpt><trkpt lat="44.2454853662067" lon="8.266544182602498"><ele>909.6666666666666</ele><time>2026-04-17T09:48:53.999Z</time></trkpt><trkpt lat="44.24552675734332" lon="8.266316155012547"><ele>906.3333333333333</ele><time>2026-04-17T09:48:54.999Z</time></trkpt><trkpt lat="44.24554549339621" lon="8.266084717012395"><ele>903.0</ele><time>2026-04-17T09:48:55.999Z</time></trkpt><trkpt lat="44.245541403297445" lon="8.26588856373041"><ele>903.0</ele><time>2026-04-17T09:48:56.999Z</time></trkpt><trkpt lat="44.24556226518993" lon="8.265686032007794"><ele>903.0</ele><time>2026-04-17T09:48:57.999Z</time></trkpt><trkpt lat="44.24559858921623" lon="8.26552558714038"><ele>903.0</ele><time>2026-04-17T09:48:58.999Z</time></trkpt><trkpt lat="44.24568802943606" lon="8.26532504579656"><ele>903.0</ele><time>2026-04-17T09:48:59.999Z</time></trkpt><trkpt lat="44.2458028290089" lon="8.265090567588405"><ele>914.5</ele><time>2026-04-17T09:49:00.999Z</time></trkpt><trkpt lat="44.24592183908094" lon="8.264819688945902"><ele>926.0</ele><time>2026-04-17T09:49:01.999Z</time></trkpt><trkpt lat="44.24604103502917" lon="8.264525955115698"><ele>926.0</ele><time>2026-04-17T09:49:02.999Z</time></trkpt><trkpt lat="44.246143645918174" lon="8.264247888334403"><ele>926.0</ele><time>2026-04-17T09:49:03.999Z</time></trkpt><trkpt lat="44.246226417289435" lon="8.264020609061417"><ele>926.0</ele><time>2026-04-17T09:49:04.999Z</time></trkpt><trkpt lat="44.246301516905554" lon="8.263826289469867"><ele>922.0</ele><time>2026-04-17T09:49:05.999Z</time></trkpt><trkpt lat="44.246387719911425" lon="8.263629910401198"><ele>918.0</ele><time>2026-04-17T09:49:06.999Z</time></trkpt><trkpt lat="44.246462607162755" lon="8.263444522644317"><ele>914.0</ele><time>2026-04-17T09:49:07.999Z</time></trkpt><trkpt lat="44.24654728176779" lon="8.263244445692543"><ele>919.3333333333334</ele><time>2026-04-17T09:49:08.999Z</time></trkpt><trkpt lat="44.24667654617701" lon="8.263038366642188"><ele>924.6666666666667</ele><time>2026-04-17T09:49:09.999Z</time></trkpt><trkpt lat="44.24681046701329" lon="8.262826529308727"><ele>930.0</ele><time>2026-04-17T09:49:10.999Z</time></trkpt><trkpt lat="44.24692991592494" lon="8.262631283733153"><ele>930.0</ele><time>2026-04-17T09:49:11.999Z</time></trkpt><trkpt lat="44.247056749874815" lon="8.262413944399308"><ele>930.0</ele><time>2026-04-17T09:49:12.999Z</time></trkpt><trkpt lat="44.2471726134306" lon="8.262195767015436"><ele>930.0</ele><time>2026-04-17T09:49:13.999Z</time></trkpt><trkpt lat="44.24726756907494" lon="8.261964042281424"><ele>934.3333333333333</ele><time>2026-04-17T09:49:15Z</time></trkpt><trkpt lat="44.247342005146805" lon="8.26170638542615"><ele>938.6666666666666</ele><time>2026-04-17T09:49:16Z</time></trkpt><trkpt lat="44.24740042833244" lon="8.261467814868123"><ele>943.0</ele><time>2026-04-17T09:49:17Z</time></trkpt><trkpt lat="44.24744678874832" lon="8.261256527352357"><ele>943.25</ele><time>2026-04-17T09:49:18Z</time></trkpt><trkpt lat="44.24747517534848" lon="8.261054136537577"><ele>943.5</ele><time>2026-04-17T09:49:19Z</time></trkpt><trkpt lat="44.24747127025349" lon="8.260872345708352"><ele>943.75</ele><time>2026-04-17T09:49:20Z</time></trkpt><trkpt lat="44.247432445711894" lon="8.260683899243018"><ele>944.0</ele><time>2026-04-17T09:49:21Z</time></trkpt><trkpt lat="44.24737488486976" lon="8.260453214009326"><ele>945.3333333333334</ele><time>2026-04-17T09:49:22Z</time></trkpt><trkpt lat="44.24731726328237" lon="8.260184623509037"><ele>946.6666666666667</ele><time>2026-04-17T09:49:23Z</time></trkpt><trkpt lat="44.24730470769937" lon="8.259864169649925"><ele>948.0</ele><time>2026-04-17T09:49:24Z</time></trkpt><trkpt lat="44.247292996492085" lon="8.259518471556117"><ele>940.5</ele><time>2026-04-17T09:49:25Z</time></trkpt><trkpt lat="44.2472673078991" lon="8.25918249982319"><ele>933.0</ele><time>2026-04-17T09:49:26Z</time></trkpt><trkpt lat="44.247194898724146" lon="8.258872250216333"><ele>933.0</ele><time>2026-04-17T09:49:27Z</time></trkpt><trkpt lat="44.247117673495794" lon="8.258521702064465"><ele>933.0</ele><time>2026-04-17T09:49:28Z</time></trkpt><trkpt lat="44.247030244053676" lon="8.258172277778144"><ele>935.0</ele><time>2026-04-17T09:49:29Z</time></trkpt><trkpt lat="44.246964897565604" lon="8.257854282153911"><ele>937.0</ele><time>2026-04-17T09:49:30Z</time></trkpt><trkpt lat="44.24693397792009" lon="8.257569222181635"><ele>939.0</ele><time>2026-04-17T09:49:31Z</time></trkpt><trkpt lat="44.24691617856802" lon="8.257262303242237"><ele>940.0</ele><time>2026-04-17T09:49:32Z</time></trkpt><trkpt lat="44.2469051432089" lon="8.25693229631599"><ele>941.0</ele><time>2026-04-17T09:49:33Z</time></trkpt><trkpt lat="44.24689718818649" lon="8.256648867886495"><ele>942.0</ele><time>2026-04-17T09:49:34Z</time></trkpt><trkpt lat="44.24690240769031" lon="8.256390340546996"><ele>942.0</ele><time>2026-04-17T09:49:35Z</time></trkpt><trkpt lat="44.24693555800785" lon="8.256151146983118"><ele>942.0</ele><time>2026-04-17T09:49:36Z</time></trkpt><trkpt lat="44.246977617418565" lon="8.255874357964922"><ele>942.0</ele><time>2026-04-17T09:49:37Z</time></trkpt><trkpt lat="44.24705370193523" lon="8.255589150033334"><ele>942.6666666666667</ele><time>2026-04-17T09:49:38Z</time></trkpt><trkpt lat="44.24710515813395" lon="8.255355497956266"><ele>943.3333333333334</ele><time>2026-04-17T09:49:39Z</time></trkpt><trkpt lat="44.24713694840215" lon="8.255146572617777"><ele>944.0</ele><time>2026-04-17T09:49:40Z</time></trkpt><trkpt lat="44.24713779114064" lon="8.254976433073242"><ele>944.0</ele><time>2026-04-17T09:49:41Z</time></trkpt><trkpt lat="44.24710807548643" lon="8.254832828508981"><ele>944.0</ele><time>2026-04-17T09:49:42Z</time></trkpt><trkpt lat="44.24703415298213" lon="8.254721585640535"><ele>944.0</ele><time>2026-04-17T09:49:43Z</time></trkpt><trkpt lat="44.24692852305222" lon="8.254632690372246"><ele>944.0</ele><time>2026-04-17T09:49:44Z</time></trkpt><trkpt lat="44.246848580118865" lon="8.254518441223508"><ele>944.5</ele><time>2026-04-17T09:49:45Z</time></trkpt><trkpt lat="44.24679552144811" lon="8.254388277445123"><ele>945.0</ele><time>2026-04-17T09:49:46Z</time></trkpt><trkpt lat="44.246836016399946" lon="8.254187749548885"><ele>945.5</ele><time>2026-04-17T09:49:47Z</time></trkpt><trkpt lat="44.24686023111618" lon="8.253930693604762"><ele>946.0</ele><time>2026-04-17T09:49:48Z</time></trkpt><trkpt lat="44.24687868636117" lon="8.253666535852242"><ele>946.0</ele><time>2026-04-17T09:49:49Z</time></trkpt><trkpt lat="44.24690901586724" lon="8.253424830905738"><ele>946.0</ele><time>2026-04-17T09:49:50Z</time></trkpt><trkpt lat="44.24692805102382" lon="8.253208444873785"><ele>946.0</ele><time>2026-04-17T09:49:51Z</time></trkpt><trkpt lat="44.24694929101159" lon="8.25301092062077"><ele>947.5</ele><time>2026-04-17T09:49:52Z</time></trkpt><trkpt lat="44.24695174119833" lon="8.252841323403086"><ele>949.0</ele><time>2026-04-17T09:49:53Z</time></trkpt><trkpt lat="44.24692172607507" lon="8.252672627697072"><ele>950.5</ele><time>2026-04-17T09:49:54Z</time></trkpt><trkpt lat="44.246844328992985" lon="8.252501317110365"><ele>952.0</ele><time>2026-04-17T09:49:55Z</time></trkpt><trkpt lat="44.246722742674606" lon="8.252328156583172"><ele>952.6666666666666</ele><time>2026-04-17T09:49:56Z</time></trkpt><trkpt lat="44.24658217903827" lon="8.252142423335638"><ele>953.3333333333333</ele><time>2026-04-17T09:49:57Z</time></trkpt><trkpt lat="44.24643724031849" lon="8.251962325476587"><ele>954.0</ele><time>2026-04-17T09:49:58Z</time></trkpt><trkpt lat="44.246322900812835" lon="8.25179524866683"><ele>953.5</ele><time>2026-04-17T09:49:59Z</time></trkpt><trkpt lat="44.24624221533116" lon="8.251621666524754"><ele>953.0</ele><time>2026-04-17T09:50:00Z</time></trkpt><trkpt lat="44.24618786945599" lon="8.251445566248472"><ele>952.5</ele><time>2026-04-17T09:50:01Z</time></trkpt><trkpt lat="44.24614793575675" lon="8.25123189339843"><ele>952.0</ele><time>2026-04-17T09:50:02Z</time></trkpt><trkpt lat="44.246103082265975" lon="8.250968493301606"><ele>952.0</ele><time>2026-04-17T09:50:03Z</time></trkpt><trkpt lat="44.246016047642684" lon="8.2507152058453"><ele>952.0</ele><time>2026-04-17T09:50:04Z</time></trkpt><trkpt lat="44.24591714678652" lon="8.250489947784917"><ele>952.0</ele><time>2026-04-17T09:50:05Z</time></trkpt><trkpt lat="44.24579081504124" lon="8.250241346042708"><ele>951.5</ele><time>2026-04-17T09:50:06Z</time></trkpt><trkpt lat="44.24564853577934" lon="8.249960625468646"><ele>951.0</ele><time>2026-04-17T09:50:07Z</time></trkpt><trkpt lat="44.24552480164765" lon="8.24971528770734"><ele>951.0</ele><time>2026-04-17T09:50:08Z</time></trkpt><trkpt lat="44.245414506865686" lon="8.249504095647575"><ele>951.0</ele><time>2026-04-17T09:50:09Z</time></trkpt><trkpt lat="44.24530791009517" lon="8.249315186984983"><ele>951.0</ele><time>2026-04-17T09:50:10Z</time></trkpt><trkpt lat="44.2452092850797" lon="8.24913405361673"><ele>951.0</ele><time>2026-04-17T09:50:11Z</time></trkpt><trkpt lat="44.245116933424676" lon="8.248963288656729"><ele>951.0</ele><time>2026-04-17T09:50:12Z</time></trkpt><trkpt lat="44.245015077431546" lon="8.248815135043339"><ele>951.0</ele><time>2026-04-17T09:50:13Z</time></trkpt><trkpt lat="44.24488430292213" lon="8.248689920586516"><ele>949.25</ele><time>2026-04-17T09:50:14Z</time></trkpt><trkpt lat="44.24474604335564" lon="8.248610949811603"><ele>947.5</ele><time>2026-04-17T09:50:15Z</time></trkpt><trkpt lat="44.244621334274136" lon="8.248547675044527"><ele>945.75</ele><time>2026-04-17T09:50:16Z</time></trkpt><trkpt lat="44.24454149063941" lon="8.248437510404292"><ele>944.0</ele><time>2026-04-17T09:50:17Z</time></trkpt><trkpt lat="44.24447151046497" lon="8.24831594634406"><ele>944.0</ele><time>2026-04-17T09:50:18Z</time></trkpt><trkpt lat="44.24439786012707" lon="8.248154384676504"><ele>944.0</ele><time>2026-04-17T09:50:19Z</time></trkpt><trkpt lat="44.24434281503101" lon="8.247953621710245"><ele>944.0</ele><time>2026-04-17T09:50:20Z</time></trkpt><trkpt lat="44.244283528730335" lon="8.247757053993825"><ele>944.0</ele><time>2026-04-17T09:50:21Z</time></trkpt><trkpt lat="44.24425303996471" lon="8.247543272156888"><ele>945.5</ele><time>2026-04-17T09:50:22Z</time></trkpt><trkpt lat="44.244221298671455" lon="8.247330584185942"><ele>947.0</ele><time>2026-04-17T09:50:23Z</time></trkpt><trkpt lat="44.244194859259686" lon="8.247137211750141"><ele>948.5</ele><time>2026-04-17T09:50:24Z</time></trkpt><trkpt lat="44.244174581010846" lon="8.246955040486613"><ele>950.0</ele><time>2026-04-17T09:50:25Z</time></trkpt><trkpt lat="44.244153764235776" lon="8.246755986241496"><ele>950.0</ele><time>2026-04-17T09:50:26Z</time></trkpt><trkpt lat="44.24413495351624" lon="8.24652460443976"><ele>950.0</ele><time>2026-04-17T09:50:27Z</time></trkpt><trkpt lat="44.244128339687634" lon="8.246288853523875"><ele>950.0</ele><time>2026-04-17T09:50:28Z</time></trkpt><trkpt lat="44.24411937104632" lon="8.246029115816793"><ele>950.3333333333334</ele><time>2026-04-17T09:50:29Z</time></trkpt><trkpt lat="44.24409367955435" lon="8.245791354228775"><ele>950.6666666666667</ele><time>2026-04-17T09:50:30Z</time></trkpt><trkpt lat="44.24405264993277" lon="8.245569052563484"><ele>951.0</ele><time>2026-04-17T09:50:31Z</time></trkpt><trkpt lat="44.244007938895166" lon="8.24533287243396"><ele>949.3333333333333</ele><time>2026-04-17T09:50:32Z</time></trkpt><trkpt lat="44.24397007597494" lon="8.245107619694302"><ele>947.6666666666666</ele><time>2026-04-17T09:50:33Z</time></trkpt><trkpt lat="44.24394603501018" lon="8.244876139745966"><ele>946.0</ele><time>2026-04-17T09:50:34Z</time></trkpt><trkpt lat="44.24394368095799" lon="8.24466337465747"><ele>939.5</ele><time>2026-04-17T09:50:35Z</time></trkpt><trkpt lat="44.243940437042106" lon="8.2444516013579"><ele>933.0</ele><time>2026-04-17T09:50:36Z</time></trkpt><trkpt lat="44.243939955941684" lon="8.244248145716568"><ele>926.5</ele><time>2026-04-17T09:50:36.999Z</time></trkpt><trkpt lat="44.24394753524674" lon="8.24405121038205"><ele>920.0</ele><time>2026-04-17T09:50:37.999Z</time></trkpt><trkpt lat="44.24394904681689" lon="8.243831628071435"><ele>919.75</ele><time>2026-04-17T09:50:38.999Z</time></trkpt><trkpt lat="44.243953426459825" lon="8.243612729785394"><ele>919.5</ele><time>2026-04-17T09:50:39.999Z</time></trkpt><trkpt lat="44.243967102722976" lon="8.24341677431735"><ele>919.25</ele><time>2026-04-17T09:50:40.999Z</time></trkpt><trkpt lat="44.243990718506154" lon="8.243226213146192"><ele>919.0</ele><time>2026-04-17T09:50:41.999Z</time></trkpt><trkpt lat="44.24402355298127" lon="8.243045729639428"><ele>922.0</ele><time>2026-04-17T09:50:42.999Z</time></trkpt><trkpt lat="44.24405577529568" lon="8.242868253610016"><ele>925.0</ele><time>2026-04-17T09:50:43.999Z</time></trkpt><trkpt lat="44.24409416273764" lon="8.242683549463214"><ele>928.0</ele><time>2026-04-17T09:50:44.999Z</time></trkpt><trkpt lat="44.24413917017176" lon="8.2424790276718"><ele>931.0</ele><time>2026-04-17T09:50:45.999Z</time></trkpt><trkpt lat="44.24419795128212" lon="8.242259122904706"><ele>931.0</ele><time>2026-04-17T09:50:46.999Z</time></trkpt><trkpt lat="44.24427440936884" lon="8.242013352418832"><ele>931.0</ele><time>2026-04-17T09:50:47.999Z</time></trkpt><trkpt lat="44.24434376092713" lon="8.241781332164914"><ele>931.0</ele><time>2026-04-17T09:50:48.999Z</time></trkpt><trkpt lat="44.24440427028179" lon="8.241520230967478"><ele>930.6666666666666</ele><time>2026-04-17T09:50:49.999Z</time></trkpt><trkpt lat="44.24445910549147" lon="8.241238471044312"><ele>930.3333333333333</ele><time>2026-04-17T09:50:50.999Z</time></trkpt><trkpt lat="44.24449802117283" lon="8.240927680978904"><ele>930.0</ele><time>2026-04-17T09:50:51.999Z</time></trkpt><trkpt lat="44.24452364041789" lon="8.240601415172003"><ele>932.5</ele><time>2026-04-17T09:50:52.999Z</time></trkpt><trkpt lat="44.24453138612123" lon="8.240275057541789"><ele>935.0</ele><time>2026-04-17T09:50:53.999Z</time></trkpt><trkpt lat="44.24454260893378" lon="8.239955011827968"><ele>937.5</ele><time>2026-04-17T09:50:54.999Z</time></trkpt><trkpt lat="44.24454631186699" lon="8.239609885787713"><ele>940.0</ele><time>2026-04-17T09:50:55.999Z</time></trkpt><trkpt lat="44.24454877447828" lon="8.239281001839888"><ele>940.0</ele><time>2026-04-17T09:50:56.999Z</time></trkpt><trkpt lat="44.24455086325253" lon="8.239015528150656"><ele>940.0</ele><time>2026-04-17T09:50:57.999Z</time></trkpt><trkpt lat="44.24454758417686" lon="8.238758163066047"><ele>940.0</ele><time>2026-04-17T09:50:58.999Z</time></trkpt><trkpt lat="44.244541300646596" lon="8.238516464402371"><ele>941.0</ele><time>2026-04-17T09:50:59.999Z</time></trkpt><trkpt lat="44.24453815214057" lon="8.238286012848405"><ele>942.0</ele><time>2026-04-17T09:51:00.999Z</time></trkpt><trkpt lat="44.24453102521531" lon="8.238085866739155"><ele>943.0</ele><time>2026-04-17T09:51:01.999Z</time></trkpt><trkpt lat="44.244532543209694" lon="8.237919610607813"><ele>944.0</ele><time>2026-04-17T09:51:02.999Z</time></trkpt><trkpt lat="44.24453317065142" lon="8.237766922329117"><ele>945.0000000000001</ele><time>2026-04-17T09:51:03.999Z</time></trkpt><trkpt lat="44.24453074800023" lon="8.237632635453558"><ele>946.0</ele><time>2026-04-17T09:51:04.999Z</time></trkpt><trkpt lat="44.244527115417476" lon="8.237517123126512"><ele>947.0</ele><time>2026-04-17T09:51:05.999Z</time></trkpt><trkpt lat="44.24452311076137" lon="8.23741683344779"><ele>948.0</ele><time>2026-04-17T09:51:06.999Z</time></trkpt><trkpt lat="44.2445176937009" lon="8.237282511592685"><ele>949.0000000000001</ele><time>2026-04-17T09:51:08.999Z</time></trkpt><trkpt lat="44.24451213431725" lon="8.237187659842755"><ele>950.0</ele><time>2026-04-17T09:51:10.999Z</time></trkpt><trkpt lat="44.24449994534183" lon="8.237086832388709"><ele>951.0</ele><time>2026-04-17T09:51:49Z</time></trkpt><trkpt lat="44.244490277345996" lon="8.236977466255597"><ele>952.0</ele><time>2026-04-17T09:51:50Z</time></trkpt><trkpt lat="44.24447402079375" lon="8.236838568532734"><ele>953.0</ele><time>2026-04-17T09:51:51Z</time></trkpt><trkpt lat="44.24445505694105" lon="8.236692755411903"><ele>954.0</ele><time>2026-04-17T09:51:52Z</time></trkpt><trkpt lat="44.24443105488182" lon="8.23652377822536"><ele>955.0</ele><time>2026-04-17T09:51:53Z</time></trkpt><trkpt lat="44.24441359723615" lon="8.23634654584227"><ele>957.25</ele><time>2026-04-17T09:51:54Z</time></trkpt><trkpt lat="44.24442088661151" lon="8.23617490613207"><ele>959.5</ele><time>2026-04-17T09:51:55Z</time></trkpt><trkpt lat="44.244446046456545" lon="8.235995228418686"><ele>961.75</ele><time>2026-04-17T09:51:56Z</time></trkpt><trkpt lat="44.24446877883821" lon="8.235812072654975"><ele>964.0</ele><time>2026-04-17T09:51:57Z</time></trkpt><trkpt lat="44.24447872234832" lon="8.23562862559615"><ele>967.6666666666666</ele><time>2026-04-17T09:51:58Z</time></trkpt><trkpt lat="44.244425558500296" lon="8.235428753821184"><ele>971.3333333333333</ele><time>2026-04-17T09:51:59Z</time></trkpt><trkpt lat="44.24435434477882" lon="8.235211484182296"><ele>975.0</ele><time>2026-04-17T09:52:00Z</time></trkpt><trkpt lat="44.244276673394616" lon="8.234958111104927"><ele>978.0</ele><time>2026-04-17T09:52:01Z</time></trkpt><trkpt lat="44.244176955145676" lon="8.234681846709625"><ele>981.0</ele><time>2026-04-17T09:52:02Z</time></trkpt><trkpt lat="44.24407891936273" lon="8.234401724603039"><ele>984.0</ele><time>2026-04-17T09:52:03Z</time></trkpt><trkpt lat="44.2439864295478" lon="8.234121602443231"><ele>981.3333333333333</ele><time>2026-04-17T09:52:04Z</time></trkpt><trkpt lat="44.24388457790321" lon="8.233842627521645"><ele>978.6666666666666</ele><time>2026-04-17T09:52:05Z</time></trkpt><trkpt lat="44.24376924379756" lon="8.233588282647856"><ele>976.0</ele><time>2026-04-17T09:52:06Z</time></trkpt><trkpt lat="44.243669626320724" lon="8.233338985755225"><ele>979.6666666666666</ele><time>2026-04-17T09:52:07Z</time></trkpt><trkpt lat="44.24357085525893" lon="8.233114116042673"><ele>983.3333333333333</ele><time>2026-04-17T09:52:08Z</time></trkpt><trkpt lat="44.24346983225547" lon="8.232916165745054"><ele>987.0</ele><time>2026-04-17T09:52:09Z</time></trkpt><trkpt lat="44.243365623144335" lon="8.232746530890143"><ele>987.0</ele><time>2026-04-17T09:52:10Z</time></trkpt><trkpt lat="44.24326302492762" lon="8.232610416456328"><ele>987.0</ele><time>2026-04-17T09:52:11Z</time></trkpt><trkpt lat="44.24314571215361" lon="8.23249709599656"><ele>987.0</ele><time>2026-04-17T09:52:12Z</time></trkpt><trkpt lat="44.24300147867813" lon="8.232409463199971"><ele>987.0</ele><time>2026-04-17T09:52:13Z</time></trkpt><trkpt lat="44.24282448837271" lon="8.232327505666802"><ele>992.0</ele><time>2026-04-17T09:52:14Z</time></trkpt><trkpt lat="44.24263432594957" lon="8.232243249670969"><ele>997.0</ele><time>2026-04-17T09:52:15Z</time></trkpt><trkpt lat="44.242458686167026" lon="8.23214698410702"><ele>1002.0</ele><time>2026-04-17T09:52:16Z</time></trkpt><trkpt lat="44.242306124374416" lon="8.232011696681607"><ele>997.0</ele><time>2026-04-17T09:52:17Z</time></trkpt><trkpt lat="44.24215447180575" lon="8.231904013579006"><ele>992.0</ele><time>2026-04-17T09:52:18Z</time></trkpt><trkpt lat="44.24201634175052" lon="8.2317712383829"><ele>987.0</ele><time>2026-04-17T09:52:19Z</time></trkpt><trkpt lat="44.24189278543431" lon="8.23165323318657"><ele>987.0</ele><time>2026-04-17T09:52:20Z</time></trkpt><trkpt lat="44.24178188258194" lon="8.231537057031767"><ele>987.0</ele><time>2026-04-17T09:52:21Z</time></trkpt><trkpt lat="44.241694878018365" lon="8.231380191594106"><ele>987.0</ele><time>2026-04-17T09:52:22Z</time></trkpt><trkpt lat="44.24162502181337" lon="8.23119697318985"><ele>987.0</ele><time>2026-04-17T09:52:23Z</time></trkpt><trkpt lat="44.241564394901474" lon="8.230957542804079"><ele>991.3333333333333</ele><time>2026-04-17T09:52:24Z</time></trkpt><trkpt lat="44.24150897045432" lon="8.230714152073588"><ele>995.6666666666666</ele><time>2026-04-17T09:52:25Z</time></trkpt><trkpt lat="44.24147888065544" lon="8.230505402717071"><ele>1000.0</ele><time>2026-04-17T09:52:26Z</time></trkpt><trkpt lat="44.241480322656635" lon="8.230277699563004"><ele>1001.3333333333333</ele><time>2026-04-17T09:52:27Z</time></trkpt><trkpt lat="44.24148429561075" lon="8.22997738397807"><ele>1002.6666666666667</ele><time>2026-04-17T09:52:28Z</time></trkpt><trkpt lat="44.24151538394816" lon="8.229655417085024"><ele>1004.0</ele><time>2026-04-17T09:52:29Z</time></trkpt><trkpt lat="44.24153088420398" lon="8.22936272429338"><ele>1004.6666666666667</ele><time>2026-04-17T09:52:30Z</time></trkpt><trkpt lat="44.241529940623785" lon="8.229080726089743"><ele>1005.3333333333333</ele><time>2026-04-17T09:52:31Z</time></trkpt><trkpt lat="44.241503377649096" lon="8.228776864266452"><ele>1006.0</ele><time>2026-04-17T09:52:32Z</time></trkpt><trkpt lat="44.24146025601338" lon="8.228439716368081"><ele>995.6666666666666</ele><time>2026-04-17T09:52:33Z</time></trkpt><trkpt lat="44.241452505486876" lon="8.228123349984426"><ele>985.3333333333333</ele><time>2026-04-17T09:52:34Z</time></trkpt><trkpt lat="44.24139925315195" lon="8.227861574861752"><ele>975.0</ele><time>2026-04-17T09:52:35Z</time></trkpt><trkpt lat="44.24135240920445" lon="8.227632436137618"><ele>975.0</ele><time>2026-04-17T09:52:36Z</time></trkpt><trkpt lat="44.24130681161331" lon="8.227435141893256"><ele>975.0</ele><time>2026-04-17T09:52:37Z</time></trkpt><trkpt lat="44.241289114914" lon="8.227240024134415"><ele>975.0</ele><time>2026-04-17T09:52:38Z</time></trkpt><trkpt lat="44.24132659856362" lon="8.227022064514047"><ele>977.6666666666667</ele><time>2026-04-17T09:52:39Z</time></trkpt><trkpt lat="44.24134686157236" lon="8.226791256995494"><ele>980.3333333333334</ele><time>2026-04-17T09:52:40Z</time></trkpt><trkpt lat="44.24137425963382" lon="8.22659273601624"><ele>983.0</ele><time>2026-04-17T09:52:41Z</time></trkpt><trkpt lat="44.24136871651907" lon="8.226388695695322"><ele>984.6666666666667</ele><time>2026-04-17T09:52:42Z</time></trkpt><trkpt lat="44.24133793248371" lon="8.226168664708275"><ele>986.3333333333333</ele><time>2026-04-17T09:52:43Z</time></trkpt><trkpt lat="44.24129761352066" lon="8.22596723111787"><ele>988.0</ele><time>2026-04-17T09:52:44Z</time></trkpt><trkpt lat="44.241304265840434" lon="8.225761502982655"><ele>991.3333333333333</ele><time>2026-04-17T09:52:45Z</time></trkpt><trkpt lat="44.24133827879907" lon="8.225510356477965"><ele>994.6666666666667</ele><time>2026-04-17T09:52:46Z</time></trkpt><trkpt lat="44.24140193919006" lon="8.225215333256552"><ele>998.0</ele><time>2026-04-17T09:52:46.999Z</time></trkpt><trkpt lat="44.24144852492596" lon="8.224949201735358"><ele>990.3333333333334</ele><time>2026-04-17T09:52:47.999Z</time></trkpt><trkpt lat="44.241500500788604" lon="8.224727035270815"><ele>982.6666666666667</ele><time>2026-04-17T09:52:48.999Z</time></trkpt><trkpt lat="44.241526466183956" lon="8.224523383564653"><ele>975.0</ele><time>2026-04-17T09:52:49.999Z</time></trkpt><trkpt lat="44.24152155988378" lon="8.224319509805772"><ele>975.0</ele><time>2026-04-17T09:52:50.999Z</time></trkpt><trkpt lat="44.241471026417315" lon="8.22409541411692"><ele>975.0</ele><time>2026-04-17T09:52:51.999Z</time></trkpt><trkpt lat="44.241381701376106" lon="8.223859932346672"><ele>975.0</ele><time>2026-04-17T09:52:52.999Z</time></trkpt><trkpt lat="44.241291292740605" lon="8.223663825935239"><ele>980.3333333333333</ele><time>2026-04-17T09:52:53.999Z</time></trkpt><trkpt lat="44.24119443968954" lon="8.223504719172437"><ele>985.6666666666666</ele><time>2026-04-17T09:52:54.999Z</time></trkpt><trkpt lat="44.24107554048635" lon="8.22339153701713"><ele>991.0</ele><time>2026-04-17T09:52:55.999Z</time></trkpt><trkpt lat="44.24092043194149" lon="8.223306288615172"><ele>991.0</ele><time>2026-04-17T09:52:56.999Z</time></trkpt><trkpt lat="44.240730350121574" lon="8.223233180351048"><ele>991.0</ele><time>2026-04-17T09:52:57.999Z</time></trkpt><trkpt lat="44.24053180925628" lon="8.223170514572358"><ele>991.0</ele><time>2026-04-17T09:52:58.999Z</time></trkpt><trkpt lat="44.240411578300424" lon="8.22307934107445"><ele>990.75</ele><time>2026-04-17T09:52:59.999Z</time></trkpt><trkpt lat="44.240318666235225" lon="8.222984202125119"><ele>990.5</ele><time>2026-04-17T09:53:00.999Z</time></trkpt><trkpt lat="44.24026169657301" lon="8.222831264500504"><ele>990.25</ele><time>2026-04-17T09:53:01.999Z</time></trkpt><trkpt lat="44.24020319198906" lon="8.222622576548067"><ele>990.0</ele><time>2026-04-17T09:53:02.999Z</time></trkpt><trkpt lat="44.24013990313541" lon="8.22235045678006"><ele>988.0</ele><time>2026-04-17T09:53:03.999Z</time></trkpt><trkpt lat="44.240056297099834" lon="8.222037475997993"><ele>986.0</ele><time>2026-04-17T09:53:04.999Z</time></trkpt><trkpt lat="44.239988392110924" lon="8.221736784612052"><ele>986.0</ele><time>2026-04-17T09:53:05.999Z</time></trkpt><trkpt lat="44.23991189470783" lon="8.22148451233289"><ele>986.0</ele><time>2026-04-17T09:53:06.999Z</time></trkpt><trkpt lat="44.239837991292355" lon="8.221282850593356"><ele>986.0</ele><time>2026-04-17T09:53:07.999Z</time></trkpt><trkpt lat="44.239759223060005" lon="8.221114401108629"><ele>985.0</ele><time>2026-04-17T09:53:08.999Z</time></trkpt><trkpt lat="44.23965160266399" lon="8.220965426094894"><ele>984.0</ele><time>2026-04-17T09:53:09.999Z</time></trkpt><trkpt lat="44.2395051782022" lon="8.22084928961235"><ele>983.0</ele><time>2026-04-17T09:53:10.999Z</time></trkpt><trkpt lat="44.23932883428256" lon="8.220769305452796"><ele>983.0</ele><time>2026-04-17T09:53:11.999Z</time></trkpt><trkpt lat="44.23912020908599" lon="8.22071908833216"><ele>983.0</ele><time>2026-04-17T09:53:12.999Z</time></trkpt><trkpt lat="44.238900374814776" lon="8.220684391601482"><ele>983.0</ele><time>2026-04-17T09:53:13.999Z</time></trkpt><trkpt lat="44.23868433247445" lon="8.220613426296797"><ele>980.0</ele><time>2026-04-17T09:53:14.999Z</time></trkpt><trkpt lat="44.238499919193416" lon="8.220561115550009"><ele>977.0</ele><time>2026-04-17T09:53:15.999Z</time></trkpt><trkpt lat="44.23837863261756" lon="8.220525242032894"><ele>974.0</ele><time>2026-04-17T09:53:16.999Z</time></trkpt><trkpt lat="44.23828957059995" lon="8.220494889887288"><ele>971.0</ele><time>2026-04-17T09:53:17.999Z</time></trkpt><trkpt lat="44.23822513057556" lon="8.220463737464437"><ele>971.0</ele><time>2026-04-17T09:53:18.999Z</time></trkpt><trkpt lat="44.238190884903744" lon="8.220321879750406"><ele>970.9999999999999</ele><time>2026-04-17T09:53:20.999Z</time></trkpt><trkpt lat="44.23815711934472" lon="8.220235006881186"><ele>970.9999999999999</ele><time>2026-04-17T10:15:07Z</time></trkpt><trkpt lat="44.238030412011014" lon="8.220321346207266"><ele>971.0</ele><time>2026-04-17T10:15:09Z</time></trkpt><trkpt lat="44.23794031089004" lon="8.220363801128139"><ele>971.0</ele><time>2026-04-17T10:15:10Z</time></trkpt><trkpt lat="44.237856195245456" lon="8.220342871849052"><ele>973.0</ele><time>2026-04-17T10:15:11Z</time></trkpt><trkpt lat="44.23774485937033" lon="8.220262359011818"><ele>975.0</ele><time>2026-04-17T10:15:12Z</time></trkpt><trkpt lat="44.23761956706209" lon="8.220137097940611"><ele>977.0</ele><time>2026-04-17T10:15:13Z</time></trkpt><trkpt lat="44.2374441496116" lon="8.220029246081754"><ele>977.6666666666667</ele><time>2026-04-17T10:15:14Z</time></trkpt><trkpt lat="44.23725401601401" lon="8.219883377607172"><ele>978.3333333333333</ele><time>2026-04-17T10:15:15Z</time></trkpt><trkpt lat="44.23704710202995" lon="8.21975549296035"><ele>979.0</ele><time>2026-04-17T10:15:16Z</time></trkpt><trkpt lat="44.236858996423464" lon="8.219629720185806"><ele>979.0</ele><time>2026-04-17T10:15:17Z</time></trkpt><trkpt lat="44.236685538414164" lon="8.219506392592443"><ele>979.0</ele><time>2026-04-17T10:15:18Z</time></trkpt><trkpt lat="44.23651871741821" lon="8.219390440336197"><ele>979.0</ele><time>2026-04-17T10:15:19Z</time></trkpt><trkpt lat="44.23633188301133" lon="8.219275139600438"><ele>977.6666666666666</ele><time>2026-04-17T10:15:20Z</time></trkpt><trkpt lat="44.23614286571352" lon="8.219145069091667"><ele>976.3333333333333</ele><time>2026-04-17T10:15:21Z</time></trkpt><trkpt lat="44.23595419977365" lon="8.218998374275458"><ele>975.0</ele><time>2026-04-17T10:15:22Z</time></trkpt><trkpt lat="44.23580512798592" lon="8.218821079164783"><ele>975.0</ele><time>2026-04-17T10:15:23Z</time></trkpt><trkpt lat="44.235647686455394" lon="8.218649456602867"><ele>975.0</ele><time>2026-04-17T10:15:24Z</time></trkpt><trkpt lat="44.235486362962" lon="8.218428945188773"><ele>975.0</ele><time>2026-04-17T10:15:25Z</time></trkpt><trkpt lat="44.23531461909631" lon="8.21824089533428"><ele>976.3333333333333</ele><time>2026-04-17T10:15:26Z</time></trkpt><trkpt lat="44.235124748407834" lon="8.218080155841795"><ele>977.6666666666666</ele><time>2026-04-17T10:15:27Z</time></trkpt><trkpt lat="44.23493182043055" lon="8.217944738825185"><ele>979.0</ele><time>2026-04-17T10:15:28Z</time></trkpt><trkpt lat="44.2347332126397" lon="8.217826916683336"><ele>973.6666666666666</ele><time>2026-04-17T10:15:29Z</time></trkpt><trkpt lat="44.23453519206814" lon="8.217720379319516"><ele>968.3333333333333</ele><time>2026-04-17T10:15:30Z</time></trkpt><trkpt lat="44.23434875813285" lon="8.217589476407595"><ele>963.0</ele><time>2026-04-17T10:15:31Z</time></trkpt><trkpt lat="44.234156975580326" lon="8.217501707572058"><ele>963.0</ele><time>2026-04-17T10:15:32Z</time></trkpt><trkpt lat="44.23398690761024" lon="8.217396640553952"><ele>963.0</ele><time>2026-04-17T10:15:33Z</time></trkpt><trkpt lat="44.233819718911704" lon="8.217283812645698"><ele>963.0</ele><time>2026-04-17T10:15:34Z</time></trkpt><trkpt lat="44.23365649966008" lon="8.217205193096266"><ele>960.6666666666667</ele><time>2026-04-17T10:15:35Z</time></trkpt><trkpt lat="44.233534392611574" lon="8.217053707438005"><ele>958.3333333333334</ele><time>2026-04-17T10:15:36Z</time></trkpt><trkpt lat="44.233411169940894" lon="8.216894367221053"><ele>956.0</ele><time>2026-04-17T10:15:37Z</time></trkpt><trkpt lat="44.23325861201741" lon="8.216710814607714"><ele>953.6666666666667</ele><time>2026-04-17T10:15:38Z</time></trkpt><trkpt lat="44.2331226533232" lon="8.216481837253689"><ele>951.3333333333333</ele><time>2026-04-17T10:15:39Z</time></trkpt><trkpt lat="44.2329736334341" lon="8.216273331863865"><ele>949.0</ele><time>2026-04-17T10:15:40Z</time></trkpt><trkpt lat="44.232844249588375" lon="8.216087869713519"><ele>949.0</ele><time>2026-04-17T10:15:41Z</time></trkpt><trkpt lat="44.2327214795548" lon="8.21589682969881"><ele>949.0</ele><time>2026-04-17T10:15:42Z</time></trkpt><trkpt lat="44.23258680332343" lon="8.215736290505196"><ele>949.0</ele><time>2026-04-17T10:15:43Z</time></trkpt><trkpt lat="44.23247661168822" lon="8.215553662045355"><ele>946.3333333333333</ele><time>2026-04-17T10:15:44Z</time></trkpt><trkpt lat="44.23233619109932" lon="8.215378731709745"><ele>943.6666666666667</ele><time>2026-04-17T10:15:45Z</time></trkpt><trkpt lat="44.23220035718221" lon="8.21524207314072"><ele>941.0</ele><time>2026-04-17T10:15:46Z</time></trkpt><trkpt lat="44.23207452199086" lon="8.215094091087675"><ele>941.0</ele><time>2026-04-17T10:15:47Z</time></trkpt><trkpt lat="44.23195925566487" lon="8.214945725438525"><ele>941.0</ele><time>2026-04-17T10:15:48Z</time></trkpt><trkpt lat="44.23185913704103" lon="8.21480863101311"><ele>941.0</ele><time>2026-04-17T10:15:49Z</time></trkpt><trkpt lat="44.23176034265134" lon="8.214672716469236"><ele>941.0</ele><time>2026-04-17T10:15:50Z</time></trkpt><trkpt lat="44.23167885124982" lon="8.214569535535546"><ele>939.8333333333334</ele><time>2026-04-17T10:15:51Z</time></trkpt><trkpt lat="44.23159984968626" lon="8.214469806606337"><ele>938.6666666666667</ele><time>2026-04-17T10:15:52Z</time></trkpt><trkpt lat="44.23153506218033" lon="8.214381010434836"><ele>937.5</ele><time>2026-04-17T10:15:53Z</time></trkpt><trkpt lat="44.231484259177165" lon="8.214308550878352"><ele>936.3333333333333</ele><time>2026-04-17T10:15:54Z</time></trkpt><trkpt lat="44.23142565885301" lon="8.214226026732096"><ele>935.1666666666666</ele><time>2026-04-17T10:15:56Z</time></trkpt><trkpt lat="44.23139098743292" lon="8.214129719414677"><ele>934.0</ele><time>2026-04-17T10:16:00Z</time></trkpt><trkpt lat="44.23145266327499" lon="8.2139238625161"><ele>937.25</ele><time>2026-04-17T10:16:02Z</time></trkpt><trkpt lat="44.23151642848575" lon="8.213784943626786"><ele>940.5</ele><time>2026-04-17T10:16:03Z</time></trkpt><trkpt lat="44.23158455903555" lon="8.213614224040498"><ele>943.75</ele><time>2026-04-17T10:16:04Z</time></trkpt><trkpt lat="44.23164786322937" lon="8.213391218483498"><ele>947.0</ele><time>2026-04-17T10:16:05Z</time></trkpt><trkpt lat="44.23170182155359" lon="8.213149996789227"><ele>947.0</ele><time>2026-04-17T10:16:06Z</time></trkpt><trkpt lat="44.23173152242305" lon="8.212886213693183"><ele>947.0</ele><time>2026-04-17T10:16:07Z</time></trkpt><trkpt lat="44.23175575594721" lon="8.212630750641342"><ele>947.0</ele><time>2026-04-17T10:16:08Z</time></trkpt><trkpt lat="44.23176006946242" lon="8.212404193715612"><ele>946.5</ele><time>2026-04-17T10:16:09Z</time></trkpt><trkpt lat="44.231765459138835" lon="8.212201836368953"><ele>946.0</ele><time>2026-04-17T10:16:10Z</time></trkpt><trkpt lat="44.231779905711186" lon="8.21200523866967"><ele>945.5</ele><time>2026-04-17T10:16:11Z</time></trkpt><trkpt lat="44.231820086524664" lon="8.211787919062969"><ele>945.0</ele><time>2026-04-17T10:16:12Z</time></trkpt><trkpt lat="44.23187842221103" lon="8.21154204056769"><ele>941.0</ele><time>2026-04-17T10:16:13Z</time></trkpt><trkpt lat="44.2319624415427" lon="8.211304619191242"><ele>937.0</ele><time>2026-04-17T10:16:14Z</time></trkpt><trkpt lat="44.232061051768795" lon="8.21108574550663"><ele>933.0</ele><time>2026-04-17T10:16:15Z</time></trkpt><trkpt lat="44.232159538130574" lon="8.210907631571024"><ele>933.0</ele><time>2026-04-17T10:16:16Z</time></trkpt><trkpt lat="44.232249771178076" lon="8.210722590207078"><ele>933.0</ele><time>2026-04-17T10:16:17Z</time></trkpt><trkpt lat="44.23230599321211" lon="8.210502142813977"><ele>933.0</ele><time>2026-04-17T10:16:18Z</time></trkpt><trkpt lat="44.23233521053613" lon="8.21024057222943"><ele>946.0</ele><time>2026-04-17T10:16:19Z</time></trkpt><trkpt lat="44.23236949763582" lon="8.2099357144468"><ele>959.0</ele><time>2026-04-17T10:16:20Z</time></trkpt><trkpt lat="44.23241907911545" lon="8.209635225034623"><ele>972.0</ele><time>2026-04-17T10:16:21Z</time></trkpt><trkpt lat="44.232481173039844" lon="8.20939286935381"><ele>972.0</ele><time>2026-04-17T10:16:22Z</time></trkpt><trkpt lat="44.232543914203255" lon="8.20917173531656"><ele>972.0</ele><time>2026-04-17T10:16:23Z</time></trkpt><trkpt lat="44.23261445082069" lon="8.208951151949998"><ele>972.0</ele><time>2026-04-17T10:16:24Z</time></trkpt><trkpt lat="44.232670672534624" lon="8.208755372587401"><ele>973.3333333333333</ele><time>2026-04-17T10:16:25Z</time></trkpt><trkpt lat="44.232694394931805" lon="8.208572733387994"><ele>974.6666666666666</ele><time>2026-04-17T10:16:26Z</time></trkpt><trkpt lat="44.23267609625957" lon="8.208351929109595"><ele>976.0</ele><time>2026-04-17T10:16:27Z</time></trkpt><trkpt lat="44.23265283131225" lon="8.208128509348098"><ele>979.75</ele><time>2026-04-17T10:16:28Z</time></trkpt><trkpt lat="44.23262283228501" lon="8.20796106931527"><ele>983.5</ele><time>2026-04-17T10:16:29Z</time></trkpt><trkpt lat="44.23259399164131" lon="8.207818570625593"><ele>987.25</ele><time>2026-04-17T10:16:30Z</time></trkpt><trkpt lat="44.23254818079105" lon="8.207675768340737"><ele>991.0</ele><time>2026-04-17T10:16:31Z</time></trkpt><trkpt lat="44.2324286341284" lon="8.207595294096452"><ele>991.0</ele><time>2026-04-17T10:16:32Z</time></trkpt><trkpt lat="44.232363231287195" lon="8.207520017653232"><ele>990.9999999999999</ele><time>2026-04-17T10:16:33Z</time></trkpt><trkpt lat="44.23231274235668" lon="8.207407166171445"><ele>990.9999999999999</ele><time>2026-04-17T10:16:34Z</time></trkpt><trkpt lat="44.23228611728554" lon="8.20725131412936"><ele>991.0</ele><time>2026-04-17T10:16:35Z</time></trkpt><trkpt lat="44.23227309774821" lon="8.207050262393032"><ele>991.0</ele><time>2026-04-17T10:16:36Z</time></trkpt><trkpt lat="44.232240624469334" lon="8.206811286342209"><ele>983.5</ele><time>2026-04-17T10:16:37Z</time></trkpt><trkpt lat="44.23220700335492" lon="8.206630639048749"><ele>976.0</ele><time>2026-04-17T10:16:38Z</time></trkpt><trkpt lat="44.23216360810604" lon="8.206466232398348"><ele>968.5</ele><time>2026-04-17T10:16:39Z</time></trkpt><trkpt lat="44.2321519219383" lon="8.206301997081646"><ele>961.0</ele><time>2026-04-17T10:16:40Z</time></trkpt><trkpt lat="44.23220248300656" lon="8.20611705916603"><ele>959.3333333333333</ele><time>2026-04-17T10:16:41Z</time></trkpt><trkpt lat="44.2322493948869" lon="8.205884027969168"><ele>957.6666666666667</ele><time>2026-04-17T10:16:42Z</time></trkpt><trkpt lat="44.23230246644515" lon="8.205628946893745"><ele>956.0</ele><time>2026-04-17T10:16:43Z</time></trkpt><trkpt lat="44.232337046718115" lon="8.205384717781891"><ele>971.6666666666667</ele><time>2026-04-17T10:16:44Z</time></trkpt><trkpt lat="44.23239097985834" lon="8.205172723793643"><ele>987.3333333333333</ele><time>2026-04-17T10:16:45Z</time></trkpt><trkpt lat="44.232425803543705" lon="8.204958458703015"><ele>1003.0</ele><time>2026-04-17T10:16:46Z</time></trkpt><trkpt lat="44.232469631048204" lon="8.204699581566178"><ele>1003.0</ele><time>2026-04-17T10:16:47Z</time></trkpt><trkpt lat="44.232515296026044" lon="8.204444217821885"><ele>1003.0</ele><time>2026-04-17T10:16:48Z</time></trkpt><trkpt lat="44.23253834625746" lon="8.204197630731137"><ele>1003.0</ele><time>2026-04-17T10:16:49Z</time></trkpt><trkpt lat="44.23254864654362" lon="8.203964275576059"><ele>1002.6666666666666</ele><time>2026-04-17T10:16:50Z</time></trkpt><trkpt lat="44.232547908422966" lon="8.20375475576036"><ele>1002.3333333333333</ele><time>2026-04-17T10:16:51Z</time></trkpt><trkpt lat="44.23256493606994" lon="8.20353886137247"><ele>1002.0</ele><time>2026-04-17T10:16:52Z</time></trkpt><trkpt lat="44.23260803525785" lon="8.203331417701119"><ele>1004.0</ele><time>2026-04-17T10:16:53Z</time></trkpt><trkpt lat="44.23265727960192" lon="8.203124134480182"><ele>1006.0</ele><time>2026-04-17T10:16:54Z</time></trkpt><trkpt lat="44.23267632295732" lon="8.202944832033362"><ele>1008.0</ele><time>2026-04-17T10:16:55Z</time></trkpt><trkpt lat="44.232677684514194" lon="8.202775178146576"><ele>1010.0</ele><time>2026-04-17T10:16:56Z</time></trkpt><trkpt lat="44.232639292135886" lon="8.202576293960023"><ele>1010.0</ele><time>2026-04-17T10:16:57Z</time></trkpt><trkpt lat="44.23257158613163" lon="8.202358239256782"><ele>1010.0</ele><time>2026-04-17T10:16:58Z</time></trkpt><trkpt lat="44.23252071905945" lon="8.202138746369418"><ele>1010.0</ele><time>2026-04-17T10:16:59Z</time></trkpt><trkpt lat="44.23243186427377" lon="8.20194709309246"><ele>1008.75</ele><time>2026-04-17T10:17:00Z</time></trkpt><trkpt lat="44.232334429987176" lon="8.201785160211509"><ele>1007.5</ele><time>2026-04-17T10:17:01Z</time></trkpt><trkpt lat="44.232265254352185" lon="8.201643913678671"><ele>1006.25</ele><time>2026-04-17T10:17:02Z</time></trkpt><trkpt lat="44.23222941236497" lon="8.201514150202296"><ele>1005.0</ele><time>2026-04-17T10:17:03Z</time></trkpt><trkpt lat="44.23222574651084" lon="8.20136268372145"><ele>1005.0</ele><time>2026-04-17T10:17:04Z</time></trkpt><trkpt lat="44.232244058847435" lon="8.201180508353467"><ele>1005.0</ele><time>2026-04-17T10:17:05Z</time></trkpt><trkpt lat="44.23225921333956" lon="8.200977414009524"><ele>1005.0</ele><time>2026-04-17T10:17:06Z</time></trkpt><trkpt lat="44.23228017741159" lon="8.20079821113256"><ele>1005.0</ele><time>2026-04-17T10:17:07Z</time></trkpt><trkpt lat="44.23226334770753" lon="8.200611208896323"><ele>1009.0</ele><time>2026-04-17T10:17:08Z</time></trkpt><trkpt lat="44.23220618291532" lon="8.200417648136083"><ele>1013.0</ele><time>2026-04-17T10:17:09Z</time></trkpt><trkpt lat="44.232129412126845" lon="8.200224664205217"><ele>1017.0</ele><time>2026-04-17T10:17:10Z</time></trkpt><trkpt lat="44.2320646935675" lon="8.200032332254292"><ele>1017.0</ele><time>2026-04-17T10:17:11Z</time></trkpt><trkpt lat="44.23195301243767" lon="8.199848847773216"><ele>1017.0</ele><time>2026-04-17T10:17:12Z</time></trkpt><trkpt lat="44.23181065703888" lon="8.199648461786714"><ele>1017.0</ele><time>2026-04-17T10:17:13Z</time></trkpt><trkpt lat="44.231642459799204" lon="8.19941180026531"><ele>1027.0</ele><time>2026-04-17T10:17:14Z</time></trkpt><trkpt lat="44.231474736703966" lon="8.199176747272977"><ele>1037.0</ele><time>2026-04-17T10:17:15Z</time></trkpt><trkpt lat="44.23129748700151" lon="8.198931018326789"><ele>1037.3333333333335</ele><time>2026-04-17T10:17:16Z</time></trkpt><trkpt lat="44.23113568679898" lon="8.198705689535235"><ele>1037.6666666666667</ele><time>2026-04-17T10:17:17Z</time></trkpt><trkpt lat="44.23100603621001" lon="8.19851746287704"><ele>1038.0</ele><time>2026-04-17T10:17:18Z</time></trkpt><trkpt lat="44.230890985278165" lon="8.198351932991654"><ele>1038.0</ele><time>2026-04-17T10:17:19Z</time></trkpt><trkpt lat="44.230791499355874" lon="8.198190713915231"><ele>1038.0</ele><time>2026-04-17T10:17:20Z</time></trkpt><trkpt lat="44.23069478331805" lon="8.198051337076087"><ele>1038.0</ele><time>2026-04-17T10:17:21Z</time></trkpt><trkpt lat="44.23059236958224" lon="8.197907251333167"><ele>1038.0</ele><time>2026-04-17T10:17:22Z</time></trkpt><trkpt lat="44.23048128860237" lon="8.197777271882662"><ele>1037.6</ele><time>2026-04-17T10:17:23Z</time></trkpt><trkpt lat="44.23037233658699" lon="8.197671257241543"><ele>1037.1999999999998</ele><time>2026-04-17T10:17:24Z</time></trkpt><trkpt lat="44.23030997499547" lon="8.197566738042516"><ele>1036.8</ele><time>2026-04-17T10:17:25Z</time></trkpt><trkpt lat="44.23025817029865" lon="8.197438649436256"><ele>1036.3999999999999</ele><time>2026-04-17T10:17:26Z</time></trkpt><trkpt lat="44.230238810997875" lon="8.197290382422507"><ele>1036.0</ele><time>2026-04-17T10:17:27Z</time></trkpt><trkpt lat="44.230228891559584" lon="8.19714025963631"><ele>1037.25</ele><time>2026-04-17T10:17:28Z</time></trkpt><trkpt lat="44.23028034290388" lon="8.196984814735574"><ele>1038.5</ele><time>2026-04-17T10:17:29Z</time></trkpt><trkpt lat="44.2303650584406" lon="8.19684534030664"><ele>1039.75</ele><time>2026-04-17T10:17:30Z</time></trkpt><trkpt lat="44.230473374792425" lon="8.19675550047216"><ele>1041.0</ele><time>2026-04-17T10:17:31Z</time></trkpt><trkpt lat="44.23060637737762" lon="8.196722555098578"><ele>1038.0</ele><time>2026-04-17T10:17:32Z</time></trkpt><trkpt lat="44.230749448900895" lon="8.196722879337127"><ele>1035.0</ele><time>2026-04-17T10:17:33Z</time></trkpt><trkpt lat="44.230926914130805" lon="8.196738408558078"><ele>1032.0</ele><time>2026-04-17T10:17:34Z</time></trkpt><trkpt lat="44.231131840860556" lon="8.19674681759655"><ele>1032.0</ele><time>2026-04-17T10:17:35Z</time></trkpt><trkpt lat="44.23131534658666" lon="8.196749666432904"><ele>1032.0</ele><time>2026-04-17T10:17:36Z</time></trkpt><trkpt lat="44.23148713374423" lon="8.196756166510898"><ele>1032.0</ele><time>2026-04-17T10:17:37Z</time></trkpt><trkpt lat="44.231631787543314" lon="8.196744772538057"><ele>1032.3333333333333</ele><time>2026-04-17T10:17:38Z</time></trkpt><trkpt lat="44.23176846973661" lon="8.1966920235434"><ele>1032.6666666666665</ele><time>2026-04-17T10:17:39Z</time></trkpt><trkpt lat="44.23188650256455" lon="8.196583330112919"><ele>1033.0</ele><time>2026-04-17T10:17:40Z</time></trkpt><trkpt lat="44.232019864527274" lon="8.196431131075416"><ele>1032.6666666666665</ele><time>2026-04-17T10:17:41Z</time></trkpt><trkpt lat="44.2321600645118" lon="8.196239891379404"><ele>1032.3333333333333</ele><time>2026-04-17T10:17:42Z</time></trkpt><trkpt lat="44.23230994057967" lon="8.196031055394519"><ele>1032.0</ele><time>2026-04-17T10:17:43Z</time></trkpt><trkpt lat="44.232453907557336" lon="8.19587315392705"><ele>1032.0</ele><time>2026-04-17T10:17:44Z</time></trkpt><trkpt lat="44.23257389570412" lon="8.195706194682677"><ele>1032.0</ele><time>2026-04-17T10:17:45Z</time></trkpt><trkpt lat="44.232677818458875" lon="8.195544147741725"><ele>1032.0</ele><time>2026-04-17T10:17:46Z</time></trkpt><trkpt lat="44.23277675299886" lon="8.195389492067441"><ele>1029.0</ele><time>2026-04-17T10:17:47Z</time></trkpt><trkpt lat="44.232871528301935" lon="8.19526289159079"><ele>1026.0</ele><time>2026-04-17T10:17:48Z</time></trkpt><trkpt lat="44.23295644535321" lon="8.195187960904622"><ele>1023.0</ele><time>2026-04-17T10:17:49Z</time></trkpt><trkpt lat="44.233049837808146" lon="8.195161129230376"><ele>1020.0</ele><time>2026-04-17T10:17:50Z</time></trkpt><trkpt lat="44.23316344692705" lon="8.195199469787037"><ele>1017.0</ele><time>2026-04-17T10:17:51Z</time></trkpt><trkpt lat="44.23330674052195" lon="8.195215561100799"><ele>1017.0</ele><time>2026-04-17T10:17:52Z</time></trkpt><trkpt lat="44.23347313019857" lon="8.195270991759402"><ele>1017.0</ele><time>2026-04-17T10:17:53Z</time></trkpt><trkpt lat="44.23364810143616" lon="8.195315941828035"><ele>1017.0</ele><time>2026-04-17T10:17:54Z</time></trkpt><trkpt lat="44.233805650701164" lon="8.195356907884053"><ele>1017.0</ele><time>2026-04-17T10:17:55Z</time></trkpt><trkpt lat="44.23395016798575" lon="8.195384022739956"><ele>1017.0</ele><time>2026-04-17T10:17:56Z</time></trkpt><trkpt lat="44.23408605076688" lon="8.195428017586954"><ele>1017.0</ele><time>2026-04-17T10:17:57Z</time></trkpt><trkpt lat="44.23422106812787" lon="8.19549798458725"><ele>1017.0</ele><time>2026-04-17T10:17:58Z</time></trkpt><trkpt lat="44.234361216248416" lon="8.195633182904714"><ele>1019.25</ele><time>2026-04-17T10:17:59Z</time></trkpt><trkpt lat="44.23450266483915" lon="8.195715161392934"><ele>1021.5</ele><time>2026-04-17T10:18:00Z</time></trkpt><trkpt lat="44.234639832898" lon="8.195768177150384"><ele>1023.75</ele><time>2026-04-17T10:18:01Z</time></trkpt><trkpt lat="44.23477153118491" lon="8.195802027068492"><ele>1026.0</ele><time>2026-04-17T10:18:02Z</time></trkpt><trkpt lat="44.23490274660494" lon="8.195829889452176"><ele>1026.0</ele><time>2026-04-17T10:18:03Z</time></trkpt><trkpt lat="44.23501677891184" lon="8.195866095663035"><ele>1026.0</ele><time>2026-04-17T10:18:04Z</time></trkpt><trkpt lat="44.23511320174982" lon="8.195886662638593"><ele>1026.0</ele><time>2026-04-17T10:18:05Z</time></trkpt><trkpt lat="44.2351897461144" lon="8.195886708759975"><ele>1026.0</ele><time>2026-04-17T10:18:06Z</time></trkpt><trkpt lat="44.23527567865214" lon="8.19580730184534"><ele>1026.0</ele><time>2026-04-17T10:18:08Z</time></trkpt><trkpt lat="44.235303483101326" lon="8.195694630276718"><ele>1025.25</ele><time>2026-04-17T10:18:09Z</time></trkpt><trkpt lat="44.23523493055403" lon="8.195522019267482"><ele>1024.5</ele><time>2026-04-17T10:18:10Z</time></trkpt><trkpt lat="44.23515791001332" lon="8.195384851342748"><ele>1023.75</ele><time>2026-04-17T10:18:11Z</time></trkpt><trkpt lat="44.235026695787845" lon="8.195261926640022"><ele>1023.0</ele><time>2026-04-17T10:18:12Z</time></trkpt><trkpt lat="44.23488960187856" lon="8.195165488436457"><ele>1019.5</ele><time>2026-04-17T10:18:13Z</time></trkpt><trkpt lat="44.23477936563547" lon="8.195073883463586"><ele>1016.0</ele><time>2026-04-17T10:18:14Z</time></trkpt><trkpt lat="44.23473499014901" lon="8.194992308530539"><ele>1012.5</ele><time>2026-04-17T10:18:15Z</time></trkpt><trkpt lat="44.234708334237325" lon="8.194852553805594"><ele>1009.0</ele><time>2026-04-17T10:18:16Z</time></trkpt><trkpt lat="44.234697478953684" lon="8.194644125557518"><ele>1003.6666666666666</ele><time>2026-04-17T10:18:17Z</time></trkpt><trkpt lat="44.23469286174877" lon="8.194393710246107"><ele>998.3333333333333</ele><time>2026-04-17T10:18:18Z</time></trkpt><trkpt lat="44.23466979924478" lon="8.194113896153006"><ele>993.0</ele><time>2026-04-17T10:18:19Z</time></trkpt><trkpt lat="44.23462489937375" lon="8.193852169556651"><ele>993.0</ele><time>2026-04-17T10:18:20Z</time></trkpt><trkpt lat="44.23458046571786" lon="8.193632104528726"><ele>993.0</ele><time>2026-04-17T10:18:21Z</time></trkpt><trkpt lat="44.234509584491256" lon="8.193405611180378"><ele>993.0</ele><time>2026-04-17T10:18:22Z</time></trkpt><trkpt lat="44.23441947919953" lon="8.193168262758956"><ele>996.0</ele><time>2026-04-17T10:18:23Z</time></trkpt><trkpt lat="44.23432232129128" lon="8.192928348893409"><ele>999.0</ele><time>2026-04-17T10:18:24Z</time></trkpt><trkpt lat="44.23424429739843" lon="8.192733072066902"><ele>1002.0</ele><time>2026-04-17T10:18:25Z</time></trkpt><trkpt lat="44.23417633833729" lon="8.192538546362233"><ele>1004.0</ele><time>2026-04-17T10:18:26Z</time></trkpt><trkpt lat="44.23411521395051" lon="8.19232630975917"><ele>1006.0</ele><time>2026-04-17T10:18:27Z</time></trkpt><trkpt lat="44.23402433936617" lon="8.192123949664174"><ele>1008.0</ele><time>2026-04-17T10:18:28Z</time></trkpt><trkpt lat="44.233916197366426" lon="8.191950483944959"><ele>1000.5</ele><time>2026-04-17T10:18:29Z</time></trkpt><trkpt lat="44.23382746986085" lon="8.191782590644637"><ele>993.0</ele><time>2026-04-17T10:18:30Z</time></trkpt><trkpt lat="44.23376043956064" lon="8.191630940185377"><ele>985.5</ele><time>2026-04-17T10:18:31Z</time></trkpt><trkpt lat="44.23370560818845" lon="8.191484515837521"><ele>978.0</ele><time>2026-04-17T10:18:32Z</time></trkpt><trkpt lat="44.23367097710872" lon="8.191362036997473"><ele>976.5</ele><time>2026-04-17T10:18:33Z</time></trkpt><trkpt lat="44.23366692498409" lon="8.191241336807657"><ele>975.0</ele><time>2026-04-17T10:18:34Z</time></trkpt><trkpt lat="44.233696069084566" lon="8.19111906077576"><ele>973.5</ele><time>2026-04-17T10:18:35Z</time></trkpt><trkpt lat="44.23376217429847" lon="8.190971141962494"><ele>972.0</ele><time>2026-04-17T10:18:36.001Z</time></trkpt><trkpt lat="44.233874579079796" lon="8.190797285564756"><ele>974.0</ele><time>2026-04-17T10:18:37.001Z</time></trkpt><trkpt lat="44.23402616258967" lon="8.19061712308173"><ele>976.0</ele><time>2026-04-17T10:18:38.001Z</time></trkpt><trkpt lat="44.2341652461095" lon="8.190480784583075"><ele>978.0</ele><time>2026-04-17T10:18:39.001Z</time></trkpt><trkpt lat="44.23428624827182" lon="8.190363329749934"><ele>978.0</ele><time>2026-04-17T10:18:40.001Z</time></trkpt><trkpt lat="44.23439594235924" lon="8.190220938323765"><ele>978.0</ele><time>2026-04-17T10:18:41.001Z</time></trkpt><trkpt lat="44.234474326528634" lon="8.190052861529034"><ele>978.0</ele><time>2026-04-17T10:18:42.001Z</time></trkpt><trkpt lat="44.234538134304664" lon="8.189891163287282"><ele>978.0</ele><time>2026-04-17T10:18:43.001Z</time></trkpt><trkpt lat="44.234608922704446" lon="8.189792990415208"><ele>980.0</ele><time>2026-04-17T10:18:44.001Z</time></trkpt><trkpt lat="44.2346394348909" lon="8.189703207747636"><ele>982.0</ele><time>2026-04-17T10:18:45.001Z</time></trkpt><trkpt lat="44.234644701427285" lon="8.189548962674094"><ele>984.0</ele><time>2026-04-17T10:18:47.001Z</time></trkpt><trkpt lat="44.234426106780866" lon="8.189441696775358"><ele>986.0</ele><time>2026-04-17T10:18:48.001Z</time></trkpt><trkpt lat="44.23430014061137" lon="8.189375923688678"><ele>986.0</ele><time>2026-04-17T10:18:49.001Z</time></trkpt><trkpt lat="44.23417493346473" lon="8.189313094236985"><ele>985.9999999999999</ele><time>2026-04-17T10:18:50.001Z</time></trkpt><trkpt lat="44.23406259956259" lon="8.18924923143675"><ele>985.9999999999999</ele><time>2026-04-17T10:18:51.001Z</time></trkpt><trkpt lat="44.23399530407657" lon="8.189173928309458"><ele>986.0</ele><time>2026-04-17T10:18:52.001Z</time></trkpt><trkpt lat="44.23394432363197" lon="8.18908672738969"><ele>986.0</ele><time>2026-04-17T10:18:53.001Z</time></trkpt><trkpt lat="44.23392533986667" lon="8.18893676201573"><ele>980.0</ele><time>2026-04-17T10:18:54.001Z</time></trkpt><trkpt lat="44.23390263287107" lon="8.188756371237258"><ele>974.0</ele><time>2026-04-17T10:18:55.001Z</time></trkpt><trkpt lat="44.23384900865758" lon="8.188589594421794"><ele>968.0</ele><time>2026-04-17T10:18:56.001Z</time></trkpt><trkpt lat="44.233769902245626" lon="8.18847789408544"><ele>962.0</ele><time>2026-04-17T10:18:57.001Z</time></trkpt><trkpt lat="44.23369248185786" lon="8.18833261133586"><ele>960.0</ele><time>2026-04-17T10:18:58.001Z</time></trkpt><trkpt lat="44.233668135465365" lon="8.188174730631903"><ele>958.0</ele><time>2026-04-17T10:18:59.001Z</time></trkpt><trkpt lat="44.23365694877184" lon="8.188002252536059"><ele>956.0</ele><time>2026-04-17T10:19:00.001Z</time></trkpt><trkpt lat="44.23368788166681" lon="8.187814961130089"><ele>954.0</ele><time>2026-04-17T10:19:01.001Z</time></trkpt><trkpt lat="44.23371572335021" lon="8.187685872687586"><ele>954.0</ele><time>2026-04-17T10:19:02.001Z</time></trkpt><trkpt lat="44.23376964385068" lon="8.187545758317839"><ele>954.0</ele><time>2026-04-17T10:19:03.001Z</time></trkpt><trkpt lat="44.2338658095971" lon="8.187365495445794"><ele>954.0</ele><time>2026-04-17T10:19:04.001Z</time></trkpt><trkpt lat="44.23400086941415" lon="8.18717562545587"><ele>957.6666666666667</ele><time>2026-04-17T10:19:05.001Z</time></trkpt><trkpt lat="44.23413562953333" lon="8.187025300860393"><ele>961.3333333333334</ele><time>2026-04-17T10:19:06.001Z</time></trkpt><trkpt lat="44.234263063301825" lon="8.186904914911871"><ele>965.0</ele><time>2026-04-17T10:19:07.001Z</time></trkpt><trkpt lat="44.23437353995185" lon="8.186774099216022"><ele>965.0</ele><time>2026-04-17T10:19:08.001Z</time></trkpt><trkpt lat="44.234460469667354" lon="8.186588302084573"><ele>965.0</ele><time>2026-04-17T10:19:09.001Z</time></trkpt><trkpt lat="44.23454861193443" lon="8.1863495117293"><ele>965.0</ele><time>2026-04-17T10:19:10.001Z</time></trkpt><trkpt lat="44.23462169040474" lon="8.186121677029243"><ele>959.75</ele><time>2026-04-17T10:19:11.001Z</time></trkpt><trkpt lat="44.234680510044015" lon="8.185908999705294"><ele>954.5</ele><time>2026-04-17T10:19:12.001Z</time></trkpt><trkpt lat="44.23471826133933" lon="8.185716465093247"><ele>949.25</ele><time>2026-04-17T10:19:13.001Z</time></trkpt><trkpt lat="44.234731766728444" lon="8.185524894082114"><ele>944.0</ele><time>2026-04-17T10:19:14.001Z</time></trkpt><trkpt lat="44.2347719234919" lon="8.185359853228015"><ele>946.0</ele><time>2026-04-17T10:19:15.001Z</time></trkpt><trkpt lat="44.23483596296927" lon="8.185206176313496"><ele>948.0</ele><time>2026-04-17T10:19:16.001Z</time></trkpt><trkpt lat="44.234932686013686" lon="8.185046938318166"><ele>950.0</ele><time>2026-04-17T10:19:17.001Z</time></trkpt><trkpt lat="44.2350337716854" lon="8.184882750913223"><ele>952.0</ele><time>2026-04-17T10:19:18.001Z</time></trkpt><trkpt lat="44.2351617009886" lon="8.184731185045425"><ele>944.25</ele><time>2026-04-17T10:19:19.001Z</time></trkpt><trkpt lat="44.23529560066901" lon="8.184603543322725"><ele>936.5</ele><time>2026-04-17T10:19:20.001Z</time></trkpt><trkpt lat="44.23540032446018" lon="8.184511330182007"><ele>928.75</ele><time>2026-04-17T10:19:21.001Z</time></trkpt><trkpt lat="44.235492315828914" lon="8.184450001159002"><ele>921.0</ele><time>2026-04-17T10:19:22.001Z</time></trkpt><trkpt lat="44.235585628846025" lon="8.184400346771707"><ele>923.5</ele><time>2026-04-17T10:19:23.001Z</time></trkpt><trkpt lat="44.23569910292186" lon="8.184381947546026"><ele>926.0</ele><time>2026-04-17T10:19:24.001Z</time></trkpt><trkpt lat="44.23581676541077" lon="8.184410434943318"><ele>928.5</ele><time>2026-04-17T10:19:25.001Z</time></trkpt><trkpt lat="44.23592205041016" lon="8.18448357020488"><ele>931.0</ele><time>2026-04-17T10:19:26.001Z</time></trkpt><trkpt lat="44.236050902414775" lon="8.18460309373405"><ele>931.0</ele><time>2026-04-17T10:19:27.001Z</time></trkpt><trkpt lat="44.236210444424984" lon="8.184736147575343"><ele>931.0</ele><time>2026-04-17T10:19:28.001Z</time></trkpt><trkpt lat="44.2363432432993" lon="8.184848593916074"><ele>931.0</ele><time>2026-04-17T10:19:29.001Z</time></trkpt><trkpt lat="44.23645410267493" lon="8.184945172305932"><ele>936.25</ele><time>2026-04-17T10:19:30.001Z</time></trkpt><trkpt lat="44.2365518330232" lon="8.185076669432668"><ele>941.5</ele><time>2026-04-17T10:19:31.001Z</time></trkpt><trkpt lat="44.236628064981105" lon="8.185184889311135"><ele>946.75</ele><time>2026-04-17T10:19:32.001Z</time></trkpt><trkpt lat="44.23670173132212" lon="8.185286664570766"><ele>952.0</ele><time>2026-04-17T10:19:33.001Z</time></trkpt><trkpt lat="44.23679428501576" lon="8.185347935407329"><ele>951.9999999999999</ele><time>2026-04-17T10:19:34.001Z</time></trkpt><trkpt lat="44.236858999106" lon="8.185400364795745"><ele>952.0</ele><time>2026-04-17T10:19:35.001Z</time></trkpt><trkpt lat="44.236935926674356" lon="8.185362293669415"><ele>952.0</ele><time>2026-04-17T10:19:36.001Z</time></trkpt><trkpt lat="44.236981256219345" lon="8.185274689804961"><ele>952.0</ele><time>2026-04-17T10:19:37.001Z</time></trkpt><trkpt lat="44.23698843945465" lon="8.185166671555075"><ele>951.9999999999999</ele><time>2026-04-17T10:19:38.001Z</time></trkpt><trkpt lat="44.23697401867576" lon="8.185028976306336"><ele>952.0</ele><time>2026-04-17T10:19:39.001Z</time></trkpt><trkpt lat="44.23692771414488" lon="8.184864862634427"><ele>948.6666666666666</ele><time>2026-04-17T10:19:40.001Z</time></trkpt><trkpt lat="44.236859416914186" lon="8.184646056397554"><ele>945.3333333333333</ele><time>2026-04-17T10:19:41.001Z</time></trkpt><trkpt lat="44.23677990845155" lon="8.184411643446795"><ele>942.0</ele><time>2026-04-17T10:19:42.001Z</time></trkpt><trkpt lat="44.23670813299926" lon="8.184214220248647"><ele>942.0</ele><time>2026-04-17T10:19:43.001Z</time></trkpt><trkpt lat="44.23667803085515" lon="8.184021054245656"><ele>942.0</ele><time>2026-04-17T10:19:44.001Z</time></trkpt><trkpt lat="44.23665754972253" lon="8.183828656976079"><ele>942.0</ele><time>2026-04-17T10:19:45.001Z</time></trkpt><trkpt lat="44.2366412416179" lon="8.183642952949501"><ele>942.0</ele><time>2026-04-17T10:19:46.001Z</time></trkpt><trkpt lat="44.23661268254383" lon="8.18346191263739"><ele>940.5</ele><time>2026-04-17T10:19:47.001Z</time></trkpt><trkpt lat="44.23658232946319" lon="8.1832787635957"><ele>939.0</ele><time>2026-04-17T10:19:48.001Z</time></trkpt><trkpt lat="44.23659198708566" lon="8.183110493438578"><ele>937.5</ele><time>2026-04-17T10:19:49.001Z</time></trkpt><trkpt lat="44.23662630293402" lon="8.182900019041627"><ele>936.0</ele><time>2026-04-17T10:19:50.001Z</time></trkpt><trkpt lat="44.23667964634252" lon="8.182711191187234"><ele>931.3333333333333</ele><time>2026-04-17T10:19:51.001Z</time></trkpt><trkpt lat="44.2367500665883" lon="8.182512854092618"><ele>926.6666666666666</ele><time>2026-04-17T10:19:52.001Z</time></trkpt><trkpt lat="44.23684138189323" lon="8.182294107598251"><ele>922.0</ele><time>2026-04-17T10:19:53.001Z</time></trkpt><trkpt lat="44.23694518246157" lon="8.18208947243266"><ele>916.25</ele><time>2026-04-17T10:19:54.001Z</time></trkpt><trkpt lat="44.23704566009539" lon="8.181928168944912"><ele>910.5</ele><time>2026-04-17T10:19:55.001Z</time></trkpt><trkpt lat="44.23713020478472" lon="8.181800720935618"><ele>904.75</ele><time>2026-04-17T10:19:56.001Z</time></trkpt><trkpt lat="44.23721412482764" lon="8.181702338524149"><ele>899.0</ele><time>2026-04-17T10:19:57.001Z</time></trkpt><trkpt lat="44.23730012294188" lon="8.181664465145449"><ele>903.25</ele><time>2026-04-17T10:19:58.001Z</time></trkpt><trkpt lat="44.23737508517054" lon="8.181698817812245"><ele>907.5</ele><time>2026-04-17T10:19:59.001Z</time></trkpt><trkpt lat="44.23745044270824" lon="8.181776133342437"><ele>911.75</ele><time>2026-04-17T10:20:00.001Z</time></trkpt><trkpt lat="44.23754214748103" lon="8.181908890642458"><ele>916.0</ele><time>2026-04-17T10:20:01.001Z</time></trkpt><trkpt lat="44.23767259898422" lon="8.182049250015703"><ele>916.0</ele><time>2026-04-17T10:20:02.001Z</time></trkpt><trkpt lat="44.23787248040868" lon="8.182175049449075"><ele>916.0</ele><time>2026-04-17T10:20:03.001Z</time></trkpt><trkpt lat="44.23805423936282" lon="8.182268627166502"><ele>916.0</ele><time>2026-04-17T10:20:04.001Z</time></trkpt><trkpt lat="44.2381893555652" lon="8.182320826403886"><ele>917.0</ele><time>2026-04-17T10:20:05.001Z</time></trkpt><trkpt lat="44.23829358652886" lon="8.182391467688037"><ele>917.9999999999999</ele><time>2026-04-17T10:20:06.001Z</time></trkpt><trkpt lat="44.23837894374156" lon="8.18244212971871"><ele>918.9999999999999</ele><time>2026-04-17T10:20:07.001Z</time></trkpt><trkpt lat="44.23845577082552" lon="8.182451151533792"><ele>920.0</ele><time>2026-04-17T10:20:08.001Z</time></trkpt><trkpt lat="44.238534673482455" lon="8.182396552734259"><ele>921.0</ele><time>2026-04-17T10:20:09.001Z</time></trkpt><trkpt lat="44.23857063480942" lon="8.182273907256784"><ele>921.0</ele><time>2026-04-17T10:20:10.001Z</time></trkpt><trkpt lat="44.23857243545706" lon="8.182118811665246"><ele>921.0</ele><time>2026-04-17T10:20:11.001Z</time></trkpt><trkpt lat="44.23853775561449" lon="8.181911761645667"><ele>921.0</ele><time>2026-04-17T10:20:12.001Z</time></trkpt><trkpt lat="44.238524644270505" lon="8.18170381723788"><ele>921.0</ele><time>2026-04-17T10:20:13.001Z</time></trkpt><trkpt lat="44.238523659644066" lon="8.181485102735559"><ele>921.6666666666667</ele><time>2026-04-17T10:20:14.001Z</time></trkpt><trkpt lat="44.23851130856481" lon="8.18127109518521"><ele>922.3333333333334</ele><time>2026-04-17T10:20:15.001Z</time></trkpt><trkpt lat="44.238436296465075" lon="8.181053015937618"><ele>923.0</ele><time>2026-04-17T10:20:16.001Z</time></trkpt><trkpt lat="44.238350523379374" lon="8.180876283378787"><ele>923.0</ele><time>2026-04-17T10:20:17.001Z</time></trkpt><trkpt lat="44.23825643600338" lon="8.180716479816812"><ele>923.0</ele><time>2026-04-17T10:20:18.001Z</time></trkpt><trkpt lat="44.23814978862348" lon="8.180597233075234"><ele>923.0</ele><time>2026-04-17T10:20:19.001Z</time></trkpt><trkpt lat="44.23803930042108" lon="8.180504351955728"><ele>923.0</ele><time>2026-04-17T10:20:20.001Z</time></trkpt><trkpt lat="44.237968020010356" lon="8.180407850700616"><ele>913.5</ele><time>2026-04-17T10:20:21.001Z</time></trkpt><trkpt lat="44.23793332082565" lon="8.180242223642718"><ele>904.0</ele><time>2026-04-17T10:20:22.001Z</time></trkpt><trkpt lat="44.237943746925744" lon="8.180046981395398"><ele>894.5</ele><time>2026-04-17T10:20:23.001Z</time></trkpt><trkpt lat="44.23794950657131" lon="8.179854612344743"><ele>885.0</ele><time>2026-04-17T10:20:24.001Z</time></trkpt><trkpt lat="44.23789951237349" lon="8.179690459522847"><ele>885.0</ele><time>2026-04-17T10:20:25.001Z</time></trkpt><trkpt lat="44.23781846206244" lon="8.17953837082097"><ele>885.0</ele><time>2026-04-17T10:20:26.001Z</time></trkpt><trkpt lat="44.23777869146775" lon="8.179346231853987"><ele>885.0</ele><time>2026-04-17T10:20:27.001Z</time></trkpt><trkpt lat="44.237787463106564" lon="8.179118106690344"><ele>885.0</ele><time>2026-04-17T10:20:28.001Z</time></trkpt><trkpt lat="44.237801174626135" lon="8.178878787335156"><ele>886.6666666666667</ele><time>2026-04-17T10:20:29.001Z</time></trkpt><trkpt lat="44.23777691471188" lon="8.178635744651418"><ele>888.3333333333334</ele><time>2026-04-17T10:20:30.001Z</time></trkpt><trkpt lat="44.23769469312481" lon="8.178374859202059"><ele>890.0</ele><time>2026-04-17T10:20:31.001Z</time></trkpt><trkpt lat="44.23762739737685" lon="8.17812481081423"><ele>891.3333333333334</ele><time>2026-04-17T10:20:32.001Z</time></trkpt><trkpt lat="44.237578869473126" lon="8.177903529884137"><ele>892.6666666666667</ele><time>2026-04-17T10:20:33.001Z</time></trkpt><trkpt lat="44.23754848852605" lon="8.177680200246893"><ele>894.0</ele><time>2026-04-17T10:20:34.001Z</time></trkpt><trkpt lat="44.23750798799957" lon="8.177491623766501"><ele>894.0</ele><time>2026-04-17T10:20:35.001Z</time></trkpt><trkpt lat="44.23744783225288" lon="8.177347705002067"><ele>894.0000000000001</ele><time>2026-04-17T10:20:36.001Z</time></trkpt><trkpt lat="44.23740775681837" lon="8.177225957839285"><ele>894.0000000000001</ele><time>2026-04-17T10:20:37.001Z</time></trkpt><trkpt lat="44.23742602539142" lon="8.177093078692872"><ele>894.0</ele><time>2026-04-17T10:20:38.001Z</time></trkpt><trkpt lat="44.237481033845285" lon="8.176921798242114"><ele>894.0</ele><time>2026-04-17T10:20:39.001Z</time></trkpt><trkpt lat="44.237539491765865" lon="8.176705638107784"><ele>896.0</ele><time>2026-04-17T10:20:40.001Z</time></trkpt><trkpt lat="44.237550200005906" lon="8.17647554660949"><ele>898.0</ele><time>2026-04-17T10:20:41.001Z</time></trkpt><trkpt lat="44.23752727589946" lon="8.176242754868392"><ele>900.0</ele><time>2026-04-17T10:20:42.002Z</time></trkpt><trkpt lat="44.23747894448175" lon="8.175990589413251"><ele>900.0</ele><time>2026-04-17T10:20:43.002Z</time></trkpt><trkpt lat="44.23741545258614" lon="8.17575818730672"><ele>900.0</ele><time>2026-04-17T10:20:44.002Z</time></trkpt><trkpt lat="44.237355006648436" lon="8.17556805843804"><ele>900.0</ele><time>2026-04-17T10:20:45.002Z</time></trkpt><trkpt lat="44.23727289270797" lon="8.175383045814927"><ele>888.3333333333333</ele><time>2026-04-17T10:20:46.002Z</time></trkpt><trkpt lat="44.237154447666754" lon="8.175228068869746"><ele>876.6666666666666</ele><time>2026-04-17T10:20:47.002Z</time></trkpt><trkpt lat="44.23701186812312" lon="8.175084110083219"><ele>865.0</ele><time>2026-04-17T10:20:48.002Z</time></trkpt><trkpt lat="44.23689420703139" lon="8.17495134328288"><ele>863.6</ele><time>2026-04-17T10:20:49.002Z</time></trkpt><trkpt lat="44.23681453054913" lon="8.174841669296516"><ele>862.2</ele><time>2026-04-17T10:20:50.002Z</time></trkpt><trkpt lat="44.23675361201495" lon="8.174737641321457"><ele>860.8</ele><time>2026-04-17T10:20:51.002Z</time></trkpt><trkpt lat="44.236728162701816" lon="8.174620935992152"><ele>859.4</ele><time>2026-04-17T10:20:52.002Z</time></trkpt><trkpt lat="44.23675598160838" lon="8.17448153934872"><ele>858.0</ele><time>2026-04-17T10:20:53.001Z</time></trkpt><trkpt lat="44.236828408280104" lon="8.174320321507668"><ele>858.0</ele><time>2026-04-17T10:20:54.001Z</time></trkpt><trkpt lat="44.23693570923273" lon="8.174129934171827"><ele>858.0</ele><time>2026-04-17T10:20:55.001Z</time></trkpt><trkpt lat="44.23704964823796" lon="8.173901254375155"><ele>858.0</ele><time>2026-04-17T10:20:56.001Z</time></trkpt><trkpt lat="44.23714860281905" lon="8.173716478183508"><ele>859.25</ele><time>2026-04-17T10:20:57.001Z</time></trkpt><trkpt lat="44.237208245422366" lon="8.1735372828151"><ele>860.5</ele><time>2026-04-17T10:20:58.001Z</time></trkpt><trkpt lat="44.23726870461335" lon="8.173394396810888"><ele>861.75</ele><time>2026-04-17T10:20:59.001Z</time></trkpt><trkpt lat="44.2373405934874" lon="8.173278679290519"><ele>863.0</ele><time>2026-04-17T10:21:00.001Z</time></trkpt><trkpt lat="44.23743417075694" lon="8.173198149611599"><ele>863.0</ele><time>2026-04-17T10:21:01.001Z</time></trkpt><trkpt lat="44.237563184329645" lon="8.173166016318806"><ele>863.0</ele><time>2026-04-17T10:21:02.001Z</time></trkpt><trkpt lat="44.237724033815574" lon="8.173180478869964"><ele>863.0</ele><time>2026-04-17T10:21:03.001Z</time></trkpt><trkpt lat="44.23788335781017" lon="8.173238634671629"><ele>863.0</ele><time>2026-04-17T10:21:04.001Z</time></trkpt><trkpt lat="44.23802179159238" lon="8.173293788776123"><ele>863.0</ele><time>2026-04-17T10:21:05.001Z</time></trkpt><trkpt lat="44.23814447066526" lon="8.173336183427315"><ele>863.0</ele><time>2026-04-17T10:21:06.001Z</time></trkpt><trkpt lat="44.23825761851048" lon="8.173378106701625"><ele>863.0</ele><time>2026-04-17T10:21:07.001Z</time></trkpt><trkpt lat="44.238347047028725" lon="8.173421097446784"><ele>864.6666666666667</ele><time>2026-04-17T10:21:08.001Z</time></trkpt><trkpt lat="44.23841888411795" lon="8.173426999098993"><ele>866.3333333333334</ele><time>2026-04-17T10:21:09.001Z</time></trkpt><trkpt lat="44.23847765955146" lon="8.173378787769467"><ele>868.0</ele><time>2026-04-17T10:21:10.001Z</time></trkpt><trkpt lat="44.23850491695113" lon="8.173287825493276"><ele>869.6666666666667</ele><time>2026-04-17T10:21:11.001Z</time></trkpt><trkpt lat="44.23849986201214" lon="8.173169346886501"><ele>871.3333333333334</ele><time>2026-04-17T10:21:12.001Z</time></trkpt><trkpt lat="44.238475411512646" lon="8.173034307074879"><ele>873.0</ele><time>2026-04-17T10:21:13.001Z</time></trkpt><trkpt lat="44.23846124602704" lon="8.172903013432247"><ele>867.0</ele><time>2026-04-17T10:21:14.001Z</time></trkpt><trkpt lat="44.23849714988873" lon="8.172794250022452"><ele>861.0</ele><time>2026-04-17T10:21:15.001Z</time></trkpt><trkpt lat="44.23857069124521" lon="8.172672869042186"><ele>855.0</ele><time>2026-04-17T10:21:16.001Z</time></trkpt><trkpt lat="44.23865731062587" lon="8.172555934993936"><ele>849.0</ele><time>2026-04-17T10:21:17.001Z</time></trkpt><trkpt lat="44.23873523871882" lon="8.172402594637422"><ele>843.75</ele><time>2026-04-17T10:21:18.001Z</time></trkpt><trkpt lat="44.23879883024129" lon="8.172231803815448"><ele>838.5</ele><time>2026-04-17T10:21:19.001Z</time></trkpt><trkpt lat="44.238854018315756" lon="8.172057701995373"><ele>833.25</ele><time>2026-04-17T10:21:20.001Z</time></trkpt><trkpt lat="44.238904633686396" lon="8.171897952882398"><ele>828.0</ele><time>2026-04-17T10:21:21.001Z</time></trkpt><trkpt lat="44.238963213983446" lon="8.171744450863056"><ele>828.4</ele><time>2026-04-17T10:21:22.001Z</time></trkpt><trkpt lat="44.239032331805824" lon="8.171619472253843"><ele>828.8</ele><time>2026-04-17T10:21:23.001Z</time></trkpt><trkpt lat="44.23910766530418" lon="8.171521113912153"><ele>829.2</ele><time>2026-04-17T10:21:24.001Z</time></trkpt><trkpt lat="44.239190809197844" lon="8.17146974325508"><ele>829.6</ele><time>2026-04-17T10:21:25.001Z</time></trkpt><trkpt lat="44.23928833034313" lon="8.171488550272924"><ele>830.0</ele><time>2026-04-17T10:21:26.001Z</time></trkpt><trkpt lat="44.23939832599414" lon="8.171542131275483"><ele>833.0</ele><time>2026-04-17T10:21:27.001Z</time></trkpt><trkpt lat="44.23950883581391" lon="8.171622353139217"><ele>836.0</ele><time>2026-04-17T10:21:28.001Z</time></trkpt><trkpt lat="44.23962278308057" lon="8.171715605506458"><ele>839.0</ele><time>2026-04-17T10:21:29.001Z</time></trkpt><trkpt lat="44.23973194093537" lon="8.171786693054017"><ele>842.0</ele><time>2026-04-17T10:21:30.001Z</time></trkpt><trkpt lat="44.23984782057817" lon="8.171868452783405"><ele>842.0</ele><time>2026-04-17T10:21:31.001Z</time></trkpt><trkpt lat="44.23997208990094" lon="8.17198894476137"><ele>842.0</ele><time>2026-04-17T10:21:32.001Z</time></trkpt><trkpt lat="44.24011163077655" lon="8.172095181716443"><ele>842.0</ele><time>2026-04-17T10:21:33.001Z</time></trkpt><trkpt lat="44.24027001954072" lon="8.172153816636275"><ele>842.0</ele><time>2026-04-17T10:21:35.001Z</time></trkpt><trkpt lat="44.2403799792738" lon="8.172159895038613"><ele>842.0</ele><time>2026-04-17T10:21:36.001Z</time></trkpt><trkpt lat="44.240495761888546" lon="8.17219453801537"><ele>842.0</ele><time>2026-04-17T10:21:37.001Z</time></trkpt><trkpt lat="44.240611624124966" lon="8.17223739558312"><ele>842.0</ele><time>2026-04-17T10:21:38.001Z</time></trkpt><trkpt lat="44.240683382372886" lon="8.172244592697576"><ele>842.0</ele><time>2026-04-17T10:21:39.001Z</time></trkpt><trkpt lat="44.2408097878642" lon="8.172233503469188"><ele>842.0</ele><time>2026-04-17T10:21:41.001Z</time></trkpt><trkpt lat="44.240906398134285" lon="8.172237427654077"><ele>842.0</ele><time>2026-04-17T10:21:43.001Z</time></trkpt><trkpt lat="44.24059595265103" lon="8.171892296184547"><ele>842.0</ele><time>2026-04-17T10:21:44.001Z</time></trkpt><trkpt lat="44.240475144990384" lon="8.17169126081945"><ele>842.0</ele><time>2026-04-17T10:21:45.001Z</time></trkpt><trkpt lat="44.24038608249134" lon="8.171542636266656"><ele>842.0</ele><time>2026-04-17T10:21:46.001Z</time></trkpt><trkpt lat="44.2403251796328" lon="8.171411307616014"><ele>842.0</ele><time>2026-04-17T10:21:47.001Z</time></trkpt><trkpt lat="44.24026969884149" lon="8.171282915109431"><ele>841.75</ele><time>2026-04-17T10:21:48.001Z</time></trkpt><trkpt lat="44.24019476662" lon="8.171148392125493"><ele>841.5</ele><time>2026-04-17T10:21:49.001Z</time></trkpt><trkpt lat="44.24012826470461" lon="8.17099991896343"><ele>841.25</ele><time>2026-04-17T10:21:50.001Z</time></trkpt><trkpt lat="44.240048770045064" lon="8.17079273650939"><ele>841.0</ele><time>2026-04-17T10:21:51.001Z</time></trkpt><trkpt lat="44.23995895977715" lon="8.170579342755246"><ele>843.6666666666666</ele><time>2026-04-17T10:21:52.001Z</time></trkpt><trkpt lat="44.23986616217239" lon="8.170362958536382"><ele>846.3333333333333</ele><time>2026-04-17T10:21:53.001Z</time></trkpt><trkpt lat="44.23974639567483" lon="8.170159144018283"><ele>849.0</ele><time>2026-04-17T10:21:54.001Z</time></trkpt><trkpt lat="44.23961673092282" lon="8.169962268994196"><ele>840.3333333333333</ele><time>2026-04-17T10:21:55.001Z</time></trkpt><trkpt lat="44.23950227259697" lon="8.169793345903273"><ele>831.6666666666666</ele><time>2026-04-17T10:21:56.001Z</time></trkpt><trkpt lat="44.23937131096887" lon="8.169635524513376"><ele>823.0</ele><time>2026-04-17T10:21:57.001Z</time></trkpt><trkpt lat="44.23919535284448" lon="8.169486801736499"><ele>823.0</ele><time>2026-04-17T10:21:58.001Z</time></trkpt><trkpt lat="44.23903301696644" lon="8.169320243898655"><ele>823.0</ele><time>2026-04-17T10:21:59.001Z</time></trkpt><trkpt lat="44.23890259729712" lon="8.169162432252463"><ele>823.0</ele><time>2026-04-17T10:22:00.001Z</time></trkpt><trkpt lat="44.23882373007117" lon="8.169079633340164"><ele>818.4</ele><time>2026-04-17T10:22:01.001Z</time></trkpt><trkpt lat="44.2387254227926" lon="8.168986395174272"><ele>813.8</ele><time>2026-04-17T10:22:02.001Z</time></trkpt><trkpt lat="44.23865335578696" lon="8.168892446554034"><ele>809.2</ele><time>2026-04-17T10:22:03.001Z</time></trkpt><trkpt lat="44.238619788199635" lon="8.168814247150971"><ele>804.6</ele><time>2026-04-17T10:22:04.001Z</time></trkpt><trkpt lat="44.238676656108915" lon="8.168700881248625"><ele>800.0</ele><time>2026-04-17T10:22:05.001Z</time></trkpt><trkpt lat="44.23877939015661" lon="8.168633363078188"><ele>800.0</ele><time>2026-04-17T10:22:06.001Z</time></trkpt><trkpt lat="44.238921675726544" lon="8.168541303769022"><ele>800.0</ele><time>2026-04-17T10:22:07.001Z</time></trkpt><trkpt lat="44.2390492885885" lon="8.168453502212033"><ele>800.0</ele><time>2026-04-17T10:22:08.001Z</time></trkpt><trkpt lat="44.239204851398355" lon="8.16831327507507"><ele>804.6</ele><time>2026-04-17T10:22:09.001Z</time></trkpt><trkpt lat="44.23931160268462" lon="8.168191978158465"><ele>809.2</ele><time>2026-04-17T10:22:10.001Z</time></trkpt><trkpt lat="44.239378105366335" lon="8.16809813794981"><ele>813.8</ele><time>2026-04-17T10:22:11.001Z</time></trkpt><trkpt lat="44.239417509843555" lon="8.167968451714385"><ele>818.4</ele><time>2026-04-17T10:22:12.001Z</time></trkpt><trkpt lat="44.23937097134988" lon="8.167844467244292"><ele>823.0</ele><time>2026-04-17T10:22:14.001Z</time></trkpt><trkpt lat="44.239299210503574" lon="8.16781697982506"><ele>823.0</ele><time>2026-04-17T10:22:15.001Z</time></trkpt><trkpt lat="44.23919310611611" lon="8.167838581710333"><ele>823.0</ele><time>2026-04-17T10:22:16.001Z</time></trkpt><trkpt lat="44.239060890157795" lon="8.167918375201001"><ele>823.0</ele><time>2026-04-17T10:22:17.001Z</time></trkpt><trkpt lat="44.23893297291781" lon="8.16801231537855"><ele>823.0</ele><time>2026-04-17T10:22:18.001Z</time></trkpt><trkpt lat="44.23879786762872" lon="8.168064486707975"><ele>817.0</ele><time>2026-04-17T10:22:19.001Z</time></trkpt><trkpt lat="44.23867093217622" lon="8.168071213934423"><ele>811.0</ele><time>2026-04-17T10:22:20.001Z</time></trkpt><trkpt lat="44.238498484183296" lon="8.168035724319093"><ele>805.0</ele><time>2026-04-17T10:22:21.001Z</time></trkpt><trkpt lat="44.238347001821374" lon="8.168000677226757"><ele>805.0</ele><time>2026-04-17T10:22:22.001Z</time></trkpt><trkpt lat="44.23821523422734" lon="8.167969554455754"><ele>805.0</ele><time>2026-04-17T10:22:23.001Z</time></trkpt><trkpt lat="44.238109389180096" lon="8.167911450155632"><ele>805.0</ele><time>2026-04-17T10:22:24.001Z</time></trkpt><trkpt lat="44.23801364731188" lon="8.167814014920252"><ele>805.0</ele><time>2026-04-17T10:22:25.001Z</time></trkpt><trkpt lat="44.23790660197938" lon="8.16765470727716"><ele>801.0</ele><time>2026-04-17T10:22:26.001Z</time></trkpt><trkpt lat="44.23780080016264" lon="8.167499948825071"><ele>797.0</ele><time>2026-04-17T10:22:27.001Z</time></trkpt><trkpt lat="44.23771242733536" lon="8.167360780516603"><ele>793.0</ele><time>2026-04-17T10:22:28.001Z</time></trkpt><trkpt lat="44.237621608087224" lon="8.167176502472097"><ele>789.0</ele><time>2026-04-17T10:22:29.001Z</time></trkpt><trkpt lat="44.23753932268077" lon="8.166923730451948"><ele>789.0</ele><time>2026-04-17T10:22:30.001Z</time></trkpt><trkpt lat="44.23748255603858" lon="8.166685956437659"><ele>789.0</ele><time>2026-04-17T10:22:31.001Z</time></trkpt><trkpt lat="44.23743130466687" lon="8.166483635931225"><ele>789.0</ele><time>2026-04-17T10:22:32.001Z</time></trkpt><trkpt lat="44.237340342477545" lon="8.166294597308536"><ele>789.3333333333333</ele><time>2026-04-17T10:22:33.001Z</time></trkpt><trkpt lat="44.23722262614856" lon="8.166162625833078"><ele>789.6666666666666</ele><time>2026-04-17T10:22:34.001Z</time></trkpt><trkpt lat="44.23705475191306" lon="8.166039529833505"><ele>790.0</ele><time>2026-04-17T10:22:35.001Z</time></trkpt><trkpt lat="44.23688438534954" lon="8.165947390116287"><ele>790.0</ele><time>2026-04-17T10:22:36.001Z</time></trkpt><trkpt lat="44.23672740823402" lon="8.165874613776817"><ele>790.0</ele><time>2026-04-17T10:22:37.001Z</time></trkpt><trkpt lat="44.236579497384476" lon="8.165826164340373"><ele>790.0</ele><time>2026-04-17T10:22:38.001Z</time></trkpt><trkpt lat="44.23643558528357" lon="8.165812934158225"><ele>786.5</ele><time>2026-04-17T10:22:39.001Z</time></trkpt><trkpt lat="44.23629960182116" lon="8.16583177935591"><ele>783.0</ele><time>2026-04-17T10:22:40.001Z</time></trkpt><trkpt lat="44.23618752824675" lon="8.1658271824993"><ele>779.5</ele><time>2026-04-17T10:22:41.001Z</time></trkpt><trkpt lat="44.236040859935265" lon="8.165790017380896"><ele>776.0</ele><time>2026-04-17T10:22:42.001Z</time></trkpt><trkpt lat="44.23591223836204" lon="8.165715838126934"><ele>774.25</ele><time>2026-04-17T10:22:43.001Z</time></trkpt><trkpt lat="44.235812147679944" lon="8.165632529949283"><ele>772.5</ele><time>2026-04-17T10:22:44.001Z</time></trkpt><trkpt lat="44.23572561749034" lon="8.165519331596526"><ele>770.75</ele><time>2026-04-17T10:22:45.001Z</time></trkpt><trkpt lat="44.23564113258946" lon="8.16532065602689"><ele>769.0</ele><time>2026-04-17T10:22:46.001Z</time></trkpt><trkpt lat="44.23554563882243" lon="8.165094400015205"><ele>769.0</ele><time>2026-04-17T10:22:47.001Z</time></trkpt><trkpt lat="44.23544698279077" lon="8.164931201999083"><ele>769.0</ele><time>2026-04-17T10:22:48.002Z</time></trkpt><trkpt lat="44.2353087606397" lon="8.16479709708455"><ele>769.0</ele><time>2026-04-17T10:22:49.002Z</time></trkpt><trkpt lat="44.235171996422764" lon="8.164663097924839"><ele>768.4000000000001</ele><time>2026-04-17T10:22:50.002Z</time></trkpt><trkpt lat="44.23506919434552" lon="8.1645475036765"><ele>767.8</ele><time>2026-04-17T10:22:51.002Z</time></trkpt><trkpt lat="44.23499486805156" lon="8.164469505243506"><ele>767.2</ele><time>2026-04-17T10:22:52.002Z</time></trkpt><trkpt lat="44.23493542568986" lon="8.164368424065076"><ele>766.5999999999999</ele><time>2026-04-17T10:22:53.002Z</time></trkpt><trkpt lat="44.23493008450668" lon="8.164214066563792"><ele>766.0</ele><time>2026-04-17T10:22:54.002Z</time></trkpt><trkpt lat="44.234959103482495" lon="8.164035024244605"><ele>764.0</ele><time>2026-04-17T10:22:55.002Z</time></trkpt><trkpt lat="44.23503653406016" lon="8.163836065616909"><ele>762.0</ele><time>2026-04-17T10:22:56.002Z</time></trkpt><trkpt lat="44.23514438905736" lon="8.16362564178794"><ele>760.0</ele><time>2026-04-17T10:22:57.002Z</time></trkpt><trkpt lat="44.23523525707189" lon="8.163450442137034"><ele>760.0</ele><time>2026-04-17T10:22:58.002Z</time></trkpt><trkpt lat="44.2352678929162" lon="8.16326939116122"><ele>760.0</ele><time>2026-04-17T10:22:59.002Z</time></trkpt><trkpt lat="44.23525224276523" lon="8.16308782217878"><ele>760.0</ele><time>2026-04-17T10:23:00.002Z</time></trkpt><trkpt lat="44.23519255906035" lon="8.162934689811523"><ele>760.0</ele><time>2026-04-17T10:23:01.002Z</time></trkpt><trkpt lat="44.235095651382764" lon="8.162802708574329"><ele>762.6666666666667</ele><time>2026-04-17T10:23:02.002Z</time></trkpt><trkpt lat="44.234961865352815" lon="8.16269023795895"><ele>765.3333333333334</ele><time>2026-04-17T10:23:03.002Z</time></trkpt><trkpt lat="44.234798901269606" lon="8.162611492353555"><ele>768.0</ele><time>2026-04-17T10:23:04.002Z</time></trkpt><trkpt lat="44.23466266085808" lon="8.162537460896221"><ele>768.25</ele><time>2026-04-17T10:23:05.002Z</time></trkpt><trkpt lat="44.23459657044426" lon="8.16240969172121"><ele>768.5</ele><time>2026-04-17T10:23:06.002Z</time></trkpt><trkpt lat="44.23455250746005" lon="8.162252865165485"><ele>768.75</ele><time>2026-04-17T10:23:07.002Z</time></trkpt><trkpt lat="44.23455081203058" lon="8.162042112109177"><ele>769.0</ele><time>2026-04-17T10:23:08.002Z</time></trkpt><trkpt lat="44.234588176430265" lon="8.1617813617717"><ele>763.6666666666666</ele><time>2026-04-17T10:23:09.002Z</time></trkpt><trkpt lat="44.23463158502954" lon="8.161521347056807"><ele>758.3333333333333</ele><time>2026-04-17T10:23:10.002Z</time></trkpt><trkpt lat="44.23465331137061" lon="8.161275779819217"><ele>753.0</ele><time>2026-04-17T10:23:11.002Z</time></trkpt><trkpt lat="44.23464096779422" lon="8.161050489940322"><ele>753.0</ele><time>2026-04-17T10:23:12.002Z</time></trkpt><trkpt lat="44.234614092645096" lon="8.160835324201742"><ele>753.0</ele><time>2026-04-17T10:23:13.002Z</time></trkpt><trkpt lat="44.23458117950675" lon="8.160629379610137"><ele>753.0</ele><time>2026-04-17T10:23:14.002Z</time></trkpt><trkpt lat="44.23455146343252" lon="8.160437101313182"><ele>753.0</ele><time>2026-04-17T10:23:15.001Z</time></trkpt><trkpt lat="44.234518915923644" lon="8.160257621490047"><ele>752.25</ele><time>2026-04-17T10:23:16.001Z</time></trkpt><trkpt lat="44.23446237573696" lon="8.160085797601933"><ele>751.5</ele><time>2026-04-17T10:23:17.001Z</time></trkpt><trkpt lat="44.23438099422304" lon="8.159935494790675"><ele>750.75</ele><time>2026-04-17T10:23:18.001Z</time></trkpt><trkpt lat="44.23428959868314" lon="8.159785876341886"><ele>750.0</ele><time>2026-04-17T10:23:19.001Z</time></trkpt><trkpt lat="44.234198327656316" lon="8.159612089788395"><ele>750.0</ele><time>2026-04-17T10:23:20.001Z</time></trkpt><trkpt lat="44.23412976630392" lon="8.159432524751741"><ele>750.0</ele><time>2026-04-17T10:23:21.001Z</time></trkpt><trkpt lat="44.234085605718704" lon="8.159222454926374"><ele>750.0</ele><time>2026-04-17T10:23:22.001Z</time></trkpt><trkpt lat="44.23404988644343" lon="8.159037125837347"><ele>750.0</ele><time>2026-04-17T10:23:23.001Z</time></trkpt><trkpt lat="44.23402103564729" lon="8.15885208798545"><ele>749.3333333333334</ele><time>2026-04-17T10:23:24.001Z</time></trkpt><trkpt lat="44.23401572156915" lon="8.158672396850292"><ele>748.6666666666667</ele><time>2026-04-17T10:23:25.001Z</time></trkpt><trkpt lat="44.23403698910186" lon="8.158460420831869"><ele>748.0</ele><time>2026-04-17T10:23:26.001Z</time></trkpt><trkpt lat="44.23406395731165" lon="8.158228534779061"><ele>745.6666666666667</ele><time>2026-04-17T10:23:27.001Z</time></trkpt><trkpt lat="44.23406492371083" lon="8.158013825628002"><ele>743.3333333333334</ele><time>2026-04-17T10:23:28.001Z</time></trkpt><trkpt lat="44.23405468301223" lon="8.157808953317277"><ele>741.0</ele><time>2026-04-17T10:23:29.001Z</time></trkpt><trkpt lat="44.234045427423986" lon="8.157596965156477"><ele>736.6666666666666</ele><time>2026-04-17T10:23:30.001Z</time></trkpt><trkpt lat="44.234061225085476" lon="8.157353528120376"><ele>732.3333333333333</ele><time>2026-04-17T10:23:31.001Z</time></trkpt><trkpt lat="44.2341086591139" lon="8.157088445856738"><ele>728.0</ele><time>2026-04-17T10:23:32.001Z</time></trkpt><trkpt lat="44.234173312216065" lon="8.156810605723354"><ele>728.0</ele><time>2026-04-17T10:23:33.001Z</time></trkpt><trkpt lat="44.23424421532003" lon="8.156544485963348"><ele>728.0</ele><time>2026-04-17T10:23:34.001Z</time></trkpt><trkpt lat="44.234307850027825" lon="8.156289743539038"><ele>728.0</ele><time>2026-04-17T10:23:35.001Z</time></trkpt><trkpt lat="44.234364545269706" lon="8.156037811169496"><ele>726.3333333333333</ele><time>2026-04-17T10:23:36.001Z</time></trkpt><trkpt lat="44.23441174006205" lon="8.155795329830282"><ele>724.6666666666666</ele><time>2026-04-17T10:23:37.001Z</time></trkpt><trkpt lat="44.23444427071396" lon="8.155568779404257"><ele>723.0</ele><time>2026-04-17T10:23:38.001Z</time></trkpt><trkpt lat="44.23445777408064" lon="8.155347108480031"><ele>721.6666666666666</ele><time>2026-04-17T10:23:39.001Z</time></trkpt><trkpt lat="44.23445345471817" lon="8.15513405137309"><ele>720.3333333333333</ele><time>2026-04-17T10:23:40.001Z</time></trkpt><trkpt lat="44.23442820647938" lon="8.154905395455634"><ele>719.0</ele><time>2026-04-17T10:23:41.001Z</time></trkpt><trkpt lat="44.234390097296625" lon="8.154656010302105"><ele>718.3333333333333</ele><time>2026-04-17T10:23:42.001Z</time></trkpt><trkpt lat="44.2343124357696" lon="8.154402142900175"><ele>717.6666666666666</ele><time>2026-04-17T10:23:43.001Z</time></trkpt><trkpt lat="44.23421631189143" lon="8.154154670926818"><ele>717.0</ele><time>2026-04-17T10:23:44.001Z</time></trkpt><trkpt lat="44.23412835456599" lon="8.153929518119329"><ele>716.3333333333334</ele><time>2026-04-17T10:23:45.001Z</time></trkpt><trkpt lat="44.23406531110402" lon="8.153719947792938"><ele>715.6666666666667</ele><time>2026-04-17T10:23:46.001Z</time></trkpt><trkpt lat="44.23402063305075" lon="8.15351837985853"><ele>715.0</ele><time>2026-04-17T10:23:47.001Z</time></trkpt><trkpt lat="44.23400351501951" lon="8.153313880041045"><ele>714.6666666666667</ele><time>2026-04-17T10:23:48.001Z</time></trkpt><trkpt lat="44.23401120861758" lon="8.153083093926927"><ele>714.3333333333334</ele><time>2026-04-17T10:23:49.001Z</time></trkpt><trkpt lat="44.23401952678173" lon="8.152808785264307"><ele>714.0</ele><time>2026-04-17T10:23:50.001Z</time></trkpt><trkpt lat="44.23400316765464" lon="8.152534057887198"><ele>712.0</ele><time>2026-04-17T10:23:51.001Z</time></trkpt><trkpt lat="44.23394426552824" lon="8.152251904849154"><ele>710.0</ele><time>2026-04-17T10:23:52.001Z</time></trkpt><trkpt lat="44.23385144298132" lon="8.151932545880621"><ele>710.0</ele><time>2026-04-17T10:23:53.001Z</time></trkpt><trkpt lat="44.23374404822983" lon="8.151595473530278"><ele>710.0</ele><time>2026-04-17T10:23:54.001Z</time></trkpt><trkpt lat="44.233658832643535" lon="8.151296725893824"><ele>711.3333333333333</ele><time>2026-04-17T10:23:55.001Z</time></trkpt><trkpt lat="44.233587298444725" lon="8.151029834356589"><ele>712.6666666666666</ele><time>2026-04-17T10:23:56.001Z</time></trkpt><trkpt lat="44.2335111458489" lon="8.15076879069295"><ele>714.0</ele><time>2026-04-17T10:23:57.001Z</time></trkpt><trkpt lat="44.233410666878314" lon="8.150523027804958"><ele>713.0</ele><time>2026-04-17T10:23:58.001Z</time></trkpt><trkpt lat="44.2332755419683" lon="8.150285310740967"><ele>712.0</ele><time>2026-04-17T10:23:59.001Z</time></trkpt><trkpt lat="44.23313535045884" lon="8.150070656771915"><ele>711.0</ele><time>2026-04-17T10:24:00.001Z</time></trkpt><trkpt lat="44.233019196719276" lon="8.149882661618369"><ele>710.0</ele><time>2026-04-17T10:24:01.001Z</time></trkpt><trkpt lat="44.23292361545351" lon="8.149709878586297"><ele>709.0</ele><time>2026-04-17T10:24:02.001Z</time></trkpt><trkpt lat="44.23284653813587" lon="8.149536700285358"><ele>708.0</ele><time>2026-04-17T10:24:03.001Z</time></trkpt><trkpt lat="44.23279585821569" lon="8.149356411638145"><ele>707.0</ele><time>2026-04-17T10:24:04.001Z</time></trkpt><trkpt lat="44.23277635155736" lon="8.14914206668791"><ele>706.0</ele><time>2026-04-17T10:24:05.001Z</time></trkpt><trkpt lat="44.23279491279233" lon="8.148866261099167"><ele>705.0</ele><time>2026-04-17T10:24:06.001Z</time></trkpt><trkpt lat="44.232837481660376" lon="8.148549520493338"><ele>704.0</ele><time>2026-04-17T10:24:07.001Z</time></trkpt><trkpt lat="44.23287234321087" lon="8.148248676077092"><ele>703.3333333333333</ele><time>2026-04-17T10:24:08.001Z</time></trkpt><trkpt lat="44.23290044341707" lon="8.148006627661882"><ele>702.6666666666666</ele><time>2026-04-17T10:24:09.001Z</time></trkpt><trkpt lat="44.232916879505254" lon="8.147766356790234"><ele>702.0</ele><time>2026-04-17T10:24:10.001Z</time></trkpt><trkpt lat="44.232942148201474" lon="8.14754973372637"><ele>701.3333333333334</ele><time>2026-04-17T10:24:11.001Z</time></trkpt><trkpt lat="44.23298540217555" lon="8.14732785321652"><ele>700.6666666666667</ele><time>2026-04-17T10:24:12.001Z</time></trkpt><trkpt lat="44.233058710732145" lon="8.147063515016821"><ele>700.0</ele><time>2026-04-17T10:24:13.001Z</time></trkpt><trkpt lat="44.233166798565996" lon="8.146779438498797"><ele>702.0</ele><time>2026-04-17T10:24:14.001Z</time></trkpt><trkpt lat="44.23327375427803" lon="8.146514776799314"><ele>704.0</ele><time>2026-04-17T10:24:15.001Z</time></trkpt><trkpt lat="44.23337397257044" lon="8.146286088656396"><ele>706.0</ele><time>2026-04-17T10:24:16.001Z</time></trkpt><trkpt lat="44.23345900733594" lon="8.146084527018417"><ele>706.0</ele><time>2026-04-17T10:24:17.001Z</time></trkpt><trkpt lat="44.23353472107042" lon="8.145904699946238"><ele>706.0</ele><time>2026-04-17T10:24:18.001Z</time></trkpt><trkpt lat="44.2335837159742" lon="8.145714067242602"><ele>706.0</ele><time>2026-04-17T10:24:19.001Z</time></trkpt><trkpt lat="44.23358335596592" lon="8.145480707135954"><ele>705.0</ele><time>2026-04-17T10:24:20.001Z</time></trkpt><trkpt lat="44.233574440092696" lon="8.145200415378222"><ele>704.0</ele><time>2026-04-17T10:24:21.001Z</time></trkpt><trkpt lat="44.23355168428101" lon="8.144894743392875"><ele>703.0</ele><time>2026-04-17T10:24:22.001Z</time></trkpt><trkpt lat="44.2335339814057" lon="8.14455908300556"><ele>701.6666666666667</ele><time>2026-04-17T10:24:23.001Z</time></trkpt><trkpt lat="44.23352404689567" lon="8.144239943229769"><ele>700.3333333333334</ele><time>2026-04-17T10:24:24.001Z</time></trkpt><trkpt lat="44.233523788430915" lon="8.14394874728144"><ele>699.0</ele><time>2026-04-17T10:24:25.001Z</time></trkpt><trkpt lat="44.233525824084346" lon="8.143677925780045"><ele>698.3333333333334</ele><time>2026-04-17T10:24:26.001Z</time></trkpt><trkpt lat="44.23352160453772" lon="8.14341325022259"><ele>697.6666666666667</ele><time>2026-04-17T10:24:27.001Z</time></trkpt><trkpt lat="44.23351136438635" lon="8.143155017208144"><ele>697.0</ele><time>2026-04-17T10:24:28.001Z</time></trkpt><trkpt lat="44.23350056099408" lon="8.142913297336772"><ele>696.0</ele><time>2026-04-17T10:24:29.001Z</time></trkpt><trkpt lat="44.233497759462146" lon="8.142688758473243"><ele>695.0</ele><time>2026-04-17T10:24:30.001Z</time></trkpt><trkpt lat="44.23349840802658" lon="8.142468054160542"><ele>694.0</ele><time>2026-04-17T10:24:31.001Z</time></trkpt><trkpt lat="44.233512587300886" lon="8.142237055043946"><ele>693.0</ele><time>2026-04-17T10:24:32.001Z</time></trkpt><trkpt lat="44.23354210621988" lon="8.142005919869055"><ele>692.0</ele><time>2026-04-17T10:24:33.001Z</time></trkpt><trkpt lat="44.23357821103749" lon="8.141789066664705"><ele>691.0</ele><time>2026-04-17T10:24:34.001Z</time></trkpt><trkpt lat="44.2336122539571" lon="8.141582939816258"><ele>690.0</ele><time>2026-04-17T10:24:35.001Z</time></trkpt><trkpt lat="44.233648716541474" lon="8.141390951549267"><ele>689.0</ele><time>2026-04-17T10:24:36.001Z</time></trkpt><trkpt lat="44.23368120362589" lon="8.1411992982735"><ele>688.0</ele><time>2026-04-17T10:24:37.001Z</time></trkpt><trkpt lat="44.233714835481706" lon="8.141011991932167"><ele>687.0</ele><time>2026-04-17T10:24:38.001Z</time></trkpt><trkpt lat="44.23374153017199" lon="8.140810271700834"><ele>686.6666666666666</ele><time>2026-04-17T10:24:39.001Z</time></trkpt><trkpt lat="44.233767476280406" lon="8.140591714444877"><ele>686.3333333333333</ele><time>2026-04-17T10:24:40.001Z</time></trkpt><trkpt lat="44.233790610567254" lon="8.14036394721828"><ele>686.0</ele><time>2026-04-17T10:24:41.001Z</time></trkpt><trkpt lat="44.23380968055203" lon="8.140123999656867"><ele>686.0</ele><time>2026-04-17T10:24:42.001Z</time></trkpt><trkpt lat="44.23382413176682" lon="8.139871184133494"><ele>686.0</ele><time>2026-04-17T10:24:43.001Z</time></trkpt><trkpt lat="44.23383256191119" lon="8.139612636943406"><ele>686.0</ele><time>2026-04-17T10:24:44.001Z</time></trkpt><trkpt lat="44.23384367586772" lon="8.139362793628864"><ele>686.0</ele><time>2026-04-17T10:24:45.001Z</time></trkpt><trkpt lat="44.23385624103595" lon="8.139125757656066"><ele>686.0</ele><time>2026-04-17T10:24:46.001Z</time></trkpt><trkpt lat="44.233870071316" lon="8.138892263737672"><ele>686.0</ele><time>2026-04-17T10:24:47.001Z</time></trkpt><trkpt lat="44.233880935855154" lon="8.138661017858887"><ele>685.6666666666666</ele><time>2026-04-17T10:24:48.001Z</time></trkpt><trkpt lat="44.2338940602831" lon="8.13843594725165"><ele>685.3333333333334</ele><time>2026-04-17T10:24:49.001Z</time></trkpt><trkpt lat="44.23391079314312" lon="8.138212122881216"><ele>685.0</ele><time>2026-04-17T10:24:50.001Z</time></trkpt><trkpt lat="44.23392142962837" lon="8.137996287987"><ele>684.3333333333334</ele><time>2026-04-17T10:24:51.001Z</time></trkpt><trkpt lat="44.23393080322953" lon="8.137770592269968"><ele>683.6666666666666</ele><time>2026-04-17T10:24:52.001Z</time></trkpt><trkpt lat="44.233939766168945" lon="8.137541013657952"><ele>683.0</ele><time>2026-04-17T10:24:53.001Z</time></trkpt><trkpt lat="44.233954735985584" lon="8.1373146036834"><ele>683.0</ele><time>2026-04-17T10:24:54.003Z</time></trkpt><trkpt lat="44.233971644590106" lon="8.13707879420007"><ele>683.0</ele><time>2026-04-17T10:24:55.003Z</time></trkpt><trkpt lat="44.233986988669606" lon="8.136822479747636"><ele>683.0</ele><time>2026-04-17T10:24:56.003Z</time></trkpt><trkpt lat="44.23399672593437" lon="8.136568330508542"><ele>681.6666666666666</ele><time>2026-04-17T10:24:57.003Z</time></trkpt><trkpt lat="44.23401113923983" lon="8.136333244446375"><ele>680.3333333333334</ele><time>2026-04-17T10:24:58.002Z</time></trkpt><trkpt lat="44.23403545434697" lon="8.136106919359149"><ele>679.0</ele><time>2026-04-17T10:24:59.002Z</time></trkpt><trkpt lat="44.23404472246514" lon="8.135915575408237"><ele>679.0</ele><time>2026-04-17T10:25:00.002Z</time></trkpt><trkpt lat="44.23405835684395" lon="8.135723388885111"><ele>679.0</ele><time>2026-04-17T10:25:01.002Z</time></trkpt><trkpt lat="44.23407644492154" lon="8.135539116659796"><ele>679.0</ele><time>2026-04-17T10:25:02.001Z</time></trkpt><trkpt lat="44.2340906036127" lon="8.135357052658987"><ele>679.0</ele><time>2026-04-17T10:25:03.001Z</time></trkpt><trkpt lat="44.23410213110721" lon="8.135185497490543"><ele>679.0</ele><time>2026-04-17T10:25:04.001Z</time></trkpt><trkpt lat="44.23411757736627" lon="8.135020363030513"><ele>679.0</ele><time>2026-04-17T10:25:05.001Z</time></trkpt><trkpt lat="44.23412922572898" lon="8.134862425440827"><ele>679.0</ele><time>2026-04-17T10:25:06.001Z</time></trkpt><trkpt lat="44.23413860131468" lon="8.134709600198834"><ele>679.0</ele><time>2026-04-17T10:25:07.001Z</time></trkpt><trkpt lat="44.23414563876926" lon="8.134555475300722"><ele>678.5</ele><time>2026-04-17T10:25:08.001Z</time></trkpt><trkpt lat="44.234150037127435" lon="8.13438489959045"><ele>678.0</ele><time>2026-04-17T10:25:09.001Z</time></trkpt><trkpt lat="44.234163440092466" lon="8.134209485276752"><ele>677.5</ele><time>2026-04-17T10:25:10.001Z</time></trkpt><trkpt lat="44.2342034202554" lon="8.134029071015748"><ele>677.0</ele><time>2026-04-17T10:25:11.001Z</time></trkpt><trkpt lat="44.23425416080072" lon="8.133850880948385"><ele>677.0</ele><time>2026-04-17T10:25:12.001Z</time></trkpt><trkpt lat="44.23429921389687" lon="8.13366873591128"><ele>677.0</ele><time>2026-04-17T10:25:13.001Z</time></trkpt><trkpt lat="44.23434048760342" lon="8.13347923295875"><ele>677.0</ele><time>2026-04-17T10:25:14.001Z</time></trkpt><trkpt lat="44.23438065213021" lon="8.133291418322552"><ele>677.0</ele><time>2026-04-17T10:25:15.001Z</time></trkpt><trkpt lat="44.234402675287065" lon="8.133071546313586"><ele>676.75</ele><time>2026-04-17T10:25:16.001Z</time></trkpt><trkpt lat="44.23443479618085" lon="8.132850181840881"><ele>676.5</ele><time>2026-04-17T10:25:17.001Z</time></trkpt><trkpt lat="44.23446080530225" lon="8.132651752176306"><ele>676.25</ele><time>2026-04-17T10:25:18.001Z</time></trkpt><trkpt lat="44.234484561020906" lon="8.132469938124661"><ele>676.0</ele><time>2026-04-17T10:25:19.001Z</time></trkpt><trkpt lat="44.23451772044467" lon="8.132297514341856"><ele>676.0</ele><time>2026-04-17T10:25:20.001Z</time></trkpt><trkpt lat="44.23456124921766" lon="8.132110988228654"><ele>676.0</ele><time>2026-04-17T10:25:21.001Z</time></trkpt><trkpt lat="44.23461017691619" lon="8.131935893237296"><ele>676.0</ele><time>2026-04-17T10:25:22.001Z</time></trkpt><trkpt lat="44.234659155878795" lon="8.131762193417517"><ele>676.0</ele><time>2026-04-17T10:25:23.001Z</time></trkpt><trkpt lat="44.234703639810995" lon="8.13159286041536"><ele>675.25</ele><time>2026-04-17T10:25:24.001Z</time></trkpt><trkpt lat="44.23474538017242" lon="8.131428515883885"><ele>674.5</ele><time>2026-04-17T10:25:25.001Z</time></trkpt><trkpt lat="44.23478385643745" lon="8.131268294873719"><ele>673.75</ele><time>2026-04-17T10:25:26.001Z</time></trkpt><trkpt lat="44.2348199147356" lon="8.131111821179557"><ele>673.0</ele><time>2026-04-17T10:25:27.001Z</time></trkpt><trkpt lat="44.23486128906312" lon="8.13094949877272"><ele>672.5</ele><time>2026-04-17T10:25:28.001Z</time></trkpt><trkpt lat="44.23490780373227" lon="8.130777547373347"><ele>672.0</ele><time>2026-04-17T10:25:29.001Z</time></trkpt><trkpt lat="44.23495774967882" lon="8.130603566751518"><ele>671.5</ele><time>2026-04-17T10:25:30.001Z</time></trkpt><trkpt lat="44.235006037079174" lon="8.130431659247236"><ele>671.0</ele><time>2026-04-17T10:25:31Z</time></trkpt><trkpt lat="44.23504693227805" lon="8.130258419502598"><ele>671.0</ele><time>2026-04-17T10:25:32Z</time></trkpt><trkpt lat="44.235077152908104" lon="8.130078178466539"><ele>671.0</ele><time>2026-04-17T10:25:33Z</time></trkpt><trkpt lat="44.23507203104311" lon="8.129888342129014"><ele>671.0</ele><time>2026-04-17T10:25:34Z</time></trkpt><trkpt lat="44.23504026185545" lon="8.129689501436355"><ele>671.0</ele><time>2026-04-17T10:25:35Z</time></trkpt><trkpt lat="44.235000673617684" lon="8.129483542349298"><ele>670.75</ele><time>2026-04-17T10:25:36Z</time></trkpt><trkpt lat="44.234964635919304" lon="8.1292804570038"><ele>670.5</ele><time>2026-04-17T10:25:37Z</time></trkpt><trkpt lat="44.234938218125436" lon="8.129082428149413"><ele>670.25</ele><time>2026-04-17T10:25:38Z</time></trkpt><trkpt lat="44.2349121456423" lon="8.128899014066153"><ele>670.0</ele><time>2026-04-17T10:25:39Z</time></trkpt><trkpt lat="44.234885891746245" lon="8.1287184071496"><ele>670.0</ele><time>2026-04-17T10:25:40Z</time></trkpt><trkpt lat="44.234861947694526" lon="8.128546092259132"><ele>670.0</ele><time>2026-04-17T10:25:41Z</time></trkpt><trkpt lat="44.234838924680595" lon="8.128373084058754"><ele>670.0</ele><time>2026-04-17T10:25:42Z</time></trkpt><trkpt lat="44.23481744320184" lon="8.12820694627323"><ele>670.0</ele><time>2026-04-17T10:25:43Z</time></trkpt><trkpt lat="44.23479464985585" lon="8.128044390205652"><ele>670.25</ele><time>2026-04-17T10:25:44Z</time></trkpt><trkpt lat="44.23477454667924" lon="8.127882652527477"><ele>670.5</ele><time>2026-04-17T10:25:45Z</time></trkpt><trkpt lat="44.234753232977994" lon="8.127725406650082"><ele>670.75</ele><time>2026-04-17T10:25:46Z</time></trkpt><trkpt lat="44.234726844111115" lon="8.127565748819665"><ele>671.0</ele><time>2026-04-17T10:25:47Z</time></trkpt><trkpt lat="44.23470290965315" lon="8.127400056822593"><ele>671.25</ele><time>2026-04-17T10:25:48Z</time></trkpt><trkpt lat="44.23467904553595" lon="8.127236998467822"><ele>671.5</ele><time>2026-04-17T10:25:49Z</time></trkpt><trkpt lat="44.234658393925905" lon="8.127072499333165"><ele>671.75</ele><time>2026-04-17T10:25:50Z</time></trkpt><trkpt lat="44.23463695603086" lon="8.126915900698497"><ele>672.0</ele><time>2026-04-17T10:25:51Z</time></trkpt><trkpt lat="44.234616087340406" lon="8.126757010724372"><ele>672.0</ele><time>2026-04-17T10:25:52Z</time></trkpt><trkpt lat="44.23459339463233" lon="8.126588051579592"><ele>672.0</ele><time>2026-04-17T10:25:53Z</time></trkpt><trkpt lat="44.23456873502315" lon="8.126426057947395"><ele>672.0</ele><time>2026-04-17T10:25:54Z</time></trkpt><trkpt lat="44.234544889115966" lon="8.126272152575199"><ele>672.0</ele><time>2026-04-17T10:25:55Z</time></trkpt><trkpt lat="44.23452480072203" lon="8.126114620025565"><ele>673.0</ele><time>2026-04-17T10:25:56Z</time></trkpt><trkpt lat="44.23450691699562" lon="8.12594485955021"><ele>674.0</ele><time>2026-04-17T10:25:57Z</time></trkpt><trkpt lat="44.23451060785655" lon="8.125783601852271"><ele>675.0</ele><time>2026-04-17T10:25:58Z</time></trkpt><trkpt lat="44.234529719646815" lon="8.125634758665065"><ele>676.0</ele><time>2026-04-17T10:25:59Z</time></trkpt><trkpt lat="44.23458015977753" lon="8.125494532041477"><ele>676.5</ele><time>2026-04-17T10:26:00Z</time></trkpt><trkpt lat="44.234650679321796" lon="8.125351470589221"><ele>677.0</ele><time>2026-04-17T10:26:01Z</time></trkpt><trkpt lat="44.23475576633997" lon="8.125212736659662"><ele>677.5</ele><time>2026-04-17T10:26:02Z</time></trkpt><trkpt lat="44.234872991869445" lon="8.125079154318948"><ele>678.0</ele><time>2026-04-17T10:26:03Z</time></trkpt><trkpt lat="44.23499456323911" lon="8.124944211268533"><ele>676.75</ele><time>2026-04-17T10:26:04Z</time></trkpt><trkpt lat="44.23510233557271" lon="8.124818748611712"><ele>675.5</ele><time>2026-04-17T10:26:05Z</time></trkpt><trkpt lat="44.23520117157602" lon="8.124698333727636"><ele>674.25</ele><time>2026-04-17T10:26:06Z</time></trkpt><trkpt lat="44.23528609237569" lon="8.12457880315155"><ele>673.0</ele><time>2026-04-17T10:26:07Z</time></trkpt><trkpt lat="44.23535898556104" lon="8.124451872708928"><ele>673.0</ele><time>2026-04-17T10:26:08Z</time></trkpt><trkpt lat="44.235419417447346" lon="8.12431455514551"><ele>673.0</ele><time>2026-04-17T10:26:09Z</time></trkpt><trkpt lat="44.23546890037108" lon="8.124145166563123"><ele>673.0</ele><time>2026-04-17T10:26:10Z</time></trkpt><trkpt lat="44.23550512617511" lon="8.123924700617405"><ele>673.0</ele><time>2026-04-17T10:26:11Z</time></trkpt><trkpt lat="44.235550104390924" lon="8.123711100147556"><ele>674.0</ele><time>2026-04-17T10:26:12Z</time></trkpt><trkpt lat="44.23559400888589" lon="8.123502513641782"><ele>675.0</ele><time>2026-04-17T10:26:13Z</time></trkpt><trkpt lat="44.235635230143316" lon="8.123300416239456"><ele>676.0</ele><time>2026-04-17T10:26:14Z</time></trkpt><trkpt lat="44.235675255036675" lon="8.12311597286699"><ele>677.0</ele><time>2026-04-17T10:26:15Z</time></trkpt><trkpt lat="44.23571110205539" lon="8.122936643248089"><ele>673.25</ele><time>2026-04-17T10:26:16Z</time></trkpt><trkpt lat="44.23574852718123" lon="8.122763407069108"><ele>669.5</ele><time>2026-04-17T10:26:17Z</time></trkpt><trkpt lat="44.2357820491425" lon="8.122600923553854"><ele>665.75</ele><time>2026-04-17T10:26:18Z</time></trkpt><trkpt lat="44.23581508945132" lon="8.122441266794247"><ele>662.0</ele><time>2026-04-17T10:26:19Z</time></trkpt><trkpt lat="44.23585597899965" lon="8.122280544903392"><ele>662.0</ele><time>2026-04-17T10:26:20Z</time></trkpt><trkpt lat="44.235890178128855" lon="8.12212469191082"><ele>662.0</ele><time>2026-04-17T10:26:21Z</time></trkpt><trkpt lat="44.235922783869185" lon="8.121970393459533"><ele>662.0</ele><time>2026-04-17T10:26:22Z</time></trkpt><trkpt lat="44.235963000510786" lon="8.121815502251032"><ele>662.0</ele><time>2026-04-17T10:26:23Z</time></trkpt><trkpt lat="44.236007153783255" lon="8.121652573301514"><ele>661.75</ele><time>2026-04-17T10:26:24Z</time></trkpt><trkpt lat="44.236044669376476" lon="8.121477565604387"><ele>661.5</ele><time>2026-04-17T10:26:25Z</time></trkpt><trkpt lat="44.236076493539905" lon="8.121292081389484"><ele>661.25</ele><time>2026-04-17T10:26:26Z</time></trkpt><trkpt lat="44.23609983218418" lon="8.121098003908765"><ele>661.0</ele><time>2026-04-17T10:26:27Z</time></trkpt><trkpt lat="44.23610191992702" lon="8.120890462742034"><ele>658.6666666666667</ele><time>2026-04-17T10:26:28Z</time></trkpt><trkpt lat="44.236095479329435" lon="8.120657715431063"><ele>656.3333333333334</ele><time>2026-04-17T10:26:29Z</time></trkpt><trkpt lat="44.23609457705222" lon="8.120409890088439"><ele>654.0</ele><time>2026-04-17T10:26:30Z</time></trkpt><trkpt lat="44.23609917439274" lon="8.120184390247775"><ele>654.0</ele><time>2026-04-17T10:26:31Z</time></trkpt><trkpt lat="44.23610444202104" lon="8.119967470978779"><ele>654.0</ele><time>2026-04-17T10:26:32Z</time></trkpt><trkpt lat="44.23610713382873" lon="8.119743747805613"><ele>654.0</ele><time>2026-04-17T10:26:33Z</time></trkpt><trkpt lat="44.23611525498905" lon="8.119526286885117"><ele>653.25</ele><time>2026-04-17T10:26:34Z</time></trkpt><trkpt lat="44.23612471278661" lon="8.119307632195728"><ele>652.5</ele><time>2026-04-17T10:26:35Z</time></trkpt><trkpt lat="44.236129396739614" lon="8.119100805957032"><ele>651.75</ele><time>2026-04-17T10:26:36Z</time></trkpt><trkpt lat="44.2361364529313" lon="8.118906465537908"><ele>651.0</ele><time>2026-04-17T10:26:37Z</time></trkpt><trkpt lat="44.23614603556381" lon="8.118718366424432"><ele>651.0</ele><time>2026-04-17T10:26:38Z</time></trkpt><trkpt lat="44.236150654774306" lon="8.118536804071526"><ele>651.0</ele><time>2026-04-17T10:26:39Z</time></trkpt><trkpt lat="44.23617981843814" lon="8.118365509261539"><ele>651.0</ele><time>2026-04-17T10:26:40Z</time></trkpt><trkpt lat="44.23621162458324" lon="8.118209414385218"><ele>651.0</ele><time>2026-04-17T10:26:41Z</time></trkpt><trkpt lat="44.23626962961657" lon="8.118077187778097"><ele>650.5</ele><time>2026-04-17T10:26:42Z</time></trkpt><trkpt lat="44.23632370372843" lon="8.117927440482369"><ele>650.0</ele><time>2026-04-17T10:26:43Z</time></trkpt><trkpt lat="44.236366654000605" lon="8.117762853104153"><ele>649.5</ele><time>2026-04-17T10:26:44Z</time></trkpt><trkpt lat="44.23642454351497" lon="8.117613313944114"><ele>649.0</ele><time>2026-04-17T10:26:45Z</time></trkpt><trkpt lat="44.23648055040435" lon="8.117469841168091"><ele>648.4000000000001</ele><time>2026-04-17T10:26:46Z</time></trkpt><trkpt lat="44.236528552034486" lon="8.117344817264158"><ele>647.8</ele><time>2026-04-17T10:26:47Z</time></trkpt><trkpt lat="44.23657188869613" lon="8.117214331703964"><ele>647.2</ele><time>2026-04-17T10:26:48Z</time></trkpt><trkpt lat="44.23662180480294" lon="8.11709820476301"><ele>646.5999999999999</ele><time>2026-04-17T10:26:49Z</time></trkpt><trkpt lat="44.23666958287744" lon="8.116981759423345"><ele>646.0</ele><time>2026-04-17T10:26:50Z</time></trkpt><trkpt lat="44.23670430911824" lon="8.1168720195593"><ele>646.0</ele><time>2026-04-17T10:26:51Z</time></trkpt><trkpt lat="44.23673993628901" lon="8.11676290959826"><ele>646.0</ele><time>2026-04-17T10:26:52Z</time></trkpt><trkpt lat="44.23677290670261" lon="8.116655218479691"><ele>646.0</ele><time>2026-04-17T10:26:53Z</time></trkpt><trkpt lat="44.23681691418303" lon="8.116547531428155"><ele>646.0</ele><time>2026-04-17T10:26:54Z</time></trkpt><trkpt lat="44.23686070317245" lon="8.116440346295919"><ele>646.0</ele><time>2026-04-17T10:26:55Z</time></trkpt><trkpt lat="44.23690722668867" lon="8.116344913250039"><ele>646.0</ele><time>2026-04-17T10:26:56Z</time></trkpt><trkpt lat="44.23695037485703" lon="8.116264568163865"><ele>645.5</ele><time>2026-04-17T10:26:57Z</time></trkpt><trkpt lat="44.23699948761639" lon="8.116108452715167"><ele>645.0</ele><time>2026-04-17T10:26:59Z</time></trkpt><trkpt lat="44.23697088810413" lon="8.115969240161126"><ele>644.5</ele><time>2026-04-17T10:27:01.001Z</time></trkpt><trkpt lat="44.23690945127492" lon="8.115939178819039"><ele>644.0</ele><time>2026-04-17T10:27:02.001Z</time></trkpt><trkpt lat="44.23684354959237" lon="8.115915631395985"><ele>643.5</ele><time>2026-04-17T10:27:03.001Z</time></trkpt><trkpt lat="44.23677852853833" lon="8.115866507464558"><ele>643.0</ele><time>2026-04-17T10:27:04.001Z</time></trkpt><trkpt lat="44.2367347172532" lon="8.115791182618606"><ele>643.3333333333334</ele><time>2026-04-17T10:27:05.001Z</time></trkpt><trkpt lat="44.23671051852051" lon="8.115702919645786"><ele>643.6666666666667</ele><time>2026-04-17T10:27:06.001Z</time></trkpt><trkpt lat="44.23667822274622" lon="8.115539034056491"><ele>644.0</ele><time>2026-04-17T10:27:08.001Z</time></trkpt><trkpt lat="44.23665701307691" lon="8.115448460586979"><ele>644.3333333333334</ele><time>2026-04-17T10:27:09.001Z</time></trkpt><trkpt lat="44.2366323992725" lon="8.115365053118962"><ele>644.6666666666666</ele><time>2026-04-17T10:27:10.001Z</time></trkpt><trkpt lat="44.236594736800704" lon="8.11521193616653"><ele>645.0</ele><time>2026-04-17T10:27:12.001Z</time></trkpt><trkpt lat="44.23656440271029" lon="8.1150326329104"><ele>645.0</ele><time>2026-04-17T10:27:14.001Z</time></trkpt><trkpt lat="44.23653823385785" lon="8.114914646247453"><ele>645.0</ele><time>2026-04-17T10:27:15.001Z</time></trkpt><trkpt lat="44.23651427474113" lon="8.114796135938596"><ele>645.0</ele><time>2026-04-17T10:27:16.001Z</time></trkpt><trkpt lat="44.23649393080379" lon="8.114684678839295"><ele>645.0</ele><time>2026-04-17T10:27:17.001Z</time></trkpt><trkpt lat="44.23647197943081" lon="8.114584519383653"><ele>645.0</ele><time>2026-04-17T10:27:18.001Z</time></trkpt><trkpt lat="44.23645486147929" lon="8.114483359537065"><ele>645.0</ele><time>2026-04-17T10:27:19.001Z</time></trkpt><trkpt lat="44.23645279794126" lon="8.114389619843745"><ele>645.8</ele><time>2026-04-17T10:27:20.001Z</time></trkpt><trkpt lat="44.23647944018994" lon="8.114213368940568"><ele>646.6</ele><time>2026-04-17T10:27:22.001Z</time></trkpt><trkpt lat="44.23653164470813" lon="8.114117968273552"><ele>647.4000000000001</ele><time>2026-04-17T10:27:23.001Z</time></trkpt><trkpt lat="44.236608488879085" lon="8.114015715311442"><ele>648.2</ele><time>2026-04-17T10:27:24.001Z</time></trkpt><trkpt lat="44.236672964938606" lon="8.113926957323221"><ele>649.0</ele><time>2026-04-17T10:27:25Z</time></trkpt><trkpt lat="44.23672162600951" lon="8.113847195052122"><ele>651.0</ele><time>2026-04-17T10:27:26Z</time></trkpt><trkpt lat="44.236772082877366" lon="8.113778669744832"><ele>653.0</ele><time>2026-04-17T10:27:27Z</time></trkpt><trkpt lat="44.236819306540816" lon="8.113711109278437"><ele>655.0</ele><time>2026-04-17T10:27:28Z</time></trkpt><trkpt lat="44.236876075357536" lon="8.113636627363839"><ele>657.0</ele><time>2026-04-17T10:27:29Z</time></trkpt><trkpt lat="44.23694249633029" lon="8.11355322169915"><ele>659.0</ele><time>2026-04-17T10:27:30Z</time></trkpt><trkpt lat="44.23701242335821" lon="8.113463849982333"><ele>661.0</ele><time>2026-04-17T10:27:31Z</time></trkpt><trkpt lat="44.23707618977059" lon="8.113386088116757"><ele>661.0</ele><time>2026-04-17T10:27:32Z</time></trkpt><trkpt lat="44.23714297257384" lon="8.113306229483076"><ele>661.0</ele><time>2026-04-17T10:27:33Z</time></trkpt><trkpt lat="44.23721992116513" lon="8.113209381784023"><ele>661.0</ele><time>2026-04-17T10:27:34Z</time></trkpt><trkpt lat="44.237299978871974" lon="8.113125033003172"><ele>661.0</ele><time>2026-04-17T10:27:35Z</time></trkpt><trkpt lat="44.23736199779536" lon="8.113043745333508"><ele>661.0</ele><time>2026-04-17T10:27:36Z</time></trkpt><trkpt lat="44.237432579527834" lon="8.112965064162962"><ele>660.8</ele><time>2026-04-17T10:27:37Z</time></trkpt><trkpt lat="44.23751058014427" lon="8.112872207640605"><ele>660.5999999999999</ele><time>2026-04-17T10:27:38Z</time></trkpt><trkpt lat="44.23759463943771" lon="8.11277071017012"><ele>660.4</ele><time>2026-04-17T10:27:39Z</time></trkpt><trkpt lat="44.23767498003556" lon="8.112671482991885"><ele>660.2</ele><time>2026-04-17T10:27:40Z</time></trkpt><trkpt lat="44.23774636875301" lon="8.11258471466693"><ele>660.0</ele><time>2026-04-17T10:27:41Z</time></trkpt><trkpt lat="44.23781571913576" lon="8.112502833836752"><ele>663.6</ele><time>2026-04-17T10:27:42Z</time></trkpt><trkpt lat="44.237883646021004" lon="8.112395044666664"><ele>667.2</ele><time>2026-04-17T10:27:43Z</time></trkpt><trkpt lat="44.23794019281574" lon="8.11225706829487"><ele>670.8</ele><time>2026-04-17T10:27:44Z</time></trkpt><trkpt lat="44.23798241406387" lon="8.112113081054256"><ele>674.4</ele><time>2026-04-17T10:27:45Z</time></trkpt><trkpt lat="44.23802113300664" lon="8.111982231070623"><ele>678.0</ele><time>2026-04-17T10:27:46Z</time></trkpt><trkpt lat="44.23806637208861" lon="8.111860001189152"><ele>678.0</ele><time>2026-04-17T10:27:47Z</time></trkpt><trkpt lat="44.23810041241523" lon="8.11174842946415"><ele>678.0</ele><time>2026-04-17T10:27:48Z</time></trkpt><trkpt lat="44.238141280173664" lon="8.11165086245192"><ele>678.0</ele><time>2026-04-17T10:27:49Z</time></trkpt><trkpt lat="44.238201966135485" lon="8.111579544750644"><ele>678.0</ele><time>2026-04-17T10:27:50Z</time></trkpt><trkpt lat="44.23828710313686" lon="8.111543666985314"><ele>678.0</ele><time>2026-04-17T10:27:51Z</time></trkpt><trkpt lat="44.23837959736628" lon="8.111531165651312"><ele>678.0</ele><time>2026-04-17T10:27:52Z</time></trkpt><trkpt lat="44.23847211437236" lon="8.111553124052358"><ele>672.2</ele><time>2026-04-17T10:27:53Z</time></trkpt><trkpt lat="44.238549728694935" lon="8.111592265399194"><ele>666.4</ele><time>2026-04-17T10:27:54Z</time></trkpt><trkpt lat="44.23861950755252" lon="8.111608223744321"><ele>660.6</ele><time>2026-04-17T10:27:55Z</time></trkpt><trkpt lat="44.23873389352064" lon="8.11164866782976"><ele>654.8000000000001</ele><time>2026-04-17T10:27:57Z</time></trkpt><trkpt lat="44.238833312346934" lon="8.111688824505235"><ele>649.0</ele><time>2026-04-17T10:27:59Z</time></trkpt><trkpt lat="44.238875967399515" lon="8.111545597979681"><ele>649.0</ele><time>2026-04-17T10:28:02Z</time></trkpt><trkpt lat="44.23883586520015" lon="8.11137024156476"><ele>649.0</ele><time>2026-04-17T10:28:04Z</time></trkpt><trkpt lat="44.23880731683147" lon="8.11125296439985"><ele>649.0</ele><time>2026-04-17T10:28:05Z</time></trkpt><trkpt lat="44.23879088377062" lon="8.111145028037399"><ele>649.0</ele><time>2026-04-17T10:28:06Z</time></trkpt><trkpt lat="44.23878220851483" lon="8.111056997378839"><ele>649.0</ele><time>2026-04-17T10:28:07Z</time></trkpt><trkpt lat="44.23876673970985" lon="8.110962682102294"><ele>649.0</ele><time>2026-04-17T10:28:08Z</time></trkpt><trkpt lat="44.238755387195866" lon="8.110871815460818"><ele>649.3333333333334</ele><time>2026-04-17T10:28:09Z</time></trkpt><trkpt lat="44.238738656026115" lon="8.110729154584394"><ele>649.6666666666667</ele><time>2026-04-17T10:28:11Z</time></trkpt><trkpt lat="44.238756080204645" lon="8.110621349871284"><ele>650.0</ele><time>2026-04-17T10:28:13Z</time></trkpt><trkpt lat="44.23881975346934" lon="8.110522338129478"><ele>650.3333333333334</ele><time>2026-04-17T10:28:15Z</time></trkpt><trkpt lat="44.23890172595098" lon="8.11046244988059"><ele>650.6666666666666</ele><time>2026-04-17T10:28:17Z</time></trkpt><trkpt lat="44.238966315971716" lon="8.110423207773472"><ele>651.0</ele><time>2026-04-17T10:28:19Z</time></trkpt><trkpt lat="44.23903794568859" lon="8.11039540552386"><ele>653.0</ele><time>2026-04-17T10:28:21Z</time></trkpt><trkpt lat="44.23910162498527" lon="8.110366885969729"><ele>653.0</ele><time>2026-04-17T10:28:24Z</time></trkpt><trkpt lat="44.23918407568171" lon="8.110326358343691"><ele>653.0</ele><time>2026-04-17T10:28:27Z</time></trkpt></trkseg></trk></gpx>